<?xml version="1.0" encoding="UTF-8" standalone="no" ?>
<gpx xmlns="http://www.topografix.com/GPX/1/1" xmlns:xsi="http://www.w3.org/2001/XMLSchema-instance" xsi:schemaLocation="http://www.topografix.com/GPX/1/1 http://www.topografix.com/GPX/1/1/gpx.xsd" version="1.1" creator="VisuGPX - https://www.visugpx.com">
  <metadata>
    <name>BC 2026-08-26 Jujurieux</name>
    <desc><![CDATA[Départ de Jujurieux
Points de passage : Sur le Ville, Sous Chêne, Cossieux, Le Roche Noire, Le Mont de Varey, Varey, Séchelon]]></desc>
  </metadata>
  <trk>
    <name><![CDATA[Jujurieux Randonnée]]></name>
    <extensions>
      <line xmlns="http://www.topografix.com/GPX/gpx_style/0/2">
        <color>0000FF</color>
        <width>4</width>
      </line>
    </extensions>
    <trkseg>
      <trkpt lat="46.03968" lon="5.40675">
        <ele>287.79998779297</ele>
        <time>2026-08-26T09:50:09.000Z</time>
      </trkpt>
      <trkpt lat="46.03968" lon="5.40676">
        <ele>287.79998779297</ele>
        <time>2026-08-26T09:50:10.000Z</time>
      </trkpt>
      <trkpt lat="46.0397" lon="5.40676">
        <ele>288</ele>
        <time>2026-08-26T09:50:14.000Z</time>
      </trkpt>
      <trkpt lat="46.0397" lon="5.40675">
        <ele>288</ele>
        <time>2026-08-26T09:50:15.000Z</time>
      </trkpt>
      <trkpt lat="46.03969" lon="5.40672">
        <ele>287.79998779297</ele>
        <time>2026-08-26T09:50:22.000Z</time>
      </trkpt>
      <trkpt lat="46.03969" lon="5.40671">
        <ele>287.79998779297</ele>
        <time>2026-08-26T09:50:25.000Z</time>
      </trkpt>
      <trkpt lat="46.03969" lon="5.40671">
        <ele>287.79998779297</ele>
        <time>2026-08-26T09:50:26.000Z</time>
      </trkpt>
      <trkpt lat="46.03969" lon="5.40671">
        <ele>287.79998779297</ele>
        <time>2026-08-26T09:50:27.000Z</time>
      </trkpt>
      <trkpt lat="46.03969" lon="5.40671">
        <ele>287.79998779297</ele>
        <time>2026-08-26T09:50:34.000Z</time>
      </trkpt>
      <trkpt lat="46.03969" lon="5.40671">
        <ele>287.79998779297</ele>
        <time>2026-08-26T09:50:50.000Z</time>
      </trkpt>
      <trkpt lat="46.03969" lon="5.40671">
        <ele>288</ele>
        <time>2026-08-26T09:51:07.000Z</time>
      </trkpt>
      <trkpt lat="46.03969" lon="5.40673">
        <ele>288</ele>
        <time>2026-08-26T09:51:23.000Z</time>
      </trkpt>
      <trkpt lat="46.03968" lon="5.40674">
        <ele>288</ele>
        <time>2026-08-26T09:51:29.000Z</time>
      </trkpt>
      <trkpt lat="46.03968" lon="5.40674">
        <ele>287.79998779297</ele>
        <time>2026-08-26T09:51:40.000Z</time>
      </trkpt>
      <trkpt lat="46.03966" lon="5.40669">
        <ele>287.60000610352</ele>
        <time>2026-08-26T09:51:46.000Z</time>
      </trkpt>
      <trkpt lat="46.0396" lon="5.40669">
        <ele>287.60000610352</ele>
        <time>2026-08-26T09:51:52.000Z</time>
      </trkpt>
      <trkpt lat="46.03956" lon="5.4067">
        <ele>287.60000610352</ele>
        <time>2026-08-26T09:51:56.000Z</time>
      </trkpt>
      <trkpt lat="46.03953" lon="5.40673">
        <ele>287.60000610352</ele>
        <time>2026-08-26T09:51:59.000Z</time>
      </trkpt>
      <trkpt lat="46.03952" lon="5.40675">
        <ele>287.60000610352</ele>
        <time>2026-08-26T09:52:00.000Z</time>
      </trkpt>
      <trkpt lat="46.03948" lon="5.40679">
        <ele>287.39999389648</ele>
        <time>2026-08-26T09:52:04.000Z</time>
      </trkpt>
      <trkpt lat="46.03944" lon="5.40683">
        <ele>287.60000610352</ele>
        <time>2026-08-26T09:52:07.000Z</time>
      </trkpt>
      <trkpt lat="46.0394" lon="5.40685">
        <ele>287.79998779297</ele>
        <time>2026-08-26T09:52:11.000Z</time>
      </trkpt>
      <trkpt lat="46.03938" lon="5.40685">
        <ele>287.79998779297</ele>
        <time>2026-08-26T09:52:13.000Z</time>
      </trkpt>
      <trkpt lat="46.03935" lon="5.40684">
        <ele>287.79998779297</ele>
        <time>2026-08-26T09:52:15.000Z</time>
      </trkpt>
      <trkpt lat="46.03925" lon="5.40687">
        <ele>287.60000610352</ele>
        <time>2026-08-26T09:52:25.000Z</time>
      </trkpt>
      <trkpt lat="46.03922" lon="5.40699">
        <ele>287.79998779297</ele>
        <time>2026-08-26T09:52:33.000Z</time>
      </trkpt>
      <trkpt lat="46.03922" lon="5.407">
        <ele>287.79998779297</ele>
        <time>2026-08-26T09:52:34.000Z</time>
      </trkpt>
      <trkpt lat="46.03923" lon="5.40702">
        <ele>287.79998779297</ele>
        <time>2026-08-26T09:52:35.000Z</time>
      </trkpt>
      <trkpt lat="46.03923" lon="5.40704">
        <ele>288</ele>
        <time>2026-08-26T09:52:36.000Z</time>
      </trkpt>
      <trkpt lat="46.03922" lon="5.40707">
        <ele>288.20001220703</ele>
        <time>2026-08-26T09:52:40.000Z</time>
      </trkpt>
      <trkpt lat="46.03921" lon="5.40708">
        <ele>288.20001220703</ele>
        <time>2026-08-26T09:52:42.000Z</time>
      </trkpt>
      <trkpt lat="46.03921" lon="5.40708">
        <ele>288.39999389648</ele>
        <time>2026-08-26T09:52:43.000Z</time>
      </trkpt>
      <trkpt lat="46.0392" lon="5.40709">
        <ele>288.39999389648</ele>
        <time>2026-08-26T09:52:44.000Z</time>
      </trkpt>
      <trkpt lat="46.03919" lon="5.4071">
        <ele>288.39999389648</ele>
        <time>2026-08-26T09:52:45.000Z</time>
      </trkpt>
      <trkpt lat="46.03919" lon="5.40711">
        <ele>288.60000610352</ele>
        <time>2026-08-26T09:52:46.000Z</time>
      </trkpt>
      <trkpt lat="46.03919" lon="5.40714">
        <ele>288.79998779297</ele>
        <time>2026-08-26T09:52:48.000Z</time>
      </trkpt>
      <trkpt lat="46.03919" lon="5.40715">
        <ele>289</ele>
        <time>2026-08-26T09:52:49.000Z</time>
      </trkpt>
      <trkpt lat="46.03921" lon="5.4073">
        <ele>289.39999389648</ele>
        <time>2026-08-26T09:52:57.000Z</time>
      </trkpt>
      <trkpt lat="46.03921" lon="5.40737">
        <ele>290</ele>
        <time>2026-08-26T09:53:01.000Z</time>
      </trkpt>
      <trkpt lat="46.03922" lon="5.40745">
        <ele>290.60000610352</ele>
        <time>2026-08-26T09:53:06.000Z</time>
      </trkpt>
      <trkpt lat="46.03924" lon="5.40753">
        <ele>291</ele>
        <time>2026-08-26T09:53:10.000Z</time>
      </trkpt>
      <trkpt lat="46.03924" lon="5.40759">
        <ele>291.20001220703</ele>
        <time>2026-08-26T09:53:13.000Z</time>
      </trkpt>
      <trkpt lat="46.03926" lon="5.4077">
        <ele>292</ele>
        <time>2026-08-26T09:53:19.000Z</time>
      </trkpt>
      <trkpt lat="46.03927" lon="5.40774">
        <ele>292.20001220703</ele>
        <time>2026-08-26T09:53:21.000Z</time>
      </trkpt>
      <trkpt lat="46.0393" lon="5.40786">
        <ele>293</ele>
        <time>2026-08-26T09:53:28.000Z</time>
      </trkpt>
      <trkpt lat="46.0393" lon="5.40788">
        <ele>293.20001220703</ele>
        <time>2026-08-26T09:53:30.000Z</time>
      </trkpt>
      <trkpt lat="46.03932" lon="5.40793">
        <ele>293.60000610352</ele>
        <time>2026-08-26T09:53:33.000Z</time>
      </trkpt>
      <trkpt lat="46.03934" lon="5.408">
        <ele>294</ele>
        <time>2026-08-26T09:53:37.000Z</time>
      </trkpt>
      <trkpt lat="46.03934" lon="5.40801">
        <ele>294.20001220703</ele>
        <time>2026-08-26T09:53:38.000Z</time>
      </trkpt>
      <trkpt lat="46.03936" lon="5.40802">
        <ele>294.39999389648</ele>
        <time>2026-08-26T09:53:45.000Z</time>
      </trkpt>
      <trkpt lat="46.03937" lon="5.40808">
        <ele>294.60000610352</ele>
        <time>2026-08-26T09:53:52.000Z</time>
      </trkpt>
      <trkpt lat="46.03939" lon="5.40809">
        <ele>294.79998779297</ele>
        <time>2026-08-26T09:53:56.000Z</time>
      </trkpt>
      <trkpt lat="46.03939" lon="5.40809">
        <ele>295</ele>
        <time>2026-08-26T09:54:00.000Z</time>
      </trkpt>
      <trkpt lat="46.03943" lon="5.40808">
        <ele>295.20001220703</ele>
        <time>2026-08-26T09:54:04.000Z</time>
      </trkpt>
      <trkpt lat="46.03946" lon="5.40807">
        <ele>295.39999389648</ele>
        <time>2026-08-26T09:54:07.000Z</time>
      </trkpt>
      <trkpt lat="46.03953" lon="5.40808">
        <ele>295</ele>
        <time>2026-08-26T09:54:12.000Z</time>
      </trkpt>
      <trkpt lat="46.03954" lon="5.40808">
        <ele>295</ele>
        <time>2026-08-26T09:54:13.000Z</time>
      </trkpt>
      <trkpt lat="46.03963" lon="5.40815">
        <ele>296</ele>
        <time>2026-08-26T09:54:22.000Z</time>
      </trkpt>
      <trkpt lat="46.03968" lon="5.40819">
        <ele>296.20001220703</ele>
        <time>2026-08-26T09:54:26.000Z</time>
      </trkpt>
      <trkpt lat="46.03973" lon="5.40822">
        <ele>296.79998779297</ele>
        <time>2026-08-26T09:54:30.000Z</time>
      </trkpt>
      <trkpt lat="46.03978" lon="5.40825">
        <ele>297.20001220703</ele>
        <time>2026-08-26T09:54:34.000Z</time>
      </trkpt>
      <trkpt lat="46.0398" lon="5.40825">
        <ele>297.20001220703</ele>
        <time>2026-08-26T09:54:35.000Z</time>
      </trkpt>
      <trkpt lat="46.03985" lon="5.40827">
        <ele>297.60000610352</ele>
        <time>2026-08-26T09:54:38.000Z</time>
      </trkpt>
      <trkpt lat="46.0399" lon="5.40829">
        <ele>298</ele>
        <time>2026-08-26T09:54:42.000Z</time>
      </trkpt>
      <trkpt lat="46.03993" lon="5.4083">
        <ele>298.39999389648</ele>
        <time>2026-08-26T09:54:44.000Z</time>
      </trkpt>
      <trkpt lat="46.03994" lon="5.4083">
        <ele>298.39999389648</ele>
        <time>2026-08-26T09:54:45.000Z</time>
      </trkpt>
      <trkpt lat="46.03999" lon="5.40832">
        <ele>298.79998779297</ele>
        <time>2026-08-26T09:54:49.000Z</time>
      </trkpt>
      <trkpt lat="46.04004" lon="5.40835">
        <ele>299.39999389648</ele>
        <time>2026-08-26T09:54:53.000Z</time>
      </trkpt>
      <trkpt lat="46.04007" lon="5.40835">
        <ele>299.60000610352</ele>
        <time>2026-08-26T09:54:55.000Z</time>
      </trkpt>
      <trkpt lat="46.04015" lon="5.40839">
        <ele>300.39999389648</ele>
        <time>2026-08-26T09:55:01.000Z</time>
      </trkpt>
      <trkpt lat="46.04022" lon="5.40844">
        <ele>301.20001220703</ele>
        <time>2026-08-26T09:55:07.000Z</time>
      </trkpt>
      <trkpt lat="46.04024" lon="5.40845">
        <ele>301.60000610352</ele>
        <time>2026-08-26T09:55:09.000Z</time>
      </trkpt>
      <trkpt lat="46.04033" lon="5.40852">
        <ele>302.60000610352</ele>
        <time>2026-08-26T09:55:16.000Z</time>
      </trkpt>
      <trkpt lat="46.04035" lon="5.40863">
        <ele>303.60000610352</ele>
        <time>2026-08-26T09:55:24.000Z</time>
      </trkpt>
      <trkpt lat="46.04035" lon="5.40864">
        <ele>303.60000610352</ele>
        <time>2026-08-26T09:55:25.000Z</time>
      </trkpt>
      <trkpt lat="46.04038" lon="5.40871">
        <ele>304.79998779297</ele>
        <time>2026-08-26T09:55:31.000Z</time>
      </trkpt>
      <trkpt lat="46.04039" lon="5.40872">
        <ele>305</ele>
        <time>2026-08-26T09:55:32.000Z</time>
      </trkpt>
      <trkpt lat="46.0404" lon="5.4088">
        <ele>305.79998779297</ele>
        <time>2026-08-26T09:55:37.000Z</time>
      </trkpt>
      <trkpt lat="46.0404" lon="5.40884">
        <ele>306.20001220703</ele>
        <time>2026-08-26T09:55:39.000Z</time>
      </trkpt>
      <trkpt lat="46.04039" lon="5.4089">
        <ele>306.79998779297</ele>
        <time>2026-08-26T09:55:43.000Z</time>
      </trkpt>
      <trkpt lat="46.0404" lon="5.40895">
        <ele>307.20001220703</ele>
        <time>2026-08-26T09:55:46.000Z</time>
      </trkpt>
      <trkpt lat="46.04039" lon="5.40904">
        <ele>308</ele>
        <time>2026-08-26T09:55:50.000Z</time>
      </trkpt>
      <trkpt lat="46.0404" lon="5.40908">
        <ele>308.39999389648</ele>
        <time>2026-08-26T09:55:52.000Z</time>
      </trkpt>
      <trkpt lat="46.04042" lon="5.40911">
        <ele>309</ele>
        <time>2026-08-26T09:55:56.000Z</time>
      </trkpt>
      <trkpt lat="46.04044" lon="5.4091">
        <ele>309.20001220703</ele>
        <time>2026-08-26T09:55:57.000Z</time>
      </trkpt>
      <trkpt lat="46.04049" lon="5.40912">
        <ele>309.39999389648</ele>
        <time>2026-08-26T09:56:01.000Z</time>
      </trkpt>
      <trkpt lat="46.04052" lon="5.40913">
        <ele>309.60000610352</ele>
        <time>2026-08-26T09:56:04.000Z</time>
      </trkpt>
      <trkpt lat="46.04053" lon="5.40914">
        <ele>309.60000610352</ele>
        <time>2026-08-26T09:56:05.000Z</time>
      </trkpt>
      <trkpt lat="46.04055" lon="5.40923">
        <ele>310</ele>
        <time>2026-08-26T09:56:11.000Z</time>
      </trkpt>
      <trkpt lat="46.04056" lon="5.40932">
        <ele>310.39999389648</ele>
        <time>2026-08-26T09:56:15.000Z</time>
      </trkpt>
      <trkpt lat="46.04057" lon="5.40945">
        <ele>311</ele>
        <time>2026-08-26T09:56:20.000Z</time>
      </trkpt>
      <trkpt lat="46.0406" lon="5.40951">
        <ele>311.39999389648</ele>
        <time>2026-08-26T09:56:24.000Z</time>
      </trkpt>
      <trkpt lat="46.04064" lon="5.40953">
        <ele>311.79998779297</ele>
        <time>2026-08-26T09:56:27.000Z</time>
      </trkpt>
      <trkpt lat="46.04073" lon="5.40958">
        <ele>312.39999389648</ele>
        <time>2026-08-26T09:56:34.000Z</time>
      </trkpt>
      <trkpt lat="46.04075" lon="5.40958">
        <ele>312.60000610352</ele>
        <time>2026-08-26T09:56:35.000Z</time>
      </trkpt>
      <trkpt lat="46.04081" lon="5.40958">
        <ele>313.20001220703</ele>
        <time>2026-08-26T09:56:42.000Z</time>
      </trkpt>
      <trkpt lat="46.04088" lon="5.4096">
        <ele>313.60000610352</ele>
        <time>2026-08-26T09:56:48.000Z</time>
      </trkpt>
      <trkpt lat="46.0409" lon="5.40962">
        <ele>313.60000610352</ele>
        <time>2026-08-26T09:56:51.000Z</time>
      </trkpt>
      <trkpt lat="46.04097" lon="5.40971">
        <ele>314</ele>
        <time>2026-08-26T09:56:59.000Z</time>
      </trkpt>
      <trkpt lat="46.04101" lon="5.4098">
        <ele>314.39999389648</ele>
        <time>2026-08-26T09:57:03.000Z</time>
      </trkpt>
      <trkpt lat="46.04102" lon="5.40985">
        <ele>314.39999389648</ele>
        <time>2026-08-26T09:57:05.000Z</time>
      </trkpt>
      <trkpt lat="46.04101" lon="5.4099">
        <ele>314.79998779297</ele>
        <time>2026-08-26T09:57:08.000Z</time>
      </trkpt>
      <trkpt lat="46.04101" lon="5.41">
        <ele>315.39999389648</ele>
        <time>2026-08-26T09:57:13.000Z</time>
      </trkpt>
      <trkpt lat="46.04099" lon="5.4101">
        <ele>315.79998779297</ele>
        <time>2026-08-26T09:57:18.000Z</time>
      </trkpt>
      <trkpt lat="46.04097" lon="5.41015">
        <ele>316.20001220703</ele>
        <time>2026-08-26T09:57:20.000Z</time>
      </trkpt>
      <trkpt lat="46.04094" lon="5.41026">
        <ele>316.79998779297</ele>
        <time>2026-08-26T09:57:26.000Z</time>
      </trkpt>
      <trkpt lat="46.04094" lon="5.41029">
        <ele>317</ele>
        <time>2026-08-26T09:57:27.000Z</time>
      </trkpt>
      <trkpt lat="46.04092" lon="5.41039">
        <ele>317.79998779297</ele>
        <time>2026-08-26T09:57:32.000Z</time>
      </trkpt>
      <trkpt lat="46.04092" lon="5.41042">
        <ele>318</ele>
        <time>2026-08-26T09:57:34.000Z</time>
      </trkpt>
      <trkpt lat="46.04092" lon="5.41044">
        <ele>318.20001220703</ele>
        <time>2026-08-26T09:57:35.000Z</time>
      </trkpt>
      <trkpt lat="46.04093" lon="5.41046">
        <ele>318.39999389648</ele>
        <time>2026-08-26T09:57:37.000Z</time>
      </trkpt>
      <trkpt lat="46.04097" lon="5.4105">
        <ele>319</ele>
        <time>2026-08-26T09:57:41.000Z</time>
      </trkpt>
      <trkpt lat="46.04098" lon="5.41051">
        <ele>319.20001220703</ele>
        <time>2026-08-26T09:57:42.000Z</time>
      </trkpt>
      <trkpt lat="46.04103" lon="5.41055">
        <ele>319.79998779297</ele>
        <time>2026-08-26T09:57:46.000Z</time>
      </trkpt>
      <trkpt lat="46.04104" lon="5.41058">
        <ele>320</ele>
        <time>2026-08-26T09:57:48.000Z</time>
      </trkpt>
      <trkpt lat="46.04105" lon="5.41061">
        <ele>320.39999389648</ele>
        <time>2026-08-26T09:57:50.000Z</time>
      </trkpt>
      <trkpt lat="46.04105" lon="5.41071">
        <ele>321.20001220703</ele>
        <time>2026-08-26T09:57:54.000Z</time>
      </trkpt>
      <trkpt lat="46.04104" lon="5.41074">
        <ele>321.39999389648</ele>
        <time>2026-08-26T09:57:56.000Z</time>
      </trkpt>
      <trkpt lat="46.04102" lon="5.41082">
        <ele>322.20001220703</ele>
        <time>2026-08-26T09:58:00.000Z</time>
      </trkpt>
      <trkpt lat="46.041" lon="5.41091">
        <ele>323</ele>
        <time>2026-08-26T09:58:05.000Z</time>
      </trkpt>
      <trkpt lat="46.041" lon="5.41095">
        <ele>323.39999389648</ele>
        <time>2026-08-26T09:58:07.000Z</time>
      </trkpt>
      <trkpt lat="46.04098" lon="5.41106">
        <ele>324.20001220703</ele>
        <time>2026-08-26T09:58:13.000Z</time>
      </trkpt>
      <trkpt lat="46.04097" lon="5.41107">
        <ele>324.39999389648</ele>
        <time>2026-08-26T09:58:14.000Z</time>
      </trkpt>
      <trkpt lat="46.04095" lon="5.41122">
        <ele>325.39999389648</ele>
        <time>2026-08-26T09:58:21.000Z</time>
      </trkpt>
      <trkpt lat="46.04093" lon="5.41132">
        <ele>326.39999389648</ele>
        <time>2026-08-26T09:58:28.000Z</time>
      </trkpt>
      <trkpt lat="46.04093" lon="5.41136">
        <ele>326.79998779297</ele>
        <time>2026-08-26T09:58:30.000Z</time>
      </trkpt>
      <trkpt lat="46.04093" lon="5.41142">
        <ele>327.60000610352</ele>
        <time>2026-08-26T09:58:34.000Z</time>
      </trkpt>
      <trkpt lat="46.04094" lon="5.41149">
        <ele>328.39999389648</ele>
        <time>2026-08-26T09:58:38.000Z</time>
      </trkpt>
      <trkpt lat="46.04095" lon="5.41153">
        <ele>328.60000610352</ele>
        <time>2026-08-26T09:58:40.000Z</time>
      </trkpt>
      <trkpt lat="46.04099" lon="5.41163">
        <ele>329.60000610352</ele>
        <time>2026-08-26T09:58:46.000Z</time>
      </trkpt>
      <trkpt lat="46.041" lon="5.41164">
        <ele>329.79998779297</ele>
        <time>2026-08-26T09:58:47.000Z</time>
      </trkpt>
      <trkpt lat="46.04104" lon="5.4117">
        <ele>330.79998779297</ele>
        <time>2026-08-26T09:58:53.000Z</time>
      </trkpt>
      <trkpt lat="46.04106" lon="5.41172">
        <ele>331.20001220703</ele>
        <time>2026-08-26T09:58:56.000Z</time>
      </trkpt>
      <trkpt lat="46.04108" lon="5.41175">
        <ele>331.60000610352</ele>
        <time>2026-08-26T09:58:58.000Z</time>
      </trkpt>
      <trkpt lat="46.0411" lon="5.41177">
        <ele>332</ele>
        <time>2026-08-26T09:59:00.000Z</time>
      </trkpt>
      <trkpt lat="46.04114" lon="5.41183">
        <ele>333</ele>
        <time>2026-08-26T09:59:07.000Z</time>
      </trkpt>
      <trkpt lat="46.04115" lon="5.41184">
        <ele>333.20001220703</ele>
        <time>2026-08-26T09:59:08.000Z</time>
      </trkpt>
      <trkpt lat="46.04118" lon="5.41188">
        <ele>334.20001220703</ele>
        <time>2026-08-26T09:59:12.000Z</time>
      </trkpt>
      <trkpt lat="46.04124" lon="5.41197">
        <ele>335.20001220703</ele>
        <time>2026-08-26T09:59:19.000Z</time>
      </trkpt>
      <trkpt lat="46.0413" lon="5.41204">
        <ele>336.20001220703</ele>
        <time>2026-08-26T09:59:26.000Z</time>
      </trkpt>
      <trkpt lat="46.04133" lon="5.41209">
        <ele>336.79998779297</ele>
        <time>2026-08-26T09:59:30.000Z</time>
      </trkpt>
      <trkpt lat="46.04135" lon="5.41213">
        <ele>337.39999389648</ele>
        <time>2026-08-26T09:59:33.000Z</time>
      </trkpt>
      <trkpt lat="46.0414" lon="5.41223">
        <ele>338.39999389648</ele>
        <time>2026-08-26T09:59:40.000Z</time>
      </trkpt>
      <trkpt lat="46.04141" lon="5.41224">
        <ele>338.60000610352</ele>
        <time>2026-08-26T09:59:41.000Z</time>
      </trkpt>
      <trkpt lat="46.04145" lon="5.41234">
        <ele>339.39999389648</ele>
        <time>2026-08-26T09:59:48.000Z</time>
      </trkpt>
      <trkpt lat="46.04145" lon="5.41237">
        <ele>339.79998779297</ele>
        <time>2026-08-26T09:59:50.000Z</time>
      </trkpt>
      <trkpt lat="46.04146" lon="5.41239">
        <ele>340</ele>
        <time>2026-08-26T09:59:55.000Z</time>
      </trkpt>
      <trkpt lat="46.04145" lon="5.41245">
        <ele>340.20001220703</ele>
        <time>2026-08-26T10:00:06.000Z</time>
      </trkpt>
      <trkpt lat="46.04143" lon="5.41247">
        <ele>340.60000610352</ele>
        <time>2026-08-26T10:00:08.000Z</time>
      </trkpt>
      <trkpt lat="46.04139" lon="5.4125">
        <ele>341.20001220703</ele>
        <time>2026-08-26T10:00:11.000Z</time>
      </trkpt>
      <trkpt lat="46.04138" lon="5.41251">
        <ele>341.39999389648</ele>
        <time>2026-08-26T10:00:12.000Z</time>
      </trkpt>
      <trkpt lat="46.04136" lon="5.41252">
        <ele>341.60000610352</ele>
        <time>2026-08-26T10:00:13.000Z</time>
      </trkpt>
      <trkpt lat="46.04135" lon="5.41253">
        <ele>341.79998779297</ele>
        <time>2026-08-26T10:00:14.000Z</time>
      </trkpt>
      <trkpt lat="46.04133" lon="5.41254">
        <ele>342</ele>
        <time>2026-08-26T10:00:15.000Z</time>
      </trkpt>
      <trkpt lat="46.04131" lon="5.41258">
        <ele>342.79998779297</ele>
        <time>2026-08-26T10:00:20.000Z</time>
      </trkpt>
      <trkpt lat="46.04133" lon="5.41261">
        <ele>343.20001220703</ele>
        <time>2026-08-26T10:00:23.000Z</time>
      </trkpt>
      <trkpt lat="46.04133" lon="5.41266">
        <ele>344</ele>
        <time>2026-08-26T10:00:27.000Z</time>
      </trkpt>
      <trkpt lat="46.04135" lon="5.41273">
        <ele>344.79998779297</ele>
        <time>2026-08-26T10:00:31.000Z</time>
      </trkpt>
      <trkpt lat="46.04135" lon="5.41274">
        <ele>345</ele>
        <time>2026-08-26T10:00:32.000Z</time>
      </trkpt>
      <trkpt lat="46.04136" lon="5.41283">
        <ele>346.20001220703</ele>
        <time>2026-08-26T10:00:37.000Z</time>
      </trkpt>
      <trkpt lat="46.04138" lon="5.41288">
        <ele>346.60000610352</ele>
        <time>2026-08-26T10:00:40.000Z</time>
      </trkpt>
      <trkpt lat="46.04139" lon="5.41293">
        <ele>347.39999389648</ele>
        <time>2026-08-26T10:00:43.000Z</time>
      </trkpt>
      <trkpt lat="46.04141" lon="5.41298">
        <ele>348.39999389648</ele>
        <time>2026-08-26T10:00:48.000Z</time>
      </trkpt>
      <trkpt lat="46.04141" lon="5.41299">
        <ele>348.60000610352</ele>
        <time>2026-08-26T10:00:49.000Z</time>
      </trkpt>
      <trkpt lat="46.04142" lon="5.41307">
        <ele>349.60000610352</ele>
        <time>2026-08-26T10:00:55.000Z</time>
      </trkpt>
      <trkpt lat="46.04143" lon="5.41309">
        <ele>350</ele>
        <time>2026-08-26T10:00:57.000Z</time>
      </trkpt>
      <trkpt lat="46.04143" lon="5.41312">
        <ele>350.79998779297</ele>
        <time>2026-08-26T10:01:00.000Z</time>
      </trkpt>
      <trkpt lat="46.04145" lon="5.41317">
        <ele>351.79998779297</ele>
        <time>2026-08-26T10:01:05.000Z</time>
      </trkpt>
      <trkpt lat="46.04144" lon="5.41322">
        <ele>353</ele>
        <time>2026-08-26T10:01:11.000Z</time>
      </trkpt>
      <trkpt lat="46.04145" lon="5.41323">
        <ele>353.20001220703</ele>
        <time>2026-08-26T10:01:12.000Z</time>
      </trkpt>
      <trkpt lat="46.04145" lon="5.41327">
        <ele>354.20001220703</ele>
        <time>2026-08-26T10:01:16.000Z</time>
      </trkpt>
      <trkpt lat="46.04144" lon="5.41332">
        <ele>355</ele>
        <time>2026-08-26T10:01:20.000Z</time>
      </trkpt>
      <trkpt lat="46.04145" lon="5.41334">
        <ele>355.20001220703</ele>
        <time>2026-08-26T10:01:22.000Z</time>
      </trkpt>
      <trkpt lat="46.04146" lon="5.41339">
        <ele>356.39999389648</ele>
        <time>2026-08-26T10:01:27.000Z</time>
      </trkpt>
      <trkpt lat="46.04146" lon="5.4134">
        <ele>356.60000610352</ele>
        <time>2026-08-26T10:01:28.000Z</time>
      </trkpt>
      <trkpt lat="46.04146" lon="5.41347">
        <ele>357.39999389648</ele>
        <time>2026-08-26T10:01:33.000Z</time>
      </trkpt>
      <trkpt lat="46.04147" lon="5.4135">
        <ele>358</ele>
        <time>2026-08-26T10:01:36.000Z</time>
      </trkpt>
      <trkpt lat="46.04147" lon="5.41352">
        <ele>358.39999389648</ele>
        <time>2026-08-26T10:01:38.000Z</time>
      </trkpt>
      <trkpt lat="46.04147" lon="5.41353">
        <ele>358.60000610352</ele>
        <time>2026-08-26T10:01:39.000Z</time>
      </trkpt>
      <trkpt lat="46.04149" lon="5.41355">
        <ele>359.20001220703</ele>
        <time>2026-08-26T10:01:43.000Z</time>
      </trkpt>
      <trkpt lat="46.04152" lon="5.41356">
        <ele>359.39999389648</ele>
        <time>2026-08-26T10:01:46.000Z</time>
      </trkpt>
      <trkpt lat="46.04153" lon="5.41356">
        <ele>359.60000610352</ele>
        <time>2026-08-26T10:01:47.000Z</time>
      </trkpt>
      <trkpt lat="46.04155" lon="5.41359">
        <ele>359.60000610352</ele>
        <time>2026-08-26T10:01:50.000Z</time>
      </trkpt>
      <trkpt lat="46.04158" lon="5.41364">
        <ele>359.60000610352</ele>
        <time>2026-08-26T10:01:54.000Z</time>
      </trkpt>
      <trkpt lat="46.04159" lon="5.41366">
        <ele>359.60000610352</ele>
        <time>2026-08-26T10:01:55.000Z</time>
      </trkpt>
      <trkpt lat="46.04159" lon="5.41369">
        <ele>359.79998779297</ele>
        <time>2026-08-26T10:01:57.000Z</time>
      </trkpt>
      <trkpt lat="46.04158" lon="5.41372">
        <ele>360.60000610352</ele>
        <time>2026-08-26T10:02:00.000Z</time>
      </trkpt>
      <trkpt lat="46.04157" lon="5.41377">
        <ele>361.20001220703</ele>
        <time>2026-08-26T10:02:03.000Z</time>
      </trkpt>
      <trkpt lat="46.04157" lon="5.41378">
        <ele>361.60000610352</ele>
        <time>2026-08-26T10:02:05.000Z</time>
      </trkpt>
      <trkpt lat="46.04156" lon="5.4138">
        <ele>362</ele>
        <time>2026-08-26T10:02:09.000Z</time>
      </trkpt>
      <trkpt lat="46.04155" lon="5.41382">
        <ele>362.39999389648</ele>
        <time>2026-08-26T10:02:12.000Z</time>
      </trkpt>
      <trkpt lat="46.04155" lon="5.41383">
        <ele>362.60000610352</ele>
        <time>2026-08-26T10:02:13.000Z</time>
      </trkpt>
      <trkpt lat="46.04154" lon="5.41383">
        <ele>362.60000610352</ele>
        <time>2026-08-26T10:02:14.000Z</time>
      </trkpt>
      <trkpt lat="46.04154" lon="5.41384">
        <ele>362.60000610352</ele>
        <time>2026-08-26T10:02:15.000Z</time>
      </trkpt>
      <trkpt lat="46.04154" lon="5.41384">
        <ele>362.60000610352</ele>
        <time>2026-08-26T10:02:16.000Z</time>
      </trkpt>
      <trkpt lat="46.04152" lon="5.41385">
        <ele>362.79998779297</ele>
        <time>2026-08-26T10:02:19.000Z</time>
      </trkpt>
      <trkpt lat="46.0415" lon="5.41386">
        <ele>363.20001220703</ele>
        <time>2026-08-26T10:02:21.000Z</time>
      </trkpt>
      <trkpt lat="46.0415" lon="5.41386">
        <ele>363.39999389648</ele>
        <time>2026-08-26T10:02:22.000Z</time>
      </trkpt>
      <trkpt lat="46.04149" lon="5.41388">
        <ele>363.79998779297</ele>
        <time>2026-08-26T10:02:24.000Z</time>
      </trkpt>
      <trkpt lat="46.04143" lon="5.4139">
        <ele>365</ele>
        <time>2026-08-26T10:02:29.000Z</time>
      </trkpt>
      <trkpt lat="46.04139" lon="5.41392">
        <ele>365.60000610352</ele>
        <time>2026-08-26T10:02:36.000Z</time>
      </trkpt>
      <trkpt lat="46.04134" lon="5.41395">
        <ele>365.79998779297</ele>
        <time>2026-08-26T10:02:46.000Z</time>
      </trkpt>
      <trkpt lat="46.04133" lon="5.41397">
        <ele>365.60000610352</ele>
        <time>2026-08-26T10:02:51.000Z</time>
      </trkpt>
      <trkpt lat="46.04133" lon="5.41398">
        <ele>365.60000610352</ele>
        <time>2026-08-26T10:02:56.000Z</time>
      </trkpt>
      <trkpt lat="46.04132" lon="5.41398">
        <ele>365.60000610352</ele>
        <time>2026-08-26T10:03:00.000Z</time>
      </trkpt>
      <trkpt lat="46.04132" lon="5.41398">
        <ele>365.60000610352</ele>
        <time>2026-08-26T10:03:02.000Z</time>
      </trkpt>
      <trkpt lat="46.04131" lon="5.41398">
        <ele>365.60000610352</ele>
        <time>2026-08-26T10:03:05.000Z</time>
      </trkpt>
      <trkpt lat="46.04131" lon="5.41398">
        <ele>365.60000610352</ele>
        <time>2026-08-26T10:03:07.000Z</time>
      </trkpt>
      <trkpt lat="46.04129" lon="5.41399">
        <ele>365.79998779297</ele>
        <time>2026-08-26T10:03:15.000Z</time>
      </trkpt>
      <trkpt lat="46.04127" lon="5.41399">
        <ele>365.60000610352</ele>
        <time>2026-08-26T10:03:22.000Z</time>
      </trkpt>
      <trkpt lat="46.04127" lon="5.41399">
        <ele>365.60000610352</ele>
        <time>2026-08-26T10:03:24.000Z</time>
      </trkpt>
      <trkpt lat="46.04128" lon="5.41396">
        <ele>365.60000610352</ele>
        <time>2026-08-26T10:03:28.000Z</time>
      </trkpt>
      <trkpt lat="46.04129" lon="5.41396">
        <ele>366</ele>
        <time>2026-08-26T10:03:30.000Z</time>
      </trkpt>
      <trkpt lat="46.0413" lon="5.41397">
        <ele>366.60000610352</ele>
        <time>2026-08-26T10:03:33.000Z</time>
      </trkpt>
      <trkpt lat="46.04129" lon="5.41399">
        <ele>367</ele>
        <time>2026-08-26T10:03:36.000Z</time>
      </trkpt>
      <trkpt lat="46.0413" lon="5.41402">
        <ele>368.20001220703</ele>
        <time>2026-08-26T10:03:40.000Z</time>
      </trkpt>
      <trkpt lat="46.04131" lon="5.41406">
        <ele>369.39999389648</ele>
        <time>2026-08-26T10:03:46.000Z</time>
      </trkpt>
      <trkpt lat="46.04131" lon="5.41407">
        <ele>369.79998779297</ele>
        <time>2026-08-26T10:03:47.000Z</time>
      </trkpt>
      <trkpt lat="46.04131" lon="5.41411">
        <ele>370.39999389648</ele>
        <time>2026-08-26T10:03:49.000Z</time>
      </trkpt>
      <trkpt lat="46.04131" lon="5.41415">
        <ele>371.60000610352</ele>
        <time>2026-08-26T10:03:53.000Z</time>
      </trkpt>
      <trkpt lat="46.04132" lon="5.41416">
        <ele>371.79998779297</ele>
        <time>2026-08-26T10:03:54.000Z</time>
      </trkpt>
      <trkpt lat="46.04134" lon="5.41419">
        <ele>372.60000610352</ele>
        <time>2026-08-26T10:03:58.000Z</time>
      </trkpt>
      <trkpt lat="46.04134" lon="5.41421">
        <ele>373.39999389648</ele>
        <time>2026-08-26T10:04:01.000Z</time>
      </trkpt>
      <trkpt lat="46.04134" lon="5.41424">
        <ele>373.79998779297</ele>
        <time>2026-08-26T10:04:03.000Z</time>
      </trkpt>
      <trkpt lat="46.04135" lon="5.41427">
        <ele>374.60000610352</ele>
        <time>2026-08-26T10:04:07.000Z</time>
      </trkpt>
      <trkpt lat="46.04135" lon="5.41428">
        <ele>374.79998779297</ele>
        <time>2026-08-26T10:04:08.000Z</time>
      </trkpt>
      <trkpt lat="46.04136" lon="5.41432">
        <ele>375.39999389648</ele>
        <time>2026-08-26T10:04:11.000Z</time>
      </trkpt>
      <trkpt lat="46.04137" lon="5.41435">
        <ele>375.79998779297</ele>
        <time>2026-08-26T10:04:13.000Z</time>
      </trkpt>
      <trkpt lat="46.04138" lon="5.41437">
        <ele>376.20001220703</ele>
        <time>2026-08-26T10:04:15.000Z</time>
      </trkpt>
      <trkpt lat="46.04138" lon="5.41438">
        <ele>376.39999389648</ele>
        <time>2026-08-26T10:04:16.000Z</time>
      </trkpt>
      <trkpt lat="46.04139" lon="5.41441">
        <ele>376.79998779297</ele>
        <time>2026-08-26T10:04:19.000Z</time>
      </trkpt>
      <trkpt lat="46.04141" lon="5.41444">
        <ele>377.60000610352</ele>
        <time>2026-08-26T10:04:24.000Z</time>
      </trkpt>
      <trkpt lat="46.04142" lon="5.41445">
        <ele>378</ele>
        <time>2026-08-26T10:04:26.000Z</time>
      </trkpt>
      <trkpt lat="46.04143" lon="5.4145">
        <ele>378.79998779297</ele>
        <time>2026-08-26T10:04:30.000Z</time>
      </trkpt>
      <trkpt lat="46.04143" lon="5.41452">
        <ele>379.20001220703</ele>
        <time>2026-08-26T10:04:32.000Z</time>
      </trkpt>
      <trkpt lat="46.04145" lon="5.41458">
        <ele>380.20001220703</ele>
        <time>2026-08-26T10:04:38.000Z</time>
      </trkpt>
      <trkpt lat="46.04145" lon="5.4146">
        <ele>380.39999389648</ele>
        <time>2026-08-26T10:04:39.000Z</time>
      </trkpt>
      <trkpt lat="46.04146" lon="5.41463">
        <ele>381.39999389648</ele>
        <time>2026-08-26T10:04:44.000Z</time>
      </trkpt>
      <trkpt lat="46.04146" lon="5.41464">
        <ele>381.60000610352</ele>
        <time>2026-08-26T10:04:45.000Z</time>
      </trkpt>
      <trkpt lat="46.04149" lon="5.41468">
        <ele>382.60000610352</ele>
        <time>2026-08-26T10:04:51.000Z</time>
      </trkpt>
      <trkpt lat="46.0415" lon="5.41469">
        <ele>383</ele>
        <time>2026-08-26T10:04:53.000Z</time>
      </trkpt>
      <trkpt lat="46.04152" lon="5.41473">
        <ele>383.60000610352</ele>
        <time>2026-08-26T10:04:57.000Z</time>
      </trkpt>
      <trkpt lat="46.04152" lon="5.41476">
        <ele>384.20001220703</ele>
        <time>2026-08-26T10:05:01.000Z</time>
      </trkpt>
      <trkpt lat="46.04152" lon="5.41476">
        <ele>384.60000610352</ele>
        <time>2026-08-26T10:05:03.000Z</time>
      </trkpt>
      <trkpt lat="46.04155" lon="5.41478">
        <ele>385.20001220703</ele>
        <time>2026-08-26T10:05:09.000Z</time>
      </trkpt>
      <trkpt lat="46.04156" lon="5.4148">
        <ele>385.60000610352</ele>
        <time>2026-08-26T10:05:12.000Z</time>
      </trkpt>
      <trkpt lat="46.04158" lon="5.41485">
        <ele>386.79998779297</ele>
        <time>2026-08-26T10:05:17.000Z</time>
      </trkpt>
      <trkpt lat="46.04159" lon="5.41488">
        <ele>387.79998779297</ele>
        <time>2026-08-26T10:05:21.000Z</time>
      </trkpt>
      <trkpt lat="46.04159" lon="5.4149">
        <ele>388.39999389648</ele>
        <time>2026-08-26T10:05:25.000Z</time>
      </trkpt>
      <trkpt lat="46.0416" lon="5.41491">
        <ele>388.79998779297</ele>
        <time>2026-08-26T10:05:29.000Z</time>
      </trkpt>
      <trkpt lat="46.0416" lon="5.41496">
        <ele>389.60000610352</ele>
        <time>2026-08-26T10:05:35.000Z</time>
      </trkpt>
      <trkpt lat="46.04161" lon="5.41497">
        <ele>390</ele>
        <time>2026-08-26T10:05:38.000Z</time>
      </trkpt>
      <trkpt lat="46.04162" lon="5.41502">
        <ele>390.79998779297</ele>
        <time>2026-08-26T10:05:42.000Z</time>
      </trkpt>
      <trkpt lat="46.04162" lon="5.41503">
        <ele>391</ele>
        <time>2026-08-26T10:05:43.000Z</time>
      </trkpt>
      <trkpt lat="46.04165" lon="5.41506">
        <ele>392.20001220703</ele>
        <time>2026-08-26T10:05:49.000Z</time>
      </trkpt>
      <trkpt lat="46.04164" lon="5.41506">
        <ele>392.20001220703</ele>
        <time>2026-08-26T10:05:50.000Z</time>
      </trkpt>
      <trkpt lat="46.04164" lon="5.41505">
        <ele>392.60000610352</ele>
        <time>2026-08-26T10:05:57.000Z</time>
      </trkpt>
      <trkpt lat="46.04166" lon="5.41508">
        <ele>393.20001220703</ele>
        <time>2026-08-26T10:06:03.000Z</time>
      </trkpt>
      <trkpt lat="46.04166" lon="5.41509">
        <ele>393.60000610352</ele>
        <time>2026-08-26T10:06:04.000Z</time>
      </trkpt>
      <trkpt lat="46.04168" lon="5.41512">
        <ele>394.20001220703</ele>
        <time>2026-08-26T10:06:07.000Z</time>
      </trkpt>
      <trkpt lat="46.04171" lon="5.41518">
        <ele>395.39999389648</ele>
        <time>2026-08-26T10:06:13.000Z</time>
      </trkpt>
      <trkpt lat="46.04172" lon="5.41519">
        <ele>395.60000610352</ele>
        <time>2026-08-26T10:06:14.000Z</time>
      </trkpt>
      <trkpt lat="46.04174" lon="5.41522">
        <ele>396.60000610352</ele>
        <time>2026-08-26T10:06:18.000Z</time>
      </trkpt>
      <trkpt lat="46.04177" lon="5.41526">
        <ele>397.79998779297</ele>
        <time>2026-08-26T10:06:23.000Z</time>
      </trkpt>
      <trkpt lat="46.04179" lon="5.41529">
        <ele>398.79998779297</ele>
        <time>2026-08-26T10:06:29.000Z</time>
      </trkpt>
      <trkpt lat="46.04181" lon="5.41532">
        <ele>399.60000610352</ele>
        <time>2026-08-26T10:06:33.000Z</time>
      </trkpt>
      <trkpt lat="46.04182" lon="5.41533">
        <ele>399.79998779297</ele>
        <time>2026-08-26T10:06:34.000Z</time>
      </trkpt>
      <trkpt lat="46.04184" lon="5.41538">
        <ele>401</ele>
        <time>2026-08-26T10:06:40.000Z</time>
      </trkpt>
      <trkpt lat="46.04185" lon="5.41539">
        <ele>401.39999389648</ele>
        <time>2026-08-26T10:06:42.000Z</time>
      </trkpt>
      <trkpt lat="46.04186" lon="5.41541">
        <ele>402.20001220703</ele>
        <time>2026-08-26T10:06:45.000Z</time>
      </trkpt>
      <trkpt lat="46.04189" lon="5.41545">
        <ele>403.20001220703</ele>
        <time>2026-08-26T10:06:50.000Z</time>
      </trkpt>
      <trkpt lat="46.04191" lon="5.41549">
        <ele>403.79998779297</ele>
        <time>2026-08-26T10:06:53.000Z</time>
      </trkpt>
      <trkpt lat="46.04192" lon="5.41551">
        <ele>404.20001220703</ele>
        <time>2026-08-26T10:06:55.000Z</time>
      </trkpt>
      <trkpt lat="46.04196" lon="5.41555">
        <ele>405.20001220703</ele>
        <time>2026-08-26T10:07:00.000Z</time>
      </trkpt>
      <trkpt lat="46.04197" lon="5.41556">
        <ele>405.39999389648</ele>
        <time>2026-08-26T10:07:01.000Z</time>
      </trkpt>
      <trkpt lat="46.04202" lon="5.41565">
        <ele>405.79998779297</ele>
        <time>2026-08-26T10:07:10.000Z</time>
      </trkpt>
      <trkpt lat="46.04202" lon="5.41578">
        <ele>406</ele>
        <time>2026-08-26T10:07:18.000Z</time>
      </trkpt>
      <trkpt lat="46.04199" lon="5.41581">
        <ele>406.39999389648</ele>
        <time>2026-08-26T10:07:21.000Z</time>
      </trkpt>
      <trkpt lat="46.04199" lon="5.41581">
        <ele>406.39999389648</ele>
        <time>2026-08-26T10:07:22.000Z</time>
      </trkpt>
      <trkpt lat="46.04196" lon="5.41582">
        <ele>406.79998779297</ele>
        <time>2026-08-26T10:07:25.000Z</time>
      </trkpt>
      <trkpt lat="46.04192" lon="5.41581">
        <ele>407</ele>
        <time>2026-08-26T10:07:28.000Z</time>
      </trkpt>
      <trkpt lat="46.04183" lon="5.41577">
        <ele>407.20001220703</ele>
        <time>2026-08-26T10:07:35.000Z</time>
      </trkpt>
      <trkpt lat="46.04177" lon="5.41575">
        <ele>407</ele>
        <time>2026-08-26T10:07:39.000Z</time>
      </trkpt>
      <trkpt lat="46.04172" lon="5.41573">
        <ele>406.79998779297</ele>
        <time>2026-08-26T10:07:43.000Z</time>
      </trkpt>
      <trkpt lat="46.04169" lon="5.41572">
        <ele>406.79998779297</ele>
        <time>2026-08-26T10:07:46.000Z</time>
      </trkpt>
      <trkpt lat="46.04166" lon="5.4157">
        <ele>406.79998779297</ele>
        <time>2026-08-26T10:07:49.000Z</time>
      </trkpt>
      <trkpt lat="46.04157" lon="5.41565">
        <ele>407</ele>
        <time>2026-08-26T10:07:56.000Z</time>
      </trkpt>
      <trkpt lat="46.04151" lon="5.41563">
        <ele>406.60000610352</ele>
        <time>2026-08-26T10:08:03.000Z</time>
      </trkpt>
      <trkpt lat="46.04149" lon="5.41563">
        <ele>406.60000610352</ele>
        <time>2026-08-26T10:08:09.000Z</time>
      </trkpt>
      <trkpt lat="46.04149" lon="5.41563">
        <ele>406.60000610352</ele>
        <time>2026-08-26T10:08:10.000Z</time>
      </trkpt>
      <trkpt lat="46.0415" lon="5.41564">
        <ele>406.60000610352</ele>
        <time>2026-08-26T10:08:12.000Z</time>
      </trkpt>
      <trkpt lat="46.0415" lon="5.41562">
        <ele>406.60000610352</ele>
        <time>2026-08-26T10:08:20.000Z</time>
      </trkpt>
      <trkpt lat="46.04148" lon="5.41569">
        <ele>406.39999389648</ele>
        <time>2026-08-26T10:08:27.000Z</time>
      </trkpt>
      <trkpt lat="46.04146" lon="5.4158">
        <ele>405</ele>
        <time>2026-08-26T10:08:35.000Z</time>
      </trkpt>
      <trkpt lat="46.04145" lon="5.41582">
        <ele>404.79998779297</ele>
        <time>2026-08-26T10:08:36.000Z</time>
      </trkpt>
      <trkpt lat="46.04145" lon="5.41587">
        <ele>404</ele>
        <time>2026-08-26T10:08:40.000Z</time>
      </trkpt>
      <trkpt lat="46.04143" lon="5.41592">
        <ele>403.20001220703</ele>
        <time>2026-08-26T10:08:43.000Z</time>
      </trkpt>
      <trkpt lat="46.04143" lon="5.41594">
        <ele>403</ele>
        <time>2026-08-26T10:08:44.000Z</time>
      </trkpt>
      <trkpt lat="46.04142" lon="5.41604">
        <ele>401.79998779297</ele>
        <time>2026-08-26T10:08:49.000Z</time>
      </trkpt>
      <trkpt lat="46.04141" lon="5.41608">
        <ele>401.20001220703</ele>
        <time>2026-08-26T10:08:51.000Z</time>
      </trkpt>
      <trkpt lat="46.0414" lon="5.41615">
        <ele>400.60000610352</ele>
        <time>2026-08-26T10:08:55.000Z</time>
      </trkpt>
      <trkpt lat="46.0414" lon="5.41623">
        <ele>400.20001220703</ele>
        <time>2026-08-26T10:08:59.000Z</time>
      </trkpt>
      <trkpt lat="46.04137" lon="5.41633">
        <ele>399.79998779297</ele>
        <time>2026-08-26T10:09:04.000Z</time>
      </trkpt>
      <trkpt lat="46.04134" lon="5.41638">
        <ele>399.79998779297</ele>
        <time>2026-08-26T10:09:07.000Z</time>
      </trkpt>
      <trkpt lat="46.04123" lon="5.41645">
        <ele>399.79998779297</ele>
        <time>2026-08-26T10:09:14.000Z</time>
      </trkpt>
      <trkpt lat="46.04114" lon="5.41655">
        <ele>400.20001220703</ele>
        <time>2026-08-26T10:09:23.000Z</time>
      </trkpt>
      <trkpt lat="46.04112" lon="5.41668">
        <ele>400</ele>
        <time>2026-08-26T10:09:31.000Z</time>
      </trkpt>
      <trkpt lat="46.0411" lon="5.41678">
        <ele>400.60000610352</ele>
        <time>2026-08-26T10:09:37.000Z</time>
      </trkpt>
      <trkpt lat="46.04105" lon="5.41692">
        <ele>401.20001220703</ele>
        <time>2026-08-26T10:09:46.000Z</time>
      </trkpt>
      <trkpt lat="46.04104" lon="5.41695">
        <ele>401.39999389648</ele>
        <time>2026-08-26T10:09:48.000Z</time>
      </trkpt>
      <trkpt lat="46.04102" lon="5.417">
        <ele>401.79998779297</ele>
        <time>2026-08-26T10:09:52.000Z</time>
      </trkpt>
      <trkpt lat="46.04099" lon="5.41708">
        <ele>402.20001220703</ele>
        <time>2026-08-26T10:09:59.000Z</time>
      </trkpt>
      <trkpt lat="46.04095" lon="5.41719">
        <ele>402.79998779297</ele>
        <time>2026-08-26T10:10:08.000Z</time>
      </trkpt>
      <trkpt lat="46.04095" lon="5.41721">
        <ele>403</ele>
        <time>2026-08-26T10:10:09.000Z</time>
      </trkpt>
      <trkpt lat="46.04091" lon="5.41734">
        <ele>404</ele>
        <time>2026-08-26T10:10:17.000Z</time>
      </trkpt>
      <trkpt lat="46.04091" lon="5.41736">
        <ele>404</ele>
        <time>2026-08-26T10:10:18.000Z</time>
      </trkpt>
      <trkpt lat="46.0409" lon="5.41739">
        <ele>404.39999389648</ele>
        <time>2026-08-26T10:10:20.000Z</time>
      </trkpt>
      <trkpt lat="46.04088" lon="5.41746">
        <ele>405</ele>
        <time>2026-08-26T10:10:24.000Z</time>
      </trkpt>
      <trkpt lat="46.04087" lon="5.41755">
        <ele>406</ele>
        <time>2026-08-26T10:10:30.000Z</time>
      </trkpt>
      <trkpt lat="46.04086" lon="5.41762">
        <ele>406.60000610352</ele>
        <time>2026-08-26T10:10:34.000Z</time>
      </trkpt>
      <trkpt lat="46.04085" lon="5.41768">
        <ele>407.20001220703</ele>
        <time>2026-08-26T10:10:37.000Z</time>
      </trkpt>
      <trkpt lat="46.04083" lon="5.41782">
        <ele>408.20001220703</ele>
        <time>2026-08-26T10:10:45.000Z</time>
      </trkpt>
      <trkpt lat="46.04083" lon="5.41785">
        <ele>408.60000610352</ele>
        <time>2026-08-26T10:10:47.000Z</time>
      </trkpt>
      <trkpt lat="46.04082" lon="5.41794">
        <ele>409.39999389648</ele>
        <time>2026-08-26T10:10:52.000Z</time>
      </trkpt>
      <trkpt lat="46.04081" lon="5.41803">
        <ele>410.39999389648</ele>
        <time>2026-08-26T10:10:58.000Z</time>
      </trkpt>
      <trkpt lat="46.04081" lon="5.41805">
        <ele>410.60000610352</ele>
        <time>2026-08-26T10:10:59.000Z</time>
      </trkpt>
      <trkpt lat="46.0408" lon="5.4181">
        <ele>411</ele>
        <time>2026-08-26T10:11:02.000Z</time>
      </trkpt>
      <trkpt lat="46.0408" lon="5.41817">
        <ele>411.60000610352</ele>
        <time>2026-08-26T10:11:06.000Z</time>
      </trkpt>
      <trkpt lat="46.04079" lon="5.41826">
        <ele>412.39999389648</ele>
        <time>2026-08-26T10:11:11.000Z</time>
      </trkpt>
      <trkpt lat="46.04079" lon="5.4183">
        <ele>412.60000610352</ele>
        <time>2026-08-26T10:11:13.000Z</time>
      </trkpt>
      <trkpt lat="46.04077" lon="5.41839">
        <ele>413.79998779297</ele>
        <time>2026-08-26T10:11:20.000Z</time>
      </trkpt>
      <trkpt lat="46.04077" lon="5.41842">
        <ele>414</ele>
        <time>2026-08-26T10:11:22.000Z</time>
      </trkpt>
      <trkpt lat="46.04076" lon="5.41848">
        <ele>414.79998779297</ele>
        <time>2026-08-26T10:11:26.000Z</time>
      </trkpt>
      <trkpt lat="46.04077" lon="5.41856">
        <ele>415.79998779297</ele>
        <time>2026-08-26T10:11:31.000Z</time>
      </trkpt>
      <trkpt lat="46.04077" lon="5.41857">
        <ele>415.79998779297</ele>
        <time>2026-08-26T10:11:32.000Z</time>
      </trkpt>
      <trkpt lat="46.04077" lon="5.4187">
        <ele>416.79998779297</ele>
        <time>2026-08-26T10:11:39.000Z</time>
      </trkpt>
      <trkpt lat="46.04078" lon="5.41873">
        <ele>417</ele>
        <time>2026-08-26T10:11:41.000Z</time>
      </trkpt>
      <trkpt lat="46.0408" lon="5.41887">
        <ele>418</ele>
        <time>2026-08-26T10:11:50.000Z</time>
      </trkpt>
      <trkpt lat="46.04081" lon="5.41904">
        <ele>419</ele>
        <time>2026-08-26T10:11:59.000Z</time>
      </trkpt>
      <trkpt lat="46.04081" lon="5.41907">
        <ele>419.20001220703</ele>
        <time>2026-08-26T10:12:01.000Z</time>
      </trkpt>
      <trkpt lat="46.0408" lon="5.41921">
        <ele>420.20001220703</ele>
        <time>2026-08-26T10:12:09.000Z</time>
      </trkpt>
      <trkpt lat="46.0408" lon="5.41926">
        <ele>420.60000610352</ele>
        <time>2026-08-26T10:12:12.000Z</time>
      </trkpt>
      <trkpt lat="46.04079" lon="5.41936">
        <ele>421.20001220703</ele>
        <time>2026-08-26T10:12:17.000Z</time>
      </trkpt>
      <trkpt lat="46.04078" lon="5.41943">
        <ele>422</ele>
        <time>2026-08-26T10:12:22.000Z</time>
      </trkpt>
      <trkpt lat="46.04077" lon="5.41947">
        <ele>422.39999389648</ele>
        <time>2026-08-26T10:12:24.000Z</time>
      </trkpt>
      <trkpt lat="46.04076" lon="5.41961">
        <ele>423</ele>
        <time>2026-08-26T10:12:32.000Z</time>
      </trkpt>
      <trkpt lat="46.04075" lon="5.41964">
        <ele>423.39999389648</ele>
        <time>2026-08-26T10:12:34.000Z</time>
      </trkpt>
      <trkpt lat="46.04073" lon="5.41978">
        <ele>424.39999389648</ele>
        <time>2026-08-26T10:12:42.000Z</time>
      </trkpt>
      <trkpt lat="46.04072" lon="5.41993">
        <ele>425.60000610352</ele>
        <time>2026-08-26T10:12:50.000Z</time>
      </trkpt>
      <trkpt lat="46.04072" lon="5.42002">
        <ele>426.20001220703</ele>
        <time>2026-08-26T10:12:55.000Z</time>
      </trkpt>
      <trkpt lat="46.04072" lon="5.42008">
        <ele>426.60000610352</ele>
        <time>2026-08-26T10:12:58.000Z</time>
      </trkpt>
      <trkpt lat="46.04071" lon="5.42017">
        <ele>427.79998779297</ele>
        <time>2026-08-26T10:13:04.000Z</time>
      </trkpt>
      <trkpt lat="46.04071" lon="5.42019">
        <ele>428</ele>
        <time>2026-08-26T10:13:05.000Z</time>
      </trkpt>
      <trkpt lat="46.0407" lon="5.4203">
        <ele>428.79998779297</ele>
        <time>2026-08-26T10:13:11.000Z</time>
      </trkpt>
      <trkpt lat="46.0407" lon="5.42042">
        <ele>429.79998779297</ele>
        <time>2026-08-26T10:13:18.000Z</time>
      </trkpt>
      <trkpt lat="46.0407" lon="5.42044">
        <ele>430</ele>
        <time>2026-08-26T10:13:19.000Z</time>
      </trkpt>
      <trkpt lat="46.04068" lon="5.42053">
        <ele>430.79998779297</ele>
        <time>2026-08-26T10:13:25.000Z</time>
      </trkpt>
      <trkpt lat="46.04066" lon="5.42056">
        <ele>431</ele>
        <time>2026-08-26T10:13:27.000Z</time>
      </trkpt>
      <trkpt lat="46.04066" lon="5.42058">
        <ele>431</ele>
        <time>2026-08-26T10:13:28.000Z</time>
      </trkpt>
      <trkpt lat="46.04062" lon="5.42073">
        <ele>431.60000610352</ele>
        <time>2026-08-26T10:13:37.000Z</time>
      </trkpt>
      <trkpt lat="46.04057" lon="5.42095">
        <ele>432</ele>
        <time>2026-08-26T10:13:49.000Z</time>
      </trkpt>
      <trkpt lat="46.04056" lon="5.42097">
        <ele>432.20001220703</ele>
        <time>2026-08-26T10:13:50.000Z</time>
      </trkpt>
      <trkpt lat="46.04053" lon="5.4211">
        <ele>432</ele>
        <time>2026-08-26T10:13:58.000Z</time>
      </trkpt>
      <trkpt lat="46.0405" lon="5.42123">
        <ele>431.20001220703</ele>
        <time>2026-08-26T10:14:06.000Z</time>
      </trkpt>
      <trkpt lat="46.04049" lon="5.42125">
        <ele>431</ele>
        <time>2026-08-26T10:14:07.000Z</time>
      </trkpt>
      <trkpt lat="46.04044" lon="5.4214">
        <ele>431</ele>
        <time>2026-08-26T10:14:16.000Z</time>
      </trkpt>
      <trkpt lat="46.04042" lon="5.4215">
        <ele>431.39999389648</ele>
        <time>2026-08-26T10:14:21.000Z</time>
      </trkpt>
      <trkpt lat="46.04039" lon="5.42157">
        <ele>431.60000610352</ele>
        <time>2026-08-26T10:14:25.000Z</time>
      </trkpt>
      <trkpt lat="46.04039" lon="5.42162">
        <ele>432.20001220703</ele>
        <time>2026-08-26T10:14:28.000Z</time>
      </trkpt>
      <trkpt lat="46.04036" lon="5.42169">
        <ele>433.39999389648</ele>
        <time>2026-08-26T10:14:33.000Z</time>
      </trkpt>
      <trkpt lat="46.04035" lon="5.42172">
        <ele>433.79998779297</ele>
        <time>2026-08-26T10:14:35.000Z</time>
      </trkpt>
      <trkpt lat="46.04032" lon="5.42179">
        <ele>434.60000610352</ele>
        <time>2026-08-26T10:14:40.000Z</time>
      </trkpt>
      <trkpt lat="46.04028" lon="5.42187">
        <ele>435.20001220703</ele>
        <time>2026-08-26T10:14:46.000Z</time>
      </trkpt>
      <trkpt lat="46.04025" lon="5.42192">
        <ele>435.60000610352</ele>
        <time>2026-08-26T10:14:49.000Z</time>
      </trkpt>
      <trkpt lat="46.04023" lon="5.42197">
        <ele>436.60000610352</ele>
        <time>2026-08-26T10:14:56.000Z</time>
      </trkpt>
      <trkpt lat="46.04024" lon="5.42196">
        <ele>436.60000610352</ele>
        <time>2026-08-26T10:15:00.000Z</time>
      </trkpt>
      <trkpt lat="46.04024" lon="5.42197">
        <ele>436.60000610352</ele>
        <time>2026-08-26T10:15:04.000Z</time>
      </trkpt>
      <trkpt lat="46.04024" lon="5.42197">
        <ele>436.60000610352</ele>
        <time>2026-08-26T10:15:05.000Z</time>
      </trkpt>
      <trkpt lat="46.04024" lon="5.42197">
        <ele>436.60000610352</ele>
        <time>2026-08-26T10:15:06.000Z</time>
      </trkpt>
      <trkpt lat="46.04024" lon="5.42202">
        <ele>437.20001220703</ele>
        <time>2026-08-26T10:15:12.000Z</time>
      </trkpt>
      <trkpt lat="46.04024" lon="5.42204">
        <ele>437.79998779297</ele>
        <time>2026-08-26T10:15:15.000Z</time>
      </trkpt>
      <trkpt lat="46.04025" lon="5.42212">
        <ele>438.79998779297</ele>
        <time>2026-08-26T10:15:20.000Z</time>
      </trkpt>
      <trkpt lat="46.04025" lon="5.42215">
        <ele>439</ele>
        <time>2026-08-26T10:15:22.000Z</time>
      </trkpt>
      <trkpt lat="46.04025" lon="5.42218">
        <ele>440</ele>
        <time>2026-08-26T10:15:25.000Z</time>
      </trkpt>
      <trkpt lat="46.04026" lon="5.42221">
        <ele>440.60000610352</ele>
        <time>2026-08-26T10:15:27.000Z</time>
      </trkpt>
      <trkpt lat="46.04028" lon="5.42225">
        <ele>441.20001220703</ele>
        <time>2026-08-26T10:15:30.000Z</time>
      </trkpt>
      <trkpt lat="46.04029" lon="5.42228">
        <ele>441.60000610352</ele>
        <time>2026-08-26T10:15:32.000Z</time>
      </trkpt>
      <trkpt lat="46.0403" lon="5.42229">
        <ele>441.79998779297</ele>
        <time>2026-08-26T10:15:34.000Z</time>
      </trkpt>
      <trkpt lat="46.04031" lon="5.42233">
        <ele>442.20001220703</ele>
        <time>2026-08-26T10:15:36.000Z</time>
      </trkpt>
      <trkpt lat="46.04033" lon="5.4224">
        <ele>443</ele>
        <time>2026-08-26T10:15:40.000Z</time>
      </trkpt>
      <trkpt lat="46.04034" lon="5.42242">
        <ele>443.20001220703</ele>
        <time>2026-08-26T10:15:42.000Z</time>
      </trkpt>
      <trkpt lat="46.04036" lon="5.42246">
        <ele>443.79998779297</ele>
        <time>2026-08-26T10:15:45.000Z</time>
      </trkpt>
      <trkpt lat="46.04036" lon="5.42249">
        <ele>444.39999389648</ele>
        <time>2026-08-26T10:15:48.000Z</time>
      </trkpt>
      <trkpt lat="46.04037" lon="5.42251">
        <ele>444.79998779297</ele>
        <time>2026-08-26T10:15:50.000Z</time>
      </trkpt>
      <trkpt lat="46.04039" lon="5.42255">
        <ele>445.60000610352</ele>
        <time>2026-08-26T10:15:53.000Z</time>
      </trkpt>
      <trkpt lat="46.04041" lon="5.42262">
        <ele>446.60000610352</ele>
        <time>2026-08-26T10:15:58.000Z</time>
      </trkpt>
      <trkpt lat="46.04044" lon="5.42267">
        <ele>447.39999389648</ele>
        <time>2026-08-26T10:16:02.000Z</time>
      </trkpt>
      <trkpt lat="46.04045" lon="5.42269">
        <ele>447.79998779297</ele>
        <time>2026-08-26T10:16:04.000Z</time>
      </trkpt>
      <trkpt lat="46.04045" lon="5.4227">
        <ele>448</ele>
        <time>2026-08-26T10:16:05.000Z</time>
      </trkpt>
      <trkpt lat="46.04048" lon="5.42273">
        <ele>448.79998779297</ele>
        <time>2026-08-26T10:16:09.000Z</time>
      </trkpt>
      <trkpt lat="46.0405" lon="5.42278">
        <ele>449.39999389648</ele>
        <time>2026-08-26T10:16:12.000Z</time>
      </trkpt>
      <trkpt lat="46.04052" lon="5.4228">
        <ele>450</ele>
        <time>2026-08-26T10:16:14.000Z</time>
      </trkpt>
      <trkpt lat="46.04053" lon="5.42283">
        <ele>450.39999389648</ele>
        <time>2026-08-26T10:16:17.000Z</time>
      </trkpt>
      <trkpt lat="46.04055" lon="5.42286">
        <ele>450.79998779297</ele>
        <time>2026-08-26T10:16:20.000Z</time>
      </trkpt>
      <trkpt lat="46.04056" lon="5.42288">
        <ele>451</ele>
        <time>2026-08-26T10:16:22.000Z</time>
      </trkpt>
      <trkpt lat="46.0406" lon="5.42295">
        <ele>451.79998779297</ele>
        <time>2026-08-26T10:16:27.000Z</time>
      </trkpt>
      <trkpt lat="46.04061" lon="5.42297">
        <ele>452</ele>
        <time>2026-08-26T10:16:28.000Z</time>
      </trkpt>
      <trkpt lat="46.04061" lon="5.42299">
        <ele>452.20001220703</ele>
        <time>2026-08-26T10:16:29.000Z</time>
      </trkpt>
      <trkpt lat="46.04062" lon="5.42301">
        <ele>452.60000610352</ele>
        <time>2026-08-26T10:16:31.000Z</time>
      </trkpt>
      <trkpt lat="46.04065" lon="5.42307">
        <ele>453.20001220703</ele>
        <time>2026-08-26T10:16:35.000Z</time>
      </trkpt>
      <trkpt lat="46.04065" lon="5.42308">
        <ele>453.39999389648</ele>
        <time>2026-08-26T10:16:36.000Z</time>
      </trkpt>
      <trkpt lat="46.04067" lon="5.42314">
        <ele>454.39999389648</ele>
        <time>2026-08-26T10:16:41.000Z</time>
      </trkpt>
      <trkpt lat="46.04068" lon="5.42316">
        <ele>454.79998779297</ele>
        <time>2026-08-26T10:16:43.000Z</time>
      </trkpt>
      <trkpt lat="46.04069" lon="5.4232">
        <ele>455.60000610352</ele>
        <time>2026-08-26T10:16:46.000Z</time>
      </trkpt>
      <trkpt lat="46.04071" lon="5.42325">
        <ele>456.60000610352</ele>
        <time>2026-08-26T10:16:51.000Z</time>
      </trkpt>
      <trkpt lat="46.04073" lon="5.42334">
        <ele>457.79998779297</ele>
        <time>2026-08-26T10:16:58.000Z</time>
      </trkpt>
      <trkpt lat="46.04073" lon="5.42336">
        <ele>458</ele>
        <time>2026-08-26T10:17:00.000Z</time>
      </trkpt>
      <trkpt lat="46.04072" lon="5.42345">
        <ele>458.79998779297</ele>
        <time>2026-08-26T10:17:05.000Z</time>
      </trkpt>
      <trkpt lat="46.04073" lon="5.4235">
        <ele>459.20001220703</ele>
        <time>2026-08-26T10:17:08.000Z</time>
      </trkpt>
      <trkpt lat="46.04072" lon="5.42358">
        <ele>460</ele>
        <time>2026-08-26T10:17:13.000Z</time>
      </trkpt>
      <trkpt lat="46.04072" lon="5.42364">
        <ele>460.39999389648</ele>
        <time>2026-08-26T10:17:16.000Z</time>
      </trkpt>
      <trkpt lat="46.04069" lon="5.42377">
        <ele>460.60000610352</ele>
        <time>2026-08-26T10:17:24.000Z</time>
      </trkpt>
      <trkpt lat="46.04063" lon="5.42388">
        <ele>459.60000610352</ele>
        <time>2026-08-26T10:17:32.000Z</time>
      </trkpt>
      <trkpt lat="46.0406" lon="5.42394">
        <ele>459</ele>
        <time>2026-08-26T10:17:36.000Z</time>
      </trkpt>
      <trkpt lat="46.04059" lon="5.424">
        <ele>458.20001220703</ele>
        <time>2026-08-26T10:17:40.000Z</time>
      </trkpt>
      <trkpt lat="46.04058" lon="5.42403">
        <ele>457.79998779297</ele>
        <time>2026-08-26T10:17:42.000Z</time>
      </trkpt>
      <trkpt lat="46.04055" lon="5.42417">
        <ele>457</ele>
        <time>2026-08-26T10:17:51.000Z</time>
      </trkpt>
      <trkpt lat="46.04052" lon="5.42431">
        <ele>457</ele>
        <time>2026-08-26T10:17:58.000Z</time>
      </trkpt>
      <trkpt lat="46.04053" lon="5.42434">
        <ele>456.79998779297</ele>
        <time>2026-08-26T10:18:00.000Z</time>
      </trkpt>
      <trkpt lat="46.04052" lon="5.4244">
        <ele>456.60000610352</ele>
        <time>2026-08-26T10:18:03.000Z</time>
      </trkpt>
      <trkpt lat="46.04051" lon="5.4245">
        <ele>456.60000610352</ele>
        <time>2026-08-26T10:18:08.000Z</time>
      </trkpt>
      <trkpt lat="46.0405" lon="5.42457">
        <ele>456.39999389648</ele>
        <time>2026-08-26T10:18:12.000Z</time>
      </trkpt>
      <trkpt lat="46.04051" lon="5.42472">
        <ele>456.79998779297</ele>
        <time>2026-08-26T10:18:19.000Z</time>
      </trkpt>
      <trkpt lat="46.04051" lon="5.42474">
        <ele>456.79998779297</ele>
        <time>2026-08-26T10:18:20.000Z</time>
      </trkpt>
      <trkpt lat="46.04052" lon="5.42488">
        <ele>457</ele>
        <time>2026-08-26T10:18:27.000Z</time>
      </trkpt>
      <trkpt lat="46.04055" lon="5.425">
        <ele>456.60000610352</ele>
        <time>2026-08-26T10:18:35.000Z</time>
      </trkpt>
      <trkpt lat="46.04058" lon="5.4251">
        <ele>456.20001220703</ele>
        <time>2026-08-26T10:18:42.000Z</time>
      </trkpt>
      <trkpt lat="46.0406" lon="5.42515">
        <ele>456</ele>
        <time>2026-08-26T10:18:48.000Z</time>
      </trkpt>
      <trkpt lat="46.04062" lon="5.42525">
        <ele>455.79998779297</ele>
        <time>2026-08-26T10:18:53.000Z</time>
      </trkpt>
      <trkpt lat="46.04062" lon="5.42527">
        <ele>455.60000610352</ele>
        <time>2026-08-26T10:18:54.000Z</time>
      </trkpt>
      <trkpt lat="46.04067" lon="5.42543">
        <ele>454.79998779297</ele>
        <time>2026-08-26T10:19:03.000Z</time>
      </trkpt>
      <trkpt lat="46.04068" lon="5.42546">
        <ele>454.79998779297</ele>
        <time>2026-08-26T10:19:05.000Z</time>
      </trkpt>
      <trkpt lat="46.0407" lon="5.4255">
        <ele>454.79998779297</ele>
        <time>2026-08-26T10:19:09.000Z</time>
      </trkpt>
      <trkpt lat="46.0407" lon="5.42551">
        <ele>454.79998779297</ele>
        <time>2026-08-26T10:19:10.000Z</time>
      </trkpt>
      <trkpt lat="46.04081" lon="5.42564">
        <ele>455.20001220703</ele>
        <time>2026-08-26T10:19:20.000Z</time>
      </trkpt>
      <trkpt lat="46.04088" lon="5.42573">
        <ele>455.39999389648</ele>
        <time>2026-08-26T10:19:28.000Z</time>
      </trkpt>
      <trkpt lat="46.04095" lon="5.42581">
        <ele>455.79998779297</ele>
        <time>2026-08-26T10:19:35.000Z</time>
      </trkpt>
      <trkpt lat="46.04096" lon="5.42582">
        <ele>455.79998779297</ele>
        <time>2026-08-26T10:19:36.000Z</time>
      </trkpt>
      <trkpt lat="46.04104" lon="5.42597">
        <ele>457</ele>
        <time>2026-08-26T10:19:43.000Z</time>
      </trkpt>
      <trkpt lat="46.04106" lon="5.42602">
        <ele>457.39999389648</ele>
        <time>2026-08-26T10:19:46.000Z</time>
      </trkpt>
      <trkpt lat="46.04108" lon="5.42609">
        <ele>458</ele>
        <time>2026-08-26T10:19:50.000Z</time>
      </trkpt>
      <trkpt lat="46.04109" lon="5.42613">
        <ele>458.20001220703</ele>
        <time>2026-08-26T10:19:52.000Z</time>
      </trkpt>
      <trkpt lat="46.0411" lon="5.42629">
        <ele>458.39999389648</ele>
        <time>2026-08-26T10:20:00.000Z</time>
      </trkpt>
      <trkpt lat="46.04111" lon="5.42642">
        <ele>458.79998779297</ele>
        <time>2026-08-26T10:20:07.000Z</time>
      </trkpt>
      <trkpt lat="46.04112" lon="5.42646">
        <ele>459</ele>
        <time>2026-08-26T10:20:09.000Z</time>
      </trkpt>
      <trkpt lat="46.04111" lon="5.42658">
        <ele>459.39999389648</ele>
        <time>2026-08-26T10:20:15.000Z</time>
      </trkpt>
      <trkpt lat="46.04107" lon="5.42671">
        <ele>459.20001220703</ele>
        <time>2026-08-26T10:20:22.000Z</time>
      </trkpt>
      <trkpt lat="46.041" lon="5.42682">
        <ele>459.39999389648</ele>
        <time>2026-08-26T10:20:30.000Z</time>
      </trkpt>
      <trkpt lat="46.04093" lon="5.4269">
        <ele>459.60000610352</ele>
        <time>2026-08-26T10:20:36.000Z</time>
      </trkpt>
      <trkpt lat="46.04086" lon="5.42697">
        <ele>459.60000610352</ele>
        <time>2026-08-26T10:20:43.000Z</time>
      </trkpt>
      <trkpt lat="46.04085" lon="5.42698">
        <ele>459.60000610352</ele>
        <time>2026-08-26T10:20:44.000Z</time>
      </trkpt>
      <trkpt lat="46.04079" lon="5.42706">
        <ele>459.79998779297</ele>
        <time>2026-08-26T10:20:50.000Z</time>
      </trkpt>
      <trkpt lat="46.04069" lon="5.42713">
        <ele>460</ele>
        <time>2026-08-26T10:20:58.000Z</time>
      </trkpt>
      <trkpt lat="46.04067" lon="5.42715">
        <ele>460</ele>
        <time>2026-08-26T10:21:00.000Z</time>
      </trkpt>
      <trkpt lat="46.04057" lon="5.42727">
        <ele>459.79998779297</ele>
        <time>2026-08-26T10:21:09.000Z</time>
      </trkpt>
      <trkpt lat="46.04047" lon="5.42736">
        <ele>459.79998779297</ele>
        <time>2026-08-26T10:21:17.000Z</time>
      </trkpt>
      <trkpt lat="46.04038" lon="5.42744">
        <ele>459.60000610352</ele>
        <time>2026-08-26T10:21:24.000Z</time>
      </trkpt>
      <trkpt lat="46.0403" lon="5.42749">
        <ele>460.20001220703</ele>
        <time>2026-08-26T10:21:31.000Z</time>
      </trkpt>
      <trkpt lat="46.04019" lon="5.42756">
        <ele>461</ele>
        <time>2026-08-26T10:21:39.000Z</time>
      </trkpt>
      <trkpt lat="46.04018" lon="5.42756">
        <ele>461</ele>
        <time>2026-08-26T10:21:40.000Z</time>
      </trkpt>
      <trkpt lat="46.04008" lon="5.42759">
        <ele>461.79998779297</ele>
        <time>2026-08-26T10:21:47.000Z</time>
      </trkpt>
      <trkpt lat="46.04" lon="5.42761">
        <ele>462.20001220703</ele>
        <time>2026-08-26T10:21:52.000Z</time>
      </trkpt>
      <trkpt lat="46.03998" lon="5.42762">
        <ele>462.39999389648</ele>
        <time>2026-08-26T10:21:54.000Z</time>
      </trkpt>
      <trkpt lat="46.03991" lon="5.42764">
        <ele>463</ele>
        <time>2026-08-26T10:21:59.000Z</time>
      </trkpt>
      <trkpt lat="46.03989" lon="5.42765">
        <ele>463.20001220703</ele>
        <time>2026-08-26T10:22:01.000Z</time>
      </trkpt>
      <trkpt lat="46.03976" lon="5.42769">
        <ele>463.79998779297</ele>
        <time>2026-08-26T10:22:11.000Z</time>
      </trkpt>
      <trkpt lat="46.03971" lon="5.42771">
        <ele>464.20001220703</ele>
        <time>2026-08-26T10:22:16.000Z</time>
      </trkpt>
      <trkpt lat="46.03968" lon="5.42772">
        <ele>464.39999389648</ele>
        <time>2026-08-26T10:22:19.000Z</time>
      </trkpt>
      <trkpt lat="46.03961" lon="5.4278">
        <ele>465.20001220703</ele>
        <time>2026-08-26T10:22:26.000Z</time>
      </trkpt>
      <trkpt lat="46.03961" lon="5.42781">
        <ele>465.20001220703</ele>
        <time>2026-08-26T10:22:27.000Z</time>
      </trkpt>
      <trkpt lat="46.03958" lon="5.42786">
        <ele>465.60000610352</ele>
        <time>2026-08-26T10:22:33.000Z</time>
      </trkpt>
      <trkpt lat="46.03957" lon="5.42787">
        <ele>465.39999389648</ele>
        <time>2026-08-26T10:22:36.000Z</time>
      </trkpt>
      <trkpt lat="46.03957" lon="5.4279">
        <ele>465.39999389648</ele>
        <time>2026-08-26T10:22:38.000Z</time>
      </trkpt>
      <trkpt lat="46.03956" lon="5.42792">
        <ele>465.39999389648</ele>
        <time>2026-08-26T10:22:39.000Z</time>
      </trkpt>
      <trkpt lat="46.03957" lon="5.42793">
        <ele>466</ele>
        <time>2026-08-26T10:22:43.000Z</time>
      </trkpt>
      <trkpt lat="46.03959" lon="5.42795">
        <ele>466.20001220703</ele>
        <time>2026-08-26T10:22:45.000Z</time>
      </trkpt>
      <trkpt lat="46.0396" lon="5.42798">
        <ele>466.60000610352</ele>
        <time>2026-08-26T10:22:47.000Z</time>
      </trkpt>
      <trkpt lat="46.03965" lon="5.42807">
        <ele>467.60000610352</ele>
        <time>2026-08-26T10:22:54.000Z</time>
      </trkpt>
      <trkpt lat="46.03967" lon="5.42809">
        <ele>468.20001220703</ele>
        <time>2026-08-26T10:22:56.000Z</time>
      </trkpt>
      <trkpt lat="46.0397" lon="5.42813">
        <ele>468.60000610352</ele>
        <time>2026-08-26T10:22:59.000Z</time>
      </trkpt>
      <trkpt lat="46.03973" lon="5.42817">
        <ele>469.39999389648</ele>
        <time>2026-08-26T10:23:03.000Z</time>
      </trkpt>
      <trkpt lat="46.03974" lon="5.42819">
        <ele>469.79998779297</ele>
        <time>2026-08-26T10:23:05.000Z</time>
      </trkpt>
      <trkpt lat="46.03977" lon="5.42827">
        <ele>470.79998779297</ele>
        <time>2026-08-26T10:23:11.000Z</time>
      </trkpt>
      <trkpt lat="46.03979" lon="5.42841">
        <ele>471.79998779297</ele>
        <time>2026-08-26T10:23:18.000Z</time>
      </trkpt>
      <trkpt lat="46.03979" lon="5.42847">
        <ele>472.20001220703</ele>
        <time>2026-08-26T10:23:21.000Z</time>
      </trkpt>
      <trkpt lat="46.0398" lon="5.42855">
        <ele>473</ele>
        <time>2026-08-26T10:23:26.000Z</time>
      </trkpt>
      <trkpt lat="46.03981" lon="5.4286">
        <ele>473.39999389648</ele>
        <time>2026-08-26T10:23:29.000Z</time>
      </trkpt>
      <trkpt lat="46.03982" lon="5.42864">
        <ele>474</ele>
        <time>2026-08-26T10:23:32.000Z</time>
      </trkpt>
      <trkpt lat="46.03983" lon="5.42873">
        <ele>475</ele>
        <time>2026-08-26T10:23:38.000Z</time>
      </trkpt>
      <trkpt lat="46.03985" lon="5.42882">
        <ele>476</ele>
        <time>2026-08-26T10:23:45.000Z</time>
      </trkpt>
      <trkpt lat="46.03987" lon="5.42888">
        <ele>476.79998779297</ele>
        <time>2026-08-26T10:23:49.000Z</time>
      </trkpt>
      <trkpt lat="46.03989" lon="5.4289">
        <ele>477.20001220703</ele>
        <time>2026-08-26T10:23:51.000Z</time>
      </trkpt>
      <trkpt lat="46.03992" lon="5.42895">
        <ele>477.79998779297</ele>
        <time>2026-08-26T10:23:55.000Z</time>
      </trkpt>
      <trkpt lat="46.03997" lon="5.429">
        <ele>478.20001220703</ele>
        <time>2026-08-26T10:24:00.000Z</time>
      </trkpt>
      <trkpt lat="46.04" lon="5.42904">
        <ele>478.79998779297</ele>
        <time>2026-08-26T10:24:04.000Z</time>
      </trkpt>
      <trkpt lat="46.04008" lon="5.42912">
        <ele>479</ele>
        <time>2026-08-26T10:24:12.000Z</time>
      </trkpt>
      <trkpt lat="46.0402" lon="5.42921">
        <ele>479</ele>
        <time>2026-08-26T10:24:22.000Z</time>
      </trkpt>
      <trkpt lat="46.04022" lon="5.42925">
        <ele>479</ele>
        <time>2026-08-26T10:24:26.000Z</time>
      </trkpt>
      <trkpt lat="46.04022" lon="5.42927">
        <ele>479.39999389648</ele>
        <time>2026-08-26T10:24:28.000Z</time>
      </trkpt>
      <trkpt lat="46.04021" lon="5.42928">
        <ele>479.39999389648</ele>
        <time>2026-08-26T10:24:29.000Z</time>
      </trkpt>
      <trkpt lat="46.0402" lon="5.42929">
        <ele>479.60000610352</ele>
        <time>2026-08-26T10:24:30.000Z</time>
      </trkpt>
      <trkpt lat="46.04014" lon="5.42931">
        <ele>480</ele>
        <time>2026-08-26T10:24:36.000Z</time>
      </trkpt>
      <trkpt lat="46.04014" lon="5.4293">
        <ele>480</ele>
        <time>2026-08-26T10:24:37.000Z</time>
      </trkpt>
      <trkpt lat="46.04001" lon="5.42929">
        <ele>480.20001220703</ele>
        <time>2026-08-26T10:24:48.000Z</time>
      </trkpt>
      <trkpt lat="46.03998" lon="5.42928">
        <ele>480.39999389648</ele>
        <time>2026-08-26T10:24:50.000Z</time>
      </trkpt>
      <trkpt lat="46.03991" lon="5.42925">
        <ele>480.79998779297</ele>
        <time>2026-08-26T10:24:56.000Z</time>
      </trkpt>
      <trkpt lat="46.03982" lon="5.4292">
        <ele>481</ele>
        <time>2026-08-26T10:25:03.000Z</time>
      </trkpt>
      <trkpt lat="46.03974" lon="5.42917">
        <ele>481.39999389648</ele>
        <time>2026-08-26T10:25:09.000Z</time>
      </trkpt>
      <trkpt lat="46.03973" lon="5.42916">
        <ele>481.60000610352</ele>
        <time>2026-08-26T10:25:10.000Z</time>
      </trkpt>
      <trkpt lat="46.03971" lon="5.42914">
        <ele>482</ele>
        <time>2026-08-26T10:25:13.000Z</time>
      </trkpt>
      <trkpt lat="46.03968" lon="5.42913">
        <ele>482.39999389648</ele>
        <time>2026-08-26T10:25:15.000Z</time>
      </trkpt>
      <trkpt lat="46.03966" lon="5.42911">
        <ele>482.39999389648</ele>
        <time>2026-08-26T10:25:17.000Z</time>
      </trkpt>
      <trkpt lat="46.03963" lon="5.42908">
        <ele>482.60000610352</ele>
        <time>2026-08-26T10:25:20.000Z</time>
      </trkpt>
      <trkpt lat="46.0396" lon="5.42904">
        <ele>482.79998779297</ele>
        <time>2026-08-26T10:25:23.000Z</time>
      </trkpt>
      <trkpt lat="46.03957" lon="5.42899">
        <ele>483</ele>
        <time>2026-08-26T10:25:26.000Z</time>
      </trkpt>
      <trkpt lat="46.03953" lon="5.42894">
        <ele>483.39999389648</ele>
        <time>2026-08-26T10:25:30.000Z</time>
      </trkpt>
      <trkpt lat="46.0395" lon="5.42888">
        <ele>483.60000610352</ele>
        <time>2026-08-26T10:25:34.000Z</time>
      </trkpt>
      <trkpt lat="46.03947" lon="5.42882">
        <ele>484</ele>
        <time>2026-08-26T10:25:38.000Z</time>
      </trkpt>
      <trkpt lat="46.03941" lon="5.42874">
        <ele>484.60000610352</ele>
        <time>2026-08-26T10:25:43.000Z</time>
      </trkpt>
      <trkpt lat="46.03939" lon="5.4287">
        <ele>484.79998779297</ele>
        <time>2026-08-26T10:25:46.000Z</time>
      </trkpt>
      <trkpt lat="46.03935" lon="5.42861">
        <ele>485.60000610352</ele>
        <time>2026-08-26T10:25:51.000Z</time>
      </trkpt>
      <trkpt lat="46.03931" lon="5.42856">
        <ele>486.20001220703</ele>
        <time>2026-08-26T10:25:55.000Z</time>
      </trkpt>
      <trkpt lat="46.03926" lon="5.42849">
        <ele>486.60000610352</ele>
        <time>2026-08-26T10:26:00.000Z</time>
      </trkpt>
      <trkpt lat="46.03924" lon="5.42847">
        <ele>486.79998779297</ele>
        <time>2026-08-26T10:26:02.000Z</time>
      </trkpt>
      <trkpt lat="46.03915" lon="5.42842">
        <ele>487.39999389648</ele>
        <time>2026-08-26T10:26:09.000Z</time>
      </trkpt>
      <trkpt lat="46.03913" lon="5.4284">
        <ele>487.60000610352</ele>
        <time>2026-08-26T10:26:11.000Z</time>
      </trkpt>
      <trkpt lat="46.03906" lon="5.42835">
        <ele>488.39999389648</ele>
        <time>2026-08-26T10:26:17.000Z</time>
      </trkpt>
      <trkpt lat="46.039" lon="5.42829">
        <ele>488.79998779297</ele>
        <time>2026-08-26T10:26:23.000Z</time>
      </trkpt>
      <trkpt lat="46.03898" lon="5.42827">
        <ele>488.79998779297</ele>
        <time>2026-08-26T10:26:25.000Z</time>
      </trkpt>
      <trkpt lat="46.03889" lon="5.4282">
        <ele>489.39999389648</ele>
        <time>2026-08-26T10:26:32.000Z</time>
      </trkpt>
      <trkpt lat="46.03885" lon="5.42817">
        <ele>489.79998779297</ele>
        <time>2026-08-26T10:26:35.000Z</time>
      </trkpt>
      <trkpt lat="46.0388" lon="5.42813">
        <ele>490.20001220703</ele>
        <time>2026-08-26T10:26:40.000Z</time>
      </trkpt>
      <trkpt lat="46.03872" lon="5.42809">
        <ele>490.79998779297</ele>
        <time>2026-08-26T10:26:47.000Z</time>
      </trkpt>
      <trkpt lat="46.0386" lon="5.42809">
        <ele>491.39999389648</ele>
        <time>2026-08-26T10:26:56.000Z</time>
      </trkpt>
      <trkpt lat="46.03854" lon="5.42813">
        <ele>491.20001220703</ele>
        <time>2026-08-26T10:27:02.000Z</time>
      </trkpt>
      <trkpt lat="46.03845" lon="5.42817">
        <ele>491.39999389648</ele>
        <time>2026-08-26T10:27:09.000Z</time>
      </trkpt>
      <trkpt lat="46.03837" lon="5.42816">
        <ele>491.60000610352</ele>
        <time>2026-08-26T10:27:15.000Z</time>
      </trkpt>
      <trkpt lat="46.03836" lon="5.42816">
        <ele>491.60000610352</ele>
        <time>2026-08-26T10:27:16.000Z</time>
      </trkpt>
      <trkpt lat="46.03825" lon="5.4281">
        <ele>491.79998779297</ele>
        <time>2026-08-26T10:27:24.000Z</time>
      </trkpt>
      <trkpt lat="46.03824" lon="5.42809">
        <ele>491.79998779297</ele>
        <time>2026-08-26T10:27:25.000Z</time>
      </trkpt>
      <trkpt lat="46.03816" lon="5.42803">
        <ele>492</ele>
        <time>2026-08-26T10:27:31.000Z</time>
      </trkpt>
      <trkpt lat="46.03811" lon="5.42791">
        <ele>492</ele>
        <time>2026-08-26T10:27:38.000Z</time>
      </trkpt>
      <trkpt lat="46.03805" lon="5.42775">
        <ele>492.20001220703</ele>
        <time>2026-08-26T10:27:48.000Z</time>
      </trkpt>
      <trkpt lat="46.038" lon="5.42765">
        <ele>492.20001220703</ele>
        <time>2026-08-26T10:27:55.000Z</time>
      </trkpt>
      <trkpt lat="46.03799" lon="5.42763">
        <ele>492.20001220703</ele>
        <time>2026-08-26T10:28:03.000Z</time>
      </trkpt>
      <trkpt lat="46.03798" lon="5.4276">
        <ele>492.39999389648</ele>
        <time>2026-08-26T10:28:08.000Z</time>
      </trkpt>
      <trkpt lat="46.03795" lon="5.42758">
        <ele>492.39999389648</ele>
        <time>2026-08-26T10:28:11.000Z</time>
      </trkpt>
      <trkpt lat="46.03788" lon="5.42758">
        <ele>492.79998779297</ele>
        <time>2026-08-26T10:28:18.000Z</time>
      </trkpt>
      <trkpt lat="46.03788" lon="5.42758">
        <ele>492.79998779297</ele>
        <time>2026-08-26T10:28:19.000Z</time>
      </trkpt>
      <trkpt lat="46.03788" lon="5.42759">
        <ele>492.79998779297</ele>
        <time>2026-08-26T10:28:20.000Z</time>
      </trkpt>
      <trkpt lat="46.03788" lon="5.42763">
        <ele>493.39999389648</ele>
        <time>2026-08-26T10:28:26.000Z</time>
      </trkpt>
      <trkpt lat="46.03788" lon="5.42769">
        <ele>494</ele>
        <time>2026-08-26T10:28:31.000Z</time>
      </trkpt>
      <trkpt lat="46.03787" lon="5.42775">
        <ele>494.20001220703</ele>
        <time>2026-08-26T10:28:34.000Z</time>
      </trkpt>
      <trkpt lat="46.03786" lon="5.42787">
        <ele>494.79998779297</ele>
        <time>2026-08-26T10:28:41.000Z</time>
      </trkpt>
      <trkpt lat="46.03784" lon="5.42797">
        <ele>494.60000610352</ele>
        <time>2026-08-26T10:28:47.000Z</time>
      </trkpt>
      <trkpt lat="46.03783" lon="5.42801">
        <ele>494</ele>
        <time>2026-08-26T10:28:51.000Z</time>
      </trkpt>
      <trkpt lat="46.03783" lon="5.42803">
        <ele>493.79998779297</ele>
        <time>2026-08-26T10:28:54.000Z</time>
      </trkpt>
      <trkpt lat="46.03784" lon="5.42803">
        <ele>493.60000610352</ele>
        <time>2026-08-26T10:28:56.000Z</time>
      </trkpt>
      <trkpt lat="46.03784" lon="5.42804">
        <ele>493.39999389648</ele>
        <time>2026-08-26T10:29:02.000Z</time>
      </trkpt>
      <trkpt lat="46.03784" lon="5.42803">
        <ele>493.39999389648</ele>
        <time>2026-08-26T10:29:06.000Z</time>
      </trkpt>
      <trkpt lat="46.03783" lon="5.42797">
        <ele>493.79998779297</ele>
        <time>2026-08-26T10:29:10.000Z</time>
      </trkpt>
      <trkpt lat="46.03784" lon="5.42782">
        <ele>494.20001220703</ele>
        <time>2026-08-26T10:29:19.000Z</time>
      </trkpt>
      <trkpt lat="46.03786" lon="5.42771">
        <ele>493.79998779297</ele>
        <time>2026-08-26T10:29:25.000Z</time>
      </trkpt>
      <trkpt lat="46.03787" lon="5.42765">
        <ele>493.60000610352</ele>
        <time>2026-08-26T10:29:28.000Z</time>
      </trkpt>
      <trkpt lat="46.03792" lon="5.42755">
        <ele>493</ele>
        <time>2026-08-26T10:29:35.000Z</time>
      </trkpt>
      <trkpt lat="46.03793" lon="5.42755">
        <ele>492.79998779297</ele>
        <time>2026-08-26T10:29:36.000Z</time>
      </trkpt>
      <trkpt lat="46.03799" lon="5.42747">
        <ele>492.60000610352</ele>
        <time>2026-08-26T10:29:42.000Z</time>
      </trkpt>
      <trkpt lat="46.03801" lon="5.42735">
        <ele>492.79998779297</ele>
        <time>2026-08-26T10:29:48.000Z</time>
      </trkpt>
      <trkpt lat="46.03802" lon="5.42721">
        <ele>492.39999389648</ele>
        <time>2026-08-26T10:29:56.000Z</time>
      </trkpt>
      <trkpt lat="46.03798" lon="5.42705">
        <ele>492</ele>
        <time>2026-08-26T10:30:05.000Z</time>
      </trkpt>
      <trkpt lat="46.03798" lon="5.42704">
        <ele>491.79998779297</ele>
        <time>2026-08-26T10:30:06.000Z</time>
      </trkpt>
      <trkpt lat="46.03795" lon="5.42695">
        <ele>491.20001220703</ele>
        <time>2026-08-26T10:30:13.000Z</time>
      </trkpt>
      <trkpt lat="46.03793" lon="5.42688">
        <ele>491</ele>
        <time>2026-08-26T10:30:18.000Z</time>
      </trkpt>
      <trkpt lat="46.03792" lon="5.42684">
        <ele>490.79998779297</ele>
        <time>2026-08-26T10:30:20.000Z</time>
      </trkpt>
      <trkpt lat="46.0379" lon="5.42674">
        <ele>489.79998779297</ele>
        <time>2026-08-26T10:30:25.000Z</time>
      </trkpt>
      <trkpt lat="46.0379" lon="5.42672">
        <ele>489.60000610352</ele>
        <time>2026-08-26T10:30:26.000Z</time>
      </trkpt>
      <trkpt lat="46.03786" lon="5.42658">
        <ele>489.39999389648</ele>
        <time>2026-08-26T10:30:34.000Z</time>
      </trkpt>
      <trkpt lat="46.03781" lon="5.42646">
        <ele>489.39999389648</ele>
        <time>2026-08-26T10:30:42.000Z</time>
      </trkpt>
      <trkpt lat="46.03776" lon="5.42634">
        <ele>489.20001220703</ele>
        <time>2026-08-26T10:30:50.000Z</time>
      </trkpt>
      <trkpt lat="46.03776" lon="5.42636">
        <ele>489</ele>
        <time>2026-08-26T10:30:56.000Z</time>
      </trkpt>
      <trkpt lat="46.03776" lon="5.42636">
        <ele>489</ele>
        <time>2026-08-26T10:30:57.000Z</time>
      </trkpt>
      <trkpt lat="46.03776" lon="5.42636">
        <ele>489</ele>
        <time>2026-08-26T10:31:02.000Z</time>
      </trkpt>
      <trkpt lat="46.03775" lon="5.42637">
        <ele>489</ele>
        <time>2026-08-26T10:31:07.000Z</time>
      </trkpt>
      <trkpt lat="46.03776" lon="5.42636">
        <ele>489.20001220703</ele>
        <time>2026-08-26T10:31:23.000Z</time>
      </trkpt>
      <trkpt lat="46.03776" lon="5.42631">
        <ele>489.39999389648</ele>
        <time>2026-08-26T10:31:30.000Z</time>
      </trkpt>
      <trkpt lat="46.03777" lon="5.42627">
        <ele>489</ele>
        <time>2026-08-26T10:31:39.000Z</time>
      </trkpt>
      <trkpt lat="46.03774" lon="5.42629">
        <ele>489</ele>
        <time>2026-08-26T10:31:47.000Z</time>
      </trkpt>
      <trkpt lat="46.03774" lon="5.4263">
        <ele>489.20001220703</ele>
        <time>2026-08-26T10:31:55.000Z</time>
      </trkpt>
      <trkpt lat="46.03774" lon="5.42632">
        <ele>489.20001220703</ele>
        <time>2026-08-26T10:32:05.000Z</time>
      </trkpt>
      <trkpt lat="46.03774" lon="5.42632">
        <ele>489.20001220703</ele>
        <time>2026-08-26T10:32:07.000Z</time>
      </trkpt>
      <trkpt lat="46.03774" lon="5.42632">
        <ele>489.20001220703</ele>
        <time>2026-08-26T10:32:13.000Z</time>
      </trkpt>
      <trkpt lat="46.03775" lon="5.42632">
        <ele>489.20001220703</ele>
        <time>2026-08-26T10:32:16.000Z</time>
      </trkpt>
      <trkpt lat="46.03776" lon="5.42632">
        <ele>489.20001220703</ele>
        <time>2026-08-26T10:32:22.000Z</time>
      </trkpt>
      <trkpt lat="46.03776" lon="5.42631">
        <ele>489.39999389648</ele>
        <time>2026-08-26T10:32:28.000Z</time>
      </trkpt>
      <trkpt lat="46.03777" lon="5.42629">
        <ele>489.60000610352</ele>
        <time>2026-08-26T10:32:39.000Z</time>
      </trkpt>
      <trkpt lat="46.03778" lon="5.42628">
        <ele>489.60000610352</ele>
        <time>2026-08-26T10:32:49.000Z</time>
      </trkpt>
      <trkpt lat="46.03776" lon="5.4263">
        <ele>489.60000610352</ele>
        <time>2026-08-26T10:32:56.000Z</time>
      </trkpt>
      <trkpt lat="46.03776" lon="5.4263">
        <ele>489.60000610352</ele>
        <time>2026-08-26T10:33:03.000Z</time>
      </trkpt>
      <trkpt lat="46.03772" lon="5.42616">
        <ele>490.20001220703</ele>
        <time>2026-08-26T10:33:11.000Z</time>
      </trkpt>
      <trkpt lat="46.03767" lon="5.42596">
        <ele>490.79998779297</ele>
        <time>2026-08-26T10:33:21.000Z</time>
      </trkpt>
      <trkpt lat="46.03766" lon="5.42594">
        <ele>490.79998779297</ele>
        <time>2026-08-26T10:33:22.000Z</time>
      </trkpt>
      <trkpt lat="46.03763" lon="5.42583">
        <ele>491.60000610352</ele>
        <time>2026-08-26T10:33:28.000Z</time>
      </trkpt>
      <trkpt lat="46.03762" lon="5.42577">
        <ele>491.79998779297</ele>
        <time>2026-08-26T10:33:31.000Z</time>
      </trkpt>
      <trkpt lat="46.03761" lon="5.42571">
        <ele>492.39999389648</ele>
        <time>2026-08-26T10:33:35.000Z</time>
      </trkpt>
      <trkpt lat="46.03762" lon="5.42558">
        <ele>492.60000610352</ele>
        <time>2026-08-26T10:33:43.000Z</time>
      </trkpt>
      <trkpt lat="46.03764" lon="5.42549">
        <ele>492.60000610352</ele>
        <time>2026-08-26T10:33:52.000Z</time>
      </trkpt>
      <trkpt lat="46.03764" lon="5.42551">
        <ele>492.79998779297</ele>
        <time>2026-08-26T10:33:56.000Z</time>
      </trkpt>
      <trkpt lat="46.03763" lon="5.42556">
        <ele>492.60000610352</ele>
        <time>2026-08-26T10:33:59.000Z</time>
      </trkpt>
      <trkpt lat="46.03763" lon="5.42567">
        <ele>492.39999389648</ele>
        <time>2026-08-26T10:34:06.000Z</time>
      </trkpt>
      <trkpt lat="46.03766" lon="5.42581">
        <ele>491.79998779297</ele>
        <time>2026-08-26T10:34:15.000Z</time>
      </trkpt>
      <trkpt lat="46.03771" lon="5.42596">
        <ele>490.79998779297</ele>
        <time>2026-08-26T10:34:24.000Z</time>
      </trkpt>
      <trkpt lat="46.03776" lon="5.42607">
        <ele>490.60000610352</ele>
        <time>2026-08-26T10:34:31.000Z</time>
      </trkpt>
      <trkpt lat="46.0378" lon="5.4262">
        <ele>490.39999389648</ele>
        <time>2026-08-26T10:34:39.000Z</time>
      </trkpt>
      <trkpt lat="46.03783" lon="5.42634">
        <ele>490.39999389648</ele>
        <time>2026-08-26T10:34:47.000Z</time>
      </trkpt>
      <trkpt lat="46.03786" lon="5.42645">
        <ele>490.39999389648</ele>
        <time>2026-08-26T10:34:56.000Z</time>
      </trkpt>
      <trkpt lat="46.0379" lon="5.42656">
        <ele>490.60000610352</ele>
        <time>2026-08-26T10:35:04.000Z</time>
      </trkpt>
      <trkpt lat="46.0379" lon="5.42661">
        <ele>490.79998779297</ele>
        <time>2026-08-26T10:35:09.000Z</time>
      </trkpt>
      <trkpt lat="46.03789" lon="5.42662">
        <ele>490.60000610352</ele>
        <time>2026-08-26T10:35:10.000Z</time>
      </trkpt>
      <trkpt lat="46.03788" lon="5.42666">
        <ele>490.60000610352</ele>
        <time>2026-08-26T10:35:14.000Z</time>
      </trkpt>
      <trkpt lat="46.03785" lon="5.4267">
        <ele>490.39999389648</ele>
        <time>2026-08-26T10:35:17.000Z</time>
      </trkpt>
      <trkpt lat="46.03779" lon="5.42681">
        <ele>490.20001220703</ele>
        <time>2026-08-26T10:35:26.000Z</time>
      </trkpt>
      <trkpt lat="46.03774" lon="5.42688">
        <ele>490.39999389648</ele>
        <time>2026-08-26T10:35:33.000Z</time>
      </trkpt>
      <trkpt lat="46.03773" lon="5.4269">
        <ele>490.39999389648</ele>
        <time>2026-08-26T10:35:34.000Z</time>
      </trkpt>
      <trkpt lat="46.0377" lon="5.42696">
        <ele>490.20001220703</ele>
        <time>2026-08-26T10:35:42.000Z</time>
      </trkpt>
      <trkpt lat="46.03769" lon="5.42698">
        <ele>490</ele>
        <time>2026-08-26T10:35:49.000Z</time>
      </trkpt>
      <trkpt lat="46.03762" lon="5.42706">
        <ele>490.20001220703</ele>
        <time>2026-08-26T10:36:00.000Z</time>
      </trkpt>
      <trkpt lat="46.03761" lon="5.42708">
        <ele>490</ele>
        <time>2026-08-26T10:36:07.000Z</time>
      </trkpt>
      <trkpt lat="46.0376" lon="5.42709">
        <ele>489.79998779297</ele>
        <time>2026-08-26T10:36:17.000Z</time>
      </trkpt>
      <trkpt lat="46.03759" lon="5.42711">
        <ele>490.20001220703</ele>
        <time>2026-08-26T10:36:24.000Z</time>
      </trkpt>
      <trkpt lat="46.03757" lon="5.42715">
        <ele>490.60000610352</ele>
        <time>2026-08-26T10:36:33.000Z</time>
      </trkpt>
      <trkpt lat="46.03756" lon="5.42717">
        <ele>490.60000610352</ele>
        <time>2026-08-26T10:36:34.000Z</time>
      </trkpt>
      <trkpt lat="46.0375" lon="5.42721">
        <ele>490.79998779297</ele>
        <time>2026-08-26T10:36:39.000Z</time>
      </trkpt>
      <trkpt lat="46.03749" lon="5.42722">
        <ele>490.79998779297</ele>
        <time>2026-08-26T10:36:40.000Z</time>
      </trkpt>
      <trkpt lat="46.03744" lon="5.42725">
        <ele>491</ele>
        <time>2026-08-26T10:36:44.000Z</time>
      </trkpt>
      <trkpt lat="46.03739" lon="5.42728">
        <ele>491.39999389648</ele>
        <time>2026-08-26T10:36:48.000Z</time>
      </trkpt>
      <trkpt lat="46.03729" lon="5.42736">
        <ele>491.39999389648</ele>
        <time>2026-08-26T10:36:57.000Z</time>
      </trkpt>
      <trkpt lat="46.03723" lon="5.4274">
        <ele>491</ele>
        <time>2026-08-26T10:37:02.000Z</time>
      </trkpt>
      <trkpt lat="46.03721" lon="5.42742">
        <ele>490.39999389648</ele>
        <time>2026-08-26T10:37:05.000Z</time>
      </trkpt>
      <trkpt lat="46.03721" lon="5.42746">
        <ele>490.20001220703</ele>
        <time>2026-08-26T10:37:11.000Z</time>
      </trkpt>
      <trkpt lat="46.0372" lon="5.42747">
        <ele>490.20001220703</ele>
        <time>2026-08-26T10:37:12.000Z</time>
      </trkpt>
      <trkpt lat="46.03718" lon="5.42745">
        <ele>490.20001220703</ele>
        <time>2026-08-26T10:37:18.000Z</time>
      </trkpt>
      <trkpt lat="46.03717" lon="5.42747">
        <ele>490</ele>
        <time>2026-08-26T10:37:21.000Z</time>
      </trkpt>
      <trkpt lat="46.03717" lon="5.42748">
        <ele>489.60000610352</ele>
        <time>2026-08-26T10:37:22.000Z</time>
      </trkpt>
      <trkpt lat="46.03718" lon="5.42752">
        <ele>488.39999389648</ele>
        <time>2026-08-26T10:37:26.000Z</time>
      </trkpt>
      <trkpt lat="46.03718" lon="5.42754">
        <ele>487.79998779297</ele>
        <time>2026-08-26T10:37:29.000Z</time>
      </trkpt>
      <trkpt lat="46.03719" lon="5.42756">
        <ele>487.39999389648</ele>
        <time>2026-08-26T10:37:32.000Z</time>
      </trkpt>
      <trkpt lat="46.03719" lon="5.42761">
        <ele>486.20001220703</ele>
        <time>2026-08-26T10:37:37.000Z</time>
      </trkpt>
      <trkpt lat="46.03719" lon="5.42766">
        <ele>485.20001220703</ele>
        <time>2026-08-26T10:37:40.000Z</time>
      </trkpt>
      <trkpt lat="46.03719" lon="5.4277">
        <ele>483.79998779297</ele>
        <time>2026-08-26T10:37:44.000Z</time>
      </trkpt>
      <trkpt lat="46.03719" lon="5.42772">
        <ele>483.20001220703</ele>
        <time>2026-08-26T10:37:46.000Z</time>
      </trkpt>
      <trkpt lat="46.03719" lon="5.42774">
        <ele>482.60000610352</ele>
        <time>2026-08-26T10:37:48.000Z</time>
      </trkpt>
      <trkpt lat="46.03718" lon="5.42775">
        <ele>482</ele>
        <time>2026-08-26T10:37:50.000Z</time>
      </trkpt>
      <trkpt lat="46.03719" lon="5.42777">
        <ele>481.39999389648</ele>
        <time>2026-08-26T10:37:53.000Z</time>
      </trkpt>
      <trkpt lat="46.03719" lon="5.42778">
        <ele>481.20001220703</ele>
        <time>2026-08-26T10:37:54.000Z</time>
      </trkpt>
      <trkpt lat="46.0372" lon="5.42781">
        <ele>480.20001220703</ele>
        <time>2026-08-26T10:37:58.000Z</time>
      </trkpt>
      <trkpt lat="46.0372" lon="5.42785">
        <ele>479</ele>
        <time>2026-08-26T10:38:03.000Z</time>
      </trkpt>
      <trkpt lat="46.03721" lon="5.42786">
        <ele>478.60000610352</ele>
        <time>2026-08-26T10:38:05.000Z</time>
      </trkpt>
      <trkpt lat="46.03721" lon="5.42787">
        <ele>478</ele>
        <time>2026-08-26T10:38:10.000Z</time>
      </trkpt>
      <trkpt lat="46.03722" lon="5.42789">
        <ele>477.39999389648</ele>
        <time>2026-08-26T10:38:14.000Z</time>
      </trkpt>
      <trkpt lat="46.03722" lon="5.42792">
        <ele>477</ele>
        <time>2026-08-26T10:38:21.000Z</time>
      </trkpt>
      <trkpt lat="46.03722" lon="5.42793">
        <ele>477</ele>
        <time>2026-08-26T10:38:22.000Z</time>
      </trkpt>
      <trkpt lat="46.0372" lon="5.42794">
        <ele>476.60000610352</ele>
        <time>2026-08-26T10:38:30.000Z</time>
      </trkpt>
      <trkpt lat="46.03718" lon="5.42794">
        <ele>476</ele>
        <time>2026-08-26T10:38:38.000Z</time>
      </trkpt>
      <trkpt lat="46.03718" lon="5.42795">
        <ele>476</ele>
        <time>2026-08-26T10:38:39.000Z</time>
      </trkpt>
      <trkpt lat="46.03718" lon="5.42799">
        <ele>475</ele>
        <time>2026-08-26T10:38:46.000Z</time>
      </trkpt>
      <trkpt lat="46.03718" lon="5.428">
        <ele>474.79998779297</ele>
        <time>2026-08-26T10:38:47.000Z</time>
      </trkpt>
      <trkpt lat="46.03718" lon="5.42802">
        <ele>474</ele>
        <time>2026-08-26T10:38:52.000Z</time>
      </trkpt>
      <trkpt lat="46.03718" lon="5.42803">
        <ele>473.79998779297</ele>
        <time>2026-08-26T10:38:53.000Z</time>
      </trkpt>
      <trkpt lat="46.03717" lon="5.42804">
        <ele>472.60000610352</ele>
        <time>2026-08-26T10:38:58.000Z</time>
      </trkpt>
      <trkpt lat="46.03718" lon="5.42805">
        <ele>472</ele>
        <time>2026-08-26T10:39:01.000Z</time>
      </trkpt>
      <trkpt lat="46.03717" lon="5.42809">
        <ele>471.20001220703</ele>
        <time>2026-08-26T10:39:08.000Z</time>
      </trkpt>
      <trkpt lat="46.03717" lon="5.4281">
        <ele>471</ele>
        <time>2026-08-26T10:39:09.000Z</time>
      </trkpt>
      <trkpt lat="46.03717" lon="5.4281">
        <ele>470.60000610352</ele>
        <time>2026-08-26T10:39:17.000Z</time>
      </trkpt>
      <trkpt lat="46.03717" lon="5.42811">
        <ele>470.20001220703</ele>
        <time>2026-08-26T10:39:20.000Z</time>
      </trkpt>
      <trkpt lat="46.03717" lon="5.42813">
        <ele>469.39999389648</ele>
        <time>2026-08-26T10:39:24.000Z</time>
      </trkpt>
      <trkpt lat="46.03718" lon="5.42813">
        <ele>469.20001220703</ele>
        <time>2026-08-26T10:39:25.000Z</time>
      </trkpt>
      <trkpt lat="46.03719" lon="5.42816">
        <ele>468</ele>
        <time>2026-08-26T10:39:32.000Z</time>
      </trkpt>
      <trkpt lat="46.03719" lon="5.42816">
        <ele>467.60000610352</ele>
        <time>2026-08-26T10:39:34.000Z</time>
      </trkpt>
      <trkpt lat="46.03719" lon="5.42818">
        <ele>467.20001220703</ele>
        <time>2026-08-26T10:39:38.000Z</time>
      </trkpt>
      <trkpt lat="46.0372" lon="5.42818">
        <ele>467</ele>
        <time>2026-08-26T10:39:41.000Z</time>
      </trkpt>
      <trkpt lat="46.03722" lon="5.42821">
        <ele>466.20001220703</ele>
        <time>2026-08-26T10:39:45.000Z</time>
      </trkpt>
      <trkpt lat="46.03722" lon="5.42823">
        <ele>466</ele>
        <time>2026-08-26T10:39:46.000Z</time>
      </trkpt>
      <trkpt lat="46.03725" lon="5.42828">
        <ele>464.79998779297</ele>
        <time>2026-08-26T10:39:50.000Z</time>
      </trkpt>
      <trkpt lat="46.03726" lon="5.42831">
        <ele>464.60000610352</ele>
        <time>2026-08-26T10:39:52.000Z</time>
      </trkpt>
      <trkpt lat="46.03728" lon="5.42835">
        <ele>463.60000610352</ele>
        <time>2026-08-26T10:39:56.000Z</time>
      </trkpt>
      <trkpt lat="46.0373" lon="5.4284">
        <ele>462.60000610352</ele>
        <time>2026-08-26T10:40:00.000Z</time>
      </trkpt>
      <trkpt lat="46.03729" lon="5.42843">
        <ele>461.60000610352</ele>
        <time>2026-08-26T10:40:05.000Z</time>
      </trkpt>
      <trkpt lat="46.03729" lon="5.42843">
        <ele>461.60000610352</ele>
        <time>2026-08-26T10:40:06.000Z</time>
      </trkpt>
      <trkpt lat="46.03728" lon="5.42842">
        <ele>461.39999389648</ele>
        <time>2026-08-26T10:40:08.000Z</time>
      </trkpt>
      <trkpt lat="46.03725" lon="5.42842">
        <ele>460.60000610352</ele>
        <time>2026-08-26T10:40:14.000Z</time>
      </trkpt>
      <trkpt lat="46.03724" lon="5.42842">
        <ele>460.20001220703</ele>
        <time>2026-08-26T10:40:15.000Z</time>
      </trkpt>
      <trkpt lat="46.03721" lon="5.4284">
        <ele>459.39999389648</ele>
        <time>2026-08-26T10:40:19.000Z</time>
      </trkpt>
      <trkpt lat="46.03719" lon="5.42839">
        <ele>458.79998779297</ele>
        <time>2026-08-26T10:40:22.000Z</time>
      </trkpt>
      <trkpt lat="46.03718" lon="5.42839">
        <ele>458.20001220703</ele>
        <time>2026-08-26T10:40:24.000Z</time>
      </trkpt>
      <trkpt lat="46.03717" lon="5.42839">
        <ele>457.79998779297</ele>
        <time>2026-08-26T10:40:31.000Z</time>
      </trkpt>
      <trkpt lat="46.03715" lon="5.42839">
        <ele>457.20001220703</ele>
        <time>2026-08-26T10:40:35.000Z</time>
      </trkpt>
      <trkpt lat="46.03715" lon="5.4284">
        <ele>456.60000610352</ele>
        <time>2026-08-26T10:40:39.000Z</time>
      </trkpt>
      <trkpt lat="46.03715" lon="5.42841">
        <ele>456.20001220703</ele>
        <time>2026-08-26T10:40:43.000Z</time>
      </trkpt>
      <trkpt lat="46.03713" lon="5.42842">
        <ele>455.39999389648</ele>
        <time>2026-08-26T10:40:48.000Z</time>
      </trkpt>
      <trkpt lat="46.03712" lon="5.42844">
        <ele>455</ele>
        <time>2026-08-26T10:40:50.000Z</time>
      </trkpt>
      <trkpt lat="46.03713" lon="5.42847">
        <ele>453.79998779297</ele>
        <time>2026-08-26T10:40:54.000Z</time>
      </trkpt>
      <trkpt lat="46.03713" lon="5.42847">
        <ele>453.60000610352</ele>
        <time>2026-08-26T10:40:55.000Z</time>
      </trkpt>
      <trkpt lat="46.03715" lon="5.42847">
        <ele>453</ele>
        <time>2026-08-26T10:40:58.000Z</time>
      </trkpt>
      <trkpt lat="46.03716" lon="5.42849">
        <ele>452.60000610352</ele>
        <time>2026-08-26T10:41:00.000Z</time>
      </trkpt>
      <trkpt lat="46.03718" lon="5.42851">
        <ele>452</ele>
        <time>2026-08-26T10:41:02.000Z</time>
      </trkpt>
      <trkpt lat="46.03719" lon="5.42852">
        <ele>451.60000610352</ele>
        <time>2026-08-26T10:41:03.000Z</time>
      </trkpt>
      <trkpt lat="46.03721" lon="5.42856">
        <ele>450.39999389648</ele>
        <time>2026-08-26T10:41:09.000Z</time>
      </trkpt>
      <trkpt lat="46.03723" lon="5.42859">
        <ele>449.39999389648</ele>
        <time>2026-08-26T10:41:14.000Z</time>
      </trkpt>
      <trkpt lat="46.03725" lon="5.42862">
        <ele>448.60000610352</ele>
        <time>2026-08-26T10:41:18.000Z</time>
      </trkpt>
      <trkpt lat="46.03725" lon="5.42864">
        <ele>448.20001220703</ele>
        <time>2026-08-26T10:41:20.000Z</time>
      </trkpt>
      <trkpt lat="46.03726" lon="5.42868">
        <ele>447.20001220703</ele>
        <time>2026-08-26T10:41:23.000Z</time>
      </trkpt>
      <trkpt lat="46.03727" lon="5.42874">
        <ele>446</ele>
        <time>2026-08-26T10:41:27.000Z</time>
      </trkpt>
      <trkpt lat="46.03728" lon="5.42879">
        <ele>444.79998779297</ele>
        <time>2026-08-26T10:41:31.000Z</time>
      </trkpt>
      <trkpt lat="46.03729" lon="5.42879">
        <ele>444.60000610352</ele>
        <time>2026-08-26T10:41:35.000Z</time>
      </trkpt>
      <trkpt lat="46.03731" lon="5.42882">
        <ele>444.39999389648</ele>
        <time>2026-08-26T10:41:43.000Z</time>
      </trkpt>
      <trkpt lat="46.03731" lon="5.42884">
        <ele>443.79998779297</ele>
        <time>2026-08-26T10:41:46.000Z</time>
      </trkpt>
      <trkpt lat="46.03734" lon="5.42887">
        <ele>442.60000610352</ele>
        <time>2026-08-26T10:41:51.000Z</time>
      </trkpt>
      <trkpt lat="46.03736" lon="5.4289">
        <ele>441.60000610352</ele>
        <time>2026-08-26T10:41:56.000Z</time>
      </trkpt>
      <trkpt lat="46.03735" lon="5.4289">
        <ele>441.39999389648</ele>
        <time>2026-08-26T10:41:57.000Z</time>
      </trkpt>
      <trkpt lat="46.03736" lon="5.42892">
        <ele>440.39999389648</ele>
        <time>2026-08-26T10:42:02.000Z</time>
      </trkpt>
      <trkpt lat="46.03737" lon="5.42893">
        <ele>440.20001220703</ele>
        <time>2026-08-26T10:42:05.000Z</time>
      </trkpt>
      <trkpt lat="46.03739" lon="5.42895">
        <ele>439.60000610352</ele>
        <time>2026-08-26T10:42:12.000Z</time>
      </trkpt>
      <trkpt lat="46.03739" lon="5.42896">
        <ele>439.39999389648</ele>
        <time>2026-08-26T10:42:15.000Z</time>
      </trkpt>
      <trkpt lat="46.03738" lon="5.42899">
        <ele>438.79998779297</ele>
        <time>2026-08-26T10:42:20.000Z</time>
      </trkpt>
      <trkpt lat="46.03737" lon="5.429">
        <ele>438.39999389648</ele>
        <time>2026-08-26T10:42:22.000Z</time>
      </trkpt>
      <trkpt lat="46.03737" lon="5.42904">
        <ele>437</ele>
        <time>2026-08-26T10:42:27.000Z</time>
      </trkpt>
      <trkpt lat="46.03736" lon="5.42905">
        <ele>436.79998779297</ele>
        <time>2026-08-26T10:42:28.000Z</time>
      </trkpt>
      <trkpt lat="46.03734" lon="5.42907">
        <ele>436</ele>
        <time>2026-08-26T10:42:32.000Z</time>
      </trkpt>
      <trkpt lat="46.03734" lon="5.42907">
        <ele>435.60000610352</ele>
        <time>2026-08-26T10:42:35.000Z</time>
      </trkpt>
      <trkpt lat="46.03733" lon="5.42909">
        <ele>435.60000610352</ele>
        <time>2026-08-26T10:42:39.000Z</time>
      </trkpt>
      <trkpt lat="46.03733" lon="5.4291">
        <ele>435.20001220703</ele>
        <time>2026-08-26T10:42:42.000Z</time>
      </trkpt>
      <trkpt lat="46.03733" lon="5.42911">
        <ele>435</ele>
        <time>2026-08-26T10:42:43.000Z</time>
      </trkpt>
      <trkpt lat="46.03732" lon="5.42913">
        <ele>433.60000610352</ele>
        <time>2026-08-26T10:42:47.000Z</time>
      </trkpt>
      <trkpt lat="46.03732" lon="5.42915">
        <ele>433</ele>
        <time>2026-08-26T10:42:51.000Z</time>
      </trkpt>
      <trkpt lat="46.03731" lon="5.42917">
        <ele>432.60000610352</ele>
        <time>2026-08-26T10:42:53.000Z</time>
      </trkpt>
      <trkpt lat="46.03731" lon="5.42919">
        <ele>432.20001220703</ele>
        <time>2026-08-26T10:42:55.000Z</time>
      </trkpt>
      <trkpt lat="46.03731" lon="5.4292">
        <ele>431.79998779297</ele>
        <time>2026-08-26T10:43:00.000Z</time>
      </trkpt>
      <trkpt lat="46.03731" lon="5.42921">
        <ele>431.60000610352</ele>
        <time>2026-08-26T10:43:02.000Z</time>
      </trkpt>
      <trkpt lat="46.03729" lon="5.42925">
        <ele>430.79998779297</ele>
        <time>2026-08-26T10:43:08.000Z</time>
      </trkpt>
      <trkpt lat="46.03729" lon="5.42926">
        <ele>430.60000610352</ele>
        <time>2026-08-26T10:43:09.000Z</time>
      </trkpt>
      <trkpt lat="46.03727" lon="5.42932">
        <ele>429.20001220703</ele>
        <time>2026-08-26T10:43:15.000Z</time>
      </trkpt>
      <trkpt lat="46.03727" lon="5.42933">
        <ele>429</ele>
        <time>2026-08-26T10:43:16.000Z</time>
      </trkpt>
      <trkpt lat="46.03727" lon="5.42935">
        <ele>428.20001220703</ele>
        <time>2026-08-26T10:43:20.000Z</time>
      </trkpt>
      <trkpt lat="46.03727" lon="5.42936">
        <ele>427.79998779297</ele>
        <time>2026-08-26T10:43:23.000Z</time>
      </trkpt>
      <trkpt lat="46.03726" lon="5.42938">
        <ele>428.39999389648</ele>
        <time>2026-08-26T10:43:36.000Z</time>
      </trkpt>
      <trkpt lat="46.0372" lon="5.42941">
        <ele>427.20001220703</ele>
        <time>2026-08-26T10:43:42.000Z</time>
      </trkpt>
      <trkpt lat="46.03718" lon="5.42943">
        <ele>426.60000610352</ele>
        <time>2026-08-26T10:43:44.000Z</time>
      </trkpt>
      <trkpt lat="46.03716" lon="5.42944">
        <ele>426</ele>
        <time>2026-08-26T10:43:46.000Z</time>
      </trkpt>
      <trkpt lat="46.03713" lon="5.42947">
        <ele>425</ele>
        <time>2026-08-26T10:43:50.000Z</time>
      </trkpt>
      <trkpt lat="46.03709" lon="5.42946">
        <ele>424.39999389648</ele>
        <time>2026-08-26T10:43:54.000Z</time>
      </trkpt>
      <trkpt lat="46.03704" lon="5.42949">
        <ele>423.79998779297</ele>
        <time>2026-08-26T10:43:59.000Z</time>
      </trkpt>
      <trkpt lat="46.03703" lon="5.42952">
        <ele>423.39999389648</ele>
        <time>2026-08-26T10:44:01.000Z</time>
      </trkpt>
      <trkpt lat="46.03702" lon="5.42954">
        <ele>422.79998779297</ele>
        <time>2026-08-26T10:44:03.000Z</time>
      </trkpt>
      <trkpt lat="46.03703" lon="5.42957">
        <ele>422</ele>
        <time>2026-08-26T10:44:06.000Z</time>
      </trkpt>
      <trkpt lat="46.03703" lon="5.4296">
        <ele>421.79998779297</ele>
        <time>2026-08-26T10:44:09.000Z</time>
      </trkpt>
      <trkpt lat="46.03703" lon="5.42963">
        <ele>421.39999389648</ele>
        <time>2026-08-26T10:44:11.000Z</time>
      </trkpt>
      <trkpt lat="46.03702" lon="5.42967">
        <ele>420.60000610352</ele>
        <time>2026-08-26T10:44:14.000Z</time>
      </trkpt>
      <trkpt lat="46.03701" lon="5.42971">
        <ele>419.39999389648</ele>
        <time>2026-08-26T10:44:17.000Z</time>
      </trkpt>
      <trkpt lat="46.03701" lon="5.42972">
        <ele>419</ele>
        <time>2026-08-26T10:44:18.000Z</time>
      </trkpt>
      <trkpt lat="46.037" lon="5.42975">
        <ele>418.39999389648</ele>
        <time>2026-08-26T10:44:20.000Z</time>
      </trkpt>
      <trkpt lat="46.037" lon="5.42979">
        <ele>417.20001220703</ele>
        <time>2026-08-26T10:44:23.000Z</time>
      </trkpt>
      <trkpt lat="46.03699" lon="5.42983">
        <ele>416</ele>
        <time>2026-08-26T10:44:26.000Z</time>
      </trkpt>
      <trkpt lat="46.03698" lon="5.42986">
        <ele>415.39999389648</ele>
        <time>2026-08-26T10:44:28.000Z</time>
      </trkpt>
      <trkpt lat="46.03698" lon="5.42988">
        <ele>414.79998779297</ele>
        <time>2026-08-26T10:44:30.000Z</time>
      </trkpt>
      <trkpt lat="46.03696" lon="5.42993">
        <ele>413.79998779297</ele>
        <time>2026-08-26T10:44:33.000Z</time>
      </trkpt>
      <trkpt lat="46.03695" lon="5.42996">
        <ele>413.20001220703</ele>
        <time>2026-08-26T10:44:35.000Z</time>
      </trkpt>
      <trkpt lat="46.03695" lon="5.42999">
        <ele>412.60000610352</ele>
        <time>2026-08-26T10:44:37.000Z</time>
      </trkpt>
      <trkpt lat="46.03694" lon="5.43006">
        <ele>411.39999389648</ele>
        <time>2026-08-26T10:44:41.000Z</time>
      </trkpt>
      <trkpt lat="46.03693" lon="5.4301">
        <ele>410.79998779297</ele>
        <time>2026-08-26T10:44:44.000Z</time>
      </trkpt>
      <trkpt lat="46.03693" lon="5.43015">
        <ele>410.20001220703</ele>
        <time>2026-08-26T10:44:47.000Z</time>
      </trkpt>
      <trkpt lat="46.03693" lon="5.43021">
        <ele>409.60000610352</ele>
        <time>2026-08-26T10:44:54.000Z</time>
      </trkpt>
      <trkpt lat="46.03693" lon="5.43022">
        <ele>409.20001220703</ele>
        <time>2026-08-26T10:45:00.000Z</time>
      </trkpt>
      <trkpt lat="46.03693" lon="5.43029">
        <ele>408.79998779297</ele>
        <time>2026-08-26T10:45:04.000Z</time>
      </trkpt>
      <trkpt lat="46.03692" lon="5.43033">
        <ele>408</ele>
        <time>2026-08-26T10:45:07.000Z</time>
      </trkpt>
      <trkpt lat="46.03691" lon="5.43034">
        <ele>407.79998779297</ele>
        <time>2026-08-26T10:45:09.000Z</time>
      </trkpt>
      <trkpt lat="46.0369" lon="5.43032">
        <ele>407.60000610352</ele>
        <time>2026-08-26T10:45:11.000Z</time>
      </trkpt>
      <trkpt lat="46.0368" lon="5.43018">
        <ele>407.60000610352</ele>
        <time>2026-08-26T10:45:21.000Z</time>
      </trkpt>
      <trkpt lat="46.03673" lon="5.43009">
        <ele>407.20001220703</ele>
        <time>2026-08-26T10:45:29.000Z</time>
      </trkpt>
      <trkpt lat="46.03669" lon="5.43004">
        <ele>407</ele>
        <time>2026-08-26T10:45:34.000Z</time>
      </trkpt>
      <trkpt lat="46.03666" lon="5.43001">
        <ele>406.79998779297</ele>
        <time>2026-08-26T10:45:39.000Z</time>
      </trkpt>
      <trkpt lat="46.03663" lon="5.42997">
        <ele>407</ele>
        <time>2026-08-26T10:45:45.000Z</time>
      </trkpt>
      <trkpt lat="46.03663" lon="5.42997">
        <ele>407</ele>
        <time>2026-08-26T10:45:48.000Z</time>
      </trkpt>
      <trkpt lat="46.03658" lon="5.42992">
        <ele>406.79998779297</ele>
        <time>2026-08-26T10:45:56.000Z</time>
      </trkpt>
      <trkpt lat="46.03656" lon="5.42989">
        <ele>406.39999389648</ele>
        <time>2026-08-26T10:46:03.000Z</time>
      </trkpt>
      <trkpt lat="46.03648" lon="5.42978">
        <ele>406.20001220703</ele>
        <time>2026-08-26T10:46:11.000Z</time>
      </trkpt>
      <trkpt lat="46.03646" lon="5.42976">
        <ele>406.20001220703</ele>
        <time>2026-08-26T10:46:13.000Z</time>
      </trkpt>
      <trkpt lat="46.03642" lon="5.4297">
        <ele>406</ele>
        <time>2026-08-26T10:46:17.000Z</time>
      </trkpt>
      <trkpt lat="46.03634" lon="5.4296">
        <ele>405.60000610352</ele>
        <time>2026-08-26T10:46:25.000Z</time>
      </trkpt>
      <trkpt lat="46.03621" lon="5.42944">
        <ele>405</ele>
        <time>2026-08-26T10:46:37.000Z</time>
      </trkpt>
      <trkpt lat="46.03619" lon="5.42944">
        <ele>405</ele>
        <time>2026-08-26T10:46:38.000Z</time>
      </trkpt>
      <trkpt lat="46.03614" lon="5.42939">
        <ele>403.79998779297</ele>
        <time>2026-08-26T10:46:43.000Z</time>
      </trkpt>
      <trkpt lat="46.03611" lon="5.42935">
        <ele>403.60000610352</ele>
        <time>2026-08-26T10:46:46.000Z</time>
      </trkpt>
      <trkpt lat="46.03603" lon="5.42927">
        <ele>402.79998779297</ele>
        <time>2026-08-26T10:46:53.000Z</time>
      </trkpt>
      <trkpt lat="46.03598" lon="5.42924">
        <ele>401.79998779297</ele>
        <time>2026-08-26T10:46:57.000Z</time>
      </trkpt>
      <trkpt lat="46.03593" lon="5.42919">
        <ele>400.60000610352</ele>
        <time>2026-08-26T10:47:02.000Z</time>
      </trkpt>
      <trkpt lat="46.0359" lon="5.42914">
        <ele>400.20001220703</ele>
        <time>2026-08-26T10:47:05.000Z</time>
      </trkpt>
      <trkpt lat="46.03582" lon="5.42898">
        <ele>399.60000610352</ele>
        <time>2026-08-26T10:47:14.000Z</time>
      </trkpt>
      <trkpt lat="46.03582" lon="5.42897">
        <ele>399.60000610352</ele>
        <time>2026-08-26T10:47:15.000Z</time>
      </trkpt>
      <trkpt lat="46.03574" lon="5.42883">
        <ele>399.20001220703</ele>
        <time>2026-08-26T10:47:24.000Z</time>
      </trkpt>
      <trkpt lat="46.03569" lon="5.42875">
        <ele>398.60000610352</ele>
        <time>2026-08-26T10:47:30.000Z</time>
      </trkpt>
      <trkpt lat="46.03564" lon="5.42876">
        <ele>397.79998779297</ele>
        <time>2026-08-26T10:47:34.000Z</time>
      </trkpt>
      <trkpt lat="46.03563" lon="5.42877">
        <ele>397.20001220703</ele>
        <time>2026-08-26T10:47:36.000Z</time>
      </trkpt>
      <trkpt lat="46.03561" lon="5.42879">
        <ele>396.20001220703</ele>
        <time>2026-08-26T10:47:41.000Z</time>
      </trkpt>
      <trkpt lat="46.03561" lon="5.4288">
        <ele>396.20001220703</ele>
        <time>2026-08-26T10:47:42.000Z</time>
      </trkpt>
      <trkpt lat="46.03561" lon="5.42881">
        <ele>395.79998779297</ele>
        <time>2026-08-26T10:47:53.000Z</time>
      </trkpt>
      <trkpt lat="46.03558" lon="5.42884">
        <ele>395.20001220703</ele>
        <time>2026-08-26T10:48:02.000Z</time>
      </trkpt>
      <trkpt lat="46.03553" lon="5.42887">
        <ele>394.20001220703</ele>
        <time>2026-08-26T10:48:08.000Z</time>
      </trkpt>
      <trkpt lat="46.03551" lon="5.42889">
        <ele>393.60000610352</ele>
        <time>2026-08-26T10:48:10.000Z</time>
      </trkpt>
      <trkpt lat="46.03549" lon="5.4289">
        <ele>392.79998779297</ele>
        <time>2026-08-26T10:48:12.000Z</time>
      </trkpt>
      <trkpt lat="46.03547" lon="5.42892">
        <ele>391.79998779297</ele>
        <time>2026-08-26T10:48:15.000Z</time>
      </trkpt>
      <trkpt lat="46.03544" lon="5.42893">
        <ele>390.79998779297</ele>
        <time>2026-08-26T10:48:18.000Z</time>
      </trkpt>
      <trkpt lat="46.03543" lon="5.42893">
        <ele>390.39999389648</ele>
        <time>2026-08-26T10:48:19.000Z</time>
      </trkpt>
      <trkpt lat="46.0354" lon="5.42893">
        <ele>389.39999389648</ele>
        <time>2026-08-26T10:48:22.000Z</time>
      </trkpt>
      <trkpt lat="46.03535" lon="5.42893">
        <ele>388.20001220703</ele>
        <time>2026-08-26T10:48:26.000Z</time>
      </trkpt>
      <trkpt lat="46.03532" lon="5.42894">
        <ele>387.79998779297</ele>
        <time>2026-08-26T10:48:28.000Z</time>
      </trkpt>
      <trkpt lat="46.0353" lon="5.42896">
        <ele>387.20001220703</ele>
        <time>2026-08-26T10:48:30.000Z</time>
      </trkpt>
      <trkpt lat="46.03527" lon="5.42899">
        <ele>386.20001220703</ele>
        <time>2026-08-26T10:48:33.000Z</time>
      </trkpt>
      <trkpt lat="46.03526" lon="5.429">
        <ele>386</ele>
        <time>2026-08-26T10:48:34.000Z</time>
      </trkpt>
      <trkpt lat="46.03525" lon="5.429">
        <ele>385.79998779297</ele>
        <time>2026-08-26T10:48:35.000Z</time>
      </trkpt>
      <trkpt lat="46.03522" lon="5.42903">
        <ele>384.79998779297</ele>
        <time>2026-08-26T10:48:39.000Z</time>
      </trkpt>
      <trkpt lat="46.03517" lon="5.42909">
        <ele>384</ele>
        <time>2026-08-26T10:48:44.000Z</time>
      </trkpt>
      <trkpt lat="46.03515" lon="5.42911">
        <ele>383.79998779297</ele>
        <time>2026-08-26T10:48:46.000Z</time>
      </trkpt>
      <trkpt lat="46.0351" lon="5.42917">
        <ele>383</ele>
        <time>2026-08-26T10:48:51.000Z</time>
      </trkpt>
      <trkpt lat="46.03508" lon="5.42918">
        <ele>382.79998779297</ele>
        <time>2026-08-26T10:48:52.000Z</time>
      </trkpt>
      <trkpt lat="46.03506" lon="5.42919">
        <ele>382.60000610352</ele>
        <time>2026-08-26T10:48:54.000Z</time>
      </trkpt>
      <trkpt lat="46.03502" lon="5.42921">
        <ele>381.60000610352</ele>
        <time>2026-08-26T10:48:58.000Z</time>
      </trkpt>
      <trkpt lat="46.03503" lon="5.42921">
        <ele>381.39999389648</ele>
        <time>2026-08-26T10:48:59.000Z</time>
      </trkpt>
      <trkpt lat="46.03502" lon="5.42922">
        <ele>381</ele>
        <time>2026-08-26T10:49:06.000Z</time>
      </trkpt>
      <trkpt lat="46.03502" lon="5.42921">
        <ele>381</ele>
        <time>2026-08-26T10:49:07.000Z</time>
      </trkpt>
      <trkpt lat="46.03506" lon="5.4292">
        <ele>381.20001220703</ele>
        <time>2026-08-26T10:49:15.000Z</time>
      </trkpt>
      <trkpt lat="46.03507" lon="5.42931">
        <ele>381.79998779297</ele>
        <time>2026-08-26T10:49:22.000Z</time>
      </trkpt>
      <trkpt lat="46.03509" lon="5.42946">
        <ele>380.60000610352</ele>
        <time>2026-08-26T10:49:31.000Z</time>
      </trkpt>
      <trkpt lat="46.03509" lon="5.4295">
        <ele>380.20001220703</ele>
        <time>2026-08-26T10:49:33.000Z</time>
      </trkpt>
      <trkpt lat="46.03515" lon="5.42964">
        <ele>380</ele>
        <time>2026-08-26T10:49:41.000Z</time>
      </trkpt>
      <trkpt lat="46.03519" lon="5.42972">
        <ele>379.39999389648</ele>
        <time>2026-08-26T10:49:46.000Z</time>
      </trkpt>
      <trkpt lat="46.03521" lon="5.42976">
        <ele>379.39999389648</ele>
        <time>2026-08-26T10:49:49.000Z</time>
      </trkpt>
      <trkpt lat="46.03525" lon="5.42985">
        <ele>378.79998779297</ele>
        <time>2026-08-26T10:49:54.000Z</time>
      </trkpt>
      <trkpt lat="46.03526" lon="5.42989">
        <ele>378.39999389648</ele>
        <time>2026-08-26T10:49:56.000Z</time>
      </trkpt>
      <trkpt lat="46.03527" lon="5.42992">
        <ele>378</ele>
        <time>2026-08-26T10:49:58.000Z</time>
      </trkpt>
      <trkpt lat="46.03528" lon="5.42997">
        <ele>377.20001220703</ele>
        <time>2026-08-26T10:50:01.000Z</time>
      </trkpt>
      <trkpt lat="46.0353" lon="5.43006">
        <ele>376</ele>
        <time>2026-08-26T10:50:06.000Z</time>
      </trkpt>
      <trkpt lat="46.03531" lon="5.43012">
        <ele>375.20001220703</ele>
        <time>2026-08-26T10:50:09.000Z</time>
      </trkpt>
      <trkpt lat="46.03532" lon="5.43014">
        <ele>374.79998779297</ele>
        <time>2026-08-26T10:50:10.000Z</time>
      </trkpt>
      <trkpt lat="46.03533" lon="5.43017">
        <ele>374.39999389648</ele>
        <time>2026-08-26T10:50:12.000Z</time>
      </trkpt>
      <trkpt lat="46.03534" lon="5.43021">
        <ele>373.79998779297</ele>
        <time>2026-08-26T10:50:14.000Z</time>
      </trkpt>
      <trkpt lat="46.03536" lon="5.4303">
        <ele>372.79998779297</ele>
        <time>2026-08-26T10:50:19.000Z</time>
      </trkpt>
      <trkpt lat="46.03537" lon="5.43034">
        <ele>372.20001220703</ele>
        <time>2026-08-26T10:50:21.000Z</time>
      </trkpt>
      <trkpt lat="46.03539" lon="5.43039">
        <ele>371.60000610352</ele>
        <time>2026-08-26T10:50:24.000Z</time>
      </trkpt>
      <trkpt lat="46.03542" lon="5.43048">
        <ele>370.60000610352</ele>
        <time>2026-08-26T10:50:29.000Z</time>
      </trkpt>
      <trkpt lat="46.03544" lon="5.43053">
        <ele>370.20001220703</ele>
        <time>2026-08-26T10:50:32.000Z</time>
      </trkpt>
      <trkpt lat="46.03551" lon="5.43067">
        <ele>369.60000610352</ele>
        <time>2026-08-26T10:50:41.000Z</time>
      </trkpt>
      <trkpt lat="46.03561" lon="5.43084">
        <ele>368.79998779297</ele>
        <time>2026-08-26T10:50:53.000Z</time>
      </trkpt>
      <trkpt lat="46.03566" lon="5.43093">
        <ele>368.60000610352</ele>
        <time>2026-08-26T10:51:00.000Z</time>
      </trkpt>
      <trkpt lat="46.03567" lon="5.43095">
        <ele>368.39999389648</ele>
        <time>2026-08-26T10:51:04.000Z</time>
      </trkpt>
      <trkpt lat="46.03568" lon="5.43094">
        <ele>368.39999389648</ele>
        <time>2026-08-26T10:51:12.000Z</time>
      </trkpt>
      <trkpt lat="46.03568" lon="5.43094">
        <ele>368.39999389648</ele>
        <time>2026-08-26T10:51:14.000Z</time>
      </trkpt>
      <trkpt lat="46.0357" lon="5.43095">
        <ele>368.20001220703</ele>
        <time>2026-08-26T10:51:31.000Z</time>
      </trkpt>
      <trkpt lat="46.03569" lon="5.43095">
        <ele>368.39999389648</ele>
        <time>2026-08-26T10:51:39.000Z</time>
      </trkpt>
      <trkpt lat="46.03568" lon="5.43096">
        <ele>368</ele>
        <time>2026-08-26T10:51:48.000Z</time>
      </trkpt>
      <trkpt lat="46.0357" lon="5.43102">
        <ele>368</ele>
        <time>2026-08-26T10:51:55.000Z</time>
      </trkpt>
      <trkpt lat="46.03572" lon="5.43111">
        <ele>367.60000610352</ele>
        <time>2026-08-26T10:52:00.000Z</time>
      </trkpt>
      <trkpt lat="46.03574" lon="5.43117">
        <ele>367.20001220703</ele>
        <time>2026-08-26T10:52:04.000Z</time>
      </trkpt>
      <trkpt lat="46.03578" lon="5.43129">
        <ele>367.20001220703</ele>
        <time>2026-08-26T10:52:12.000Z</time>
      </trkpt>
      <trkpt lat="46.03579" lon="5.43131">
        <ele>367</ele>
        <time>2026-08-26T10:52:13.000Z</time>
      </trkpt>
      <trkpt lat="46.03587" lon="5.43149">
        <ele>366.60000610352</ele>
        <time>2026-08-26T10:52:25.000Z</time>
      </trkpt>
      <trkpt lat="46.03589" lon="5.43152">
        <ele>366.39999389648</ele>
        <time>2026-08-26T10:52:27.000Z</time>
      </trkpt>
      <trkpt lat="46.03598" lon="5.43164">
        <ele>366.20001220703</ele>
        <time>2026-08-26T10:52:37.000Z</time>
      </trkpt>
      <trkpt lat="46.03606" lon="5.43179">
        <ele>365.79998779297</ele>
        <time>2026-08-26T10:52:48.000Z</time>
      </trkpt>
      <trkpt lat="46.0361" lon="5.43187">
        <ele>365.39999389648</ele>
        <time>2026-08-26T10:52:54.000Z</time>
      </trkpt>
      <trkpt lat="46.03616" lon="5.43195">
        <ele>365</ele>
        <time>2026-08-26T10:53:00.000Z</time>
      </trkpt>
      <trkpt lat="46.03626" lon="5.43202">
        <ele>364.79998779297</ele>
        <time>2026-08-26T10:53:09.000Z</time>
      </trkpt>
      <trkpt lat="46.03635" lon="5.43208">
        <ele>365.20001220703</ele>
        <time>2026-08-26T10:53:17.000Z</time>
      </trkpt>
      <trkpt lat="46.03643" lon="5.43213">
        <ele>364.79998779297</ele>
        <time>2026-08-26T10:53:24.000Z</time>
      </trkpt>
      <trkpt lat="46.03656" lon="5.43222">
        <ele>365.20001220703</ele>
        <time>2026-08-26T10:53:35.000Z</time>
      </trkpt>
      <trkpt lat="46.0367" lon="5.4323">
        <ele>365.39999389648</ele>
        <time>2026-08-26T10:53:47.000Z</time>
      </trkpt>
      <trkpt lat="46.03681" lon="5.43235">
        <ele>365.60000610352</ele>
        <time>2026-08-26T10:53:56.000Z</time>
      </trkpt>
      <trkpt lat="46.03695" lon="5.43237">
        <ele>365.60000610352</ele>
        <time>2026-08-26T10:54:07.000Z</time>
      </trkpt>
      <trkpt lat="46.03706" lon="5.43233">
        <ele>365.39999389648</ele>
        <time>2026-08-26T10:54:16.000Z</time>
      </trkpt>
      <trkpt lat="46.03717" lon="5.43226">
        <ele>364.79998779297</ele>
        <time>2026-08-26T10:54:24.000Z</time>
      </trkpt>
      <trkpt lat="46.03725" lon="5.43223">
        <ele>364.39999389648</ele>
        <time>2026-08-26T10:54:29.000Z</time>
      </trkpt>
      <trkpt lat="46.03727" lon="5.43223">
        <ele>364.39999389648</ele>
        <time>2026-08-26T10:54:31.000Z</time>
      </trkpt>
      <trkpt lat="46.03738" lon="5.43223">
        <ele>364</ele>
        <time>2026-08-26T10:54:38.000Z</time>
      </trkpt>
      <trkpt lat="46.0375" lon="5.43223">
        <ele>363.39999389648</ele>
        <time>2026-08-26T10:54:46.000Z</time>
      </trkpt>
      <trkpt lat="46.03751" lon="5.43223">
        <ele>363.39999389648</ele>
        <time>2026-08-26T10:54:47.000Z</time>
      </trkpt>
      <trkpt lat="46.03758" lon="5.43223">
        <ele>363</ele>
        <time>2026-08-26T10:54:52.000Z</time>
      </trkpt>
      <trkpt lat="46.0376" lon="5.43223">
        <ele>363</ele>
        <time>2026-08-26T10:54:53.000Z</time>
      </trkpt>
      <trkpt lat="46.03774" lon="5.43225">
        <ele>362.79998779297</ele>
        <time>2026-08-26T10:55:02.000Z</time>
      </trkpt>
      <trkpt lat="46.03781" lon="5.43226">
        <ele>362.39999389648</ele>
        <time>2026-08-26T10:55:07.000Z</time>
      </trkpt>
      <trkpt lat="46.03791" lon="5.43226">
        <ele>361.79998779297</ele>
        <time>2026-08-26T10:55:13.000Z</time>
      </trkpt>
      <trkpt lat="46.03798" lon="5.43226">
        <ele>361.20001220703</ele>
        <time>2026-08-26T10:55:18.000Z</time>
      </trkpt>
      <trkpt lat="46.03806" lon="5.43221">
        <ele>360.79998779297</ele>
        <time>2026-08-26T10:55:25.000Z</time>
      </trkpt>
      <trkpt lat="46.03813" lon="5.43217">
        <ele>360.20001220703</ele>
        <time>2026-08-26T10:55:30.000Z</time>
      </trkpt>
      <trkpt lat="46.03817" lon="5.43215">
        <ele>359.79998779297</ele>
        <time>2026-08-26T10:55:33.000Z</time>
      </trkpt>
      <trkpt lat="46.03821" lon="5.43213">
        <ele>359.20001220703</ele>
        <time>2026-08-26T10:55:37.000Z</time>
      </trkpt>
      <trkpt lat="46.03827" lon="5.4321">
        <ele>358.39999389648</ele>
        <time>2026-08-26T10:55:41.000Z</time>
      </trkpt>
      <trkpt lat="46.03829" lon="5.43209">
        <ele>358</ele>
        <time>2026-08-26T10:55:43.000Z</time>
      </trkpt>
      <trkpt lat="46.03834" lon="5.43209">
        <ele>357.39999389648</ele>
        <time>2026-08-26T10:55:47.000Z</time>
      </trkpt>
      <trkpt lat="46.03839" lon="5.43211">
        <ele>357</ele>
        <time>2026-08-26T10:55:50.000Z</time>
      </trkpt>
      <trkpt lat="46.03844" lon="5.43212">
        <ele>356.39999389648</ele>
        <time>2026-08-26T10:55:54.000Z</time>
      </trkpt>
      <trkpt lat="46.03847" lon="5.43212">
        <ele>356</ele>
        <time>2026-08-26T10:55:56.000Z</time>
      </trkpt>
      <trkpt lat="46.03852" lon="5.43212">
        <ele>355.20001220703</ele>
        <time>2026-08-26T10:56:00.000Z</time>
      </trkpt>
      <trkpt lat="46.03855" lon="5.43212">
        <ele>354.79998779297</ele>
        <time>2026-08-26T10:56:02.000Z</time>
      </trkpt>
      <trkpt lat="46.0386" lon="5.43216">
        <ele>354.39999389648</ele>
        <time>2026-08-26T10:56:06.000Z</time>
      </trkpt>
      <trkpt lat="46.03866" lon="5.43227">
        <ele>354</ele>
        <time>2026-08-26T10:56:12.000Z</time>
      </trkpt>
      <trkpt lat="46.03872" lon="5.43242">
        <ele>355.20001220703</ele>
        <time>2026-08-26T10:56:22.000Z</time>
      </trkpt>
      <trkpt lat="46.03873" lon="5.43242">
        <ele>355</ele>
        <time>2026-08-26T10:56:29.000Z</time>
      </trkpt>
      <trkpt lat="46.03869" lon="5.4325">
        <ele>355</ele>
        <time>2026-08-26T10:56:37.000Z</time>
      </trkpt>
      <trkpt lat="46.03859" lon="5.4326">
        <ele>355</ele>
        <time>2026-08-26T10:56:46.000Z</time>
      </trkpt>
      <trkpt lat="46.03848" lon="5.43265">
        <ele>354.39999389648</ele>
        <time>2026-08-26T10:56:55.000Z</time>
      </trkpt>
      <trkpt lat="46.03836" lon="5.4327">
        <ele>354</ele>
        <time>2026-08-26T10:57:03.000Z</time>
      </trkpt>
      <trkpt lat="46.03832" lon="5.43272">
        <ele>353.79998779297</ele>
        <time>2026-08-26T10:57:07.000Z</time>
      </trkpt>
      <trkpt lat="46.03828" lon="5.43273">
        <ele>353.60000610352</ele>
        <time>2026-08-26T10:57:10.000Z</time>
      </trkpt>
      <trkpt lat="46.03819" lon="5.43277">
        <ele>353.39999389648</ele>
        <time>2026-08-26T10:57:17.000Z</time>
      </trkpt>
      <trkpt lat="46.03813" lon="5.43281">
        <ele>352.60000610352</ele>
        <time>2026-08-26T10:57:22.000Z</time>
      </trkpt>
      <trkpt lat="46.03809" lon="5.43282">
        <ele>352.60000610352</ele>
        <time>2026-08-26T10:57:25.000Z</time>
      </trkpt>
      <trkpt lat="46.03797" lon="5.43287">
        <ele>352</ele>
        <time>2026-08-26T10:57:32.000Z</time>
      </trkpt>
      <trkpt lat="46.03793" lon="5.43288">
        <ele>351.60000610352</ele>
        <time>2026-08-26T10:57:35.000Z</time>
      </trkpt>
      <trkpt lat="46.03787" lon="5.4329">
        <ele>351.20001220703</ele>
        <time>2026-08-26T10:57:39.000Z</time>
      </trkpt>
      <trkpt lat="46.03776" lon="5.43293">
        <ele>350.39999389648</ele>
        <time>2026-08-26T10:57:47.000Z</time>
      </trkpt>
      <trkpt lat="46.03773" lon="5.43295">
        <ele>350.20001220703</ele>
        <time>2026-08-26T10:57:49.000Z</time>
      </trkpt>
      <trkpt lat="46.0376" lon="5.43298">
        <ele>349.60000610352</ele>
        <time>2026-08-26T10:57:59.000Z</time>
      </trkpt>
      <trkpt lat="46.0375" lon="5.43297">
        <ele>349.20001220703</ele>
        <time>2026-08-26T10:58:07.000Z</time>
      </trkpt>
      <trkpt lat="46.03749" lon="5.43299">
        <ele>349.39999389648</ele>
        <time>2026-08-26T10:58:14.000Z</time>
      </trkpt>
      <trkpt lat="46.03749" lon="5.43299">
        <ele>349.39999389648</ele>
        <time>2026-08-26T10:58:15.000Z</time>
      </trkpt>
      <trkpt lat="46.03745" lon="5.43299">
        <ele>349.39999389648</ele>
        <time>2026-08-26T10:58:25.000Z</time>
      </trkpt>
      <trkpt lat="46.03742" lon="5.43299">
        <ele>349.20001220703</ele>
        <time>2026-08-26T10:58:28.000Z</time>
      </trkpt>
      <trkpt lat="46.03739" lon="5.433">
        <ele>349.20001220703</ele>
        <time>2026-08-26T10:58:30.000Z</time>
      </trkpt>
      <trkpt lat="46.03733" lon="5.43302">
        <ele>349.20001220703</ele>
        <time>2026-08-26T10:58:35.000Z</time>
      </trkpt>
      <trkpt lat="46.03731" lon="5.43304">
        <ele>348.79998779297</ele>
        <time>2026-08-26T10:58:37.000Z</time>
      </trkpt>
      <trkpt lat="46.03727" lon="5.43309">
        <ele>348.20001220703</ele>
        <time>2026-08-26T10:58:41.000Z</time>
      </trkpt>
      <trkpt lat="46.03725" lon="5.4331">
        <ele>348.20001220703</ele>
        <time>2026-08-26T10:58:42.000Z</time>
      </trkpt>
      <trkpt lat="46.03724" lon="5.43311">
        <ele>348.20001220703</ele>
        <time>2026-08-26T10:58:43.000Z</time>
      </trkpt>
      <trkpt lat="46.03722" lon="5.43314">
        <ele>348.20001220703</ele>
        <time>2026-08-26T10:58:45.000Z</time>
      </trkpt>
      <trkpt lat="46.03712" lon="5.43328">
        <ele>347.79998779297</ele>
        <time>2026-08-26T10:58:55.000Z</time>
      </trkpt>
      <trkpt lat="46.03705" lon="5.43338">
        <ele>347.20001220703</ele>
        <time>2026-08-26T10:59:02.000Z</time>
      </trkpt>
      <trkpt lat="46.03701" lon="5.43343">
        <ele>347.20001220703</ele>
        <time>2026-08-26T10:59:05.000Z</time>
      </trkpt>
      <trkpt lat="46.03691" lon="5.43352">
        <ele>347</ele>
        <time>2026-08-26T10:59:13.000Z</time>
      </trkpt>
      <trkpt lat="46.03676" lon="5.43358">
        <ele>346.60000610352</ele>
        <time>2026-08-26T10:59:22.000Z</time>
      </trkpt>
      <trkpt lat="46.03664" lon="5.43361">
        <ele>346.20001220703</ele>
        <time>2026-08-26T10:59:30.000Z</time>
      </trkpt>
      <trkpt lat="46.03662" lon="5.43361">
        <ele>346.20001220703</ele>
        <time>2026-08-26T10:59:31.000Z</time>
      </trkpt>
      <trkpt lat="46.03652" lon="5.43358">
        <ele>345.79998779297</ele>
        <time>2026-08-26T10:59:39.000Z</time>
      </trkpt>
      <trkpt lat="46.03639" lon="5.43357">
        <ele>345.39999389648</ele>
        <time>2026-08-26T10:59:48.000Z</time>
      </trkpt>
      <trkpt lat="46.03634" lon="5.43357">
        <ele>345.20001220703</ele>
        <time>2026-08-26T10:59:51.000Z</time>
      </trkpt>
      <trkpt lat="46.03627" lon="5.43356">
        <ele>344.79998779297</ele>
        <time>2026-08-26T10:59:56.000Z</time>
      </trkpt>
      <trkpt lat="46.0362" lon="5.43355">
        <ele>344.20001220703</ele>
        <time>2026-08-26T11:00:02.000Z</time>
      </trkpt>
      <trkpt lat="46.03615" lon="5.43353">
        <ele>343.79998779297</ele>
        <time>2026-08-26T11:00:06.000Z</time>
      </trkpt>
      <trkpt lat="46.0361" lon="5.43354">
        <ele>343.60000610352</ele>
        <time>2026-08-26T11:00:09.000Z</time>
      </trkpt>
      <trkpt lat="46.03608" lon="5.43353">
        <ele>343.60000610352</ele>
        <time>2026-08-26T11:00:11.000Z</time>
      </trkpt>
      <trkpt lat="46.03604" lon="5.43352">
        <ele>343.39999389648</ele>
        <time>2026-08-26T11:00:14.000Z</time>
      </trkpt>
      <trkpt lat="46.036" lon="5.43351">
        <ele>343</ele>
        <time>2026-08-26T11:00:18.000Z</time>
      </trkpt>
      <trkpt lat="46.03597" lon="5.4335">
        <ele>342.79998779297</ele>
        <time>2026-08-26T11:00:21.000Z</time>
      </trkpt>
      <trkpt lat="46.03587" lon="5.43348">
        <ele>342.60000610352</ele>
        <time>2026-08-26T11:00:28.000Z</time>
      </trkpt>
      <trkpt lat="46.03581" lon="5.43346">
        <ele>342</ele>
        <time>2026-08-26T11:00:32.000Z</time>
      </trkpt>
      <trkpt lat="46.03575" lon="5.43343">
        <ele>341.60000610352</ele>
        <time>2026-08-26T11:00:36.000Z</time>
      </trkpt>
      <trkpt lat="46.03565" lon="5.43336">
        <ele>341</ele>
        <time>2026-08-26T11:00:44.000Z</time>
      </trkpt>
      <trkpt lat="46.03563" lon="5.43334">
        <ele>341</ele>
        <time>2026-08-26T11:00:46.000Z</time>
      </trkpt>
      <trkpt lat="46.03557" lon="5.43329">
        <ele>340.60000610352</ele>
        <time>2026-08-26T11:00:50.000Z</time>
      </trkpt>
      <trkpt lat="46.03554" lon="5.43327">
        <ele>340.39999389648</ele>
        <time>2026-08-26T11:00:52.000Z</time>
      </trkpt>
      <trkpt lat="46.03552" lon="5.43324">
        <ele>340.20001220703</ele>
        <time>2026-08-26T11:00:54.000Z</time>
      </trkpt>
      <trkpt lat="46.03548" lon="5.43318">
        <ele>339.79998779297</ele>
        <time>2026-08-26T11:00:58.000Z</time>
      </trkpt>
      <trkpt lat="46.03547" lon="5.43317">
        <ele>339.79998779297</ele>
        <time>2026-08-26T11:00:59.000Z</time>
      </trkpt>
      <trkpt lat="46.03539" lon="5.4331">
        <ele>339</ele>
        <time>2026-08-26T11:01:06.000Z</time>
      </trkpt>
      <trkpt lat="46.03536" lon="5.43307">
        <ele>338.79998779297</ele>
        <time>2026-08-26T11:01:08.000Z</time>
      </trkpt>
      <trkpt lat="46.03532" lon="5.43301">
        <ele>338.20001220703</ele>
        <time>2026-08-26T11:01:13.000Z</time>
      </trkpt>
      <trkpt lat="46.03525" lon="5.43294">
        <ele>337.60000610352</ele>
        <time>2026-08-26T11:01:18.000Z</time>
      </trkpt>
      <trkpt lat="46.03523" lon="5.43291">
        <ele>337.39999389648</ele>
        <time>2026-08-26T11:01:20.000Z</time>
      </trkpt>
      <trkpt lat="46.03514" lon="5.43281">
        <ele>336.60000610352</ele>
        <time>2026-08-26T11:01:28.000Z</time>
      </trkpt>
      <trkpt lat="46.03513" lon="5.4328">
        <ele>336.60000610352</ele>
        <time>2026-08-26T11:01:29.000Z</time>
      </trkpt>
      <trkpt lat="46.03503" lon="5.43269">
        <ele>335.39999389648</ele>
        <time>2026-08-26T11:01:38.000Z</time>
      </trkpt>
      <trkpt lat="46.03494" lon="5.43259">
        <ele>334.79998779297</ele>
        <time>2026-08-26T11:01:46.000Z</time>
      </trkpt>
      <trkpt lat="46.03491" lon="5.43255">
        <ele>334.39999389648</ele>
        <time>2026-08-26T11:01:49.000Z</time>
      </trkpt>
      <trkpt lat="46.03486" lon="5.4325">
        <ele>334</ele>
        <time>2026-08-26T11:01:54.000Z</time>
      </trkpt>
      <trkpt lat="46.03477" lon="5.43241">
        <ele>333.39999389648</ele>
        <time>2026-08-26T11:02:01.000Z</time>
      </trkpt>
      <trkpt lat="46.03476" lon="5.4324">
        <ele>333.39999389648</ele>
        <time>2026-08-26T11:02:02.000Z</time>
      </trkpt>
      <trkpt lat="46.03468" lon="5.4323">
        <ele>332.79998779297</ele>
        <time>2026-08-26T11:02:10.000Z</time>
      </trkpt>
      <trkpt lat="46.03462" lon="5.43224">
        <ele>332.39999389648</ele>
        <time>2026-08-26T11:02:16.000Z</time>
      </trkpt>
      <trkpt lat="46.0346" lon="5.43222">
        <ele>332.20001220703</ele>
        <time>2026-08-26T11:02:17.000Z</time>
      </trkpt>
      <trkpt lat="46.03449" lon="5.43211">
        <ele>331.39999389648</ele>
        <time>2026-08-26T11:02:26.000Z</time>
      </trkpt>
      <trkpt lat="46.03448" lon="5.4321">
        <ele>331.39999389648</ele>
        <time>2026-08-26T11:02:27.000Z</time>
      </trkpt>
      <trkpt lat="46.03439" lon="5.43199">
        <ele>330.60000610352</ele>
        <time>2026-08-26T11:02:35.000Z</time>
      </trkpt>
      <trkpt lat="46.03435" lon="5.43193">
        <ele>330.39999389648</ele>
        <time>2026-08-26T11:02:39.000Z</time>
      </trkpt>
      <trkpt lat="46.0343" lon="5.43188">
        <ele>329.79998779297</ele>
        <time>2026-08-26T11:02:43.000Z</time>
      </trkpt>
      <trkpt lat="46.03427" lon="5.43183">
        <ele>329.79998779297</ele>
        <time>2026-08-26T11:02:47.000Z</time>
      </trkpt>
      <trkpt lat="46.03421" lon="5.43176">
        <ele>329.39999389648</ele>
        <time>2026-08-26T11:02:52.000Z</time>
      </trkpt>
      <trkpt lat="46.03418" lon="5.43172">
        <ele>329.39999389648</ele>
        <time>2026-08-26T11:02:55.000Z</time>
      </trkpt>
      <trkpt lat="46.0341" lon="5.43164">
        <ele>328.79998779297</ele>
        <time>2026-08-26T11:03:01.000Z</time>
      </trkpt>
      <trkpt lat="46.03402" lon="5.43156">
        <ele>328.39999389648</ele>
        <time>2026-08-26T11:03:09.000Z</time>
      </trkpt>
      <trkpt lat="46.03401" lon="5.43155">
        <ele>328.39999389648</ele>
        <time>2026-08-26T11:03:10.000Z</time>
      </trkpt>
      <trkpt lat="46.03393" lon="5.43149">
        <ele>328</ele>
        <time>2026-08-26T11:03:16.000Z</time>
      </trkpt>
      <trkpt lat="46.03391" lon="5.43147">
        <ele>327.79998779297</ele>
        <time>2026-08-26T11:03:18.000Z</time>
      </trkpt>
      <trkpt lat="46.03378" lon="5.43136">
        <ele>327.39999389648</ele>
        <time>2026-08-26T11:03:28.000Z</time>
      </trkpt>
      <trkpt lat="46.03366" lon="5.43126">
        <ele>326.79998779297</ele>
        <time>2026-08-26T11:03:37.000Z</time>
      </trkpt>
      <trkpt lat="46.03357" lon="5.43116">
        <ele>326.20001220703</ele>
        <time>2026-08-26T11:03:45.000Z</time>
      </trkpt>
      <trkpt lat="46.03348" lon="5.43107">
        <ele>325.60000610352</ele>
        <time>2026-08-26T11:03:54.000Z</time>
      </trkpt>
      <trkpt lat="46.03349" lon="5.43108">
        <ele>325.60000610352</ele>
        <time>2026-08-26T11:04:00.000Z</time>
      </trkpt>
      <trkpt lat="46.03351" lon="5.43107">
        <ele>325.79998779297</ele>
        <time>2026-08-26T11:04:06.000Z</time>
      </trkpt>
      <trkpt lat="46.03351" lon="5.43107">
        <ele>325.79998779297</ele>
        <time>2026-08-26T11:04:08.000Z</time>
      </trkpt>
      <trkpt lat="46.03349" lon="5.43104">
        <ele>325.79998779297</ele>
        <time>2026-08-26T11:04:11.000Z</time>
      </trkpt>
      <trkpt lat="46.03346" lon="5.43101">
        <ele>325.79998779297</ele>
        <time>2026-08-26T11:04:13.000Z</time>
      </trkpt>
      <trkpt lat="46.03345" lon="5.43099">
        <ele>325.79998779297</ele>
        <time>2026-08-26T11:04:14.000Z</time>
      </trkpt>
      <trkpt lat="46.03345" lon="5.43098">
        <ele>325.60000610352</ele>
        <time>2026-08-26T11:04:15.000Z</time>
      </trkpt>
      <trkpt lat="46.03343" lon="5.43083">
        <ele>325.39999389648</ele>
        <time>2026-08-26T11:04:22.000Z</time>
      </trkpt>
      <trkpt lat="46.0334" lon="5.43076">
        <ele>325.20001220703</ele>
        <time>2026-08-26T11:04:27.000Z</time>
      </trkpt>
      <trkpt lat="46.03338" lon="5.43073">
        <ele>324.79998779297</ele>
        <time>2026-08-26T11:04:30.000Z</time>
      </trkpt>
      <trkpt lat="46.03331" lon="5.43064">
        <ele>324.20001220703</ele>
        <time>2026-08-26T11:04:38.000Z</time>
      </trkpt>
      <trkpt lat="46.03331" lon="5.43065">
        <ele>324.39999389648</ele>
        <time>2026-08-26T11:04:42.000Z</time>
      </trkpt>
      <trkpt lat="46.03333" lon="5.43066">
        <ele>324.39999389648</ele>
        <time>2026-08-26T11:04:44.000Z</time>
      </trkpt>
      <trkpt lat="46.03335" lon="5.43069">
        <ele>324</ele>
        <time>2026-08-26T11:04:47.000Z</time>
      </trkpt>
      <trkpt lat="46.03339" lon="5.43072">
        <ele>324.39999389648</ele>
        <time>2026-08-26T11:04:51.000Z</time>
      </trkpt>
      <trkpt lat="46.03346" lon="5.43083">
        <ele>324.60000610352</ele>
        <time>2026-08-26T11:04:57.000Z</time>
      </trkpt>
      <trkpt lat="46.03346" lon="5.43085">
        <ele>324.79998779297</ele>
        <time>2026-08-26T11:04:58.000Z</time>
      </trkpt>
      <trkpt lat="46.03346" lon="5.43089">
        <ele>325.20001220703</ele>
        <time>2026-08-26T11:05:00.000Z</time>
      </trkpt>
      <trkpt lat="46.03344" lon="5.43093">
        <ele>325.39999389648</ele>
        <time>2026-08-26T11:05:03.000Z</time>
      </trkpt>
      <trkpt lat="46.03342" lon="5.43094">
        <ele>325.39999389648</ele>
        <time>2026-08-26T11:05:04.000Z</time>
      </trkpt>
      <trkpt lat="46.03335" lon="5.43093">
        <ele>325.79998779297</ele>
        <time>2026-08-26T11:05:11.000Z</time>
      </trkpt>
      <trkpt lat="46.03331" lon="5.43094">
        <ele>325.79998779297</ele>
        <time>2026-08-26T11:05:19.000Z</time>
      </trkpt>
      <trkpt lat="46.03332" lon="5.43094">
        <ele>326</ele>
        <time>2026-08-26T11:05:27.000Z</time>
      </trkpt>
      <trkpt lat="46.03331" lon="5.43096">
        <ele>325.60000610352</ele>
        <time>2026-08-26T11:05:40.000Z</time>
      </trkpt>
      <trkpt lat="46.03331" lon="5.43095">
        <ele>325.60000610352</ele>
        <time>2026-08-26T11:05:47.000Z</time>
      </trkpt>
      <trkpt lat="46.03327" lon="5.43088">
        <ele>325.39999389648</ele>
        <time>2026-08-26T11:05:55.000Z</time>
      </trkpt>
      <trkpt lat="46.03319" lon="5.4308">
        <ele>324.60000610352</ele>
        <time>2026-08-26T11:06:02.000Z</time>
      </trkpt>
      <trkpt lat="46.03311" lon="5.43076">
        <ele>324.60000610352</ele>
        <time>2026-08-26T11:06:10.000Z</time>
      </trkpt>
      <trkpt lat="46.03306" lon="5.43083">
        <ele>324.39999389648</ele>
        <time>2026-08-26T11:06:17.000Z</time>
      </trkpt>
      <trkpt lat="46.03296" lon="5.43094">
        <ele>324.20001220703</ele>
        <time>2026-08-26T11:06:26.000Z</time>
      </trkpt>
      <trkpt lat="46.03292" lon="5.43095">
        <ele>324</ele>
        <time>2026-08-26T11:06:29.000Z</time>
      </trkpt>
      <trkpt lat="46.03285" lon="5.4309">
        <ele>323.60000610352</ele>
        <time>2026-08-26T11:06:34.000Z</time>
      </trkpt>
      <trkpt lat="46.03274" lon="5.43082">
        <ele>323</ele>
        <time>2026-08-26T11:06:41.000Z</time>
      </trkpt>
      <trkpt lat="46.03271" lon="5.4308">
        <ele>323</ele>
        <time>2026-08-26T11:06:43.000Z</time>
      </trkpt>
      <trkpt lat="46.03259" lon="5.43071">
        <ele>322.39999389648</ele>
        <time>2026-08-26T11:06:52.000Z</time>
      </trkpt>
      <trkpt lat="46.03251" lon="5.43065">
        <ele>322</ele>
        <time>2026-08-26T11:06:58.000Z</time>
      </trkpt>
      <trkpt lat="46.03248" lon="5.43062">
        <ele>321.79998779297</ele>
        <time>2026-08-26T11:07:01.000Z</time>
      </trkpt>
      <trkpt lat="46.03237" lon="5.43052">
        <ele>321</ele>
        <time>2026-08-26T11:07:11.000Z</time>
      </trkpt>
      <trkpt lat="46.03235" lon="5.43051">
        <ele>321</ele>
        <time>2026-08-26T11:07:12.000Z</time>
      </trkpt>
      <trkpt lat="46.03223" lon="5.43042">
        <ele>320.79998779297</ele>
        <time>2026-08-26T11:07:21.000Z</time>
      </trkpt>
      <trkpt lat="46.03214" lon="5.43032">
        <ele>320</ele>
        <time>2026-08-26T11:07:29.000Z</time>
      </trkpt>
      <trkpt lat="46.0321" lon="5.43026">
        <ele>319.39999389648</ele>
        <time>2026-08-26T11:07:33.000Z</time>
      </trkpt>
      <trkpt lat="46.032" lon="5.4302">
        <ele>318.79998779297</ele>
        <time>2026-08-26T11:07:41.000Z</time>
      </trkpt>
      <trkpt lat="46.03197" lon="5.4302">
        <ele>318.60000610352</ele>
        <time>2026-08-26T11:07:43.000Z</time>
      </trkpt>
      <trkpt lat="46.0319" lon="5.43016">
        <ele>318.20001220703</ele>
        <time>2026-08-26T11:07:48.000Z</time>
      </trkpt>
      <trkpt lat="46.03183" lon="5.43013">
        <ele>317.79998779297</ele>
        <time>2026-08-26T11:07:53.000Z</time>
      </trkpt>
      <trkpt lat="46.03179" lon="5.43011">
        <ele>317.60000610352</ele>
        <time>2026-08-26T11:07:56.000Z</time>
      </trkpt>
      <trkpt lat="46.03166" lon="5.43004">
        <ele>317</ele>
        <time>2026-08-26T11:08:06.000Z</time>
      </trkpt>
      <trkpt lat="46.03163" lon="5.43002">
        <ele>316.79998779297</ele>
        <time>2026-08-26T11:08:08.000Z</time>
      </trkpt>
      <trkpt lat="46.03154" lon="5.42997">
        <ele>316.20001220703</ele>
        <time>2026-08-26T11:08:16.000Z</time>
      </trkpt>
      <trkpt lat="46.03143" lon="5.42992">
        <ele>315.79998779297</ele>
        <time>2026-08-26T11:08:25.000Z</time>
      </trkpt>
      <trkpt lat="46.03138" lon="5.43">
        <ele>316</ele>
        <time>2026-08-26T11:08:31.000Z</time>
      </trkpt>
      <trkpt lat="46.03133" lon="5.43016">
        <ele>316</ele>
        <time>2026-08-26T11:08:40.000Z</time>
      </trkpt>
      <trkpt lat="46.03129" lon="5.43027">
        <ele>316.20001220703</ele>
        <time>2026-08-26T11:08:46.000Z</time>
      </trkpt>
      <trkpt lat="46.03128" lon="5.43031">
        <ele>316.20001220703</ele>
        <time>2026-08-26T11:08:48.000Z</time>
      </trkpt>
      <trkpt lat="46.03126" lon="5.43037">
        <ele>316.20001220703</ele>
        <time>2026-08-26T11:08:51.000Z</time>
      </trkpt>
      <trkpt lat="46.03126" lon="5.43051">
        <ele>316.79998779297</ele>
        <time>2026-08-26T11:08:59.000Z</time>
      </trkpt>
      <trkpt lat="46.03124" lon="5.43066">
        <ele>317.60000610352</ele>
        <time>2026-08-26T11:09:09.000Z</time>
      </trkpt>
      <trkpt lat="46.03124" lon="5.43068">
        <ele>317.79998779297</ele>
        <time>2026-08-26T11:09:11.000Z</time>
      </trkpt>
      <trkpt lat="46.03122" lon="5.4308">
        <ele>319</ele>
        <time>2026-08-26T11:09:19.000Z</time>
      </trkpt>
      <trkpt lat="46.03122" lon="5.43086">
        <ele>320</ele>
        <time>2026-08-26T11:09:25.000Z</time>
      </trkpt>
      <trkpt lat="46.03121" lon="5.43089">
        <ele>320.39999389648</ele>
        <time>2026-08-26T11:09:27.000Z</time>
      </trkpt>
      <trkpt lat="46.03118" lon="5.43093">
        <ele>321</ele>
        <time>2026-08-26T11:09:30.000Z</time>
      </trkpt>
      <trkpt lat="46.03115" lon="5.43096">
        <ele>322</ele>
        <time>2026-08-26T11:09:34.000Z</time>
      </trkpt>
      <trkpt lat="46.03114" lon="5.43097">
        <ele>322.20001220703</ele>
        <time>2026-08-26T11:09:35.000Z</time>
      </trkpt>
      <trkpt lat="46.03111" lon="5.43099">
        <ele>323</ele>
        <time>2026-08-26T11:09:42.000Z</time>
      </trkpt>
      <trkpt lat="46.0311" lon="5.43101">
        <ele>322.79998779297</ele>
        <time>2026-08-26T11:09:49.000Z</time>
      </trkpt>
      <trkpt lat="46.03107" lon="5.43103">
        <ele>322.79998779297</ele>
        <time>2026-08-26T11:09:57.000Z</time>
      </trkpt>
      <trkpt lat="46.03104" lon="5.431">
        <ele>322.20001220703</ele>
        <time>2026-08-26T11:10:04.000Z</time>
      </trkpt>
      <trkpt lat="46.03101" lon="5.43094">
        <ele>321</ele>
        <time>2026-08-26T11:10:09.000Z</time>
      </trkpt>
      <trkpt lat="46.031" lon="5.43092">
        <ele>320.39999389648</ele>
        <time>2026-08-26T11:10:11.000Z</time>
      </trkpt>
      <trkpt lat="46.03099" lon="5.43092">
        <ele>320</ele>
        <time>2026-08-26T11:10:13.000Z</time>
      </trkpt>
      <trkpt lat="46.03094" lon="5.43094">
        <ele>319.20001220703</ele>
        <time>2026-08-26T11:10:18.000Z</time>
      </trkpt>
      <trkpt lat="46.03088" lon="5.43097">
        <ele>319</ele>
        <time>2026-08-26T11:10:23.000Z</time>
      </trkpt>
      <trkpt lat="46.03086" lon="5.43098">
        <ele>318.39999389648</ele>
        <time>2026-08-26T11:10:25.000Z</time>
      </trkpt>
      <trkpt lat="46.03083" lon="5.43098">
        <ele>317.79998779297</ele>
        <time>2026-08-26T11:10:27.000Z</time>
      </trkpt>
      <trkpt lat="46.03082" lon="5.43098">
        <ele>317.60000610352</ele>
        <time>2026-08-26T11:10:28.000Z</time>
      </trkpt>
      <trkpt lat="46.03078" lon="5.43099">
        <ele>316.79998779297</ele>
        <time>2026-08-26T11:10:32.000Z</time>
      </trkpt>
      <trkpt lat="46.03077" lon="5.431">
        <ele>316.60000610352</ele>
        <time>2026-08-26T11:10:33.000Z</time>
      </trkpt>
      <trkpt lat="46.03074" lon="5.43101">
        <ele>316.39999389648</ele>
        <time>2026-08-26T11:10:35.000Z</time>
      </trkpt>
      <trkpt lat="46.03071" lon="5.43103">
        <ele>315.79998779297</ele>
        <time>2026-08-26T11:10:39.000Z</time>
      </trkpt>
      <trkpt lat="46.03069" lon="5.43102">
        <ele>315.60000610352</ele>
        <time>2026-08-26T11:10:40.000Z</time>
      </trkpt>
      <trkpt lat="46.03063" lon="5.43106">
        <ele>315.20001220703</ele>
        <time>2026-08-26T11:10:47.000Z</time>
      </trkpt>
      <trkpt lat="46.03058" lon="5.43112">
        <ele>315.39999389648</ele>
        <time>2026-08-26T11:10:53.000Z</time>
      </trkpt>
      <trkpt lat="46.03051" lon="5.43118">
        <ele>315.20001220703</ele>
        <time>2026-08-26T11:11:01.000Z</time>
      </trkpt>
      <trkpt lat="46.03047" lon="5.43119">
        <ele>315</ele>
        <time>2026-08-26T11:11:05.000Z</time>
      </trkpt>
      <trkpt lat="46.03045" lon="5.43118">
        <ele>314.79998779297</ele>
        <time>2026-08-26T11:11:09.000Z</time>
      </trkpt>
      <trkpt lat="46.03045" lon="5.43118">
        <ele>315</ele>
        <time>2026-08-26T11:11:12.000Z</time>
      </trkpt>
      <trkpt lat="46.03045" lon="5.43118">
        <ele>315</ele>
        <time>2026-08-26T11:11:13.000Z</time>
      </trkpt>
      <trkpt lat="46.03045" lon="5.43117">
        <ele>315</ele>
        <time>2026-08-26T11:11:14.000Z</time>
      </trkpt>
      <trkpt lat="46.03045" lon="5.43116">
        <ele>315</ele>
        <time>2026-08-26T11:11:17.000Z</time>
      </trkpt>
      <trkpt lat="46.03044" lon="5.43115">
        <ele>315</ele>
        <time>2026-08-26T11:11:23.000Z</time>
      </trkpt>
      <trkpt lat="46.03046" lon="5.43118">
        <ele>315</ele>
        <time>2026-08-26T11:11:35.000Z</time>
      </trkpt>
      <trkpt lat="46.03046" lon="5.43115">
        <ele>314.79998779297</ele>
        <time>2026-08-26T11:11:44.000Z</time>
      </trkpt>
      <trkpt lat="46.03046" lon="5.43111">
        <ele>314.79998779297</ele>
        <time>2026-08-26T11:11:46.000Z</time>
      </trkpt>
      <trkpt lat="46.03047" lon="5.431">
        <ele>314.79998779297</ele>
        <time>2026-08-26T11:11:51.000Z</time>
      </trkpt>
      <trkpt lat="46.03049" lon="5.4309">
        <ele>314.79998779297</ele>
        <time>2026-08-26T11:11:56.000Z</time>
      </trkpt>
      <trkpt lat="46.0305" lon="5.43082">
        <ele>315</ele>
        <time>2026-08-26T11:12:00.000Z</time>
      </trkpt>
      <trkpt lat="46.03051" lon="5.43072">
        <ele>314.20001220703</ele>
        <time>2026-08-26T11:12:05.000Z</time>
      </trkpt>
      <trkpt lat="46.03055" lon="5.43051">
        <ele>314</ele>
        <time>2026-08-26T11:12:15.000Z</time>
      </trkpt>
      <trkpt lat="46.03056" lon="5.43043">
        <ele>313.79998779297</ele>
        <time>2026-08-26T11:12:19.000Z</time>
      </trkpt>
      <trkpt lat="46.03057" lon="5.43033">
        <ele>313.60000610352</ele>
        <time>2026-08-26T11:12:24.000Z</time>
      </trkpt>
      <trkpt lat="46.03059" lon="5.43014">
        <ele>313</ele>
        <time>2026-08-26T11:12:33.000Z</time>
      </trkpt>
      <trkpt lat="46.0306" lon="5.43003">
        <ele>312.60000610352</ele>
        <time>2026-08-26T11:12:38.000Z</time>
      </trkpt>
      <trkpt lat="46.03061" lon="5.42993">
        <ele>312.39999389648</ele>
        <time>2026-08-26T11:12:42.000Z</time>
      </trkpt>
      <trkpt lat="46.03063" lon="5.42987">
        <ele>312</ele>
        <time>2026-08-26T11:12:49.000Z</time>
      </trkpt>
      <trkpt lat="46.03064" lon="5.42985">
        <ele>312</ele>
        <time>2026-08-26T11:13:00.000Z</time>
      </trkpt>
      <trkpt lat="46.03064" lon="5.42988">
        <ele>312</ele>
        <time>2026-08-26T11:13:02.000Z</time>
      </trkpt>
      <trkpt lat="46.03062" lon="5.43003">
        <ele>312.20001220703</ele>
        <time>2026-08-26T11:13:09.000Z</time>
      </trkpt>
      <trkpt lat="46.03062" lon="5.43007">
        <ele>312.39999389648</ele>
        <time>2026-08-26T11:13:11.000Z</time>
      </trkpt>
      <trkpt lat="46.03061" lon="5.43015">
        <ele>312.60000610352</ele>
        <time>2026-08-26T11:13:15.000Z</time>
      </trkpt>
      <trkpt lat="46.0306" lon="5.43023">
        <ele>313</ele>
        <time>2026-08-26T11:13:19.000Z</time>
      </trkpt>
      <trkpt lat="46.03059" lon="5.43026">
        <ele>313.20001220703</ele>
        <time>2026-08-26T11:13:20.000Z</time>
      </trkpt>
      <trkpt lat="46.03058" lon="5.43042">
        <ele>313.79998779297</ele>
        <time>2026-08-26T11:13:26.000Z</time>
      </trkpt>
      <trkpt lat="46.03057" lon="5.43044">
        <ele>314</ele>
        <time>2026-08-26T11:13:27.000Z</time>
      </trkpt>
      <trkpt lat="46.03056" lon="5.43057">
        <ele>313.60000610352</ele>
        <time>2026-08-26T11:13:33.000Z</time>
      </trkpt>
      <trkpt lat="46.03054" lon="5.43074">
        <ele>314</ele>
        <time>2026-08-26T11:13:41.000Z</time>
      </trkpt>
      <trkpt lat="46.03054" lon="5.43076">
        <ele>314.20001220703</ele>
        <time>2026-08-26T11:13:42.000Z</time>
      </trkpt>
      <trkpt lat="46.0305" lon="5.431">
        <ele>314.39999389648</ele>
        <time>2026-08-26T11:13:53.000Z</time>
      </trkpt>
      <trkpt lat="46.03046" lon="5.43114">
        <ele>314.60000610352</ele>
        <time>2026-08-26T11:14:00.000Z</time>
      </trkpt>
      <trkpt lat="46.03044" lon="5.43122">
        <ele>314.79998779297</ele>
        <time>2026-08-26T11:14:04.000Z</time>
      </trkpt>
      <trkpt lat="46.0304" lon="5.43132">
        <ele>314.79998779297</ele>
        <time>2026-08-26T11:14:09.000Z</time>
      </trkpt>
      <trkpt lat="46.03037" lon="5.43132">
        <ele>315</ele>
        <time>2026-08-26T11:14:11.000Z</time>
      </trkpt>
      <trkpt lat="46.03032" lon="5.43139">
        <ele>315</ele>
        <time>2026-08-26T11:14:17.000Z</time>
      </trkpt>
      <trkpt lat="46.03027" lon="5.43159">
        <ele>315.39999389648</ele>
        <time>2026-08-26T11:14:27.000Z</time>
      </trkpt>
      <trkpt lat="46.03022" lon="5.43177">
        <ele>315.79998779297</ele>
        <time>2026-08-26T11:14:36.000Z</time>
      </trkpt>
      <trkpt lat="46.0302" lon="5.43185">
        <ele>315.79998779297</ele>
        <time>2026-08-26T11:14:41.000Z</time>
      </trkpt>
      <trkpt lat="46.03019" lon="5.43187">
        <ele>315.79998779297</ele>
        <time>2026-08-26T11:14:42.000Z</time>
      </trkpt>
      <trkpt lat="46.03017" lon="5.43192">
        <ele>316</ele>
        <time>2026-08-26T11:14:44.000Z</time>
      </trkpt>
      <trkpt lat="46.03016" lon="5.43196">
        <ele>316</ele>
        <time>2026-08-26T11:14:46.000Z</time>
      </trkpt>
      <trkpt lat="46.03013" lon="5.43201">
        <ele>316</ele>
        <time>2026-08-26T11:14:49.000Z</time>
      </trkpt>
      <trkpt lat="46.03012" lon="5.43205">
        <ele>316.20001220703</ele>
        <time>2026-08-26T11:14:51.000Z</time>
      </trkpt>
      <trkpt lat="46.0301" lon="5.43209">
        <ele>316</ele>
        <time>2026-08-26T11:14:53.000Z</time>
      </trkpt>
      <trkpt lat="46.03007" lon="5.43225">
        <ele>316.20001220703</ele>
        <time>2026-08-26T11:15:01.000Z</time>
      </trkpt>
      <trkpt lat="46.03001" lon="5.43243">
        <ele>316.60000610352</ele>
        <time>2026-08-26T11:15:10.000Z</time>
      </trkpt>
      <trkpt lat="46.02997" lon="5.43255">
        <ele>316.79998779297</ele>
        <time>2026-08-26T11:15:17.000Z</time>
      </trkpt>
      <trkpt lat="46.02993" lon="5.43272">
        <ele>317.20001220703</ele>
        <time>2026-08-26T11:15:25.000Z</time>
      </trkpt>
      <trkpt lat="46.02987" lon="5.43294">
        <ele>317.60000610352</ele>
        <time>2026-08-26T11:15:36.000Z</time>
      </trkpt>
      <trkpt lat="46.02987" lon="5.43307">
        <ele>318</ele>
        <time>2026-08-26T11:15:42.000Z</time>
      </trkpt>
      <trkpt lat="46.02986" lon="5.43311">
        <ele>318</ele>
        <time>2026-08-26T11:15:44.000Z</time>
      </trkpt>
      <trkpt lat="46.02986" lon="5.43313">
        <ele>318</ele>
        <time>2026-08-26T11:15:45.000Z</time>
      </trkpt>
      <trkpt lat="46.02986" lon="5.43316">
        <ele>318.20001220703</ele>
        <time>2026-08-26T11:15:47.000Z</time>
      </trkpt>
      <trkpt lat="46.02983" lon="5.43326">
        <ele>318.20001220703</ele>
        <time>2026-08-26T11:15:54.000Z</time>
      </trkpt>
      <trkpt lat="46.0298" lon="5.43328">
        <ele>318.20001220703</ele>
        <time>2026-08-26T11:16:01.000Z</time>
      </trkpt>
      <trkpt lat="46.02976" lon="5.43327">
        <ele>318.20001220703</ele>
        <time>2026-08-26T11:16:10.000Z</time>
      </trkpt>
      <trkpt lat="46.02962" lon="5.43324">
        <ele>317.60000610352</ele>
        <time>2026-08-26T11:16:19.000Z</time>
      </trkpt>
      <trkpt lat="46.02958" lon="5.43323">
        <ele>316.79998779297</ele>
        <time>2026-08-26T11:16:23.000Z</time>
      </trkpt>
      <trkpt lat="46.02956" lon="5.43323">
        <ele>316.39999389648</ele>
        <time>2026-08-26T11:16:25.000Z</time>
      </trkpt>
      <trkpt lat="46.02946" lon="5.43319">
        <ele>316.79998779297</ele>
        <time>2026-08-26T11:16:34.000Z</time>
      </trkpt>
      <trkpt lat="46.02941" lon="5.43318">
        <ele>316.79998779297</ele>
        <time>2026-08-26T11:16:41.000Z</time>
      </trkpt>
      <trkpt lat="46.02939" lon="5.4332">
        <ele>316.79998779297</ele>
        <time>2026-08-26T11:16:49.000Z</time>
      </trkpt>
      <trkpt lat="46.02936" lon="5.4332">
        <ele>317.20001220703</ele>
        <time>2026-08-26T11:16:56.000Z</time>
      </trkpt>
      <trkpt lat="46.02934" lon="5.43321">
        <ele>317.20001220703</ele>
        <time>2026-08-26T11:16:59.000Z</time>
      </trkpt>
      <trkpt lat="46.02932" lon="5.43322">
        <ele>317.39999389648</ele>
        <time>2026-08-26T11:17:01.000Z</time>
      </trkpt>
      <trkpt lat="46.02929" lon="5.43324">
        <ele>317.60000610352</ele>
        <time>2026-08-26T11:17:04.000Z</time>
      </trkpt>
      <trkpt lat="46.02929" lon="5.43325">
        <ele>317.79998779297</ele>
        <time>2026-08-26T11:17:06.000Z</time>
      </trkpt>
      <trkpt lat="46.02928" lon="5.43326">
        <ele>318</ele>
        <time>2026-08-26T11:17:07.000Z</time>
      </trkpt>
      <trkpt lat="46.02928" lon="5.43329">
        <ele>318.39999389648</ele>
        <time>2026-08-26T11:17:10.000Z</time>
      </trkpt>
      <trkpt lat="46.02926" lon="5.4333">
        <ele>318.60000610352</ele>
        <time>2026-08-26T11:17:13.000Z</time>
      </trkpt>
      <trkpt lat="46.02926" lon="5.43332">
        <ele>318.79998779297</ele>
        <time>2026-08-26T11:17:15.000Z</time>
      </trkpt>
      <trkpt lat="46.02926" lon="5.43333">
        <ele>319</ele>
        <time>2026-08-26T11:17:16.000Z</time>
      </trkpt>
      <trkpt lat="46.02926" lon="5.43335">
        <ele>319</ele>
        <time>2026-08-26T11:17:17.000Z</time>
      </trkpt>
      <trkpt lat="46.02927" lon="5.43344">
        <ele>320</ele>
        <time>2026-08-26T11:17:25.000Z</time>
      </trkpt>
      <trkpt lat="46.02927" lon="5.43346">
        <ele>320.20001220703</ele>
        <time>2026-08-26T11:17:26.000Z</time>
      </trkpt>
      <trkpt lat="46.02928" lon="5.43348">
        <ele>321.20001220703</ele>
        <time>2026-08-26T11:17:31.000Z</time>
      </trkpt>
      <trkpt lat="46.02929" lon="5.4335">
        <ele>321.79998779297</ele>
        <time>2026-08-26T11:17:35.000Z</time>
      </trkpt>
      <trkpt lat="46.0293" lon="5.43353">
        <ele>322.20001220703</ele>
        <time>2026-08-26T11:17:37.000Z</time>
      </trkpt>
      <trkpt lat="46.02932" lon="5.43359">
        <ele>323.20001220703</ele>
        <time>2026-08-26T11:17:42.000Z</time>
      </trkpt>
      <trkpt lat="46.02933" lon="5.43362">
        <ele>323.79998779297</ele>
        <time>2026-08-26T11:17:44.000Z</time>
      </trkpt>
      <trkpt lat="46.02934" lon="5.43368">
        <ele>324.39999389648</ele>
        <time>2026-08-26T11:17:48.000Z</time>
      </trkpt>
      <trkpt lat="46.02934" lon="5.43379">
        <ele>324.60000610352</ele>
        <time>2026-08-26T11:17:53.000Z</time>
      </trkpt>
      <trkpt lat="46.02931" lon="5.43381">
        <ele>324.60000610352</ele>
        <time>2026-08-26T11:17:56.000Z</time>
      </trkpt>
      <trkpt lat="46.02927" lon="5.43381">
        <ele>325</ele>
        <time>2026-08-26T11:17:59.000Z</time>
      </trkpt>
      <trkpt lat="46.02925" lon="5.4338">
        <ele>325.39999389648</ele>
        <time>2026-08-26T11:18:01.000Z</time>
      </trkpt>
      <trkpt lat="46.02922" lon="5.43374">
        <ele>326.39999389648</ele>
        <time>2026-08-26T11:18:07.000Z</time>
      </trkpt>
      <trkpt lat="46.02922" lon="5.43373">
        <ele>326.39999389648</ele>
        <time>2026-08-26T11:18:08.000Z</time>
      </trkpt>
      <trkpt lat="46.02919" lon="5.43367">
        <ele>327.60000610352</ele>
        <time>2026-08-26T11:18:14.000Z</time>
      </trkpt>
      <trkpt lat="46.02918" lon="5.43366">
        <ele>327.79998779297</ele>
        <time>2026-08-26T11:18:15.000Z</time>
      </trkpt>
      <trkpt lat="46.02913" lon="5.43358">
        <ele>327.79998779297</ele>
        <time>2026-08-26T11:18:20.000Z</time>
      </trkpt>
      <trkpt lat="46.02912" lon="5.43356">
        <ele>327.39999389648</ele>
        <time>2026-08-26T11:18:22.000Z</time>
      </trkpt>
      <trkpt lat="46.02909" lon="5.43351">
        <ele>327.39999389648</ele>
        <time>2026-08-26T11:18:26.000Z</time>
      </trkpt>
      <trkpt lat="46.02907" lon="5.43345">
        <ele>327.39999389648</ele>
        <time>2026-08-26T11:18:30.000Z</time>
      </trkpt>
      <trkpt lat="46.02906" lon="5.43333">
        <ele>328.20001220703</ele>
        <time>2026-08-26T11:18:38.000Z</time>
      </trkpt>
      <trkpt lat="46.02907" lon="5.43327">
        <ele>328.60000610352</ele>
        <time>2026-08-26T11:18:43.000Z</time>
      </trkpt>
      <trkpt lat="46.02907" lon="5.43324">
        <ele>329</ele>
        <time>2026-08-26T11:18:45.000Z</time>
      </trkpt>
      <trkpt lat="46.02907" lon="5.43316">
        <ele>329.39999389648</ele>
        <time>2026-08-26T11:18:52.000Z</time>
      </trkpt>
      <trkpt lat="46.02907" lon="5.43315">
        <ele>329.60000610352</ele>
        <time>2026-08-26T11:18:53.000Z</time>
      </trkpt>
      <trkpt lat="46.02908" lon="5.43304">
        <ele>330.39999389648</ele>
        <time>2026-08-26T11:19:00.000Z</time>
      </trkpt>
      <trkpt lat="46.02909" lon="5.43299">
        <ele>330.79998779297</ele>
        <time>2026-08-26T11:19:03.000Z</time>
      </trkpt>
      <trkpt lat="46.0291" lon="5.43292">
        <ele>331.79998779297</ele>
        <time>2026-08-26T11:19:08.000Z</time>
      </trkpt>
      <trkpt lat="46.02912" lon="5.43283">
        <ele>332.79998779297</ele>
        <time>2026-08-26T11:19:14.000Z</time>
      </trkpt>
      <trkpt lat="46.02912" lon="5.43282">
        <ele>332.79998779297</ele>
        <time>2026-08-26T11:19:15.000Z</time>
      </trkpt>
      <trkpt lat="46.0291" lon="5.43271">
        <ele>333.60000610352</ele>
        <time>2026-08-26T11:19:22.000Z</time>
      </trkpt>
      <trkpt lat="46.02914" lon="5.43257">
        <ele>333.39999389648</ele>
        <time>2026-08-26T11:19:29.000Z</time>
      </trkpt>
      <trkpt lat="46.02916" lon="5.43253">
        <ele>334</ele>
        <time>2026-08-26T11:19:32.000Z</time>
      </trkpt>
      <trkpt lat="46.02918" lon="5.43248">
        <ele>334.60000610352</ele>
        <time>2026-08-26T11:19:36.000Z</time>
      </trkpt>
      <trkpt lat="46.0292" lon="5.43241">
        <ele>335</ele>
        <time>2026-08-26T11:19:41.000Z</time>
      </trkpt>
      <trkpt lat="46.02921" lon="5.43239">
        <ele>335.20001220703</ele>
        <time>2026-08-26T11:19:42.000Z</time>
      </trkpt>
      <trkpt lat="46.02925" lon="5.43227">
        <ele>336</ele>
        <time>2026-08-26T11:19:49.000Z</time>
      </trkpt>
      <trkpt lat="46.02926" lon="5.43224">
        <ele>336.20001220703</ele>
        <time>2026-08-26T11:19:51.000Z</time>
      </trkpt>
      <trkpt lat="46.02927" lon="5.43208">
        <ele>337.20001220703</ele>
        <time>2026-08-26T11:20:00.000Z</time>
      </trkpt>
      <trkpt lat="46.02931" lon="5.432">
        <ele>338.20001220703</ele>
        <time>2026-08-26T11:20:07.000Z</time>
      </trkpt>
      <trkpt lat="46.02938" lon="5.43189">
        <ele>339.20001220703</ele>
        <time>2026-08-26T11:20:13.000Z</time>
      </trkpt>
      <trkpt lat="46.0294" lon="5.43188">
        <ele>339.39999389648</ele>
        <time>2026-08-26T11:20:14.000Z</time>
      </trkpt>
      <trkpt lat="46.02944" lon="5.43179">
        <ele>340.39999389648</ele>
        <time>2026-08-26T11:20:20.000Z</time>
      </trkpt>
      <trkpt lat="46.02945" lon="5.43177">
        <ele>340.60000610352</ele>
        <time>2026-08-26T11:20:21.000Z</time>
      </trkpt>
      <trkpt lat="46.02947" lon="5.43171">
        <ele>341.60000610352</ele>
        <time>2026-08-26T11:20:26.000Z</time>
      </trkpt>
      <trkpt lat="46.02948" lon="5.43166">
        <ele>341.79998779297</ele>
        <time>2026-08-26T11:20:29.000Z</time>
      </trkpt>
      <trkpt lat="46.02948" lon="5.43159">
        <ele>342.60000610352</ele>
        <time>2026-08-26T11:20:34.000Z</time>
      </trkpt>
      <trkpt lat="46.02949" lon="5.43154">
        <ele>343</ele>
        <time>2026-08-26T11:20:37.000Z</time>
      </trkpt>
      <trkpt lat="46.02949" lon="5.43147">
        <ele>343.79998779297</ele>
        <time>2026-08-26T11:20:41.000Z</time>
      </trkpt>
      <trkpt lat="46.0295" lon="5.43141">
        <ele>344.39999389648</ele>
        <time>2026-08-26T11:20:45.000Z</time>
      </trkpt>
      <trkpt lat="46.0295" lon="5.43135">
        <ele>344.79998779297</ele>
        <time>2026-08-26T11:20:48.000Z</time>
      </trkpt>
      <trkpt lat="46.02949" lon="5.43128">
        <ele>345.60000610352</ele>
        <time>2026-08-26T11:20:53.000Z</time>
      </trkpt>
      <trkpt lat="46.02948" lon="5.43122">
        <ele>346</ele>
        <time>2026-08-26T11:20:56.000Z</time>
      </trkpt>
      <trkpt lat="46.02947" lon="5.4311">
        <ele>346.79998779297</ele>
        <time>2026-08-26T11:21:03.000Z</time>
      </trkpt>
      <trkpt lat="46.02947" lon="5.43108">
        <ele>347.20001220703</ele>
        <time>2026-08-26T11:21:04.000Z</time>
      </trkpt>
      <trkpt lat="46.02946" lon="5.43097">
        <ele>347.60000610352</ele>
        <time>2026-08-26T11:21:11.000Z</time>
      </trkpt>
      <trkpt lat="46.02945" lon="5.4309">
        <ele>348.20001220703</ele>
        <time>2026-08-26T11:21:15.000Z</time>
      </trkpt>
      <trkpt lat="46.02944" lon="5.43084">
        <ele>348.79998779297</ele>
        <time>2026-08-26T11:21:19.000Z</time>
      </trkpt>
      <trkpt lat="46.02943" lon="5.43079">
        <ele>349.39999389648</ele>
        <time>2026-08-26T11:21:22.000Z</time>
      </trkpt>
      <trkpt lat="46.02941" lon="5.43072">
        <ele>349.79998779297</ele>
        <time>2026-08-26T11:21:26.000Z</time>
      </trkpt>
      <trkpt lat="46.0294" lon="5.43061">
        <ele>350.39999389648</ele>
        <time>2026-08-26T11:21:33.000Z</time>
      </trkpt>
      <trkpt lat="46.02939" lon="5.43057">
        <ele>350.60000610352</ele>
        <time>2026-08-26T11:21:35.000Z</time>
      </trkpt>
      <trkpt lat="46.02933" lon="5.43047">
        <ele>351.20001220703</ele>
        <time>2026-08-26T11:21:43.000Z</time>
      </trkpt>
      <trkpt lat="46.02928" lon="5.4304">
        <ele>351.39999389648</ele>
        <time>2026-08-26T11:21:49.000Z</time>
      </trkpt>
      <trkpt lat="46.02926" lon="5.43038">
        <ele>351.39999389648</ele>
        <time>2026-08-26T11:21:51.000Z</time>
      </trkpt>
      <trkpt lat="46.0292" lon="5.43025">
        <ele>352.39999389648</ele>
        <time>2026-08-26T11:22:00.000Z</time>
      </trkpt>
      <trkpt lat="46.02919" lon="5.43024">
        <ele>352.60000610352</ele>
        <time>2026-08-26T11:22:01.000Z</time>
      </trkpt>
      <trkpt lat="46.02913" lon="5.43014">
        <ele>353.60000610352</ele>
        <time>2026-08-26T11:22:09.000Z</time>
      </trkpt>
      <trkpt lat="46.02907" lon="5.43001">
        <ele>354.60000610352</ele>
        <time>2026-08-26T11:22:17.000Z</time>
      </trkpt>
      <trkpt lat="46.02906" lon="5.43">
        <ele>354.60000610352</ele>
        <time>2026-08-26T11:22:18.000Z</time>
      </trkpt>
      <trkpt lat="46.02901" lon="5.42991">
        <ele>355.60000610352</ele>
        <time>2026-08-26T11:22:26.000Z</time>
      </trkpt>
      <trkpt lat="46.029" lon="5.4299">
        <ele>355.79998779297</ele>
        <time>2026-08-26T11:22:27.000Z</time>
      </trkpt>
      <trkpt lat="46.02894" lon="5.42979">
        <ele>356.60000610352</ele>
        <time>2026-08-26T11:22:35.000Z</time>
      </trkpt>
      <trkpt lat="46.02893" lon="5.42979">
        <ele>357</ele>
        <time>2026-08-26T11:22:36.000Z</time>
      </trkpt>
      <trkpt lat="46.02887" lon="5.4297">
        <ele>357.60000610352</ele>
        <time>2026-08-26T11:22:43.000Z</time>
      </trkpt>
      <trkpt lat="46.0288" lon="5.42962">
        <ele>358</ele>
        <time>2026-08-26T11:22:50.000Z</time>
      </trkpt>
      <trkpt lat="46.02879" lon="5.42961">
        <ele>358.20001220703</ele>
        <time>2026-08-26T11:22:51.000Z</time>
      </trkpt>
      <trkpt lat="46.02876" lon="5.42955">
        <ele>359</ele>
        <time>2026-08-26T11:22:56.000Z</time>
      </trkpt>
      <trkpt lat="46.02874" lon="5.42953">
        <ele>359.39999389648</ele>
        <time>2026-08-26T11:22:58.000Z</time>
      </trkpt>
      <trkpt lat="46.0287" lon="5.42949">
        <ele>359.60000610352</ele>
        <time>2026-08-26T11:23:07.000Z</time>
      </trkpt>
      <trkpt lat="46.0287" lon="5.42949">
        <ele>359.39999389648</ele>
        <time>2026-08-26T11:23:09.000Z</time>
      </trkpt>
      <trkpt lat="46.02871" lon="5.42947">
        <ele>359.39999389648</ele>
        <time>2026-08-26T11:23:11.000Z</time>
      </trkpt>
      <trkpt lat="46.02871" lon="5.42946">
        <ele>359.39999389648</ele>
        <time>2026-08-26T11:23:13.000Z</time>
      </trkpt>
      <trkpt lat="46.02871" lon="5.42947">
        <ele>359.39999389648</ele>
        <time>2026-08-26T11:23:15.000Z</time>
      </trkpt>
      <trkpt lat="46.0287" lon="5.42948">
        <ele>359.39999389648</ele>
        <time>2026-08-26T11:23:25.000Z</time>
      </trkpt>
      <trkpt lat="46.02868" lon="5.42945">
        <ele>359.79998779297</ele>
        <time>2026-08-26T11:23:33.000Z</time>
      </trkpt>
      <trkpt lat="46.02866" lon="5.4294">
        <ele>360.20001220703</ele>
        <time>2026-08-26T11:23:36.000Z</time>
      </trkpt>
      <trkpt lat="46.02863" lon="5.42937">
        <ele>360.39999389648</ele>
        <time>2026-08-26T11:23:40.000Z</time>
      </trkpt>
      <trkpt lat="46.02859" lon="5.42929">
        <ele>361.20001220703</ele>
        <time>2026-08-26T11:23:46.000Z</time>
      </trkpt>
      <trkpt lat="46.02858" lon="5.42925">
        <ele>361.39999389648</ele>
        <time>2026-08-26T11:23:49.000Z</time>
      </trkpt>
      <trkpt lat="46.02854" lon="5.42921">
        <ele>362.20001220703</ele>
        <time>2026-08-26T11:23:53.000Z</time>
      </trkpt>
      <trkpt lat="46.02852" lon="5.42918">
        <ele>362.60000610352</ele>
        <time>2026-08-26T11:23:55.000Z</time>
      </trkpt>
      <trkpt lat="46.02849" lon="5.42914">
        <ele>363</ele>
        <time>2026-08-26T11:23:58.000Z</time>
      </trkpt>
      <trkpt lat="46.02847" lon="5.42909">
        <ele>363.20001220703</ele>
        <time>2026-08-26T11:24:01.000Z</time>
      </trkpt>
      <trkpt lat="46.02842" lon="5.42904">
        <ele>363.60000610352</ele>
        <time>2026-08-26T11:24:06.000Z</time>
      </trkpt>
      <trkpt lat="46.02835" lon="5.42895">
        <ele>364.20001220703</ele>
        <time>2026-08-26T11:24:13.000Z</time>
      </trkpt>
      <trkpt lat="46.02832" lon="5.42892">
        <ele>364.79998779297</ele>
        <time>2026-08-26T11:24:17.000Z</time>
      </trkpt>
      <trkpt lat="46.02826" lon="5.42885">
        <ele>365.39999389648</ele>
        <time>2026-08-26T11:24:23.000Z</time>
      </trkpt>
      <trkpt lat="46.02824" lon="5.42881">
        <ele>365.39999389648</ele>
        <time>2026-08-26T11:24:25.000Z</time>
      </trkpt>
      <trkpt lat="46.0282" lon="5.42875">
        <ele>366</ele>
        <time>2026-08-26T11:24:30.000Z</time>
      </trkpt>
      <trkpt lat="46.02818" lon="5.4287">
        <ele>366</ele>
        <time>2026-08-26T11:24:33.000Z</time>
      </trkpt>
      <trkpt lat="46.02814" lon="5.42864">
        <ele>366.39999389648</ele>
        <time>2026-08-26T11:24:37.000Z</time>
      </trkpt>
      <trkpt lat="46.02809" lon="5.42858">
        <ele>367</ele>
        <time>2026-08-26T11:24:42.000Z</time>
      </trkpt>
      <trkpt lat="46.02805" lon="5.42849">
        <ele>367.39999389648</ele>
        <time>2026-08-26T11:24:47.000Z</time>
      </trkpt>
      <trkpt lat="46.02804" lon="5.42844">
        <ele>367.79998779297</ele>
        <time>2026-08-26T11:24:50.000Z</time>
      </trkpt>
      <trkpt lat="46.02799" lon="5.42837">
        <ele>368.39999389648</ele>
        <time>2026-08-26T11:24:55.000Z</time>
      </trkpt>
      <trkpt lat="46.02796" lon="5.42831">
        <ele>369</ele>
        <time>2026-08-26T11:25:00.000Z</time>
      </trkpt>
      <trkpt lat="46.02795" lon="5.42823">
        <ele>369.60000610352</ele>
        <time>2026-08-26T11:25:05.000Z</time>
      </trkpt>
      <trkpt lat="46.02794" lon="5.42818">
        <ele>370</ele>
        <time>2026-08-26T11:25:08.000Z</time>
      </trkpt>
      <trkpt lat="46.02793" lon="5.42811">
        <ele>370.60000610352</ele>
        <time>2026-08-26T11:25:14.000Z</time>
      </trkpt>
      <trkpt lat="46.02794" lon="5.42807">
        <ele>371</ele>
        <time>2026-08-26T11:25:16.000Z</time>
      </trkpt>
      <trkpt lat="46.02795" lon="5.42794">
        <ele>371.79998779297</ele>
        <time>2026-08-26T11:25:23.000Z</time>
      </trkpt>
      <trkpt lat="46.02798" lon="5.42787">
        <ele>372.79998779297</ele>
        <time>2026-08-26T11:25:30.000Z</time>
      </trkpt>
      <trkpt lat="46.02798" lon="5.42786">
        <ele>372.79998779297</ele>
        <time>2026-08-26T11:25:31.000Z</time>
      </trkpt>
      <trkpt lat="46.02799" lon="5.42784">
        <ele>373</ele>
        <time>2026-08-26T11:25:38.000Z</time>
      </trkpt>
      <trkpt lat="46.02799" lon="5.42782">
        <ele>373.60000610352</ele>
        <time>2026-08-26T11:25:47.000Z</time>
      </trkpt>
      <trkpt lat="46.02799" lon="5.42778">
        <ele>373.39999389648</ele>
        <time>2026-08-26T11:25:55.000Z</time>
      </trkpt>
      <trkpt lat="46.02799" lon="5.42777">
        <ele>373.20001220703</ele>
        <time>2026-08-26T11:25:58.000Z</time>
      </trkpt>
      <trkpt lat="46.02799" lon="5.42778">
        <ele>373.60000610352</ele>
        <time>2026-08-26T11:26:06.000Z</time>
      </trkpt>
      <trkpt lat="46.02799" lon="5.42776">
        <ele>373.39999389648</ele>
        <time>2026-08-26T11:26:14.000Z</time>
      </trkpt>
      <trkpt lat="46.02799" lon="5.4277">
        <ele>374</ele>
        <time>2026-08-26T11:26:20.000Z</time>
      </trkpt>
      <trkpt lat="46.02799" lon="5.42768">
        <ele>374</ele>
        <time>2026-08-26T11:26:21.000Z</time>
      </trkpt>
      <trkpt lat="46.028" lon="5.42755">
        <ele>375</ele>
        <time>2026-08-26T11:26:30.000Z</time>
      </trkpt>
      <trkpt lat="46.02797" lon="5.42749">
        <ele>376</ele>
        <time>2026-08-26T11:26:38.000Z</time>
      </trkpt>
      <trkpt lat="46.02794" lon="5.42748">
        <ele>376.79998779297</ele>
        <time>2026-08-26T11:26:44.000Z</time>
      </trkpt>
      <trkpt lat="46.02793" lon="5.42749">
        <ele>377.20001220703</ele>
        <time>2026-08-26T11:26:46.000Z</time>
      </trkpt>
      <trkpt lat="46.02791" lon="5.42752">
        <ele>378.39999389648</ele>
        <time>2026-08-26T11:26:51.000Z</time>
      </trkpt>
      <trkpt lat="46.02791" lon="5.42753">
        <ele>378.79998779297</ele>
        <time>2026-08-26T11:26:52.000Z</time>
      </trkpt>
      <trkpt lat="46.02788" lon="5.42757">
        <ele>379.60000610352</ele>
        <time>2026-08-26T11:26:56.000Z</time>
      </trkpt>
      <trkpt lat="46.02787" lon="5.42761">
        <ele>380.39999389648</ele>
        <time>2026-08-26T11:27:00.000Z</time>
      </trkpt>
      <trkpt lat="46.02786" lon="5.42764">
        <ele>380.60000610352</ele>
        <time>2026-08-26T11:27:03.000Z</time>
      </trkpt>
      <trkpt lat="46.02783" lon="5.42769">
        <ele>381.39999389648</ele>
        <time>2026-08-26T11:27:08.000Z</time>
      </trkpt>
      <trkpt lat="46.02782" lon="5.4277">
        <ele>381.79998779297</ele>
        <time>2026-08-26T11:27:10.000Z</time>
      </trkpt>
      <trkpt lat="46.0278" lon="5.42773">
        <ele>382.20001220703</ele>
        <time>2026-08-26T11:27:14.000Z</time>
      </trkpt>
      <trkpt lat="46.02781" lon="5.42775">
        <ele>382.20001220703</ele>
        <time>2026-08-26T11:27:21.000Z</time>
      </trkpt>
      <trkpt lat="46.0278" lon="5.42779">
        <ele>383</ele>
        <time>2026-08-26T11:27:25.000Z</time>
      </trkpt>
      <trkpt lat="46.02778" lon="5.42782">
        <ele>383.60000610352</ele>
        <time>2026-08-26T11:27:28.000Z</time>
      </trkpt>
      <trkpt lat="46.02773" lon="5.42787">
        <ele>383.79998779297</ele>
        <time>2026-08-26T11:27:35.000Z</time>
      </trkpt>
      <trkpt lat="46.02772" lon="5.42794">
        <ele>384</ele>
        <time>2026-08-26T11:27:41.000Z</time>
      </trkpt>
      <trkpt lat="46.02774" lon="5.42802">
        <ele>384.39999389648</ele>
        <time>2026-08-26T11:27:48.000Z</time>
      </trkpt>
      <trkpt lat="46.02773" lon="5.42809">
        <ele>385</ele>
        <time>2026-08-26T11:27:52.000Z</time>
      </trkpt>
      <trkpt lat="46.02773" lon="5.42814">
        <ele>385.79998779297</ele>
        <time>2026-08-26T11:27:56.000Z</time>
      </trkpt>
      <trkpt lat="46.02773" lon="5.42816">
        <ele>386</ele>
        <time>2026-08-26T11:27:57.000Z</time>
      </trkpt>
      <trkpt lat="46.02774" lon="5.42827">
        <ele>386.39999389648</ele>
        <time>2026-08-26T11:28:03.000Z</time>
      </trkpt>
      <trkpt lat="46.02774" lon="5.42841">
        <ele>387</ele>
        <time>2026-08-26T11:28:11.000Z</time>
      </trkpt>
      <trkpt lat="46.02774" lon="5.42842">
        <ele>387</ele>
        <time>2026-08-26T11:28:12.000Z</time>
      </trkpt>
      <trkpt lat="46.02775" lon="5.42852">
        <ele>387.79998779297</ele>
        <time>2026-08-26T11:28:19.000Z</time>
      </trkpt>
      <trkpt lat="46.02775" lon="5.4286">
        <ele>388.20001220703</ele>
        <time>2026-08-26T11:28:23.000Z</time>
      </trkpt>
      <trkpt lat="46.02775" lon="5.42868">
        <ele>388.79998779297</ele>
        <time>2026-08-26T11:28:28.000Z</time>
      </trkpt>
      <trkpt lat="46.02775" lon="5.42875">
        <ele>389.20001220703</ele>
        <time>2026-08-26T11:28:32.000Z</time>
      </trkpt>
      <trkpt lat="46.02775" lon="5.42879">
        <ele>389.60000610352</ele>
        <time>2026-08-26T11:28:35.000Z</time>
      </trkpt>
      <trkpt lat="46.02778" lon="5.42892">
        <ele>390</ele>
        <time>2026-08-26T11:28:42.000Z</time>
      </trkpt>
      <trkpt lat="46.02781" lon="5.42903">
        <ele>390</ele>
        <time>2026-08-26T11:28:49.000Z</time>
      </trkpt>
      <trkpt lat="46.02781" lon="5.42905">
        <ele>390</ele>
        <time>2026-08-26T11:28:50.000Z</time>
      </trkpt>
      <trkpt lat="46.02781" lon="5.42915">
        <ele>390.39999389648</ele>
        <time>2026-08-26T11:28:55.000Z</time>
      </trkpt>
      <trkpt lat="46.0278" lon="5.4292">
        <ele>390.60000610352</ele>
        <time>2026-08-26T11:28:58.000Z</time>
      </trkpt>
      <trkpt lat="46.02781" lon="5.4293">
        <ele>391.39999389648</ele>
        <time>2026-08-26T11:29:04.000Z</time>
      </trkpt>
      <trkpt lat="46.02781" lon="5.42933">
        <ele>391.39999389648</ele>
        <time>2026-08-26T11:29:06.000Z</time>
      </trkpt>
      <trkpt lat="46.02783" lon="5.42947">
        <ele>392</ele>
        <time>2026-08-26T11:29:15.000Z</time>
      </trkpt>
      <trkpt lat="46.02785" lon="5.42956">
        <ele>392.39999389648</ele>
        <time>2026-08-26T11:29:21.000Z</time>
      </trkpt>
      <trkpt lat="46.02786" lon="5.42957">
        <ele>392.39999389648</ele>
        <time>2026-08-26T11:29:22.000Z</time>
      </trkpt>
      <trkpt lat="46.02792" lon="5.42962">
        <ele>392.39999389648</ele>
        <time>2026-08-26T11:29:31.000Z</time>
      </trkpt>
      <trkpt lat="46.02792" lon="5.42962">
        <ele>392.39999389648</ele>
        <time>2026-08-26T11:29:33.000Z</time>
      </trkpt>
      <trkpt lat="46.02791" lon="5.42966">
        <ele>393.20001220703</ele>
        <time>2026-08-26T11:29:39.000Z</time>
      </trkpt>
      <trkpt lat="46.02792" lon="5.42971">
        <ele>393.39999389648</ele>
        <time>2026-08-26T11:29:41.000Z</time>
      </trkpt>
      <trkpt lat="46.02792" lon="5.42979">
        <ele>393.60000610352</ele>
        <time>2026-08-26T11:29:46.000Z</time>
      </trkpt>
      <trkpt lat="46.02791" lon="5.4298">
        <ele>393.79998779297</ele>
        <time>2026-08-26T11:29:47.000Z</time>
      </trkpt>
      <trkpt lat="46.02791" lon="5.42984">
        <ele>394.60000610352</ele>
        <time>2026-08-26T11:29:51.000Z</time>
      </trkpt>
      <trkpt lat="46.02792" lon="5.42989">
        <ele>395.20001220703</ele>
        <time>2026-08-26T11:29:55.000Z</time>
      </trkpt>
      <trkpt lat="46.02793" lon="5.42994">
        <ele>395.60000610352</ele>
        <time>2026-08-26T11:29:58.000Z</time>
      </trkpt>
      <trkpt lat="46.02795" lon="5.43002">
        <ele>396.39999389648</ele>
        <time>2026-08-26T11:30:03.000Z</time>
      </trkpt>
      <trkpt lat="46.02796" lon="5.43006">
        <ele>396.79998779297</ele>
        <time>2026-08-26T11:30:06.000Z</time>
      </trkpt>
      <trkpt lat="46.02797" lon="5.43013">
        <ele>397.20001220703</ele>
        <time>2026-08-26T11:30:10.000Z</time>
      </trkpt>
      <trkpt lat="46.02799" lon="5.43015">
        <ele>398</ele>
        <time>2026-08-26T11:30:13.000Z</time>
      </trkpt>
      <trkpt lat="46.028" lon="5.43018">
        <ele>398.20001220703</ele>
        <time>2026-08-26T11:30:16.000Z</time>
      </trkpt>
      <trkpt lat="46.02801" lon="5.4302">
        <ele>398.60000610352</ele>
        <time>2026-08-26T11:30:19.000Z</time>
      </trkpt>
      <trkpt lat="46.02803" lon="5.43021">
        <ele>398.60000610352</ele>
        <time>2026-08-26T11:30:22.000Z</time>
      </trkpt>
      <trkpt lat="46.02803" lon="5.43023">
        <ele>399</ele>
        <time>2026-08-26T11:30:30.000Z</time>
      </trkpt>
      <trkpt lat="46.02805" lon="5.43033">
        <ele>400</ele>
        <time>2026-08-26T11:30:36.000Z</time>
      </trkpt>
      <trkpt lat="46.02806" lon="5.43035">
        <ele>400</ele>
        <time>2026-08-26T11:30:37.000Z</time>
      </trkpt>
      <trkpt lat="46.02807" lon="5.43041">
        <ele>400.60000610352</ele>
        <time>2026-08-26T11:30:43.000Z</time>
      </trkpt>
      <trkpt lat="46.02808" lon="5.43046">
        <ele>401.20001220703</ele>
        <time>2026-08-26T11:30:49.000Z</time>
      </trkpt>
      <trkpt lat="46.02808" lon="5.43047">
        <ele>401.20001220703</ele>
        <time>2026-08-26T11:30:50.000Z</time>
      </trkpt>
      <trkpt lat="46.02809" lon="5.43053">
        <ele>402.20001220703</ele>
        <time>2026-08-26T11:30:55.000Z</time>
      </trkpt>
      <trkpt lat="46.02809" lon="5.43056">
        <ele>402.60000610352</ele>
        <time>2026-08-26T11:30:57.000Z</time>
      </trkpt>
      <trkpt lat="46.02811" lon="5.43068">
        <ele>403.39999389648</ele>
        <time>2026-08-26T11:31:04.000Z</time>
      </trkpt>
      <trkpt lat="46.02813" lon="5.43077">
        <ele>404.39999389648</ele>
        <time>2026-08-26T11:31:10.000Z</time>
      </trkpt>
      <trkpt lat="46.02814" lon="5.4308">
        <ele>404.79998779297</ele>
        <time>2026-08-26T11:31:12.000Z</time>
      </trkpt>
      <trkpt lat="46.02815" lon="5.43087">
        <ele>405.60000610352</ele>
        <time>2026-08-26T11:31:17.000Z</time>
      </trkpt>
      <trkpt lat="46.02817" lon="5.43093">
        <ele>406.20001220703</ele>
        <time>2026-08-26T11:31:21.000Z</time>
      </trkpt>
      <trkpt lat="46.02819" lon="5.43099">
        <ele>406.39999389648</ele>
        <time>2026-08-26T11:31:25.000Z</time>
      </trkpt>
      <trkpt lat="46.02819" lon="5.43103">
        <ele>406.60000610352</ele>
        <time>2026-08-26T11:31:27.000Z</time>
      </trkpt>
      <trkpt lat="46.02819" lon="5.43105">
        <ele>406.79998779297</ele>
        <time>2026-08-26T11:31:28.000Z</time>
      </trkpt>
      <trkpt lat="46.02818" lon="5.4311">
        <ele>407.39999389648</ele>
        <time>2026-08-26T11:31:32.000Z</time>
      </trkpt>
      <trkpt lat="46.02817" lon="5.43111">
        <ele>407.79998779297</ele>
        <time>2026-08-26T11:31:34.000Z</time>
      </trkpt>
      <trkpt lat="46.02816" lon="5.43112">
        <ele>408</ele>
        <time>2026-08-26T11:31:35.000Z</time>
      </trkpt>
      <trkpt lat="46.02814" lon="5.43112">
        <ele>408.79998779297</ele>
        <time>2026-08-26T11:31:38.000Z</time>
      </trkpt>
      <trkpt lat="46.02809" lon="5.4311">
        <ele>410</ele>
        <time>2026-08-26T11:31:43.000Z</time>
      </trkpt>
      <trkpt lat="46.02802" lon="5.43106">
        <ele>411</ele>
        <time>2026-08-26T11:31:50.000Z</time>
      </trkpt>
      <trkpt lat="46.02796" lon="5.43098">
        <ele>412</ele>
        <time>2026-08-26T11:31:58.000Z</time>
      </trkpt>
      <trkpt lat="46.02791" lon="5.43092">
        <ele>413.20001220703</ele>
        <time>2026-08-26T11:32:06.000Z</time>
      </trkpt>
      <trkpt lat="46.02785" lon="5.43086">
        <ele>413.79998779297</ele>
        <time>2026-08-26T11:32:13.000Z</time>
      </trkpt>
      <trkpt lat="46.02783" lon="5.43083">
        <ele>414.20001220703</ele>
        <time>2026-08-26T11:32:16.000Z</time>
      </trkpt>
      <trkpt lat="46.02781" lon="5.4308">
        <ele>414.39999389648</ele>
        <time>2026-08-26T11:32:20.000Z</time>
      </trkpt>
      <trkpt lat="46.02777" lon="5.43072">
        <ele>415</ele>
        <time>2026-08-26T11:32:27.000Z</time>
      </trkpt>
      <trkpt lat="46.02776" lon="5.4307">
        <ele>415.20001220703</ele>
        <time>2026-08-26T11:32:30.000Z</time>
      </trkpt>
      <trkpt lat="46.02769" lon="5.43063">
        <ele>415.60000610352</ele>
        <time>2026-08-26T11:32:36.000Z</time>
      </trkpt>
      <trkpt lat="46.02763" lon="5.43056">
        <ele>416.20001220703</ele>
        <time>2026-08-26T11:32:42.000Z</time>
      </trkpt>
      <trkpt lat="46.02762" lon="5.43054">
        <ele>416.39999389648</ele>
        <time>2026-08-26T11:32:44.000Z</time>
      </trkpt>
      <trkpt lat="46.02756" lon="5.43047">
        <ele>417.20001220703</ele>
        <time>2026-08-26T11:32:50.000Z</time>
      </trkpt>
      <trkpt lat="46.02752" lon="5.43043">
        <ele>418</ele>
        <time>2026-08-26T11:32:54.000Z</time>
      </trkpt>
      <trkpt lat="46.02751" lon="5.43041">
        <ele>418.39999389648</ele>
        <time>2026-08-26T11:32:56.000Z</time>
      </trkpt>
      <trkpt lat="46.02748" lon="5.43037">
        <ele>419.39999389648</ele>
        <time>2026-08-26T11:33:01.000Z</time>
      </trkpt>
      <trkpt lat="46.02744" lon="5.43033">
        <ele>420.60000610352</ele>
        <time>2026-08-26T11:33:06.000Z</time>
      </trkpt>
      <trkpt lat="46.02743" lon="5.43032">
        <ele>420.60000610352</ele>
        <time>2026-08-26T11:33:07.000Z</time>
      </trkpt>
      <trkpt lat="46.02737" lon="5.43025">
        <ele>421.60000610352</ele>
        <time>2026-08-26T11:33:13.000Z</time>
      </trkpt>
      <trkpt lat="46.02735" lon="5.43023">
        <ele>421.79998779297</ele>
        <time>2026-08-26T11:33:16.000Z</time>
      </trkpt>
      <trkpt lat="46.0273" lon="5.43015">
        <ele>422.60000610352</ele>
        <time>2026-08-26T11:33:22.000Z</time>
      </trkpt>
      <trkpt lat="46.0273" lon="5.43014">
        <ele>422.79998779297</ele>
        <time>2026-08-26T11:33:23.000Z</time>
      </trkpt>
      <trkpt lat="46.02728" lon="5.43008">
        <ele>423.60000610352</ele>
        <time>2026-08-26T11:33:29.000Z</time>
      </trkpt>
      <trkpt lat="46.02727" lon="5.43005">
        <ele>423.79998779297</ele>
        <time>2026-08-26T11:33:32.000Z</time>
      </trkpt>
      <trkpt lat="46.02721" lon="5.42992">
        <ele>424.20001220703</ele>
        <time>2026-08-26T11:33:40.000Z</time>
      </trkpt>
      <trkpt lat="46.02718" lon="5.42987">
        <ele>424.60000610352</ele>
        <time>2026-08-26T11:33:45.000Z</time>
      </trkpt>
      <trkpt lat="46.02717" lon="5.42984">
        <ele>425</ele>
        <time>2026-08-26T11:33:47.000Z</time>
      </trkpt>
      <trkpt lat="46.02717" lon="5.42983">
        <ele>425.20001220703</ele>
        <time>2026-08-26T11:33:48.000Z</time>
      </trkpt>
      <trkpt lat="46.02715" lon="5.42977">
        <ele>425.60000610352</ele>
        <time>2026-08-26T11:33:52.000Z</time>
      </trkpt>
      <trkpt lat="46.02714" lon="5.42974">
        <ele>426</ele>
        <time>2026-08-26T11:33:54.000Z</time>
      </trkpt>
      <trkpt lat="46.02709" lon="5.42967">
        <ele>426.79998779297</ele>
        <time>2026-08-26T11:34:00.000Z</time>
      </trkpt>
      <trkpt lat="46.02709" lon="5.42966">
        <ele>426.60000610352</ele>
        <time>2026-08-26T11:34:01.000Z</time>
      </trkpt>
      <trkpt lat="46.02706" lon="5.42964">
        <ele>426.60000610352</ele>
        <time>2026-08-26T11:34:06.000Z</time>
      </trkpt>
      <trkpt lat="46.02706" lon="5.42963">
        <ele>426.79998779297</ele>
        <time>2026-08-26T11:34:07.000Z</time>
      </trkpt>
      <trkpt lat="46.02701" lon="5.42955">
        <ele>427.20001220703</ele>
        <time>2026-08-26T11:34:14.000Z</time>
      </trkpt>
      <trkpt lat="46.02695" lon="5.42946">
        <ele>427.60000610352</ele>
        <time>2026-08-26T11:34:21.000Z</time>
      </trkpt>
      <trkpt lat="46.02694" lon="5.42945">
        <ele>427.79998779297</ele>
        <time>2026-08-26T11:34:22.000Z</time>
      </trkpt>
      <trkpt lat="46.0269" lon="5.42935">
        <ele>428</ele>
        <time>2026-08-26T11:34:28.000Z</time>
      </trkpt>
      <trkpt lat="46.02689" lon="5.42933">
        <ele>428.20001220703</ele>
        <time>2026-08-26T11:34:30.000Z</time>
      </trkpt>
      <trkpt lat="46.02686" lon="5.42927">
        <ele>428.60000610352</ele>
        <time>2026-08-26T11:34:36.000Z</time>
      </trkpt>
      <trkpt lat="46.02686" lon="5.42925">
        <ele>428.79998779297</ele>
        <time>2026-08-26T11:34:37.000Z</time>
      </trkpt>
      <trkpt lat="46.02678" lon="5.42908">
        <ele>429.60000610352</ele>
        <time>2026-08-26T11:34:48.000Z</time>
      </trkpt>
      <trkpt lat="46.02676" lon="5.42903">
        <ele>429.79998779297</ele>
        <time>2026-08-26T11:34:51.000Z</time>
      </trkpt>
      <trkpt lat="46.02672" lon="5.42896">
        <ele>430.20001220703</ele>
        <time>2026-08-26T11:34:56.000Z</time>
      </trkpt>
      <trkpt lat="46.02666" lon="5.42883">
        <ele>430.79998779297</ele>
        <time>2026-08-26T11:35:05.000Z</time>
      </trkpt>
      <trkpt lat="46.02665" lon="5.42881">
        <ele>431</ele>
        <time>2026-08-26T11:35:06.000Z</time>
      </trkpt>
      <trkpt lat="46.02661" lon="5.42872">
        <ele>431.20001220703</ele>
        <time>2026-08-26T11:35:14.000Z</time>
      </trkpt>
      <trkpt lat="46.02655" lon="5.42865">
        <ele>432</ele>
        <time>2026-08-26T11:35:22.000Z</time>
      </trkpt>
      <trkpt lat="46.02648" lon="5.42855">
        <ele>432.39999389648</ele>
        <time>2026-08-26T11:35:31.000Z</time>
      </trkpt>
      <trkpt lat="46.02645" lon="5.42855">
        <ele>433.20001220703</ele>
        <time>2026-08-26T11:35:36.000Z</time>
      </trkpt>
      <trkpt lat="46.02645" lon="5.42855">
        <ele>433.39999389648</ele>
        <time>2026-08-26T11:35:37.000Z</time>
      </trkpt>
      <trkpt lat="46.02642" lon="5.4286">
        <ele>434.20001220703</ele>
        <time>2026-08-26T11:35:42.000Z</time>
      </trkpt>
      <trkpt lat="46.02642" lon="5.42861">
        <ele>434.60000610352</ele>
        <time>2026-08-26T11:35:45.000Z</time>
      </trkpt>
      <trkpt lat="46.02638" lon="5.42862">
        <ele>435</ele>
        <time>2026-08-26T11:35:53.000Z</time>
      </trkpt>
      <trkpt lat="46.02637" lon="5.42862">
        <ele>435.39999389648</ele>
        <time>2026-08-26T11:35:54.000Z</time>
      </trkpt>
      <trkpt lat="46.02634" lon="5.42863">
        <ele>436</ele>
        <time>2026-08-26T11:36:00.000Z</time>
      </trkpt>
      <trkpt lat="46.02632" lon="5.42864">
        <ele>436.20001220703</ele>
        <time>2026-08-26T11:36:06.000Z</time>
      </trkpt>
      <trkpt lat="46.0263" lon="5.42864">
        <ele>436.39999389648</ele>
        <time>2026-08-26T11:36:11.000Z</time>
      </trkpt>
      <trkpt lat="46.02629" lon="5.42865">
        <ele>436.60000610352</ele>
        <time>2026-08-26T11:36:13.000Z</time>
      </trkpt>
      <trkpt lat="46.02626" lon="5.42867">
        <ele>437.39999389648</ele>
        <time>2026-08-26T11:36:18.000Z</time>
      </trkpt>
      <trkpt lat="46.02626" lon="5.42867">
        <ele>437.60000610352</ele>
        <time>2026-08-26T11:36:19.000Z</time>
      </trkpt>
      <trkpt lat="46.02623" lon="5.42869">
        <ele>438.20001220703</ele>
        <time>2026-08-26T11:36:25.000Z</time>
      </trkpt>
      <trkpt lat="46.02622" lon="5.42869">
        <ele>438.60000610352</ele>
        <time>2026-08-26T11:36:28.000Z</time>
      </trkpt>
      <trkpt lat="46.0262" lon="5.4287">
        <ele>439.39999389648</ele>
        <time>2026-08-26T11:36:34.000Z</time>
      </trkpt>
      <trkpt lat="46.02617" lon="5.42871">
        <ele>439.60000610352</ele>
        <time>2026-08-26T11:36:36.000Z</time>
      </trkpt>
      <trkpt lat="46.02614" lon="5.42872">
        <ele>440.20001220703</ele>
        <time>2026-08-26T11:36:40.000Z</time>
      </trkpt>
      <trkpt lat="46.02612" lon="5.42871">
        <ele>440.79998779297</ele>
        <time>2026-08-26T11:36:43.000Z</time>
      </trkpt>
      <trkpt lat="46.02609" lon="5.42869">
        <ele>441.60000610352</ele>
        <time>2026-08-26T11:36:47.000Z</time>
      </trkpt>
      <trkpt lat="46.02607" lon="5.42869">
        <ele>441.79998779297</ele>
        <time>2026-08-26T11:36:49.000Z</time>
      </trkpt>
      <trkpt lat="46.02602" lon="5.42864">
        <ele>442.60000610352</ele>
        <time>2026-08-26T11:36:56.000Z</time>
      </trkpt>
      <trkpt lat="46.02601" lon="5.42866">
        <ele>443</ele>
        <time>2026-08-26T11:37:02.000Z</time>
      </trkpt>
      <trkpt lat="46.02601" lon="5.42867">
        <ele>443.39999389648</ele>
        <time>2026-08-26T11:37:04.000Z</time>
      </trkpt>
      <trkpt lat="46.026" lon="5.42868">
        <ele>444</ele>
        <time>2026-08-26T11:37:07.000Z</time>
      </trkpt>
      <trkpt lat="46.02597" lon="5.42872">
        <ele>445.20001220703</ele>
        <time>2026-08-26T11:37:13.000Z</time>
      </trkpt>
      <trkpt lat="46.02595" lon="5.42872">
        <ele>446.20001220703</ele>
        <time>2026-08-26T11:37:19.000Z</time>
      </trkpt>
      <trkpt lat="46.02595" lon="5.42872">
        <ele>446.20001220703</ele>
        <time>2026-08-26T11:37:20.000Z</time>
      </trkpt>
      <trkpt lat="46.02595" lon="5.42873">
        <ele>446.60000610352</ele>
        <time>2026-08-26T11:37:22.000Z</time>
      </trkpt>
      <trkpt lat="46.02594" lon="5.42874">
        <ele>447.20001220703</ele>
        <time>2026-08-26T11:37:26.000Z</time>
      </trkpt>
      <trkpt lat="46.02592" lon="5.42874">
        <ele>447.79998779297</ele>
        <time>2026-08-26T11:37:29.000Z</time>
      </trkpt>
      <trkpt lat="46.02592" lon="5.42874">
        <ele>448.20001220703</ele>
        <time>2026-08-26T11:37:37.000Z</time>
      </trkpt>
      <trkpt lat="46.02592" lon="5.42875">
        <ele>448.39999389648</ele>
        <time>2026-08-26T11:37:39.000Z</time>
      </trkpt>
      <trkpt lat="46.0259" lon="5.42875">
        <ele>449.39999389648</ele>
        <time>2026-08-26T11:37:44.000Z</time>
      </trkpt>
      <trkpt lat="46.02589" lon="5.42875">
        <ele>449.60000610352</ele>
        <time>2026-08-26T11:37:45.000Z</time>
      </trkpt>
      <trkpt lat="46.02586" lon="5.42878">
        <ele>450.60000610352</ele>
        <time>2026-08-26T11:37:50.000Z</time>
      </trkpt>
      <trkpt lat="46.02585" lon="5.42878">
        <ele>451</ele>
        <time>2026-08-26T11:37:53.000Z</time>
      </trkpt>
      <trkpt lat="46.02584" lon="5.4288">
        <ele>451.60000610352</ele>
        <time>2026-08-26T11:37:56.000Z</time>
      </trkpt>
      <trkpt lat="46.02582" lon="5.42883">
        <ele>452.39999389648</ele>
        <time>2026-08-26T11:38:00.000Z</time>
      </trkpt>
      <trkpt lat="46.02581" lon="5.42883">
        <ele>452.79998779297</ele>
        <time>2026-08-26T11:38:02.000Z</time>
      </trkpt>
      <trkpt lat="46.02576" lon="5.42884">
        <ele>453.39999389648</ele>
        <time>2026-08-26T11:38:07.000Z</time>
      </trkpt>
      <trkpt lat="46.02574" lon="5.42887">
        <ele>453.79998779297</ele>
        <time>2026-08-26T11:38:10.000Z</time>
      </trkpt>
      <trkpt lat="46.02573" lon="5.42888">
        <ele>454.20001220703</ele>
        <time>2026-08-26T11:38:13.000Z</time>
      </trkpt>
      <trkpt lat="46.02572" lon="5.4289">
        <ele>454.60000610352</ele>
        <time>2026-08-26T11:38:21.000Z</time>
      </trkpt>
      <trkpt lat="46.0257" lon="5.42892">
        <ele>454.79998779297</ele>
        <time>2026-08-26T11:38:24.000Z</time>
      </trkpt>
      <trkpt lat="46.02568" lon="5.42898">
        <ele>454.79998779297</ele>
        <time>2026-08-26T11:38:28.000Z</time>
      </trkpt>
      <trkpt lat="46.02564" lon="5.42901">
        <ele>454.60000610352</ele>
        <time>2026-08-26T11:38:34.000Z</time>
      </trkpt>
      <trkpt lat="46.02557" lon="5.42904">
        <ele>454.39999389648</ele>
        <time>2026-08-26T11:38:41.000Z</time>
      </trkpt>
      <trkpt lat="46.02549" lon="5.42908">
        <ele>453.79998779297</ele>
        <time>2026-08-26T11:38:51.000Z</time>
      </trkpt>
      <trkpt lat="46.02548" lon="5.42908">
        <ele>453.79998779297</ele>
        <time>2026-08-26T11:38:52.000Z</time>
      </trkpt>
      <trkpt lat="46.02543" lon="5.42912">
        <ele>452.79998779297</ele>
        <time>2026-08-26T11:39:00.000Z</time>
      </trkpt>
      <trkpt lat="46.02543" lon="5.42913">
        <ele>452.60000610352</ele>
        <time>2026-08-26T11:39:01.000Z</time>
      </trkpt>
      <trkpt lat="46.02542" lon="5.42915">
        <ele>452.39999389648</ele>
        <time>2026-08-26T11:39:04.000Z</time>
      </trkpt>
      <trkpt lat="46.0254" lon="5.42917">
        <ele>452.20001220703</ele>
        <time>2026-08-26T11:39:08.000Z</time>
      </trkpt>
      <trkpt lat="46.02537" lon="5.42922">
        <ele>451.60000610352</ele>
        <time>2026-08-26T11:39:14.000Z</time>
      </trkpt>
      <trkpt lat="46.02534" lon="5.42924">
        <ele>451.60000610352</ele>
        <time>2026-08-26T11:39:18.000Z</time>
      </trkpt>
      <trkpt lat="46.02533" lon="5.42926">
        <ele>451.60000610352</ele>
        <time>2026-08-26T11:39:24.000Z</time>
      </trkpt>
      <trkpt lat="46.02532" lon="5.42927">
        <ele>451.39999389648</ele>
        <time>2026-08-26T11:39:27.000Z</time>
      </trkpt>
      <trkpt lat="46.02531" lon="5.42931">
        <ele>452</ele>
        <time>2026-08-26T11:39:33.000Z</time>
      </trkpt>
      <trkpt lat="46.02531" lon="5.42935">
        <ele>452.20001220703</ele>
        <time>2026-08-26T11:39:39.000Z</time>
      </trkpt>
      <trkpt lat="46.02527" lon="5.42939">
        <ele>452.60000610352</ele>
        <time>2026-08-26T11:39:44.000Z</time>
      </trkpt>
      <trkpt lat="46.02525" lon="5.42941">
        <ele>453</ele>
        <time>2026-08-26T11:39:46.000Z</time>
      </trkpt>
      <trkpt lat="46.02522" lon="5.42946">
        <ele>453.60000610352</ele>
        <time>2026-08-26T11:39:52.000Z</time>
      </trkpt>
      <trkpt lat="46.0252" lon="5.42948">
        <ele>453.79998779297</ele>
        <time>2026-08-26T11:39:54.000Z</time>
      </trkpt>
      <trkpt lat="46.02516" lon="5.42953">
        <ele>454.20001220703</ele>
        <time>2026-08-26T11:39:59.000Z</time>
      </trkpt>
      <trkpt lat="46.02513" lon="5.42957">
        <ele>454.79998779297</ele>
        <time>2026-08-26T11:40:05.000Z</time>
      </trkpt>
      <trkpt lat="46.02512" lon="5.42958">
        <ele>455</ele>
        <time>2026-08-26T11:40:06.000Z</time>
      </trkpt>
      <trkpt lat="46.02508" lon="5.42963">
        <ele>455.79998779297</ele>
        <time>2026-08-26T11:40:14.000Z</time>
      </trkpt>
      <trkpt lat="46.02507" lon="5.42963">
        <ele>456</ele>
        <time>2026-08-26T11:40:15.000Z</time>
      </trkpt>
      <trkpt lat="46.02504" lon="5.42971">
        <ele>456.60000610352</ele>
        <time>2026-08-26T11:40:23.000Z</time>
      </trkpt>
      <trkpt lat="46.02502" lon="5.42976">
        <ele>457</ele>
        <time>2026-08-26T11:40:27.000Z</time>
      </trkpt>
      <trkpt lat="46.025" lon="5.4298">
        <ele>457</ele>
        <time>2026-08-26T11:40:30.000Z</time>
      </trkpt>
      <trkpt lat="46.02495" lon="5.42986">
        <ele>457</ele>
        <time>2026-08-26T11:40:36.000Z</time>
      </trkpt>
      <trkpt lat="46.02494" lon="5.42989">
        <ele>456.79998779297</ele>
        <time>2026-08-26T11:40:42.000Z</time>
      </trkpt>
      <trkpt lat="46.02494" lon="5.4299">
        <ele>456.79998779297</ele>
        <time>2026-08-26T11:40:45.000Z</time>
      </trkpt>
      <trkpt lat="46.02494" lon="5.42991">
        <ele>456.79998779297</ele>
        <time>2026-08-26T11:40:49.000Z</time>
      </trkpt>
      <trkpt lat="46.02488" lon="5.42989">
        <ele>456.79998779297</ele>
        <time>2026-08-26T11:40:56.000Z</time>
      </trkpt>
      <trkpt lat="46.02482" lon="5.42986">
        <ele>457.20001220703</ele>
        <time>2026-08-26T11:41:04.000Z</time>
      </trkpt>
      <trkpt lat="46.02475" lon="5.42978">
        <ele>458</ele>
        <time>2026-08-26T11:41:12.000Z</time>
      </trkpt>
      <trkpt lat="46.02473" lon="5.42977">
        <ele>458.20001220703</ele>
        <time>2026-08-26T11:41:13.000Z</time>
      </trkpt>
      <trkpt lat="46.02466" lon="5.42969">
        <ele>458.39999389648</ele>
        <time>2026-08-26T11:41:20.000Z</time>
      </trkpt>
      <trkpt lat="46.02462" lon="5.42962">
        <ele>459</ele>
        <time>2026-08-26T11:41:25.000Z</time>
      </trkpt>
      <trkpt lat="46.02461" lon="5.42959">
        <ele>459.20001220703</ele>
        <time>2026-08-26T11:41:27.000Z</time>
      </trkpt>
      <trkpt lat="46.02458" lon="5.42954">
        <ele>459.39999389648</ele>
        <time>2026-08-26T11:41:30.000Z</time>
      </trkpt>
      <trkpt lat="46.02455" lon="5.42948">
        <ele>459.39999389648</ele>
        <time>2026-08-26T11:41:34.000Z</time>
      </trkpt>
      <trkpt lat="46.02449" lon="5.4294">
        <ele>460.20001220703</ele>
        <time>2026-08-26T11:41:40.000Z</time>
      </trkpt>
      <trkpt lat="46.02448" lon="5.42939">
        <ele>460.20001220703</ele>
        <time>2026-08-26T11:41:41.000Z</time>
      </trkpt>
      <trkpt lat="46.02443" lon="5.42934">
        <ele>460.39999389648</ele>
        <time>2026-08-26T11:41:45.000Z</time>
      </trkpt>
      <trkpt lat="46.02442" lon="5.42933">
        <ele>460.60000610352</ele>
        <time>2026-08-26T11:41:46.000Z</time>
      </trkpt>
      <trkpt lat="46.02437" lon="5.42927">
        <ele>461.39999389648</ele>
        <time>2026-08-26T11:41:52.000Z</time>
      </trkpt>
      <trkpt lat="46.02435" lon="5.42923">
        <ele>461.60000610352</ele>
        <time>2026-08-26T11:41:55.000Z</time>
      </trkpt>
      <trkpt lat="46.02434" lon="5.42922">
        <ele>461.79998779297</ele>
        <time>2026-08-26T11:41:56.000Z</time>
      </trkpt>
      <trkpt lat="46.02433" lon="5.4292">
        <ele>462</ele>
        <time>2026-08-26T11:41:57.000Z</time>
      </trkpt>
      <trkpt lat="46.02433" lon="5.42919">
        <ele>462.20001220703</ele>
        <time>2026-08-26T11:41:58.000Z</time>
      </trkpt>
      <trkpt lat="46.02432" lon="5.42914">
        <ele>462.39999389648</ele>
        <time>2026-08-26T11:42:00.000Z</time>
      </trkpt>
      <trkpt lat="46.02432" lon="5.42907">
        <ele>462.79998779297</ele>
        <time>2026-08-26T11:42:04.000Z</time>
      </trkpt>
      <trkpt lat="46.02433" lon="5.42899">
        <ele>463.60000610352</ele>
        <time>2026-08-26T11:42:08.000Z</time>
      </trkpt>
      <trkpt lat="46.02433" lon="5.42889">
        <ele>464.20001220703</ele>
        <time>2026-08-26T11:42:14.000Z</time>
      </trkpt>
      <trkpt lat="46.02434" lon="5.42882">
        <ele>464.60000610352</ele>
        <time>2026-08-26T11:42:18.000Z</time>
      </trkpt>
      <trkpt lat="46.02434" lon="5.42871">
        <ele>465.20001220703</ele>
        <time>2026-08-26T11:42:24.000Z</time>
      </trkpt>
      <trkpt lat="46.02434" lon="5.42864">
        <ele>465.39999389648</ele>
        <time>2026-08-26T11:42:28.000Z</time>
      </trkpt>
      <trkpt lat="46.02433" lon="5.42861">
        <ele>465.60000610352</ele>
        <time>2026-08-26T11:42:30.000Z</time>
      </trkpt>
      <trkpt lat="46.02433" lon="5.4285">
        <ele>466.20001220703</ele>
        <time>2026-08-26T11:42:35.000Z</time>
      </trkpt>
      <trkpt lat="46.02433" lon="5.42836">
        <ele>466.60000610352</ele>
        <time>2026-08-26T11:42:43.000Z</time>
      </trkpt>
      <trkpt lat="46.02433" lon="5.42833">
        <ele>466.60000610352</ele>
        <time>2026-08-26T11:42:45.000Z</time>
      </trkpt>
      <trkpt lat="46.02435" lon="5.42816">
        <ele>467</ele>
        <time>2026-08-26T11:42:54.000Z</time>
      </trkpt>
      <trkpt lat="46.02436" lon="5.42798">
        <ele>467.79998779297</ele>
        <time>2026-08-26T11:43:03.000Z</time>
      </trkpt>
      <trkpt lat="46.02436" lon="5.42796">
        <ele>467.79998779297</ele>
        <time>2026-08-26T11:43:04.000Z</time>
      </trkpt>
      <trkpt lat="46.02436" lon="5.42777">
        <ele>468.39999389648</ele>
        <time>2026-08-26T11:43:14.000Z</time>
      </trkpt>
      <trkpt lat="46.02433" lon="5.42759">
        <ele>468.60000610352</ele>
        <time>2026-08-26T11:43:24.000Z</time>
      </trkpt>
      <trkpt lat="46.02433" lon="5.42757">
        <ele>468.79998779297</ele>
        <time>2026-08-26T11:43:25.000Z</time>
      </trkpt>
      <trkpt lat="46.02432" lon="5.42751">
        <ele>468.60000610352</ele>
        <time>2026-08-26T11:43:29.000Z</time>
      </trkpt>
      <trkpt lat="46.02431" lon="5.4275">
        <ele>468.60000610352</ele>
        <time>2026-08-26T11:43:31.000Z</time>
      </trkpt>
      <trkpt lat="46.02431" lon="5.42749">
        <ele>468.60000610352</ele>
        <time>2026-08-26T11:43:38.000Z</time>
      </trkpt>
      <trkpt lat="46.02431" lon="5.42748">
        <ele>468.60000610352</ele>
        <time>2026-08-26T11:43:39.000Z</time>
      </trkpt>
      <trkpt lat="46.0243" lon="5.4274">
        <ele>468.79998779297</ele>
        <time>2026-08-26T11:43:47.000Z</time>
      </trkpt>
      <trkpt lat="46.02429" lon="5.4273">
        <ele>469</ele>
        <time>2026-08-26T11:43:54.000Z</time>
      </trkpt>
      <trkpt lat="46.02429" lon="5.42727">
        <ele>468.79998779297</ele>
        <time>2026-08-26T11:43:56.000Z</time>
      </trkpt>
      <trkpt lat="46.02427" lon="5.42718">
        <ele>468.60000610352</ele>
        <time>2026-08-26T11:44:01.000Z</time>
      </trkpt>
      <trkpt lat="46.02423" lon="5.42703">
        <ele>468</ele>
        <time>2026-08-26T11:44:09.000Z</time>
      </trkpt>
      <trkpt lat="46.02422" lon="5.427">
        <ele>467.79998779297</ele>
        <time>2026-08-26T11:44:11.000Z</time>
      </trkpt>
      <trkpt lat="46.02421" lon="5.42693">
        <ele>467.20001220703</ele>
        <time>2026-08-26T11:44:16.000Z</time>
      </trkpt>
      <trkpt lat="46.0242" lon="5.4269">
        <ele>467</ele>
        <time>2026-08-26T11:44:17.000Z</time>
      </trkpt>
      <trkpt lat="46.02419" lon="5.42685">
        <ele>466.79998779297</ele>
        <time>2026-08-26T11:44:20.000Z</time>
      </trkpt>
      <trkpt lat="46.02415" lon="5.42678">
        <ele>466.20001220703</ele>
        <time>2026-08-26T11:44:25.000Z</time>
      </trkpt>
      <trkpt lat="46.02409" lon="5.42672">
        <ele>465.79998779297</ele>
        <time>2026-08-26T11:44:31.000Z</time>
      </trkpt>
      <trkpt lat="46.02406" lon="5.42669">
        <ele>465.60000610352</ele>
        <time>2026-08-26T11:44:34.000Z</time>
      </trkpt>
      <trkpt lat="46.02398" lon="5.42662">
        <ele>465.60000610352</ele>
        <time>2026-08-26T11:44:41.000Z</time>
      </trkpt>
      <trkpt lat="46.02394" lon="5.42657">
        <ele>465.20001220703</ele>
        <time>2026-08-26T11:44:45.000Z</time>
      </trkpt>
      <trkpt lat="46.02388" lon="5.42645">
        <ele>464.60000610352</ele>
        <time>2026-08-26T11:44:53.000Z</time>
      </trkpt>
      <trkpt lat="46.02387" lon="5.42644">
        <ele>464.39999389648</ele>
        <time>2026-08-26T11:44:55.000Z</time>
      </trkpt>
      <trkpt lat="46.02385" lon="5.42641">
        <ele>464.20001220703</ele>
        <time>2026-08-26T11:45:05.000Z</time>
      </trkpt>
      <trkpt lat="46.02382" lon="5.42636">
        <ele>464</ele>
        <time>2026-08-26T11:45:11.000Z</time>
      </trkpt>
      <trkpt lat="46.02379" lon="5.42631">
        <ele>463.60000610352</ele>
        <time>2026-08-26T11:45:15.000Z</time>
      </trkpt>
      <trkpt lat="46.02376" lon="5.42626">
        <ele>463.20001220703</ele>
        <time>2026-08-26T11:45:19.000Z</time>
      </trkpt>
      <trkpt lat="46.02365" lon="5.42612">
        <ele>462.60000610352</ele>
        <time>2026-08-26T11:45:30.000Z</time>
      </trkpt>
      <trkpt lat="46.02359" lon="5.42602">
        <ele>461.60000610352</ele>
        <time>2026-08-26T11:45:36.000Z</time>
      </trkpt>
      <trkpt lat="46.02356" lon="5.42597">
        <ele>461.20001220703</ele>
        <time>2026-08-26T11:45:40.000Z</time>
      </trkpt>
      <trkpt lat="46.02351" lon="5.4259">
        <ele>460.39999389648</ele>
        <time>2026-08-26T11:45:45.000Z</time>
      </trkpt>
      <trkpt lat="46.02345" lon="5.42579">
        <ele>459.60000610352</ele>
        <time>2026-08-26T11:45:52.000Z</time>
      </trkpt>
      <trkpt lat="46.02343" lon="5.42575">
        <ele>459.39999389648</ele>
        <time>2026-08-26T11:45:54.000Z</time>
      </trkpt>
      <trkpt lat="46.02337" lon="5.4257">
        <ele>458.60000610352</ele>
        <time>2026-08-26T11:46:00.000Z</time>
      </trkpt>
      <trkpt lat="46.02325" lon="5.42569">
        <ele>458.60000610352</ele>
        <time>2026-08-26T11:46:08.000Z</time>
      </trkpt>
      <trkpt lat="46.02314" lon="5.42567">
        <ele>458.79998779297</ele>
        <time>2026-08-26T11:46:16.000Z</time>
      </trkpt>
      <trkpt lat="46.02303" lon="5.42564">
        <ele>459</ele>
        <time>2026-08-26T11:46:24.000Z</time>
      </trkpt>
      <trkpt lat="46.02295" lon="5.42562">
        <ele>459.20001220703</ele>
        <time>2026-08-26T11:46:31.000Z</time>
      </trkpt>
      <trkpt lat="46.02291" lon="5.4256">
        <ele>459.20001220703</ele>
        <time>2026-08-26T11:46:38.000Z</time>
      </trkpt>
      <trkpt lat="46.02289" lon="5.42561">
        <ele>459</ele>
        <time>2026-08-26T11:46:49.000Z</time>
      </trkpt>
      <trkpt lat="46.02286" lon="5.4256">
        <ele>459</ele>
        <time>2026-08-26T11:46:57.000Z</time>
      </trkpt>
      <trkpt lat="46.02283" lon="5.4256">
        <ele>459.20001220703</ele>
        <time>2026-08-26T11:47:11.000Z</time>
      </trkpt>
      <trkpt lat="46.02283" lon="5.42559">
        <ele>459</ele>
        <time>2026-08-26T11:47:29.000Z</time>
      </trkpt>
      <trkpt lat="46.02281" lon="5.42557">
        <ele>459</ele>
        <time>2026-08-26T11:47:38.000Z</time>
      </trkpt>
      <trkpt lat="46.0228" lon="5.42558">
        <ele>459</ele>
        <time>2026-08-26T11:47:56.000Z</time>
      </trkpt>
      <trkpt lat="46.02273" lon="5.42555">
        <ele>459.39999389648</ele>
        <time>2026-08-26T11:48:04.000Z</time>
      </trkpt>
      <trkpt lat="46.02264" lon="5.42553">
        <ele>459.20001220703</ele>
        <time>2026-08-26T11:48:11.000Z</time>
      </trkpt>
      <trkpt lat="46.02254" lon="5.42549">
        <ele>459.39999389648</ele>
        <time>2026-08-26T11:48:18.000Z</time>
      </trkpt>
      <trkpt lat="46.02244" lon="5.42545">
        <ele>459.39999389648</ele>
        <time>2026-08-26T11:48:25.000Z</time>
      </trkpt>
      <trkpt lat="46.02234" lon="5.42541">
        <ele>459.39999389648</ele>
        <time>2026-08-26T11:48:33.000Z</time>
      </trkpt>
      <trkpt lat="46.02222" lon="5.42536">
        <ele>459.60000610352</ele>
        <time>2026-08-26T11:48:41.000Z</time>
      </trkpt>
      <trkpt lat="46.02209" lon="5.42531">
        <ele>459.79998779297</ele>
        <time>2026-08-26T11:48:50.000Z</time>
      </trkpt>
      <trkpt lat="46.02205" lon="5.4253">
        <ele>459.79998779297</ele>
        <time>2026-08-26T11:48:53.000Z</time>
      </trkpt>
      <trkpt lat="46.02203" lon="5.42529">
        <ele>459.79998779297</ele>
        <time>2026-08-26T11:48:54.000Z</time>
      </trkpt>
      <trkpt lat="46.02198" lon="5.42526">
        <ele>460</ele>
        <time>2026-08-26T11:48:58.000Z</time>
      </trkpt>
      <trkpt lat="46.02187" lon="5.42522">
        <ele>460.39999389648</ele>
        <time>2026-08-26T11:49:06.000Z</time>
      </trkpt>
      <trkpt lat="46.02186" lon="5.42522">
        <ele>460.60000610352</ele>
        <time>2026-08-26T11:49:07.000Z</time>
      </trkpt>
      <trkpt lat="46.02173" lon="5.42515">
        <ele>461.39999389648</ele>
        <time>2026-08-26T11:49:16.000Z</time>
      </trkpt>
      <trkpt lat="46.0217" lon="5.42514">
        <ele>461.60000610352</ele>
        <time>2026-08-26T11:49:18.000Z</time>
      </trkpt>
      <trkpt lat="46.02165" lon="5.42511">
        <ele>461.79998779297</ele>
        <time>2026-08-26T11:49:22.000Z</time>
      </trkpt>
      <trkpt lat="46.02155" lon="5.42504">
        <ele>462.60000610352</ele>
        <time>2026-08-26T11:49:31.000Z</time>
      </trkpt>
      <trkpt lat="46.02145" lon="5.42496">
        <ele>463.39999389648</ele>
        <time>2026-08-26T11:49:40.000Z</time>
      </trkpt>
      <trkpt lat="46.02142" lon="5.42494">
        <ele>463.60000610352</ele>
        <time>2026-08-26T11:49:42.000Z</time>
      </trkpt>
      <trkpt lat="46.02132" lon="5.42486">
        <ele>464</ele>
        <time>2026-08-26T11:49:50.000Z</time>
      </trkpt>
      <trkpt lat="46.02123" lon="5.42479">
        <ele>464.60000610352</ele>
        <time>2026-08-26T11:49:57.000Z</time>
      </trkpt>
      <trkpt lat="46.0212" lon="5.42475">
        <ele>465</ele>
        <time>2026-08-26T11:50:00.000Z</time>
      </trkpt>
      <trkpt lat="46.0211" lon="5.42464">
        <ele>465.79998779297</ele>
        <time>2026-08-26T11:50:10.000Z</time>
      </trkpt>
      <trkpt lat="46.02102" lon="5.42457">
        <ele>466.39999389648</ele>
        <time>2026-08-26T11:50:17.000Z</time>
      </trkpt>
      <trkpt lat="46.02097" lon="5.42452">
        <ele>466.79998779297</ele>
        <time>2026-08-26T11:50:21.000Z</time>
      </trkpt>
      <trkpt lat="46.02093" lon="5.42448">
        <ele>467.20001220703</ele>
        <time>2026-08-26T11:50:25.000Z</time>
      </trkpt>
      <trkpt lat="46.02083" lon="5.42441">
        <ele>467.79998779297</ele>
        <time>2026-08-26T11:50:34.000Z</time>
      </trkpt>
      <trkpt lat="46.02081" lon="5.4244">
        <ele>467.79998779297</ele>
        <time>2026-08-26T11:50:35.000Z</time>
      </trkpt>
      <trkpt lat="46.02075" lon="5.42436">
        <ele>468.20001220703</ele>
        <time>2026-08-26T11:50:40.000Z</time>
      </trkpt>
      <trkpt lat="46.02064" lon="5.42429">
        <ele>468.39999389648</ele>
        <time>2026-08-26T11:50:52.000Z</time>
      </trkpt>
      <trkpt lat="46.0206" lon="5.42427">
        <ele>468.60000610352</ele>
        <time>2026-08-26T11:50:56.000Z</time>
      </trkpt>
      <trkpt lat="46.02059" lon="5.42426">
        <ele>468.60000610352</ele>
        <time>2026-08-26T11:50:57.000Z</time>
      </trkpt>
      <trkpt lat="46.02058" lon="5.42425">
        <ele>468.60000610352</ele>
        <time>2026-08-26T11:50:58.000Z</time>
      </trkpt>
      <trkpt lat="46.02057" lon="5.42424">
        <ele>468.79998779297</ele>
        <time>2026-08-26T11:50:59.000Z</time>
      </trkpt>
      <trkpt lat="46.02055" lon="5.42422">
        <ele>468.79998779297</ele>
        <time>2026-08-26T11:51:01.000Z</time>
      </trkpt>
      <trkpt lat="46.02054" lon="5.42421">
        <ele>469</ele>
        <time>2026-08-26T11:51:02.000Z</time>
      </trkpt>
      <trkpt lat="46.02046" lon="5.42412">
        <ele>469.20001220703</ele>
        <time>2026-08-26T11:51:09.000Z</time>
      </trkpt>
      <trkpt lat="46.02041" lon="5.42406">
        <ele>468.79998779297</ele>
        <time>2026-08-26T11:51:14.000Z</time>
      </trkpt>
      <trkpt lat="46.02034" lon="5.42399">
        <ele>469</ele>
        <time>2026-08-26T11:51:20.000Z</time>
      </trkpt>
      <trkpt lat="46.0202" lon="5.42392">
        <ele>468.60000610352</ele>
        <time>2026-08-26T11:51:30.000Z</time>
      </trkpt>
      <trkpt lat="46.02011" lon="5.42387">
        <ele>468.39999389648</ele>
        <time>2026-08-26T11:51:37.000Z</time>
      </trkpt>
      <trkpt lat="46.02005" lon="5.42385">
        <ele>468</ele>
        <time>2026-08-26T11:51:42.000Z</time>
      </trkpt>
      <trkpt lat="46.01999" lon="5.42383">
        <ele>468</ele>
        <time>2026-08-26T11:51:47.000Z</time>
      </trkpt>
      <trkpt lat="46.01998" lon="5.42382">
        <ele>467.79998779297</ele>
        <time>2026-08-26T11:51:48.000Z</time>
      </trkpt>
      <trkpt lat="46.01989" lon="5.4238">
        <ele>467.39999389648</ele>
        <time>2026-08-26T11:51:54.000Z</time>
      </trkpt>
      <trkpt lat="46.01981" lon="5.42378">
        <ele>466.79998779297</ele>
        <time>2026-08-26T11:52:01.000Z</time>
      </trkpt>
      <trkpt lat="46.01978" lon="5.42378">
        <ele>466.60000610352</ele>
        <time>2026-08-26T11:52:03.000Z</time>
      </trkpt>
      <trkpt lat="46.01966" lon="5.42373">
        <ele>465.79998779297</ele>
        <time>2026-08-26T11:52:12.000Z</time>
      </trkpt>
      <trkpt lat="46.01964" lon="5.42373">
        <ele>465.79998779297</ele>
        <time>2026-08-26T11:52:13.000Z</time>
      </trkpt>
      <trkpt lat="46.01957" lon="5.4237">
        <ele>465.39999389648</ele>
        <time>2026-08-26T11:52:19.000Z</time>
      </trkpt>
      <trkpt lat="46.01947" lon="5.42365">
        <ele>464.60000610352</ele>
        <time>2026-08-26T11:52:27.000Z</time>
      </trkpt>
      <trkpt lat="46.01943" lon="5.42363">
        <ele>464.20001220703</ele>
        <time>2026-08-26T11:52:30.000Z</time>
      </trkpt>
      <trkpt lat="46.01936" lon="5.42359">
        <ele>463.60000610352</ele>
        <time>2026-08-26T11:52:36.000Z</time>
      </trkpt>
      <trkpt lat="46.0193" lon="5.42354">
        <ele>462.79998779297</ele>
        <time>2026-08-26T11:52:41.000Z</time>
      </trkpt>
      <trkpt lat="46.01927" lon="5.4235">
        <ele>462.60000610352</ele>
        <time>2026-08-26T11:52:44.000Z</time>
      </trkpt>
      <trkpt lat="46.01918" lon="5.42343">
        <ele>461.60000610352</ele>
        <time>2026-08-26T11:52:53.000Z</time>
      </trkpt>
      <trkpt lat="46.01916" lon="5.42342">
        <ele>461.39999389648</ele>
        <time>2026-08-26T11:52:54.000Z</time>
      </trkpt>
      <trkpt lat="46.01909" lon="5.42336">
        <ele>460.39999389648</ele>
        <time>2026-08-26T11:53:01.000Z</time>
      </trkpt>
      <trkpt lat="46.01903" lon="5.42331">
        <ele>459.60000610352</ele>
        <time>2026-08-26T11:53:06.000Z</time>
      </trkpt>
      <trkpt lat="46.01901" lon="5.4233">
        <ele>459.39999389648</ele>
        <time>2026-08-26T11:53:08.000Z</time>
      </trkpt>
      <trkpt lat="46.01891" lon="5.42324">
        <ele>458.39999389648</ele>
        <time>2026-08-26T11:53:17.000Z</time>
      </trkpt>
      <trkpt lat="46.01882" lon="5.42316">
        <ele>457.20001220703</ele>
        <time>2026-08-26T11:53:25.000Z</time>
      </trkpt>
      <trkpt lat="46.01881" lon="5.42313">
        <ele>457</ele>
        <time>2026-08-26T11:53:27.000Z</time>
      </trkpt>
      <trkpt lat="46.01881" lon="5.42311">
        <ele>456.79998779297</ele>
        <time>2026-08-26T11:53:28.000Z</time>
      </trkpt>
      <trkpt lat="46.01884" lon="5.42303">
        <ele>456.39999389648</ele>
        <time>2026-08-26T11:53:33.000Z</time>
      </trkpt>
      <trkpt lat="46.01886" lon="5.42301">
        <ele>456.20001220703</ele>
        <time>2026-08-26T11:53:35.000Z</time>
      </trkpt>
      <trkpt lat="46.01893" lon="5.4229">
        <ele>455.79998779297</ele>
        <time>2026-08-26T11:53:42.000Z</time>
      </trkpt>
      <trkpt lat="46.01895" lon="5.42285">
        <ele>455.20001220703</ele>
        <time>2026-08-26T11:53:46.000Z</time>
      </trkpt>
      <trkpt lat="46.01896" lon="5.42282">
        <ele>455</ele>
        <time>2026-08-26T11:53:48.000Z</time>
      </trkpt>
      <trkpt lat="46.019" lon="5.42267">
        <ele>454</ele>
        <time>2026-08-26T11:53:56.000Z</time>
      </trkpt>
      <trkpt lat="46.01906" lon="5.42255">
        <ele>453</ele>
        <time>2026-08-26T11:54:04.000Z</time>
      </trkpt>
      <trkpt lat="46.01908" lon="5.42251">
        <ele>452.79998779297</ele>
        <time>2026-08-26T11:54:06.000Z</time>
      </trkpt>
      <trkpt lat="46.01914" lon="5.42241">
        <ele>452</ele>
        <time>2026-08-26T11:54:13.000Z</time>
      </trkpt>
      <trkpt lat="46.01921" lon="5.42231">
        <ele>451.20001220703</ele>
        <time>2026-08-26T11:54:20.000Z</time>
      </trkpt>
      <trkpt lat="46.01924" lon="5.42224">
        <ele>451</ele>
        <time>2026-08-26T11:54:24.000Z</time>
      </trkpt>
      <trkpt lat="46.0193" lon="5.42215">
        <ele>450.20001220703</ele>
        <time>2026-08-26T11:54:30.000Z</time>
      </trkpt>
      <trkpt lat="46.01936" lon="5.422">
        <ele>450</ele>
        <time>2026-08-26T11:54:38.000Z</time>
      </trkpt>
      <trkpt lat="46.01938" lon="5.42198">
        <ele>450</ele>
        <time>2026-08-26T11:54:40.000Z</time>
      </trkpt>
      <trkpt lat="46.01946" lon="5.42187">
        <ele>449.39999389648</ele>
        <time>2026-08-26T11:54:48.000Z</time>
      </trkpt>
      <trkpt lat="46.0195" lon="5.42182">
        <ele>448.79998779297</ele>
        <time>2026-08-26T11:54:52.000Z</time>
      </trkpt>
      <trkpt lat="46.01951" lon="5.4218">
        <ele>448.60000610352</ele>
        <time>2026-08-26T11:54:56.000Z</time>
      </trkpt>
      <trkpt lat="46.01952" lon="5.42175">
        <ele>448.39999389648</ele>
        <time>2026-08-26T11:55:05.000Z</time>
      </trkpt>
      <trkpt lat="46.01953" lon="5.42174">
        <ele>448.20001220703</ele>
        <time>2026-08-26T11:55:07.000Z</time>
      </trkpt>
      <trkpt lat="46.01957" lon="5.42172">
        <ele>448.20001220703</ele>
        <time>2026-08-26T11:55:10.000Z</time>
      </trkpt>
      <trkpt lat="46.01962" lon="5.4217">
        <ele>447.60000610352</ele>
        <time>2026-08-26T11:55:14.000Z</time>
      </trkpt>
      <trkpt lat="46.01965" lon="5.42168">
        <ele>447.39999389648</ele>
        <time>2026-08-26T11:55:17.000Z</time>
      </trkpt>
      <trkpt lat="46.01976" lon="5.42162">
        <ele>447</ele>
        <time>2026-08-26T11:55:25.000Z</time>
      </trkpt>
      <trkpt lat="46.01976" lon="5.42162">
        <ele>446.79998779297</ele>
        <time>2026-08-26T11:55:26.000Z</time>
      </trkpt>
      <trkpt lat="46.01978" lon="5.4216">
        <ele>446.60000610352</ele>
        <time>2026-08-26T11:55:29.000Z</time>
      </trkpt>
      <trkpt lat="46.0198" lon="5.42159">
        <ele>446.39999389648</ele>
        <time>2026-08-26T11:55:31.000Z</time>
      </trkpt>
      <trkpt lat="46.01988" lon="5.42153">
        <ele>445.60000610352</ele>
        <time>2026-08-26T11:55:38.000Z</time>
      </trkpt>
      <trkpt lat="46.01989" lon="5.42152">
        <ele>445.39999389648</ele>
        <time>2026-08-26T11:55:39.000Z</time>
      </trkpt>
      <trkpt lat="46.01999" lon="5.42146">
        <ele>444.60000610352</ele>
        <time>2026-08-26T11:55:47.000Z</time>
      </trkpt>
      <trkpt lat="46.02" lon="5.42145">
        <ele>444.39999389648</ele>
        <time>2026-08-26T11:55:48.000Z</time>
      </trkpt>
      <trkpt lat="46.02006" lon="5.4214">
        <ele>443.60000610352</ele>
        <time>2026-08-26T11:55:53.000Z</time>
      </trkpt>
      <trkpt lat="46.02011" lon="5.42136">
        <ele>442.79998779297</ele>
        <time>2026-08-26T11:55:58.000Z</time>
      </trkpt>
      <trkpt lat="46.02012" lon="5.42135">
        <ele>442.60000610352</ele>
        <time>2026-08-26T11:55:59.000Z</time>
      </trkpt>
      <trkpt lat="46.0202" lon="5.42129">
        <ele>441.60000610352</ele>
        <time>2026-08-26T11:56:06.000Z</time>
      </trkpt>
      <trkpt lat="46.02021" lon="5.42128">
        <ele>441.60000610352</ele>
        <time>2026-08-26T11:56:07.000Z</time>
      </trkpt>
      <trkpt lat="46.02029" lon="5.42125">
        <ele>440.60000610352</ele>
        <time>2026-08-26T11:56:13.000Z</time>
      </trkpt>
      <trkpt lat="46.02033" lon="5.42124">
        <ele>440.39999389648</ele>
        <time>2026-08-26T11:56:15.000Z</time>
      </trkpt>
      <trkpt lat="46.02039" lon="5.42122">
        <ele>440</ele>
        <time>2026-08-26T11:56:20.000Z</time>
      </trkpt>
      <trkpt lat="46.02042" lon="5.42123">
        <ele>439.79998779297</ele>
        <time>2026-08-26T11:56:23.000Z</time>
      </trkpt>
      <trkpt lat="46.02049" lon="5.42123">
        <ele>439.39999389648</ele>
        <time>2026-08-26T11:56:28.000Z</time>
      </trkpt>
      <trkpt lat="46.02057" lon="5.42122">
        <ele>439</ele>
        <time>2026-08-26T11:56:33.000Z</time>
      </trkpt>
      <trkpt lat="46.02067" lon="5.42121">
        <ele>438.39999389648</ele>
        <time>2026-08-26T11:56:40.000Z</time>
      </trkpt>
      <trkpt lat="46.0207" lon="5.4212">
        <ele>438.20001220703</ele>
        <time>2026-08-26T11:56:42.000Z</time>
      </trkpt>
      <trkpt lat="46.02084" lon="5.42124">
        <ele>437.60000610352</ele>
        <time>2026-08-26T11:56:53.000Z</time>
      </trkpt>
      <trkpt lat="46.02087" lon="5.42124">
        <ele>437.20001220703</ele>
        <time>2026-08-26T11:56:55.000Z</time>
      </trkpt>
      <trkpt lat="46.02096" lon="5.42128">
        <ele>436.39999389648</ele>
        <time>2026-08-26T11:57:02.000Z</time>
      </trkpt>
      <trkpt lat="46.02099" lon="5.42129">
        <ele>436.20001220703</ele>
        <time>2026-08-26T11:57:04.000Z</time>
      </trkpt>
      <trkpt lat="46.02103" lon="5.42131">
        <ele>436</ele>
        <time>2026-08-26T11:57:07.000Z</time>
      </trkpt>
      <trkpt lat="46.02108" lon="5.42133">
        <ele>435.60000610352</ele>
        <time>2026-08-26T11:57:11.000Z</time>
      </trkpt>
      <trkpt lat="46.02114" lon="5.42135">
        <ele>435.20001220703</ele>
        <time>2026-08-26T11:57:16.000Z</time>
      </trkpt>
      <trkpt lat="46.02123" lon="5.42137">
        <ele>435</ele>
        <time>2026-08-26T11:57:22.000Z</time>
      </trkpt>
      <trkpt lat="46.02138" lon="5.42141">
        <ele>435.20001220703</ele>
        <time>2026-08-26T11:57:33.000Z</time>
      </trkpt>
      <trkpt lat="46.02152" lon="5.42141">
        <ele>435.79998779297</ele>
        <time>2026-08-26T11:57:44.000Z</time>
      </trkpt>
      <trkpt lat="46.02158" lon="5.4214">
        <ele>436.20001220703</ele>
        <time>2026-08-26T11:57:49.000Z</time>
      </trkpt>
      <trkpt lat="46.02159" lon="5.4214">
        <ele>436.20001220703</ele>
        <time>2026-08-26T11:57:50.000Z</time>
      </trkpt>
      <trkpt lat="46.02166" lon="5.42138">
        <ele>436.20001220703</ele>
        <time>2026-08-26T11:57:56.000Z</time>
      </trkpt>
      <trkpt lat="46.02175" lon="5.42135">
        <ele>435</ele>
        <time>2026-08-26T11:58:03.000Z</time>
      </trkpt>
      <trkpt lat="46.02179" lon="5.42134">
        <ele>434.60000610352</ele>
        <time>2026-08-26T11:58:06.000Z</time>
      </trkpt>
      <trkpt lat="46.02183" lon="5.42133">
        <ele>433.79998779297</ele>
        <time>2026-08-26T11:58:09.000Z</time>
      </trkpt>
      <trkpt lat="46.0219" lon="5.42132">
        <ele>432.79998779297</ele>
        <time>2026-08-26T11:58:14.000Z</time>
      </trkpt>
      <trkpt lat="46.02191" lon="5.42133">
        <ele>432.60000610352</ele>
        <time>2026-08-26T11:58:15.000Z</time>
      </trkpt>
      <trkpt lat="46.02194" lon="5.42133">
        <ele>431.79998779297</ele>
        <time>2026-08-26T11:58:19.000Z</time>
      </trkpt>
      <trkpt lat="46.02202" lon="5.42134">
        <ele>430.60000610352</ele>
        <time>2026-08-26T11:58:24.000Z</time>
      </trkpt>
      <trkpt lat="46.02207" lon="5.42134">
        <ele>429.39999389648</ele>
        <time>2026-08-26T11:58:29.000Z</time>
      </trkpt>
      <trkpt lat="46.0221" lon="5.42134">
        <ele>429</ele>
        <time>2026-08-26T11:58:31.000Z</time>
      </trkpt>
      <trkpt lat="46.02213" lon="5.42135">
        <ele>428.20001220703</ele>
        <time>2026-08-26T11:58:34.000Z</time>
      </trkpt>
      <trkpt lat="46.0222" lon="5.42135">
        <ele>427.20001220703</ele>
        <time>2026-08-26T11:58:39.000Z</time>
      </trkpt>
      <trkpt lat="46.02223" lon="5.42136">
        <ele>426.39999389648</ele>
        <time>2026-08-26T11:58:42.000Z</time>
      </trkpt>
      <trkpt lat="46.02224" lon="5.42136">
        <ele>426.20001220703</ele>
        <time>2026-08-26T11:58:43.000Z</time>
      </trkpt>
      <trkpt lat="46.02231" lon="5.42136">
        <ele>425</ele>
        <time>2026-08-26T11:58:48.000Z</time>
      </trkpt>
      <trkpt lat="46.02235" lon="5.42137">
        <ele>424</ele>
        <time>2026-08-26T11:58:52.000Z</time>
      </trkpt>
      <trkpt lat="46.02236" lon="5.42137">
        <ele>423.79998779297</ele>
        <time>2026-08-26T11:58:53.000Z</time>
      </trkpt>
      <trkpt lat="46.02245" lon="5.42138">
        <ele>422.60000610352</ele>
        <time>2026-08-26T11:58:59.000Z</time>
      </trkpt>
      <trkpt lat="46.02248" lon="5.42139">
        <ele>422.20001220703</ele>
        <time>2026-08-26T11:59:02.000Z</time>
      </trkpt>
      <trkpt lat="46.02253" lon="5.42139">
        <ele>421.60000610352</ele>
        <time>2026-08-26T11:59:06.000Z</time>
      </trkpt>
      <trkpt lat="46.02257" lon="5.42139">
        <ele>420.39999389648</ele>
        <time>2026-08-26T11:59:11.000Z</time>
      </trkpt>
      <trkpt lat="46.02264" lon="5.42141">
        <ele>419.39999389648</ele>
        <time>2026-08-26T11:59:17.000Z</time>
      </trkpt>
      <trkpt lat="46.02268" lon="5.42142">
        <ele>419</ele>
        <time>2026-08-26T11:59:20.000Z</time>
      </trkpt>
      <trkpt lat="46.02272" lon="5.42144">
        <ele>418.39999389648</ele>
        <time>2026-08-26T11:59:23.000Z</time>
      </trkpt>
      <trkpt lat="46.02278" lon="5.42152">
        <ele>417.20001220703</ele>
        <time>2026-08-26T11:59:29.000Z</time>
      </trkpt>
      <trkpt lat="46.02285" lon="5.42157">
        <ele>416.39999389648</ele>
        <time>2026-08-26T11:59:35.000Z</time>
      </trkpt>
      <trkpt lat="46.02288" lon="5.42159">
        <ele>416.20001220703</ele>
        <time>2026-08-26T11:59:37.000Z</time>
      </trkpt>
      <trkpt lat="46.02297" lon="5.42166">
        <ele>415.20001220703</ele>
        <time>2026-08-26T11:59:45.000Z</time>
      </trkpt>
      <trkpt lat="46.02298" lon="5.42166">
        <ele>415.20001220703</ele>
        <time>2026-08-26T11:59:46.000Z</time>
      </trkpt>
      <trkpt lat="46.02307" lon="5.42174">
        <ele>414.20001220703</ele>
        <time>2026-08-26T11:59:54.000Z</time>
      </trkpt>
      <trkpt lat="46.02309" lon="5.42176">
        <ele>414.20001220703</ele>
        <time>2026-08-26T11:59:56.000Z</time>
      </trkpt>
      <trkpt lat="46.02321" lon="5.42185">
        <ele>413.20001220703</ele>
        <time>2026-08-26T12:00:06.000Z</time>
      </trkpt>
      <trkpt lat="46.02322" lon="5.42186">
        <ele>413</ele>
        <time>2026-08-26T12:00:07.000Z</time>
      </trkpt>
      <trkpt lat="46.02331" lon="5.4219">
        <ele>412</ele>
        <time>2026-08-26T12:00:15.000Z</time>
      </trkpt>
      <trkpt lat="46.02338" lon="5.42189">
        <ele>411</ele>
        <time>2026-08-26T12:00:21.000Z</time>
      </trkpt>
      <trkpt lat="46.02343" lon="5.42186">
        <ele>410.20001220703</ele>
        <time>2026-08-26T12:00:25.000Z</time>
      </trkpt>
      <trkpt lat="46.02347" lon="5.42185">
        <ele>410</ele>
        <time>2026-08-26T12:00:28.000Z</time>
      </trkpt>
      <trkpt lat="46.02356" lon="5.42176">
        <ele>409.60000610352</ele>
        <time>2026-08-26T12:00:36.000Z</time>
      </trkpt>
      <trkpt lat="46.02357" lon="5.4217">
        <ele>409.20001220703</ele>
        <time>2026-08-26T12:00:43.000Z</time>
      </trkpt>
      <trkpt lat="46.02353" lon="5.42164">
        <ele>408.79998779297</ele>
        <time>2026-08-26T12:00:48.000Z</time>
      </trkpt>
      <trkpt lat="46.0235" lon="5.42161">
        <ele>408.39999389648</ele>
        <time>2026-08-26T12:00:51.000Z</time>
      </trkpt>
      <trkpt lat="46.02346" lon="5.42155">
        <ele>408</ele>
        <time>2026-08-26T12:00:56.000Z</time>
      </trkpt>
      <trkpt lat="46.02343" lon="5.42151">
        <ele>407.79998779297</ele>
        <time>2026-08-26T12:00:59.000Z</time>
      </trkpt>
      <trkpt lat="46.02341" lon="5.42146">
        <ele>407.60000610352</ele>
        <time>2026-08-26T12:01:02.000Z</time>
      </trkpt>
      <trkpt lat="46.02335" lon="5.42135">
        <ele>406.60000610352</ele>
        <time>2026-08-26T12:01:10.000Z</time>
      </trkpt>
      <trkpt lat="46.02333" lon="5.42128">
        <ele>406</ele>
        <time>2026-08-26T12:01:14.000Z</time>
      </trkpt>
      <trkpt lat="46.02332" lon="5.42124">
        <ele>405.60000610352</ele>
        <time>2026-08-26T12:01:17.000Z</time>
      </trkpt>
      <trkpt lat="46.0233" lon="5.42113">
        <ele>405</ele>
        <time>2026-08-26T12:01:24.000Z</time>
      </trkpt>
      <trkpt lat="46.02329" lon="5.4211">
        <ele>404.60000610352</ele>
        <time>2026-08-26T12:01:26.000Z</time>
      </trkpt>
      <trkpt lat="46.02328" lon="5.42108">
        <ele>404.60000610352</ele>
        <time>2026-08-26T12:01:27.000Z</time>
      </trkpt>
      <trkpt lat="46.02326" lon="5.42102">
        <ele>404.20001220703</ele>
        <time>2026-08-26T12:01:31.000Z</time>
      </trkpt>
      <trkpt lat="46.02325" lon="5.42099">
        <ele>403.79998779297</ele>
        <time>2026-08-26T12:01:33.000Z</time>
      </trkpt>
      <trkpt lat="46.02323" lon="5.42093">
        <ele>403.39999389648</ele>
        <time>2026-08-26T12:01:37.000Z</time>
      </trkpt>
      <trkpt lat="46.0232" lon="5.42081">
        <ele>402.79998779297</ele>
        <time>2026-08-26T12:01:44.000Z</time>
      </trkpt>
      <trkpt lat="46.02318" lon="5.42069">
        <ele>402.39999389648</ele>
        <time>2026-08-26T12:01:52.000Z</time>
      </trkpt>
      <trkpt lat="46.02317" lon="5.42069">
        <ele>402.20001220703</ele>
        <time>2026-08-26T12:01:55.000Z</time>
      </trkpt>
      <trkpt lat="46.02319" lon="5.42069">
        <ele>402.39999389648</ele>
        <time>2026-08-26T12:01:59.000Z</time>
      </trkpt>
      <trkpt lat="46.0232" lon="5.42069">
        <ele>402.39999389648</ele>
        <time>2026-08-26T12:02:00.000Z</time>
      </trkpt>
      <trkpt lat="46.02318" lon="5.42069">
        <ele>402.60000610352</ele>
        <time>2026-08-26T12:02:03.000Z</time>
      </trkpt>
      <trkpt lat="46.02317" lon="5.42068">
        <ele>402.60000610352</ele>
        <time>2026-08-26T12:02:05.000Z</time>
      </trkpt>
      <trkpt lat="46.02317" lon="5.4207">
        <ele>402.20001220703</ele>
        <time>2026-08-26T12:02:11.000Z</time>
      </trkpt>
      <trkpt lat="46.02317" lon="5.42073">
        <ele>402.20001220703</ele>
        <time>2026-08-26T12:02:19.000Z</time>
      </trkpt>
      <trkpt lat="46.02317" lon="5.4207">
        <ele>402.20001220703</ele>
        <time>2026-08-26T12:02:28.000Z</time>
      </trkpt>
      <trkpt lat="46.02317" lon="5.4207">
        <ele>402.39999389648</ele>
        <time>2026-08-26T12:02:34.000Z</time>
      </trkpt>
      <trkpt lat="46.02318" lon="5.42071">
        <ele>402.39999389648</ele>
        <time>2026-08-26T12:02:42.000Z</time>
      </trkpt>
      <trkpt lat="46.02317" lon="5.42066">
        <ele>402.20001220703</ele>
        <time>2026-08-26T12:02:51.000Z</time>
      </trkpt>
      <trkpt lat="46.02311" lon="5.42055">
        <ele>401.39999389648</ele>
        <time>2026-08-26T12:03:00.000Z</time>
      </trkpt>
      <trkpt lat="46.02307" lon="5.42052">
        <ele>401.39999389648</ele>
        <time>2026-08-26T12:03:04.000Z</time>
      </trkpt>
      <trkpt lat="46.02305" lon="5.42047">
        <ele>400.79998779297</ele>
        <time>2026-08-26T12:03:08.000Z</time>
      </trkpt>
      <trkpt lat="46.02301" lon="5.42043">
        <ele>400.20001220703</ele>
        <time>2026-08-26T12:03:11.000Z</time>
      </trkpt>
      <trkpt lat="46.02299" lon="5.42039">
        <ele>399.79998779297</ele>
        <time>2026-08-26T12:03:15.000Z</time>
      </trkpt>
      <trkpt lat="46.02292" lon="5.42033">
        <ele>399</ele>
        <time>2026-08-26T12:03:20.000Z</time>
      </trkpt>
      <trkpt lat="46.02289" lon="5.42029">
        <ele>398.60000610352</ele>
        <time>2026-08-26T12:03:23.000Z</time>
      </trkpt>
      <trkpt lat="46.02286" lon="5.42023">
        <ele>398.20001220703</ele>
        <time>2026-08-26T12:03:27.000Z</time>
      </trkpt>
      <trkpt lat="46.02285" lon="5.42022">
        <ele>398</ele>
        <time>2026-08-26T12:03:28.000Z</time>
      </trkpt>
      <trkpt lat="46.02283" lon="5.42019">
        <ele>397.79998779297</ele>
        <time>2026-08-26T12:03:30.000Z</time>
      </trkpt>
      <trkpt lat="46.02282" lon="5.42017">
        <ele>397.39999389648</ele>
        <time>2026-08-26T12:03:32.000Z</time>
      </trkpt>
      <trkpt lat="46.02279" lon="5.42011">
        <ele>397</ele>
        <time>2026-08-26T12:03:36.000Z</time>
      </trkpt>
      <trkpt lat="46.02276" lon="5.42006">
        <ele>396.60000610352</ele>
        <time>2026-08-26T12:03:40.000Z</time>
      </trkpt>
      <trkpt lat="46.02272" lon="5.42003">
        <ele>395.79998779297</ele>
        <time>2026-08-26T12:03:44.000Z</time>
      </trkpt>
      <trkpt lat="46.02267" lon="5.41996">
        <ele>395.39999389648</ele>
        <time>2026-08-26T12:03:50.000Z</time>
      </trkpt>
      <trkpt lat="46.02263" lon="5.41991">
        <ele>395</ele>
        <time>2026-08-26T12:03:54.000Z</time>
      </trkpt>
      <trkpt lat="46.02262" lon="5.4199">
        <ele>394.79998779297</ele>
        <time>2026-08-26T12:03:55.000Z</time>
      </trkpt>
      <trkpt lat="46.0226" lon="5.41986">
        <ele>394.39999389648</ele>
        <time>2026-08-26T12:03:58.000Z</time>
      </trkpt>
      <trkpt lat="46.02258" lon="5.41982">
        <ele>393.79998779297</ele>
        <time>2026-08-26T12:04:03.000Z</time>
      </trkpt>
      <trkpt lat="46.02258" lon="5.41981">
        <ele>393.79998779297</ele>
        <time>2026-08-26T12:04:05.000Z</time>
      </trkpt>
      <trkpt lat="46.02257" lon="5.41978">
        <ele>393.79998779297</ele>
        <time>2026-08-26T12:04:12.000Z</time>
      </trkpt>
      <trkpt lat="46.02256" lon="5.41977">
        <ele>393.79998779297</ele>
        <time>2026-08-26T12:04:21.000Z</time>
      </trkpt>
      <trkpt lat="46.02254" lon="5.41975">
        <ele>393.60000610352</ele>
        <time>2026-08-26T12:04:25.000Z</time>
      </trkpt>
      <trkpt lat="46.02251" lon="5.41972">
        <ele>393.79998779297</ele>
        <time>2026-08-26T12:04:28.000Z</time>
      </trkpt>
      <trkpt lat="46.02247" lon="5.41961">
        <ele>393</ele>
        <time>2026-08-26T12:04:36.000Z</time>
      </trkpt>
      <trkpt lat="46.02244" lon="5.41955">
        <ele>392.60000610352</ele>
        <time>2026-08-26T12:04:41.000Z</time>
      </trkpt>
      <trkpt lat="46.02241" lon="5.41953">
        <ele>392.60000610352</ele>
        <time>2026-08-26T12:04:44.000Z</time>
      </trkpt>
      <trkpt lat="46.02235" lon="5.41946">
        <ele>391.79998779297</ele>
        <time>2026-08-26T12:04:51.000Z</time>
      </trkpt>
      <trkpt lat="46.02235" lon="5.41944">
        <ele>391.60000610352</ele>
        <time>2026-08-26T12:04:52.000Z</time>
      </trkpt>
      <trkpt lat="46.02228" lon="5.41938">
        <ele>391.20001220703</ele>
        <time>2026-08-26T12:04:59.000Z</time>
      </trkpt>
      <trkpt lat="46.0222" lon="5.41931">
        <ele>390.60000610352</ele>
        <time>2026-08-26T12:05:06.000Z</time>
      </trkpt>
      <trkpt lat="46.02216" lon="5.41928">
        <ele>390.20001220703</ele>
        <time>2026-08-26T12:05:10.000Z</time>
      </trkpt>
      <trkpt lat="46.02213" lon="5.41927">
        <ele>390</ele>
        <time>2026-08-26T12:05:13.000Z</time>
      </trkpt>
      <trkpt lat="46.02209" lon="5.41924">
        <ele>389.60000610352</ele>
        <time>2026-08-26T12:05:17.000Z</time>
      </trkpt>
      <trkpt lat="46.02206" lon="5.41923">
        <ele>389.39999389648</ele>
        <time>2026-08-26T12:05:19.000Z</time>
      </trkpt>
      <trkpt lat="46.02205" lon="5.41923">
        <ele>389.39999389648</ele>
        <time>2026-08-26T12:05:20.000Z</time>
      </trkpt>
      <trkpt lat="46.02202" lon="5.41919">
        <ele>389</ele>
        <time>2026-08-26T12:05:23.000Z</time>
      </trkpt>
      <trkpt lat="46.02197" lon="5.41916">
        <ele>388.60000610352</ele>
        <time>2026-08-26T12:05:27.000Z</time>
      </trkpt>
      <trkpt lat="46.02196" lon="5.41916">
        <ele>388.39999389648</ele>
        <time>2026-08-26T12:05:28.000Z</time>
      </trkpt>
      <trkpt lat="46.02191" lon="5.41913">
        <ele>387.79998779297</ele>
        <time>2026-08-26T12:05:33.000Z</time>
      </trkpt>
      <trkpt lat="46.0219" lon="5.41912">
        <ele>387.79998779297</ele>
        <time>2026-08-26T12:05:34.000Z</time>
      </trkpt>
      <trkpt lat="46.02186" lon="5.4191">
        <ele>387.20001220703</ele>
        <time>2026-08-26T12:05:37.000Z</time>
      </trkpt>
      <trkpt lat="46.0218" lon="5.41905">
        <ele>386.39999389648</ele>
        <time>2026-08-26T12:05:42.000Z</time>
      </trkpt>
      <trkpt lat="46.02177" lon="5.41902">
        <ele>386.20001220703</ele>
        <time>2026-08-26T12:05:44.000Z</time>
      </trkpt>
      <trkpt lat="46.02174" lon="5.41899">
        <ele>385.79998779297</ele>
        <time>2026-08-26T12:05:47.000Z</time>
      </trkpt>
      <trkpt lat="46.02173" lon="5.41898">
        <ele>385.79998779297</ele>
        <time>2026-08-26T12:05:48.000Z</time>
      </trkpt>
      <trkpt lat="46.02172" lon="5.41895">
        <ele>385.39999389648</ele>
        <time>2026-08-26T12:05:50.000Z</time>
      </trkpt>
      <trkpt lat="46.0217" lon="5.41892">
        <ele>385</ele>
        <time>2026-08-26T12:05:52.000Z</time>
      </trkpt>
      <trkpt lat="46.02166" lon="5.41884">
        <ele>384.79998779297</ele>
        <time>2026-08-26T12:05:56.000Z</time>
      </trkpt>
      <trkpt lat="46.02163" lon="5.41877">
        <ele>384.39999389648</ele>
        <time>2026-08-26T12:06:00.000Z</time>
      </trkpt>
      <trkpt lat="46.02161" lon="5.41872">
        <ele>384.20001220703</ele>
        <time>2026-08-26T12:06:03.000Z</time>
      </trkpt>
      <trkpt lat="46.02158" lon="5.41859">
        <ele>384</ele>
        <time>2026-08-26T12:06:10.000Z</time>
      </trkpt>
      <trkpt lat="46.02158" lon="5.41857">
        <ele>384</ele>
        <time>2026-08-26T12:06:11.000Z</time>
      </trkpt>
      <trkpt lat="46.02153" lon="5.41843">
        <ele>384.39999389648</ele>
        <time>2026-08-26T12:06:19.000Z</time>
      </trkpt>
      <trkpt lat="46.02145" lon="5.41833">
        <ele>384.79998779297</ele>
        <time>2026-08-26T12:06:27.000Z</time>
      </trkpt>
      <trkpt lat="46.0214" lon="5.4183">
        <ele>384.39999389648</ele>
        <time>2026-08-26T12:06:31.000Z</time>
      </trkpt>
      <trkpt lat="46.02136" lon="5.41826">
        <ele>384</ele>
        <time>2026-08-26T12:06:35.000Z</time>
      </trkpt>
      <trkpt lat="46.02126" lon="5.41821">
        <ele>383.20001220703</ele>
        <time>2026-08-26T12:06:43.000Z</time>
      </trkpt>
      <trkpt lat="46.02124" lon="5.41819">
        <ele>383</ele>
        <time>2026-08-26T12:06:45.000Z</time>
      </trkpt>
      <trkpt lat="46.02117" lon="5.41813">
        <ele>382.39999389648</ele>
        <time>2026-08-26T12:06:51.000Z</time>
      </trkpt>
      <trkpt lat="46.02114" lon="5.41811">
        <ele>382</ele>
        <time>2026-08-26T12:06:54.000Z</time>
      </trkpt>
      <trkpt lat="46.02109" lon="5.41808">
        <ele>381.39999389648</ele>
        <time>2026-08-26T12:06:58.000Z</time>
      </trkpt>
      <trkpt lat="46.02107" lon="5.41805">
        <ele>381.39999389648</ele>
        <time>2026-08-26T12:07:04.000Z</time>
      </trkpt>
      <trkpt lat="46.02106" lon="5.41804">
        <ele>381.20001220703</ele>
        <time>2026-08-26T12:07:12.000Z</time>
      </trkpt>
      <trkpt lat="46.02105" lon="5.41804">
        <ele>381.20001220703</ele>
        <time>2026-08-26T12:07:13.000Z</time>
      </trkpt>
      <trkpt lat="46.02104" lon="5.41803">
        <ele>381.20001220703</ele>
        <time>2026-08-26T12:07:14.000Z</time>
      </trkpt>
      <trkpt lat="46.02102" lon="5.41802">
        <ele>381.20001220703</ele>
        <time>2026-08-26T12:07:15.000Z</time>
      </trkpt>
      <trkpt lat="46.02097" lon="5.41799">
        <ele>381.20001220703</ele>
        <time>2026-08-26T12:07:20.000Z</time>
      </trkpt>
      <trkpt lat="46.02095" lon="5.41798">
        <ele>380.79998779297</ele>
        <time>2026-08-26T12:07:22.000Z</time>
      </trkpt>
      <trkpt lat="46.0209" lon="5.41794">
        <ele>380.39999389648</ele>
        <time>2026-08-26T12:07:26.000Z</time>
      </trkpt>
      <trkpt lat="46.02083" lon="5.41786">
        <ele>380.39999389648</ele>
        <time>2026-08-26T12:07:33.000Z</time>
      </trkpt>
      <trkpt lat="46.02075" lon="5.41774">
        <ele>380.20001220703</ele>
        <time>2026-08-26T12:07:41.000Z</time>
      </trkpt>
      <trkpt lat="46.02069" lon="5.41763">
        <ele>380.60000610352</ele>
        <time>2026-08-26T12:07:48.000Z</time>
      </trkpt>
      <trkpt lat="46.02066" lon="5.4175">
        <ele>380.20001220703</ele>
        <time>2026-08-26T12:07:55.000Z</time>
      </trkpt>
      <trkpt lat="46.02064" lon="5.41733">
        <ele>379.79998779297</ele>
        <time>2026-08-26T12:08:03.000Z</time>
      </trkpt>
      <trkpt lat="46.02063" lon="5.41729">
        <ele>379.79998779297</ele>
        <time>2026-08-26T12:08:05.000Z</time>
      </trkpt>
      <trkpt lat="46.02063" lon="5.41712">
        <ele>380</ele>
        <time>2026-08-26T12:08:14.000Z</time>
      </trkpt>
      <trkpt lat="46.02063" lon="5.41709">
        <ele>380</ele>
        <time>2026-08-26T12:08:22.000Z</time>
      </trkpt>
      <trkpt lat="46.02062" lon="5.41709">
        <ele>380</ele>
        <time>2026-08-26T12:08:24.000Z</time>
      </trkpt>
      <trkpt lat="46.0206" lon="5.41703">
        <ele>379.79998779297</ele>
        <time>2026-08-26T12:08:30.000Z</time>
      </trkpt>
      <trkpt lat="46.02058" lon="5.41695">
        <ele>378.79998779297</ele>
        <time>2026-08-26T12:08:36.000Z</time>
      </trkpt>
      <trkpt lat="46.02057" lon="5.41689">
        <ele>378.39999389648</ele>
        <time>2026-08-26T12:08:40.000Z</time>
      </trkpt>
      <trkpt lat="46.02054" lon="5.41676">
        <ele>377.60000610352</ele>
        <time>2026-08-26T12:08:47.000Z</time>
      </trkpt>
      <trkpt lat="46.02051" lon="5.41666">
        <ele>377</ele>
        <time>2026-08-26T12:08:52.000Z</time>
      </trkpt>
      <trkpt lat="46.0205" lon="5.41663">
        <ele>376.60000610352</ele>
        <time>2026-08-26T12:08:54.000Z</time>
      </trkpt>
      <trkpt lat="46.02049" lon="5.41659">
        <ele>376.39999389648</ele>
        <time>2026-08-26T12:08:56.000Z</time>
      </trkpt>
      <trkpt lat="46.02047" lon="5.41648">
        <ele>375.60000610352</ele>
        <time>2026-08-26T12:09:02.000Z</time>
      </trkpt>
      <trkpt lat="46.02046" lon="5.41643">
        <ele>375</ele>
        <time>2026-08-26T12:09:05.000Z</time>
      </trkpt>
      <trkpt lat="46.02045" lon="5.41638">
        <ele>374.39999389648</ele>
        <time>2026-08-26T12:09:08.000Z</time>
      </trkpt>
      <trkpt lat="46.02041" lon="5.41627">
        <ele>373.60000610352</ele>
        <time>2026-08-26T12:09:15.000Z</time>
      </trkpt>
      <trkpt lat="46.0204" lon="5.41626">
        <ele>373.39999389648</ele>
        <time>2026-08-26T12:09:16.000Z</time>
      </trkpt>
      <trkpt lat="46.02037" lon="5.41617">
        <ele>372.20001220703</ele>
        <time>2026-08-26T12:09:22.000Z</time>
      </trkpt>
      <trkpt lat="46.02034" lon="5.41607">
        <ele>371.60000610352</ele>
        <time>2026-08-26T12:09:27.000Z</time>
      </trkpt>
      <trkpt lat="46.02033" lon="5.41601">
        <ele>371.20001220703</ele>
        <time>2026-08-26T12:09:30.000Z</time>
      </trkpt>
      <trkpt lat="46.02031" lon="5.4159">
        <ele>370.60000610352</ele>
        <time>2026-08-26T12:09:37.000Z</time>
      </trkpt>
      <trkpt lat="46.02029" lon="5.41583">
        <ele>370.20001220703</ele>
        <time>2026-08-26T12:09:41.000Z</time>
      </trkpt>
      <trkpt lat="46.02028" lon="5.41573">
        <ele>369.60000610352</ele>
        <time>2026-08-26T12:09:47.000Z</time>
      </trkpt>
      <trkpt lat="46.02023" lon="5.41559">
        <ele>369</ele>
        <time>2026-08-26T12:09:55.000Z</time>
      </trkpt>
      <trkpt lat="46.02022" lon="5.41557">
        <ele>369</ele>
        <time>2026-08-26T12:09:56.000Z</time>
      </trkpt>
      <trkpt lat="46.02014" lon="5.41541">
        <ele>368.20001220703</ele>
        <time>2026-08-26T12:10:07.000Z</time>
      </trkpt>
      <trkpt lat="46.02013" lon="5.4154">
        <ele>368</ele>
        <time>2026-08-26T12:10:08.000Z</time>
      </trkpt>
      <trkpt lat="46.02005" lon="5.4153">
        <ele>367.20001220703</ele>
        <time>2026-08-26T12:10:16.000Z</time>
      </trkpt>
      <trkpt lat="46.02" lon="5.41526">
        <ele>367</ele>
        <time>2026-08-26T12:10:20.000Z</time>
      </trkpt>
      <trkpt lat="46.01992" lon="5.4152">
        <ele>366.39999389648</ele>
        <time>2026-08-26T12:10:26.000Z</time>
      </trkpt>
      <trkpt lat="46.01989" lon="5.41516">
        <ele>366</ele>
        <time>2026-08-26T12:10:30.000Z</time>
      </trkpt>
      <trkpt lat="46.01983" lon="5.4151">
        <ele>364.79998779297</ele>
        <time>2026-08-26T12:10:36.000Z</time>
      </trkpt>
      <trkpt lat="46.01978" lon="5.41503">
        <ele>363.79998779297</ele>
        <time>2026-08-26T12:10:42.000Z</time>
      </trkpt>
      <trkpt lat="46.01976" lon="5.41502">
        <ele>363.39999389648</ele>
        <time>2026-08-26T12:10:44.000Z</time>
      </trkpt>
      <trkpt lat="46.0197" lon="5.41496">
        <ele>362.60000610352</ele>
        <time>2026-08-26T12:10:50.000Z</time>
      </trkpt>
      <trkpt lat="46.01968" lon="5.41494">
        <ele>362.39999389648</ele>
        <time>2026-08-26T12:10:52.000Z</time>
      </trkpt>
      <trkpt lat="46.0196" lon="5.41485">
        <ele>361.60000610352</ele>
        <time>2026-08-26T12:10:59.000Z</time>
      </trkpt>
      <trkpt lat="46.01958" lon="5.41483">
        <ele>361.20001220703</ele>
        <time>2026-08-26T12:11:01.000Z</time>
      </trkpt>
      <trkpt lat="46.01953" lon="5.41474">
        <ele>360.39999389648</ele>
        <time>2026-08-26T12:11:07.000Z</time>
      </trkpt>
      <trkpt lat="46.01949" lon="5.41468">
        <ele>359.79998779297</ele>
        <time>2026-08-26T12:11:11.000Z</time>
      </trkpt>
      <trkpt lat="46.01947" lon="5.41464">
        <ele>359.39999389648</ele>
        <time>2026-08-26T12:11:14.000Z</time>
      </trkpt>
      <trkpt lat="46.01942" lon="5.41457">
        <ele>358.60000610352</ele>
        <time>2026-08-26T12:11:19.000Z</time>
      </trkpt>
      <trkpt lat="46.0194" lon="5.41453">
        <ele>358.20001220703</ele>
        <time>2026-08-26T12:11:22.000Z</time>
      </trkpt>
      <trkpt lat="46.01934" lon="5.41439">
        <ele>357.20001220703</ele>
        <time>2026-08-26T12:11:31.000Z</time>
      </trkpt>
      <trkpt lat="46.01927" lon="5.41423">
        <ele>356.20001220703</ele>
        <time>2026-08-26T12:11:40.000Z</time>
      </trkpt>
      <trkpt lat="46.01927" lon="5.41421">
        <ele>356</ele>
        <time>2026-08-26T12:11:41.000Z</time>
      </trkpt>
      <trkpt lat="46.01922" lon="5.41411">
        <ele>355.39999389648</ele>
        <time>2026-08-26T12:11:48.000Z</time>
      </trkpt>
      <trkpt lat="46.01921" lon="5.41409">
        <ele>355</ele>
        <time>2026-08-26T12:11:50.000Z</time>
      </trkpt>
      <trkpt lat="46.01915" lon="5.41399">
        <ele>353.79998779297</ele>
        <time>2026-08-26T12:11:57.000Z</time>
      </trkpt>
      <trkpt lat="46.01914" lon="5.41397">
        <ele>353.79998779297</ele>
        <time>2026-08-26T12:11:58.000Z</time>
      </trkpt>
      <trkpt lat="46.0191" lon="5.41384">
        <ele>352.79998779297</ele>
        <time>2026-08-26T12:12:05.000Z</time>
      </trkpt>
      <trkpt lat="46.01908" lon="5.41373">
        <ele>352.20001220703</ele>
        <time>2026-08-26T12:12:10.000Z</time>
      </trkpt>
      <trkpt lat="46.01907" lon="5.41367">
        <ele>351.79998779297</ele>
        <time>2026-08-26T12:12:13.000Z</time>
      </trkpt>
      <trkpt lat="46.01905" lon="5.41353">
        <ele>350.79998779297</ele>
        <time>2026-08-26T12:12:20.000Z</time>
      </trkpt>
      <trkpt lat="46.01905" lon="5.41351">
        <ele>350.60000610352</ele>
        <time>2026-08-26T12:12:21.000Z</time>
      </trkpt>
      <trkpt lat="46.01902" lon="5.41341">
        <ele>349.60000610352</ele>
        <time>2026-08-26T12:12:28.000Z</time>
      </trkpt>
      <trkpt lat="46.01901" lon="5.4134">
        <ele>349.39999389648</ele>
        <time>2026-08-26T12:12:29.000Z</time>
      </trkpt>
      <trkpt lat="46.01897" lon="5.41331">
        <ele>348.39999389648</ele>
        <time>2026-08-26T12:12:35.000Z</time>
      </trkpt>
      <trkpt lat="46.01895" lon="5.41323">
        <ele>347.39999389648</ele>
        <time>2026-08-26T12:12:40.000Z</time>
      </trkpt>
      <trkpt lat="46.01892" lon="5.41312">
        <ele>346.20001220703</ele>
        <time>2026-08-26T12:12:46.000Z</time>
      </trkpt>
      <trkpt lat="46.01891" lon="5.41307">
        <ele>345.39999389648</ele>
        <time>2026-08-26T12:12:49.000Z</time>
      </trkpt>
      <trkpt lat="46.01891" lon="5.41302">
        <ele>345</ele>
        <time>2026-08-26T12:12:51.000Z</time>
      </trkpt>
      <trkpt lat="46.01889" lon="5.41292">
        <ele>344</ele>
        <time>2026-08-26T12:12:57.000Z</time>
      </trkpt>
      <trkpt lat="46.01889" lon="5.4129">
        <ele>343.79998779297</ele>
        <time>2026-08-26T12:12:58.000Z</time>
      </trkpt>
      <trkpt lat="46.01888" lon="5.41282">
        <ele>342.79998779297</ele>
        <time>2026-08-26T12:13:03.000Z</time>
      </trkpt>
      <trkpt lat="46.01889" lon="5.41271">
        <ele>341.79998779297</ele>
        <time>2026-08-26T12:13:08.000Z</time>
      </trkpt>
      <trkpt lat="46.01889" lon="5.4127">
        <ele>341.60000610352</ele>
        <time>2026-08-26T12:13:09.000Z</time>
      </trkpt>
      <trkpt lat="46.0189" lon="5.4126">
        <ele>340.39999389648</ele>
        <time>2026-08-26T12:13:15.000Z</time>
      </trkpt>
      <trkpt lat="46.0189" lon="5.41258">
        <ele>340.39999389648</ele>
        <time>2026-08-26T12:13:16.000Z</time>
      </trkpt>
      <trkpt lat="46.01893" lon="5.41248">
        <ele>339.20001220703</ele>
        <time>2026-08-26T12:13:21.000Z</time>
      </trkpt>
      <trkpt lat="46.01895" lon="5.41238">
        <ele>338.20001220703</ele>
        <time>2026-08-26T12:13:27.000Z</time>
      </trkpt>
      <trkpt lat="46.01896" lon="5.41236">
        <ele>338</ele>
        <time>2026-08-26T12:13:28.000Z</time>
      </trkpt>
      <trkpt lat="46.01899" lon="5.41226">
        <ele>337</ele>
        <time>2026-08-26T12:13:34.000Z</time>
      </trkpt>
      <trkpt lat="46.01901" lon="5.4122">
        <ele>336.60000610352</ele>
        <time>2026-08-26T12:13:37.000Z</time>
      </trkpt>
      <trkpt lat="46.01903" lon="5.41213">
        <ele>336</ele>
        <time>2026-08-26T12:13:41.000Z</time>
      </trkpt>
      <trkpt lat="46.01908" lon="5.41202">
        <ele>335</ele>
        <time>2026-08-26T12:13:47.000Z</time>
      </trkpt>
      <trkpt lat="46.01908" lon="5.412">
        <ele>335</ele>
        <time>2026-08-26T12:13:48.000Z</time>
      </trkpt>
      <trkpt lat="46.01912" lon="5.4119">
        <ele>333.79998779297</ele>
        <time>2026-08-26T12:13:54.000Z</time>
      </trkpt>
      <trkpt lat="46.01913" lon="5.41187">
        <ele>333.39999389648</ele>
        <time>2026-08-26T12:13:56.000Z</time>
      </trkpt>
      <trkpt lat="46.01917" lon="5.41179">
        <ele>332.60000610352</ele>
        <time>2026-08-26T12:14:01.000Z</time>
      </trkpt>
      <trkpt lat="46.0192" lon="5.4117">
        <ele>331.79998779297</ele>
        <time>2026-08-26T12:14:06.000Z</time>
      </trkpt>
      <trkpt lat="46.01922" lon="5.41167">
        <ele>331.60000610352</ele>
        <time>2026-08-26T12:14:08.000Z</time>
      </trkpt>
      <trkpt lat="46.01926" lon="5.41154">
        <ele>330.39999389648</ele>
        <time>2026-08-26T12:14:16.000Z</time>
      </trkpt>
      <trkpt lat="46.01926" lon="5.4115">
        <ele>330</ele>
        <time>2026-08-26T12:14:18.000Z</time>
      </trkpt>
      <trkpt lat="46.01929" lon="5.41144">
        <ele>329.20001220703</ele>
        <time>2026-08-26T12:14:22.000Z</time>
      </trkpt>
      <trkpt lat="46.01932" lon="5.41137">
        <ele>328.20001220703</ele>
        <time>2026-08-26T12:14:27.000Z</time>
      </trkpt>
      <trkpt lat="46.01936" lon="5.41129">
        <ele>327.20001220703</ele>
        <time>2026-08-26T12:14:33.000Z</time>
      </trkpt>
      <trkpt lat="46.01939" lon="5.41122">
        <ele>326.60000610352</ele>
        <time>2026-08-26T12:14:37.000Z</time>
      </trkpt>
      <trkpt lat="46.01941" lon="5.41117">
        <ele>326.20001220703</ele>
        <time>2026-08-26T12:14:40.000Z</time>
      </trkpt>
      <trkpt lat="46.01946" lon="5.41108">
        <ele>325</ele>
        <time>2026-08-26T12:14:46.000Z</time>
      </trkpt>
      <trkpt lat="46.01948" lon="5.41101">
        <ele>324.39999389648</ele>
        <time>2026-08-26T12:14:50.000Z</time>
      </trkpt>
      <trkpt lat="46.01948" lon="5.41099">
        <ele>324.20001220703</ele>
        <time>2026-08-26T12:14:51.000Z</time>
      </trkpt>
      <trkpt lat="46.01949" lon="5.41096">
        <ele>324</ele>
        <time>2026-08-26T12:14:53.000Z</time>
      </trkpt>
      <trkpt lat="46.01954" lon="5.41084">
        <ele>323</ele>
        <time>2026-08-26T12:15:00.000Z</time>
      </trkpt>
      <trkpt lat="46.01956" lon="5.4108">
        <ele>322.20001220703</ele>
        <time>2026-08-26T12:15:03.000Z</time>
      </trkpt>
      <trkpt lat="46.01958" lon="5.41075">
        <ele>321.79998779297</ele>
        <time>2026-08-26T12:15:06.000Z</time>
      </trkpt>
      <trkpt lat="46.0196" lon="5.4107">
        <ele>321.39999389648</ele>
        <time>2026-08-26T12:15:09.000Z</time>
      </trkpt>
      <trkpt lat="46.01961" lon="5.41067">
        <ele>321</ele>
        <time>2026-08-26T12:15:11.000Z</time>
      </trkpt>
      <trkpt lat="46.01962" lon="5.41065">
        <ele>320.79998779297</ele>
        <time>2026-08-26T12:15:12.000Z</time>
      </trkpt>
      <trkpt lat="46.01964" lon="5.41056">
        <ele>319.79998779297</ele>
        <time>2026-08-26T12:15:17.000Z</time>
      </trkpt>
      <trkpt lat="46.01968" lon="5.41048">
        <ele>319</ele>
        <time>2026-08-26T12:15:22.000Z</time>
      </trkpt>
      <trkpt lat="46.01969" lon="5.41045">
        <ele>318.60000610352</ele>
        <time>2026-08-26T12:15:24.000Z</time>
      </trkpt>
      <trkpt lat="46.01976" lon="5.41036">
        <ele>317.39999389648</ele>
        <time>2026-08-26T12:15:31.000Z</time>
      </trkpt>
      <trkpt lat="46.01985" lon="5.41027">
        <ele>316.39999389648</ele>
        <time>2026-08-26T12:15:40.000Z</time>
      </trkpt>
      <trkpt lat="46.01987" lon="5.41025">
        <ele>316</ele>
        <time>2026-08-26T12:15:42.000Z</time>
      </trkpt>
      <trkpt lat="46.01991" lon="5.41022">
        <ele>315.39999389648</ele>
        <time>2026-08-26T12:15:46.000Z</time>
      </trkpt>
      <trkpt lat="46.01992" lon="5.41021">
        <ele>315.20001220703</ele>
        <time>2026-08-26T12:15:47.000Z</time>
      </trkpt>
      <trkpt lat="46.01993" lon="5.4102">
        <ele>315</ele>
        <time>2026-08-26T12:15:48.000Z</time>
      </trkpt>
      <trkpt lat="46.01994" lon="5.41019">
        <ele>315</ele>
        <time>2026-08-26T12:15:49.000Z</time>
      </trkpt>
      <trkpt lat="46.01999" lon="5.41014">
        <ele>314.20001220703</ele>
        <time>2026-08-26T12:15:53.000Z</time>
      </trkpt>
      <trkpt lat="46.02001" lon="5.41011">
        <ele>313.79998779297</ele>
        <time>2026-08-26T12:15:56.000Z</time>
      </trkpt>
      <trkpt lat="46.02004" lon="5.41007">
        <ele>313.20001220703</ele>
        <time>2026-08-26T12:15:59.000Z</time>
      </trkpt>
      <trkpt lat="46.02009" lon="5.41">
        <ele>312</ele>
        <time>2026-08-26T12:16:05.000Z</time>
      </trkpt>
      <trkpt lat="46.02009" lon="5.40999">
        <ele>311.79998779297</ele>
        <time>2026-08-26T12:16:06.000Z</time>
      </trkpt>
      <trkpt lat="46.02013" lon="5.40992">
        <ele>311</ele>
        <time>2026-08-26T12:16:12.000Z</time>
      </trkpt>
      <trkpt lat="46.02017" lon="5.40986">
        <ele>310.20001220703</ele>
        <time>2026-08-26T12:16:17.000Z</time>
      </trkpt>
      <trkpt lat="46.02018" lon="5.40985">
        <ele>310</ele>
        <time>2026-08-26T12:16:18.000Z</time>
      </trkpt>
      <trkpt lat="46.02024" lon="5.40976">
        <ele>309</ele>
        <time>2026-08-26T12:16:25.000Z</time>
      </trkpt>
      <trkpt lat="46.02025" lon="5.40975">
        <ele>308.79998779297</ele>
        <time>2026-08-26T12:16:26.000Z</time>
      </trkpt>
      <trkpt lat="46.02031" lon="5.40966">
        <ele>307.79998779297</ele>
        <time>2026-08-26T12:16:33.000Z</time>
      </trkpt>
      <trkpt lat="46.02033" lon="5.40963">
        <ele>307.39999389648</ele>
        <time>2026-08-26T12:16:35.000Z</time>
      </trkpt>
      <trkpt lat="46.02036" lon="5.40957">
        <ele>306.60000610352</ele>
        <time>2026-08-26T12:16:40.000Z</time>
      </trkpt>
      <trkpt lat="46.02038" lon="5.40952">
        <ele>306.20001220703</ele>
        <time>2026-08-26T12:16:43.000Z</time>
      </trkpt>
      <trkpt lat="46.02042" lon="5.40943">
        <ele>305.39999389648</ele>
        <time>2026-08-26T12:16:48.000Z</time>
      </trkpt>
      <trkpt lat="46.02045" lon="5.40938">
        <ele>304.79998779297</ele>
        <time>2026-08-26T12:16:52.000Z</time>
      </trkpt>
      <trkpt lat="46.02047" lon="5.40933">
        <ele>304.39999389648</ele>
        <time>2026-08-26T12:16:55.000Z</time>
      </trkpt>
      <trkpt lat="46.02052" lon="5.40921">
        <ele>303.60000610352</ele>
        <time>2026-08-26T12:17:02.000Z</time>
      </trkpt>
      <trkpt lat="46.02053" lon="5.40918">
        <ele>303.39999389648</ele>
        <time>2026-08-26T12:17:04.000Z</time>
      </trkpt>
      <trkpt lat="46.0206" lon="5.40909">
        <ele>303.39999389648</ele>
        <time>2026-08-26T12:17:11.000Z</time>
      </trkpt>
      <trkpt lat="46.02072" lon="5.40899">
        <ele>304.20001220703</ele>
        <time>2026-08-26T12:17:21.000Z</time>
      </trkpt>
      <trkpt lat="46.02076" lon="5.40895">
        <ele>304.39999389648</ele>
        <time>2026-08-26T12:17:24.000Z</time>
      </trkpt>
      <trkpt lat="46.02081" lon="5.4089">
        <ele>304.79998779297</ele>
        <time>2026-08-26T12:17:29.000Z</time>
      </trkpt>
      <trkpt lat="46.02082" lon="5.40888">
        <ele>304.79998779297</ele>
        <time>2026-08-26T12:17:30.000Z</time>
      </trkpt>
      <trkpt lat="46.02087" lon="5.40881">
        <ele>305.20001220703</ele>
        <time>2026-08-26T12:17:36.000Z</time>
      </trkpt>
      <trkpt lat="46.02092" lon="5.40875">
        <ele>305.20001220703</ele>
        <time>2026-08-26T12:17:41.000Z</time>
      </trkpt>
      <trkpt lat="46.02099" lon="5.40869">
        <ele>305.39999389648</ele>
        <time>2026-08-26T12:17:47.000Z</time>
      </trkpt>
      <trkpt lat="46.02103" lon="5.40866">
        <ele>305.79998779297</ele>
        <time>2026-08-26T12:17:50.000Z</time>
      </trkpt>
      <trkpt lat="46.02114" lon="5.40854">
        <ele>306.39999389648</ele>
        <time>2026-08-26T12:18:01.000Z</time>
      </trkpt>
      <trkpt lat="46.02125" lon="5.40842">
        <ele>306.60000610352</ele>
        <time>2026-08-26T12:18:12.000Z</time>
      </trkpt>
      <trkpt lat="46.02134" lon="5.40831">
        <ele>307</ele>
        <time>2026-08-26T12:18:21.000Z</time>
      </trkpt>
      <trkpt lat="46.0214" lon="5.40825">
        <ele>307.60000610352</ele>
        <time>2026-08-26T12:18:27.000Z</time>
      </trkpt>
      <trkpt lat="46.02143" lon="5.40821">
        <ele>307.79998779297</ele>
        <time>2026-08-26T12:18:30.000Z</time>
      </trkpt>
      <trkpt lat="46.02155" lon="5.40811">
        <ele>308.20001220703</ele>
        <time>2026-08-26T12:18:40.000Z</time>
      </trkpt>
      <trkpt lat="46.02164" lon="5.40803">
        <ele>308.60000610352</ele>
        <time>2026-08-26T12:18:48.000Z</time>
      </trkpt>
      <trkpt lat="46.02167" lon="5.408">
        <ele>308.60000610352</ele>
        <time>2026-08-26T12:18:50.000Z</time>
      </trkpt>
      <trkpt lat="46.02176" lon="5.40787">
        <ele>309</ele>
        <time>2026-08-26T12:19:00.000Z</time>
      </trkpt>
      <trkpt lat="46.02183" lon="5.40778">
        <ele>309.60000610352</ele>
        <time>2026-08-26T12:19:08.000Z</time>
      </trkpt>
      <trkpt lat="46.02184" lon="5.40776">
        <ele>309.60000610352</ele>
        <time>2026-08-26T12:19:09.000Z</time>
      </trkpt>
      <trkpt lat="46.02193" lon="5.40763">
        <ele>310.39999389648</ele>
        <time>2026-08-26T12:19:19.000Z</time>
      </trkpt>
      <trkpt lat="46.02199" lon="5.40755">
        <ele>310.60000610352</ele>
        <time>2026-08-26T12:19:25.000Z</time>
      </trkpt>
      <trkpt lat="46.02202" lon="5.40751">
        <ele>310.79998779297</ele>
        <time>2026-08-26T12:19:28.000Z</time>
      </trkpt>
      <trkpt lat="46.02211" lon="5.4074">
        <ele>311.39999389648</ele>
        <time>2026-08-26T12:19:38.000Z</time>
      </trkpt>
      <trkpt lat="46.02215" lon="5.40737">
        <ele>311.60000610352</ele>
        <time>2026-08-26T12:19:41.000Z</time>
      </trkpt>
      <trkpt lat="46.02219" lon="5.40731">
        <ele>312</ele>
        <time>2026-08-26T12:19:45.000Z</time>
      </trkpt>
      <trkpt lat="46.02229" lon="5.40719">
        <ele>312.60000610352</ele>
        <time>2026-08-26T12:19:54.000Z</time>
      </trkpt>
      <trkpt lat="46.0223" lon="5.40718">
        <ele>312.60000610352</ele>
        <time>2026-08-26T12:19:55.000Z</time>
      </trkpt>
      <trkpt lat="46.02232" lon="5.40715">
        <ele>312.60000610352</ele>
        <time>2026-08-26T12:19:57.000Z</time>
      </trkpt>
      <trkpt lat="46.02242" lon="5.40707">
        <ele>313</ele>
        <time>2026-08-26T12:20:05.000Z</time>
      </trkpt>
      <trkpt lat="46.02251" lon="5.40701">
        <ele>313.39999389648</ele>
        <time>2026-08-26T12:20:12.000Z</time>
      </trkpt>
      <trkpt lat="46.02255" lon="5.40699">
        <ele>313.60000610352</ele>
        <time>2026-08-26T12:20:15.000Z</time>
      </trkpt>
      <trkpt lat="46.02263" lon="5.40694">
        <ele>313.60000610352</ele>
        <time>2026-08-26T12:20:22.000Z</time>
      </trkpt>
      <trkpt lat="46.02266" lon="5.40693">
        <ele>313.79998779297</ele>
        <time>2026-08-26T12:20:24.000Z</time>
      </trkpt>
      <trkpt lat="46.02268" lon="5.4069">
        <ele>314</ele>
        <time>2026-08-26T12:20:26.000Z</time>
      </trkpt>
      <trkpt lat="46.02274" lon="5.40685">
        <ele>314.20001220703</ele>
        <time>2026-08-26T12:20:31.000Z</time>
      </trkpt>
      <trkpt lat="46.0228" lon="5.40684">
        <ele>314.39999389648</ele>
        <time>2026-08-26T12:20:35.000Z</time>
      </trkpt>
      <trkpt lat="46.02282" lon="5.40683">
        <ele>314.60000610352</ele>
        <time>2026-08-26T12:20:37.000Z</time>
      </trkpt>
      <trkpt lat="46.02288" lon="5.40682">
        <ele>315</ele>
        <time>2026-08-26T12:20:42.000Z</time>
      </trkpt>
      <trkpt lat="46.02297" lon="5.4068">
        <ele>315.60000610352</ele>
        <time>2026-08-26T12:20:49.000Z</time>
      </trkpt>
      <trkpt lat="46.023" lon="5.4068">
        <ele>315.79998779297</ele>
        <time>2026-08-26T12:20:51.000Z</time>
      </trkpt>
      <trkpt lat="46.02308" lon="5.40674">
        <ele>316.20001220703</ele>
        <time>2026-08-26T12:20:59.000Z</time>
      </trkpt>
      <trkpt lat="46.02312" lon="5.40667">
        <ele>316.79998779297</ele>
        <time>2026-08-26T12:21:05.000Z</time>
      </trkpt>
      <trkpt lat="46.02313" lon="5.40664">
        <ele>316.79998779297</ele>
        <time>2026-08-26T12:21:07.000Z</time>
      </trkpt>
      <trkpt lat="46.02322" lon="5.40649">
        <ele>317.20001220703</ele>
        <time>2026-08-26T12:21:17.000Z</time>
      </trkpt>
      <trkpt lat="46.02336" lon="5.40638">
        <ele>317.60000610352</ele>
        <time>2026-08-26T12:21:28.000Z</time>
      </trkpt>
      <trkpt lat="46.02339" lon="5.40636">
        <ele>317.79998779297</ele>
        <time>2026-08-26T12:21:30.000Z</time>
      </trkpt>
      <trkpt lat="46.02348" lon="5.40633">
        <ele>318.20001220703</ele>
        <time>2026-08-26T12:21:37.000Z</time>
      </trkpt>
      <trkpt lat="46.02361" lon="5.40632">
        <ele>318.79998779297</ele>
        <time>2026-08-26T12:21:47.000Z</time>
      </trkpt>
      <trkpt lat="46.02373" lon="5.40631">
        <ele>319.39999389648</ele>
        <time>2026-08-26T12:21:56.000Z</time>
      </trkpt>
      <trkpt lat="46.02388" lon="5.4063">
        <ele>319.79998779297</ele>
        <time>2026-08-26T12:22:07.000Z</time>
      </trkpt>
      <trkpt lat="46.02391" lon="5.40629">
        <ele>320</ele>
        <time>2026-08-26T12:22:09.000Z</time>
      </trkpt>
      <trkpt lat="46.02401" lon="5.40623">
        <ele>320.60000610352</ele>
        <time>2026-08-26T12:22:18.000Z</time>
      </trkpt>
      <trkpt lat="46.02408" lon="5.40618">
        <ele>320.79998779297</ele>
        <time>2026-08-26T12:22:24.000Z</time>
      </trkpt>
      <trkpt lat="46.02412" lon="5.40613">
        <ele>321.20001220703</ele>
        <time>2026-08-26T12:22:28.000Z</time>
      </trkpt>
      <trkpt lat="46.02421" lon="5.40601">
        <ele>321.79998779297</ele>
        <time>2026-08-26T12:22:38.000Z</time>
      </trkpt>
      <trkpt lat="46.02425" lon="5.40595">
        <ele>321.79998779297</ele>
        <time>2026-08-26T12:22:42.000Z</time>
      </trkpt>
      <trkpt lat="46.02431" lon="5.40588">
        <ele>322.20001220703</ele>
        <time>2026-08-26T12:22:47.000Z</time>
      </trkpt>
      <trkpt lat="46.02439" lon="5.40577">
        <ele>322.39999389648</ele>
        <time>2026-08-26T12:22:55.000Z</time>
      </trkpt>
      <trkpt lat="46.02449" lon="5.40569">
        <ele>322.79998779297</ele>
        <time>2026-08-26T12:23:03.000Z</time>
      </trkpt>
      <trkpt lat="46.02464" lon="5.40565">
        <ele>322.79998779297</ele>
        <time>2026-08-26T12:23:13.000Z</time>
      </trkpt>
      <trkpt lat="46.02476" lon="5.40562">
        <ele>323.60000610352</ele>
        <time>2026-08-26T12:23:23.000Z</time>
      </trkpt>
      <trkpt lat="46.02484" lon="5.4056">
        <ele>324</ele>
        <time>2026-08-26T12:23:29.000Z</time>
      </trkpt>
      <trkpt lat="46.02486" lon="5.40561">
        <ele>324</ele>
        <time>2026-08-26T12:23:31.000Z</time>
      </trkpt>
      <trkpt lat="46.02499" lon="5.40559">
        <ele>324.79998779297</ele>
        <time>2026-08-26T12:23:40.000Z</time>
      </trkpt>
      <trkpt lat="46.02501" lon="5.40559">
        <ele>325</ele>
        <time>2026-08-26T12:23:42.000Z</time>
      </trkpt>
      <trkpt lat="46.02515" lon="5.4056">
        <ele>325.39999389648</ele>
        <time>2026-08-26T12:23:52.000Z</time>
      </trkpt>
      <trkpt lat="46.02519" lon="5.40561">
        <ele>325.39999389648</ele>
        <time>2026-08-26T12:23:58.000Z</time>
      </trkpt>
      <trkpt lat="46.02528" lon="5.40566">
        <ele>326</ele>
        <time>2026-08-26T12:24:05.000Z</time>
      </trkpt>
      <trkpt lat="46.02538" lon="5.40575">
        <ele>326.60000610352</ele>
        <time>2026-08-26T12:24:12.000Z</time>
      </trkpt>
      <trkpt lat="46.0254" lon="5.40577">
        <ele>326.79998779297</ele>
        <time>2026-08-26T12:24:14.000Z</time>
      </trkpt>
      <trkpt lat="46.02542" lon="5.40579">
        <ele>327</ele>
        <time>2026-08-26T12:24:16.000Z</time>
      </trkpt>
      <trkpt lat="46.02548" lon="5.40587">
        <ele>327.60000610352</ele>
        <time>2026-08-26T12:24:23.000Z</time>
      </trkpt>
      <trkpt lat="46.02556" lon="5.40596">
        <ele>328.20001220703</ele>
        <time>2026-08-26T12:24:30.000Z</time>
      </trkpt>
      <trkpt lat="46.02561" lon="5.40601">
        <ele>328.20001220703</ele>
        <time>2026-08-26T12:24:34.000Z</time>
      </trkpt>
      <trkpt lat="46.0257" lon="5.40609">
        <ele>329.20001220703</ele>
        <time>2026-08-26T12:24:42.000Z</time>
      </trkpt>
      <trkpt lat="46.02572" lon="5.40612">
        <ele>329.39999389648</ele>
        <time>2026-08-26T12:24:44.000Z</time>
      </trkpt>
      <trkpt lat="46.02579" lon="5.40623">
        <ele>329.60000610352</ele>
        <time>2026-08-26T12:24:51.000Z</time>
      </trkpt>
      <trkpt lat="46.02586" lon="5.40631">
        <ele>330</ele>
        <time>2026-08-26T12:24:58.000Z</time>
      </trkpt>
      <trkpt lat="46.02589" lon="5.40635">
        <ele>330.20001220703</ele>
        <time>2026-08-26T12:25:01.000Z</time>
      </trkpt>
      <trkpt lat="46.02593" lon="5.40637">
        <ele>330.39999389648</ele>
        <time>2026-08-26T12:25:05.000Z</time>
      </trkpt>
      <trkpt lat="46.02595" lon="5.40638">
        <ele>330.39999389648</ele>
        <time>2026-08-26T12:25:07.000Z</time>
      </trkpt>
      <trkpt lat="46.02604" lon="5.40633">
        <ele>330.39999389648</ele>
        <time>2026-08-26T12:25:15.000Z</time>
      </trkpt>
      <trkpt lat="46.02607" lon="5.40626">
        <ele>330.39999389648</ele>
        <time>2026-08-26T12:25:22.000Z</time>
      </trkpt>
      <trkpt lat="46.02608" lon="5.4062">
        <ele>330.60000610352</ele>
        <time>2026-08-26T12:25:27.000Z</time>
      </trkpt>
      <trkpt lat="46.02609" lon="5.40616">
        <ele>330.79998779297</ele>
        <time>2026-08-26T12:25:30.000Z</time>
      </trkpt>
      <trkpt lat="46.02609" lon="5.4061">
        <ele>331.20001220703</ele>
        <time>2026-08-26T12:25:36.000Z</time>
      </trkpt>
      <trkpt lat="46.02609" lon="5.40609">
        <ele>331.20001220703</ele>
        <time>2026-08-26T12:25:37.000Z</time>
      </trkpt>
      <trkpt lat="46.0261" lon="5.40604">
        <ele>331.39999389648</ele>
        <time>2026-08-26T12:25:41.000Z</time>
      </trkpt>
      <trkpt lat="46.02612" lon="5.40597">
        <ele>331.79998779297</ele>
        <time>2026-08-26T12:25:49.000Z</time>
      </trkpt>
      <trkpt lat="46.02613" lon="5.40591">
        <ele>332.20001220703</ele>
        <time>2026-08-26T12:25:56.000Z</time>
      </trkpt>
      <trkpt lat="46.02614" lon="5.40591">
        <ele>332.20001220703</ele>
        <time>2026-08-26T12:25:57.000Z</time>
      </trkpt>
      <trkpt lat="46.02615" lon="5.40591">
        <ele>332.20001220703</ele>
        <time>2026-08-26T12:26:04.000Z</time>
      </trkpt>
      <trkpt lat="46.02614" lon="5.4059">
        <ele>332.20001220703</ele>
        <time>2026-08-26T12:26:06.000Z</time>
      </trkpt>
      <trkpt lat="46.02615" lon="5.40588">
        <ele>332.20001220703</ele>
        <time>2026-08-26T12:26:14.000Z</time>
      </trkpt>
      <trkpt lat="46.02617" lon="5.40589">
        <ele>332.20001220703</ele>
        <time>2026-08-26T12:26:22.000Z</time>
      </trkpt>
      <trkpt lat="46.02619" lon="5.40586">
        <ele>332.39999389648</ele>
        <time>2026-08-26T12:26:29.000Z</time>
      </trkpt>
      <trkpt lat="46.02623" lon="5.40582">
        <ele>332.60000610352</ele>
        <time>2026-08-26T12:26:38.000Z</time>
      </trkpt>
      <trkpt lat="46.02626" lon="5.40581">
        <ele>332.79998779297</ele>
        <time>2026-08-26T12:26:42.000Z</time>
      </trkpt>
      <trkpt lat="46.02628" lon="5.40579">
        <ele>332.79998779297</ele>
        <time>2026-08-26T12:26:45.000Z</time>
      </trkpt>
      <trkpt lat="46.02633" lon="5.40576">
        <ele>333</ele>
        <time>2026-08-26T12:26:52.000Z</time>
      </trkpt>
      <trkpt lat="46.02638" lon="5.40573">
        <ele>333</ele>
        <time>2026-08-26T12:27:01.000Z</time>
      </trkpt>
      <trkpt lat="46.02643" lon="5.40571">
        <ele>333</ele>
        <time>2026-08-26T12:27:09.000Z</time>
      </trkpt>
      <trkpt lat="46.02649" lon="5.4057">
        <ele>333</ele>
        <time>2026-08-26T12:27:17.000Z</time>
      </trkpt>
      <trkpt lat="46.02652" lon="5.40565">
        <ele>332.60000610352</ele>
        <time>2026-08-26T12:27:25.000Z</time>
      </trkpt>
      <trkpt lat="46.02651" lon="5.40563">
        <ele>332.60000610352</ele>
        <time>2026-08-26T12:27:32.000Z</time>
      </trkpt>
      <trkpt lat="46.02655" lon="5.40562">
        <ele>332.60000610352</ele>
        <time>2026-08-26T12:27:40.000Z</time>
      </trkpt>
      <trkpt lat="46.02655" lon="5.40566">
        <ele>332.60000610352</ele>
        <time>2026-08-26T12:27:44.000Z</time>
      </trkpt>
      <trkpt lat="46.02651" lon="5.40574">
        <ele>333</ele>
        <time>2026-08-26T12:27:50.000Z</time>
      </trkpt>
      <trkpt lat="46.0265" lon="5.40576">
        <ele>333.20001220703</ele>
        <time>2026-08-26T12:27:52.000Z</time>
      </trkpt>
      <trkpt lat="46.02649" lon="5.40577">
        <ele>333.39999389648</ele>
        <time>2026-08-26T12:27:53.000Z</time>
      </trkpt>
      <trkpt lat="46.02645" lon="5.40581">
        <ele>334.20001220703</ele>
        <time>2026-08-26T12:27:58.000Z</time>
      </trkpt>
      <trkpt lat="46.02644" lon="5.4058">
        <ele>334.39999389648</ele>
        <time>2026-08-26T12:27:59.000Z</time>
      </trkpt>
      <trkpt lat="46.02644" lon="5.4058">
        <ele>334.39999389648</ele>
        <time>2026-08-26T12:28:00.000Z</time>
      </trkpt>
      <trkpt lat="46.02644" lon="5.40578">
        <ele>334.20001220703</ele>
        <time>2026-08-26T12:28:02.000Z</time>
      </trkpt>
      <trkpt lat="46.02647" lon="5.40574">
        <ele>333.79998779297</ele>
        <time>2026-08-26T12:28:07.000Z</time>
      </trkpt>
      <trkpt lat="46.02648" lon="5.40572">
        <ele>333.39999389648</ele>
        <time>2026-08-26T12:28:12.000Z</time>
      </trkpt>
      <trkpt lat="46.02648" lon="5.40571">
        <ele>333.39999389648</ele>
        <time>2026-08-26T12:28:14.000Z</time>
      </trkpt>
      <trkpt lat="46.02648" lon="5.40575">
        <ele>333.60000610352</ele>
        <time>2026-08-26T12:28:23.000Z</time>
      </trkpt>
      <trkpt lat="46.0265" lon="5.40575">
        <ele>333.39999389648</ele>
        <time>2026-08-26T12:28:32.000Z</time>
      </trkpt>
      <trkpt lat="46.02649" lon="5.40575">
        <ele>333.39999389648</ele>
        <time>2026-08-26T12:28:36.000Z</time>
      </trkpt>
      <trkpt lat="46.02649" lon="5.40575">
        <ele>333.20001220703</ele>
        <time>2026-08-26T12:28:38.000Z</time>
      </trkpt>
      <trkpt lat="46.02648" lon="5.40576">
        <ele>333.39999389648</ele>
        <time>2026-08-26T12:28:40.000Z</time>
      </trkpt>
      <trkpt lat="46.02649" lon="5.40572">
        <ele>333.39999389648</ele>
        <time>2026-08-26T12:28:47.000Z</time>
      </trkpt>
      <trkpt lat="46.02648" lon="5.40571">
        <ele>333.39999389648</ele>
        <time>2026-08-26T12:28:48.000Z</time>
      </trkpt>
      <trkpt lat="46.02648" lon="5.4057">
        <ele>333.39999389648</ele>
        <time>2026-08-26T12:28:49.000Z</time>
      </trkpt>
      <trkpt lat="46.02645" lon="5.40566">
        <ele>333.39999389648</ele>
        <time>2026-08-26T12:28:57.000Z</time>
      </trkpt>
      <trkpt lat="46.02641" lon="5.40564">
        <ele>333.20001220703</ele>
        <time>2026-08-26T12:29:02.000Z</time>
      </trkpt>
      <trkpt lat="46.02642" lon="5.40565">
        <ele>333.20001220703</ele>
        <time>2026-08-26T12:29:04.000Z</time>
      </trkpt>
      <trkpt lat="46.02644" lon="5.40565">
        <ele>333.39999389648</ele>
        <time>2026-08-26T12:29:07.000Z</time>
      </trkpt>
      <trkpt lat="46.02646" lon="5.40567">
        <ele>333</ele>
        <time>2026-08-26T12:29:11.000Z</time>
      </trkpt>
      <trkpt lat="46.02647" lon="5.40566">
        <ele>332.39999389648</ele>
        <time>2026-08-26T12:29:14.000Z</time>
      </trkpt>
      <trkpt lat="46.02653" lon="5.40563">
        <ele>332.60000610352</ele>
        <time>2026-08-26T12:29:19.000Z</time>
      </trkpt>
      <trkpt lat="46.02658" lon="5.40562">
        <ele>333</ele>
        <time>2026-08-26T12:29:25.000Z</time>
      </trkpt>
      <trkpt lat="46.02666" lon="5.40557">
        <ele>332.60000610352</ele>
        <time>2026-08-26T12:29:33.000Z</time>
      </trkpt>
      <trkpt lat="46.02681" lon="5.40553">
        <ele>332.20001220703</ele>
        <time>2026-08-26T12:29:43.000Z</time>
      </trkpt>
      <trkpt lat="46.02691" lon="5.40555">
        <ele>332.20001220703</ele>
        <time>2026-08-26T12:29:51.000Z</time>
      </trkpt>
      <trkpt lat="46.02704" lon="5.40557">
        <ele>332.20001220703</ele>
        <time>2026-08-26T12:30:00.000Z</time>
      </trkpt>
      <trkpt lat="46.02714" lon="5.40559">
        <ele>331.60000610352</ele>
        <time>2026-08-26T12:30:08.000Z</time>
      </trkpt>
      <trkpt lat="46.0273" lon="5.40559">
        <ele>331.79998779297</ele>
        <time>2026-08-26T12:30:19.000Z</time>
      </trkpt>
      <trkpt lat="46.02744" lon="5.40552">
        <ele>332</ele>
        <time>2026-08-26T12:30:31.000Z</time>
      </trkpt>
      <trkpt lat="46.02756" lon="5.40543">
        <ele>332</ele>
        <time>2026-08-26T12:30:43.000Z</time>
      </trkpt>
      <trkpt lat="46.02761" lon="5.40535">
        <ele>332</ele>
        <time>2026-08-26T12:30:52.000Z</time>
      </trkpt>
      <trkpt lat="46.02761" lon="5.40536">
        <ele>332</ele>
        <time>2026-08-26T12:30:53.000Z</time>
      </trkpt>
      <trkpt lat="46.02764" lon="5.40537">
        <ele>332</ele>
        <time>2026-08-26T12:30:55.000Z</time>
      </trkpt>
      <trkpt lat="46.02765" lon="5.40538">
        <ele>332</ele>
        <time>2026-08-26T12:30:56.000Z</time>
      </trkpt>
      <trkpt lat="46.02766" lon="5.40538">
        <ele>331.79998779297</ele>
        <time>2026-08-26T12:30:58.000Z</time>
      </trkpt>
      <trkpt lat="46.02772" lon="5.40541">
        <ele>331.60000610352</ele>
        <time>2026-08-26T12:31:06.000Z</time>
      </trkpt>
      <trkpt lat="46.02773" lon="5.40542">
        <ele>331.39999389648</ele>
        <time>2026-08-26T12:31:08.000Z</time>
      </trkpt>
      <trkpt lat="46.02779" lon="5.40544">
        <ele>331.20001220703</ele>
        <time>2026-08-26T12:31:13.000Z</time>
      </trkpt>
      <trkpt lat="46.02785" lon="5.40544">
        <ele>331</ele>
        <time>2026-08-26T12:31:17.000Z</time>
      </trkpt>
      <trkpt lat="46.02799" lon="5.40548">
        <ele>331</ele>
        <time>2026-08-26T12:31:27.000Z</time>
      </trkpt>
      <trkpt lat="46.02813" lon="5.40551">
        <ele>331.39999389648</ele>
        <time>2026-08-26T12:31:38.000Z</time>
      </trkpt>
      <trkpt lat="46.02825" lon="5.40557">
        <ele>331.60000610352</ele>
        <time>2026-08-26T12:31:47.000Z</time>
      </trkpt>
      <trkpt lat="46.02833" lon="5.40558">
        <ele>331.39999389648</ele>
        <time>2026-08-26T12:31:54.000Z</time>
      </trkpt>
      <trkpt lat="46.02839" lon="5.40559">
        <ele>331.20001220703</ele>
        <time>2026-08-26T12:32:01.000Z</time>
      </trkpt>
      <trkpt lat="46.0284" lon="5.40561">
        <ele>331.20001220703</ele>
        <time>2026-08-26T12:32:03.000Z</time>
      </trkpt>
      <trkpt lat="46.02841" lon="5.40569">
        <ele>331</ele>
        <time>2026-08-26T12:32:07.000Z</time>
      </trkpt>
      <trkpt lat="46.02841" lon="5.40575">
        <ele>331</ele>
        <time>2026-08-26T12:32:10.000Z</time>
      </trkpt>
      <trkpt lat="46.02842" lon="5.40583">
        <ele>331.39999389648</ele>
        <time>2026-08-26T12:32:14.000Z</time>
      </trkpt>
      <trkpt lat="46.02843" lon="5.406">
        <ele>331.79998779297</ele>
        <time>2026-08-26T12:32:22.000Z</time>
      </trkpt>
      <trkpt lat="46.02843" lon="5.40604">
        <ele>332.20001220703</ele>
        <time>2026-08-26T12:32:24.000Z</time>
      </trkpt>
      <trkpt lat="46.02845" lon="5.40615">
        <ele>332.60000610352</ele>
        <time>2026-08-26T12:32:30.000Z</time>
      </trkpt>
      <trkpt lat="46.02848" lon="5.40623">
        <ele>333</ele>
        <time>2026-08-26T12:32:35.000Z</time>
      </trkpt>
      <trkpt lat="46.02852" lon="5.4063">
        <ele>333.20001220703</ele>
        <time>2026-08-26T12:32:39.000Z</time>
      </trkpt>
      <trkpt lat="46.02855" lon="5.40635">
        <ele>333.20001220703</ele>
        <time>2026-08-26T12:32:43.000Z</time>
      </trkpt>
      <trkpt lat="46.02856" lon="5.40637">
        <ele>333.39999389648</ele>
        <time>2026-08-26T12:32:45.000Z</time>
      </trkpt>
      <trkpt lat="46.02856" lon="5.40638">
        <ele>333.39999389648</ele>
        <time>2026-08-26T12:32:46.000Z</time>
      </trkpt>
      <trkpt lat="46.02857" lon="5.40639">
        <ele>333.39999389648</ele>
        <time>2026-08-26T12:32:52.000Z</time>
      </trkpt>
      <trkpt lat="46.02857" lon="5.4064">
        <ele>333.20001220703</ele>
        <time>2026-08-26T12:32:54.000Z</time>
      </trkpt>
      <trkpt lat="46.02857" lon="5.4064">
        <ele>333.20001220703</ele>
        <time>2026-08-26T12:32:57.000Z</time>
      </trkpt>
      <trkpt lat="46.02857" lon="5.40639">
        <ele>333.20001220703</ele>
        <time>2026-08-26T12:32:59.000Z</time>
      </trkpt>
      <trkpt lat="46.02857" lon="5.40639">
        <ele>333.20001220703</ele>
        <time>2026-08-26T12:33:03.000Z</time>
      </trkpt>
      <trkpt lat="46.02857" lon="5.4064">
        <ele>333</ele>
        <time>2026-08-26T12:33:08.000Z</time>
      </trkpt>
      <trkpt lat="46.02856" lon="5.40637">
        <ele>333.20001220703</ele>
        <time>2026-08-26T12:33:14.000Z</time>
      </trkpt>
      <trkpt lat="46.02858" lon="5.40642">
        <ele>333.39999389648</ele>
        <time>2026-08-26T12:33:19.000Z</time>
      </trkpt>
      <trkpt lat="46.02866" lon="5.40651">
        <ele>333.79998779297</ele>
        <time>2026-08-26T12:33:27.000Z</time>
      </trkpt>
      <trkpt lat="46.02868" lon="5.40655">
        <ele>334.39999389648</ele>
        <time>2026-08-26T12:33:31.000Z</time>
      </trkpt>
      <trkpt lat="46.02872" lon="5.40658">
        <ele>334.60000610352</ele>
        <time>2026-08-26T12:33:35.000Z</time>
      </trkpt>
      <trkpt lat="46.02879" lon="5.40665">
        <ele>335.20001220703</ele>
        <time>2026-08-26T12:33:42.000Z</time>
      </trkpt>
      <trkpt lat="46.02881" lon="5.40666">
        <ele>335.39999389648</ele>
        <time>2026-08-26T12:33:44.000Z</time>
      </trkpt>
      <trkpt lat="46.02883" lon="5.40668">
        <ele>335.60000610352</ele>
        <time>2026-08-26T12:33:46.000Z</time>
      </trkpt>
      <trkpt lat="46.02887" lon="5.40673">
        <ele>336.20001220703</ele>
        <time>2026-08-26T12:33:53.000Z</time>
      </trkpt>
      <trkpt lat="46.0289" lon="5.40678">
        <ele>336.39999389648</ele>
        <time>2026-08-26T12:33:57.000Z</time>
      </trkpt>
      <trkpt lat="46.02893" lon="5.40685">
        <ele>337</ele>
        <time>2026-08-26T12:34:01.000Z</time>
      </trkpt>
      <trkpt lat="46.02896" lon="5.40693">
        <ele>337.60000610352</ele>
        <time>2026-08-26T12:34:06.000Z</time>
      </trkpt>
      <trkpt lat="46.02897" lon="5.40704">
        <ele>338.20001220703</ele>
        <time>2026-08-26T12:34:12.000Z</time>
      </trkpt>
      <trkpt lat="46.02897" lon="5.40709">
        <ele>338.60000610352</ele>
        <time>2026-08-26T12:34:15.000Z</time>
      </trkpt>
      <trkpt lat="46.02897" lon="5.40715">
        <ele>339</ele>
        <time>2026-08-26T12:34:18.000Z</time>
      </trkpt>
      <trkpt lat="46.02896" lon="5.40718">
        <ele>339.39999389648</ele>
        <time>2026-08-26T12:34:20.000Z</time>
      </trkpt>
      <trkpt lat="46.02896" lon="5.4072">
        <ele>339.39999389648</ele>
        <time>2026-08-26T12:34:21.000Z</time>
      </trkpt>
      <trkpt lat="46.02895" lon="5.40725">
        <ele>339.60000610352</ele>
        <time>2026-08-26T12:34:24.000Z</time>
      </trkpt>
      <trkpt lat="46.02893" lon="5.40732">
        <ele>340.39999389648</ele>
        <time>2026-08-26T12:34:28.000Z</time>
      </trkpt>
      <trkpt lat="46.02892" lon="5.40733">
        <ele>340.60000610352</ele>
        <time>2026-08-26T12:34:29.000Z</time>
      </trkpt>
      <trkpt lat="46.02891" lon="5.40735">
        <ele>340.79998779297</ele>
        <time>2026-08-26T12:34:30.000Z</time>
      </trkpt>
      <trkpt lat="46.02889" lon="5.40738">
        <ele>341.20001220703</ele>
        <time>2026-08-26T12:34:32.000Z</time>
      </trkpt>
      <trkpt lat="46.02886" lon="5.40742">
        <ele>341.60000610352</ele>
        <time>2026-08-26T12:34:35.000Z</time>
      </trkpt>
      <trkpt lat="46.02886" lon="5.40743">
        <ele>341.60000610352</ele>
        <time>2026-08-26T12:34:36.000Z</time>
      </trkpt>
      <trkpt lat="46.02885" lon="5.40744">
        <ele>341.79998779297</ele>
        <time>2026-08-26T12:34:37.000Z</time>
      </trkpt>
      <trkpt lat="46.02879" lon="5.40752">
        <ele>342.79998779297</ele>
        <time>2026-08-26T12:34:43.000Z</time>
      </trkpt>
      <trkpt lat="46.02877" lon="5.40754">
        <ele>343.39999389648</ele>
        <time>2026-08-26T12:34:46.000Z</time>
      </trkpt>
      <trkpt lat="46.02874" lon="5.40757">
        <ele>344</ele>
        <time>2026-08-26T12:34:49.000Z</time>
      </trkpt>
      <trkpt lat="46.02868" lon="5.40764">
        <ele>344.79998779297</ele>
        <time>2026-08-26T12:34:56.000Z</time>
      </trkpt>
      <trkpt lat="46.02866" lon="5.40766">
        <ele>345</ele>
        <time>2026-08-26T12:34:58.000Z</time>
      </trkpt>
      <trkpt lat="46.02861" lon="5.40772">
        <ele>346</ele>
        <time>2026-08-26T12:35:03.000Z</time>
      </trkpt>
      <trkpt lat="46.0286" lon="5.40773">
        <ele>346</ele>
        <time>2026-08-26T12:35:04.000Z</time>
      </trkpt>
      <trkpt lat="46.02855" lon="5.40778">
        <ele>347.20001220703</ele>
        <time>2026-08-26T12:35:10.000Z</time>
      </trkpt>
      <trkpt lat="46.02854" lon="5.40778">
        <ele>347.20001220703</ele>
        <time>2026-08-26T12:35:11.000Z</time>
      </trkpt>
      <trkpt lat="46.0285" lon="5.40782">
        <ele>348.20001220703</ele>
        <time>2026-08-26T12:35:16.000Z</time>
      </trkpt>
      <trkpt lat="46.02846" lon="5.40784">
        <ele>348.79998779297</ele>
        <time>2026-08-26T12:35:20.000Z</time>
      </trkpt>
      <trkpt lat="46.02843" lon="5.40785">
        <ele>349.20001220703</ele>
        <time>2026-08-26T12:35:23.000Z</time>
      </trkpt>
      <trkpt lat="46.02836" lon="5.40791">
        <ele>350.39999389648</ele>
        <time>2026-08-26T12:35:30.000Z</time>
      </trkpt>
      <trkpt lat="46.02836" lon="5.40796">
        <ele>350.79998779297</ele>
        <time>2026-08-26T12:35:35.000Z</time>
      </trkpt>
      <trkpt lat="46.02837" lon="5.40801">
        <ele>351.39999389648</ele>
        <time>2026-08-26T12:35:39.000Z</time>
      </trkpt>
      <trkpt lat="46.02837" lon="5.40803">
        <ele>351.79998779297</ele>
        <time>2026-08-26T12:35:41.000Z</time>
      </trkpt>
      <trkpt lat="46.0284" lon="5.40808">
        <ele>352.39999389648</ele>
        <time>2026-08-26T12:35:45.000Z</time>
      </trkpt>
      <trkpt lat="46.02841" lon="5.40809">
        <ele>352.60000610352</ele>
        <time>2026-08-26T12:35:46.000Z</time>
      </trkpt>
      <trkpt lat="46.02845" lon="5.40813">
        <ele>353.60000610352</ele>
        <time>2026-08-26T12:35:54.000Z</time>
      </trkpt>
      <trkpt lat="46.02845" lon="5.40813">
        <ele>353.60000610352</ele>
        <time>2026-08-26T12:35:55.000Z</time>
      </trkpt>
      <trkpt lat="46.02849" lon="5.40817">
        <ele>353.79998779297</ele>
        <time>2026-08-26T12:36:03.000Z</time>
      </trkpt>
      <trkpt lat="46.02852" lon="5.40821">
        <ele>354.79998779297</ele>
        <time>2026-08-26T12:36:07.000Z</time>
      </trkpt>
      <trkpt lat="46.02857" lon="5.40825">
        <ele>355.39999389648</ele>
        <time>2026-08-26T12:36:12.000Z</time>
      </trkpt>
      <trkpt lat="46.02858" lon="5.40827">
        <ele>355.79998779297</ele>
        <time>2026-08-26T12:36:14.000Z</time>
      </trkpt>
      <trkpt lat="46.02861" lon="5.4083">
        <ele>357</ele>
        <time>2026-08-26T12:36:18.000Z</time>
      </trkpt>
      <trkpt lat="46.02864" lon="5.40834">
        <ele>357.79998779297</ele>
        <time>2026-08-26T12:36:22.000Z</time>
      </trkpt>
      <trkpt lat="46.02865" lon="5.40836">
        <ele>358</ele>
        <time>2026-08-26T12:36:24.000Z</time>
      </trkpt>
      <trkpt lat="46.0287" lon="5.40846">
        <ele>359.20001220703</ele>
        <time>2026-08-26T12:36:31.000Z</time>
      </trkpt>
      <trkpt lat="46.02874" lon="5.40854">
        <ele>360.20001220703</ele>
        <time>2026-08-26T12:36:37.000Z</time>
      </trkpt>
      <trkpt lat="46.02875" lon="5.40857">
        <ele>360.39999389648</ele>
        <time>2026-08-26T12:36:39.000Z</time>
      </trkpt>
      <trkpt lat="46.02878" lon="5.40862">
        <ele>361</ele>
        <time>2026-08-26T12:36:42.000Z</time>
      </trkpt>
      <trkpt lat="46.02881" lon="5.40866">
        <ele>361.20001220703</ele>
        <time>2026-08-26T12:36:45.000Z</time>
      </trkpt>
      <trkpt lat="46.02884" lon="5.40871">
        <ele>361.79998779297</ele>
        <time>2026-08-26T12:36:48.000Z</time>
      </trkpt>
      <trkpt lat="46.02891" lon="5.40881">
        <ele>362.39999389648</ele>
        <time>2026-08-26T12:36:54.000Z</time>
      </trkpt>
      <trkpt lat="46.02894" lon="5.40885">
        <ele>362.60000610352</ele>
        <time>2026-08-26T12:36:57.000Z</time>
      </trkpt>
      <trkpt lat="46.02899" lon="5.40892">
        <ele>363.20001220703</ele>
        <time>2026-08-26T12:37:02.000Z</time>
      </trkpt>
      <trkpt lat="46.02903" lon="5.40896">
        <ele>363.39999389648</ele>
        <time>2026-08-26T12:37:05.000Z</time>
      </trkpt>
      <trkpt lat="46.02904" lon="5.40897">
        <ele>363.39999389648</ele>
        <time>2026-08-26T12:37:06.000Z</time>
      </trkpt>
      <trkpt lat="46.02905" lon="5.40898">
        <ele>363.60000610352</ele>
        <time>2026-08-26T12:37:07.000Z</time>
      </trkpt>
      <trkpt lat="46.02908" lon="5.40901">
        <ele>364.20001220703</ele>
        <time>2026-08-26T12:37:10.000Z</time>
      </trkpt>
      <trkpt lat="46.02911" lon="5.40904">
        <ele>364.39999389648</ele>
        <time>2026-08-26T12:37:13.000Z</time>
      </trkpt>
      <trkpt lat="46.02915" lon="5.40907">
        <ele>365</ele>
        <time>2026-08-26T12:37:17.000Z</time>
      </trkpt>
      <trkpt lat="46.0292" lon="5.40914">
        <ele>365.39999389648</ele>
        <time>2026-08-26T12:37:22.000Z</time>
      </trkpt>
      <trkpt lat="46.02925" lon="5.4092">
        <ele>366.20001220703</ele>
        <time>2026-08-26T12:37:27.000Z</time>
      </trkpt>
      <trkpt lat="46.02926" lon="5.40923">
        <ele>366.60000610352</ele>
        <time>2026-08-26T12:37:29.000Z</time>
      </trkpt>
      <trkpt lat="46.02932" lon="5.40934">
        <ele>367.60000610352</ele>
        <time>2026-08-26T12:37:37.000Z</time>
      </trkpt>
      <trkpt lat="46.02939" lon="5.40945">
        <ele>368.60000610352</ele>
        <time>2026-08-26T12:37:45.000Z</time>
      </trkpt>
      <trkpt lat="46.02939" lon="5.40947">
        <ele>368.79998779297</ele>
        <time>2026-08-26T12:37:46.000Z</time>
      </trkpt>
      <trkpt lat="46.02944" lon="5.40954">
        <ele>369.60000610352</ele>
        <time>2026-08-26T12:37:52.000Z</time>
      </trkpt>
      <trkpt lat="46.02947" lon="5.40957">
        <ele>370</ele>
        <time>2026-08-26T12:37:55.000Z</time>
      </trkpt>
      <trkpt lat="46.02951" lon="5.40962">
        <ele>370.79998779297</ele>
        <time>2026-08-26T12:38:00.000Z</time>
      </trkpt>
      <trkpt lat="46.02955" lon="5.40968">
        <ele>371.79998779297</ele>
        <time>2026-08-26T12:38:06.000Z</time>
      </trkpt>
      <trkpt lat="46.02961" lon="5.40973">
        <ele>372.60000610352</ele>
        <time>2026-08-26T12:38:12.000Z</time>
      </trkpt>
      <trkpt lat="46.02962" lon="5.40975">
        <ele>372.79998779297</ele>
        <time>2026-08-26T12:38:13.000Z</time>
      </trkpt>
      <trkpt lat="46.02964" lon="5.40976">
        <ele>373.20001220703</ele>
        <time>2026-08-26T12:38:15.000Z</time>
      </trkpt>
      <trkpt lat="46.02968" lon="5.40982">
        <ele>374</ele>
        <time>2026-08-26T12:38:21.000Z</time>
      </trkpt>
      <trkpt lat="46.02972" lon="5.4099">
        <ele>374.79998779297</ele>
        <time>2026-08-26T12:38:27.000Z</time>
      </trkpt>
      <trkpt lat="46.02973" lon="5.40991">
        <ele>375</ele>
        <time>2026-08-26T12:38:28.000Z</time>
      </trkpt>
      <trkpt lat="46.02978" lon="5.41002">
        <ele>376.20001220703</ele>
        <time>2026-08-26T12:38:36.000Z</time>
      </trkpt>
      <trkpt lat="46.02981" lon="5.41014">
        <ele>377.20001220703</ele>
        <time>2026-08-26T12:38:44.000Z</time>
      </trkpt>
      <trkpt lat="46.02982" lon="5.41015">
        <ele>377.39999389648</ele>
        <time>2026-08-26T12:38:45.000Z</time>
      </trkpt>
      <trkpt lat="46.02984" lon="5.41024">
        <ele>378.39999389648</ele>
        <time>2026-08-26T12:38:51.000Z</time>
      </trkpt>
      <trkpt lat="46.02985" lon="5.41027">
        <ele>378.60000610352</ele>
        <time>2026-08-26T12:38:53.000Z</time>
      </trkpt>
      <trkpt lat="46.02987" lon="5.41032">
        <ele>379.39999389648</ele>
        <time>2026-08-26T12:38:57.000Z</time>
      </trkpt>
      <trkpt lat="46.02989" lon="5.41041">
        <ele>380.60000610352</ele>
        <time>2026-08-26T12:39:03.000Z</time>
      </trkpt>
      <trkpt lat="46.02992" lon="5.4105">
        <ele>381.60000610352</ele>
        <time>2026-08-26T12:39:10.000Z</time>
      </trkpt>
      <trkpt lat="46.02994" lon="5.41055">
        <ele>382.39999389648</ele>
        <time>2026-08-26T12:39:14.000Z</time>
      </trkpt>
      <trkpt lat="46.02995" lon="5.41057">
        <ele>382.60000610352</ele>
        <time>2026-08-26T12:39:16.000Z</time>
      </trkpt>
      <trkpt lat="46.02998" lon="5.41059">
        <ele>383.20001220703</ele>
        <time>2026-08-26T12:39:19.000Z</time>
      </trkpt>
      <trkpt lat="46.03" lon="5.41057">
        <ele>383.60000610352</ele>
        <time>2026-08-26T12:39:27.000Z</time>
      </trkpt>
      <trkpt lat="46.03" lon="5.41055">
        <ele>383.60000610352</ele>
        <time>2026-08-26T12:39:32.000Z</time>
      </trkpt>
      <trkpt lat="46.03" lon="5.41055">
        <ele>383.60000610352</ele>
        <time>2026-08-26T12:39:34.000Z</time>
      </trkpt>
      <trkpt lat="46.03001" lon="5.41051">
        <ele>383</ele>
        <time>2026-08-26T12:39:42.000Z</time>
      </trkpt>
      <trkpt lat="46.03001" lon="5.41049">
        <ele>382.79998779297</ele>
        <time>2026-08-26T12:39:43.000Z</time>
      </trkpt>
      <trkpt lat="46.03001" lon="5.4104">
        <ele>382.79998779297</ele>
        <time>2026-08-26T12:39:49.000Z</time>
      </trkpt>
      <trkpt lat="46.03001" lon="5.41026">
        <ele>381.79998779297</ele>
        <time>2026-08-26T12:39:57.000Z</time>
      </trkpt>
      <trkpt lat="46.03001" lon="5.41025">
        <ele>381.60000610352</ele>
        <time>2026-08-26T12:39:58.000Z</time>
      </trkpt>
      <trkpt lat="46.02998" lon="5.41013">
        <ele>380.79998779297</ele>
        <time>2026-08-26T12:40:05.000Z</time>
      </trkpt>
      <trkpt lat="46.02998" lon="5.41011">
        <ele>380.79998779297</ele>
        <time>2026-08-26T12:40:06.000Z</time>
      </trkpt>
      <trkpt lat="46.02998" lon="5.41009">
        <ele>380.60000610352</ele>
        <time>2026-08-26T12:40:07.000Z</time>
      </trkpt>
      <trkpt lat="46.02995" lon="5.41">
        <ele>380</ele>
        <time>2026-08-26T12:40:12.000Z</time>
      </trkpt>
      <trkpt lat="46.02993" lon="5.40993">
        <ele>379.60000610352</ele>
        <time>2026-08-26T12:40:16.000Z</time>
      </trkpt>
      <trkpt lat="46.02992" lon="5.40988">
        <ele>379</ele>
        <time>2026-08-26T12:40:19.000Z</time>
      </trkpt>
      <trkpt lat="46.02991" lon="5.40981">
        <ele>378.39999389648</ele>
        <time>2026-08-26T12:40:23.000Z</time>
      </trkpt>
      <trkpt lat="46.02989" lon="5.40972">
        <ele>377.20001220703</ele>
        <time>2026-08-26T12:40:29.000Z</time>
      </trkpt>
      <trkpt lat="46.02989" lon="5.4097">
        <ele>377</ele>
        <time>2026-08-26T12:40:30.000Z</time>
      </trkpt>
      <trkpt lat="46.02986" lon="5.40962">
        <ele>376.20001220703</ele>
        <time>2026-08-26T12:40:35.000Z</time>
      </trkpt>
      <trkpt lat="46.02983" lon="5.40954">
        <ele>375.20001220703</ele>
        <time>2026-08-26T12:40:40.000Z</time>
      </trkpt>
      <trkpt lat="46.02982" lon="5.40952">
        <ele>375</ele>
        <time>2026-08-26T12:40:41.000Z</time>
      </trkpt>
      <trkpt lat="46.0298" lon="5.40945">
        <ele>374</ele>
        <time>2026-08-26T12:40:46.000Z</time>
      </trkpt>
      <trkpt lat="46.02979" lon="5.40942">
        <ele>373.60000610352</ele>
        <time>2026-08-26T12:40:48.000Z</time>
      </trkpt>
      <trkpt lat="46.02978" lon="5.40941">
        <ele>373.39999389648</ele>
        <time>2026-08-26T12:40:49.000Z</time>
      </trkpt>
      <trkpt lat="46.02976" lon="5.40937">
        <ele>373</ele>
        <time>2026-08-26T12:40:52.000Z</time>
      </trkpt>
      <trkpt lat="46.02972" lon="5.40929">
        <ele>371.79998779297</ele>
        <time>2026-08-26T12:40:58.000Z</time>
      </trkpt>
      <trkpt lat="46.02972" lon="5.40928">
        <ele>371.60000610352</ele>
        <time>2026-08-26T12:40:59.000Z</time>
      </trkpt>
      <trkpt lat="46.02969" lon="5.4092">
        <ele>370.79998779297</ele>
        <time>2026-08-26T12:41:04.000Z</time>
      </trkpt>
      <trkpt lat="46.02965" lon="5.40912">
        <ele>369.60000610352</ele>
        <time>2026-08-26T12:41:10.000Z</time>
      </trkpt>
      <trkpt lat="46.02962" lon="5.40904">
        <ele>368.60000610352</ele>
        <time>2026-08-26T12:41:15.000Z</time>
      </trkpt>
      <trkpt lat="46.0296" lon="5.40899">
        <ele>368</ele>
        <time>2026-08-26T12:41:18.000Z</time>
      </trkpt>
      <trkpt lat="46.02959" lon="5.40896">
        <ele>367.60000610352</ele>
        <time>2026-08-26T12:41:20.000Z</time>
      </trkpt>
      <trkpt lat="46.02957" lon="5.40884">
        <ele>367</ele>
        <time>2026-08-26T12:41:27.000Z</time>
      </trkpt>
      <trkpt lat="46.02956" lon="5.40881">
        <ele>366.60000610352</ele>
        <time>2026-08-26T12:41:29.000Z</time>
      </trkpt>
      <trkpt lat="46.02957" lon="5.40874">
        <ele>366</ele>
        <time>2026-08-26T12:41:33.000Z</time>
      </trkpt>
      <trkpt lat="46.02958" lon="5.40871">
        <ele>365.60000610352</ele>
        <time>2026-08-26T12:41:35.000Z</time>
      </trkpt>
      <trkpt lat="46.02962" lon="5.40865">
        <ele>364.60000610352</ele>
        <time>2026-08-26T12:41:40.000Z</time>
      </trkpt>
      <trkpt lat="46.02965" lon="5.40858">
        <ele>363.39999389648</ele>
        <time>2026-08-26T12:41:45.000Z</time>
      </trkpt>
      <trkpt lat="46.02968" lon="5.40851">
        <ele>362.39999389648</ele>
        <time>2026-08-26T12:41:49.000Z</time>
      </trkpt>
      <trkpt lat="46.02969" lon="5.40846">
        <ele>361.60000610352</ele>
        <time>2026-08-26T12:41:52.000Z</time>
      </trkpt>
      <trkpt lat="46.02969" lon="5.40845">
        <ele>361.39999389648</ele>
        <time>2026-08-26T12:41:53.000Z</time>
      </trkpt>
      <trkpt lat="46.02972" lon="5.40839">
        <ele>360.39999389648</ele>
        <time>2026-08-26T12:41:57.000Z</time>
      </trkpt>
      <trkpt lat="46.02975" lon="5.40834">
        <ele>359.20001220703</ele>
        <time>2026-08-26T12:42:01.000Z</time>
      </trkpt>
      <trkpt lat="46.02976" lon="5.40833">
        <ele>359</ele>
        <time>2026-08-26T12:42:02.000Z</time>
      </trkpt>
      <trkpt lat="46.02979" lon="5.4083">
        <ele>358.20001220703</ele>
        <time>2026-08-26T12:42:05.000Z</time>
      </trkpt>
      <trkpt lat="46.02983" lon="5.40824">
        <ele>357</ele>
        <time>2026-08-26T12:42:10.000Z</time>
      </trkpt>
      <trkpt lat="46.02984" lon="5.40822">
        <ele>356.39999389648</ele>
        <time>2026-08-26T12:42:12.000Z</time>
      </trkpt>
      <trkpt lat="46.02988" lon="5.40818">
        <ele>355.79998779297</ele>
        <time>2026-08-26T12:42:15.000Z</time>
      </trkpt>
      <trkpt lat="46.02993" lon="5.40815">
        <ele>354.60000610352</ele>
        <time>2026-08-26T12:42:19.000Z</time>
      </trkpt>
      <trkpt lat="46.02996" lon="5.40814">
        <ele>354.20001220703</ele>
        <time>2026-08-26T12:42:21.000Z</time>
      </trkpt>
      <trkpt lat="46.02998" lon="5.40813">
        <ele>353.60000610352</ele>
        <time>2026-08-26T12:42:23.000Z</time>
      </trkpt>
      <trkpt lat="46.03003" lon="5.40813">
        <ele>352.60000610352</ele>
        <time>2026-08-26T12:42:28.000Z</time>
      </trkpt>
      <trkpt lat="46.03005" lon="5.40813">
        <ele>352.20001220703</ele>
        <time>2026-08-26T12:42:29.000Z</time>
      </trkpt>
      <trkpt lat="46.0301" lon="5.40813">
        <ele>351.39999389648</ele>
        <time>2026-08-26T12:42:33.000Z</time>
      </trkpt>
      <trkpt lat="46.03013" lon="5.40813">
        <ele>350.60000610352</ele>
        <time>2026-08-26T12:42:36.000Z</time>
      </trkpt>
      <trkpt lat="46.03015" lon="5.40811">
        <ele>350.20001220703</ele>
        <time>2026-08-26T12:42:38.000Z</time>
      </trkpt>
      <trkpt lat="46.03021" lon="5.40808">
        <ele>349</ele>
        <time>2026-08-26T12:42:44.000Z</time>
      </trkpt>
      <trkpt lat="46.03022" lon="5.40807">
        <ele>349</ele>
        <time>2026-08-26T12:42:45.000Z</time>
      </trkpt>
      <trkpt lat="46.03028" lon="5.40801">
        <ele>348</ele>
        <time>2026-08-26T12:42:50.000Z</time>
      </trkpt>
      <trkpt lat="46.03031" lon="5.40797">
        <ele>347.39999389648</ele>
        <time>2026-08-26T12:42:54.000Z</time>
      </trkpt>
      <trkpt lat="46.03034" lon="5.40795">
        <ele>347</ele>
        <time>2026-08-26T12:42:57.000Z</time>
      </trkpt>
      <trkpt lat="46.03038" lon="5.4079">
        <ele>345.79998779297</ele>
        <time>2026-08-26T12:43:02.000Z</time>
      </trkpt>
      <trkpt lat="46.03039" lon="5.40787">
        <ele>345.39999389648</ele>
        <time>2026-08-26T12:43:04.000Z</time>
      </trkpt>
      <trkpt lat="46.03041" lon="5.40781">
        <ele>344.79998779297</ele>
        <time>2026-08-26T12:43:08.000Z</time>
      </trkpt>
      <trkpt lat="46.03043" lon="5.40776">
        <ele>344</ele>
        <time>2026-08-26T12:43:12.000Z</time>
      </trkpt>
      <trkpt lat="46.03044" lon="5.40772">
        <ele>343.60000610352</ele>
        <time>2026-08-26T12:43:14.000Z</time>
      </trkpt>
      <trkpt lat="46.03047" lon="5.40759">
        <ele>342.39999389648</ele>
        <time>2026-08-26T12:43:21.000Z</time>
      </trkpt>
      <trkpt lat="46.0305" lon="5.40751">
        <ele>341.39999389648</ele>
        <time>2026-08-26T12:43:28.000Z</time>
      </trkpt>
      <trkpt lat="46.03055" lon="5.4074">
        <ele>340.20001220703</ele>
        <time>2026-08-26T12:43:35.000Z</time>
      </trkpt>
      <trkpt lat="46.03056" lon="5.40734">
        <ele>339.79998779297</ele>
        <time>2026-08-26T12:43:38.000Z</time>
      </trkpt>
      <trkpt lat="46.03058" lon="5.40728">
        <ele>339.20001220703</ele>
        <time>2026-08-26T12:43:41.000Z</time>
      </trkpt>
      <trkpt lat="46.0306" lon="5.40724">
        <ele>338.60000610352</ele>
        <time>2026-08-26T12:43:43.000Z</time>
      </trkpt>
      <trkpt lat="46.03062" lon="5.40719">
        <ele>338</ele>
        <time>2026-08-26T12:43:46.000Z</time>
      </trkpt>
      <trkpt lat="46.03066" lon="5.40714">
        <ele>337</ele>
        <time>2026-08-26T12:43:51.000Z</time>
      </trkpt>
      <trkpt lat="46.0307" lon="5.40708">
        <ele>336</ele>
        <time>2026-08-26T12:43:56.000Z</time>
      </trkpt>
      <trkpt lat="46.03071" lon="5.40702">
        <ele>335.39999389648</ele>
        <time>2026-08-26T12:43:59.000Z</time>
      </trkpt>
      <trkpt lat="46.03072" lon="5.40699">
        <ele>334.79998779297</ele>
        <time>2026-08-26T12:44:01.000Z</time>
      </trkpt>
      <trkpt lat="46.03075" lon="5.40691">
        <ele>333.79998779297</ele>
        <time>2026-08-26T12:44:05.000Z</time>
      </trkpt>
      <trkpt lat="46.03076" lon="5.4069">
        <ele>333.60000610352</ele>
        <time>2026-08-26T12:44:06.000Z</time>
      </trkpt>
      <trkpt lat="46.03079" lon="5.40684">
        <ele>332.79998779297</ele>
        <time>2026-08-26T12:44:11.000Z</time>
      </trkpt>
      <trkpt lat="46.03079" lon="5.40683">
        <ele>332.60000610352</ele>
        <time>2026-08-26T12:44:12.000Z</time>
      </trkpt>
      <trkpt lat="46.03077" lon="5.40672">
        <ele>331.60000610352</ele>
        <time>2026-08-26T12:44:18.000Z</time>
      </trkpt>
      <trkpt lat="46.03074" lon="5.40661">
        <ele>330.60000610352</ele>
        <time>2026-08-26T12:44:24.000Z</time>
      </trkpt>
      <trkpt lat="46.03074" lon="5.40659">
        <ele>330.20001220703</ele>
        <time>2026-08-26T12:44:25.000Z</time>
      </trkpt>
      <trkpt lat="46.03074" lon="5.40655">
        <ele>329.79998779297</ele>
        <time>2026-08-26T12:44:28.000Z</time>
      </trkpt>
      <trkpt lat="46.03075" lon="5.40649">
        <ele>329.39999389648</ele>
        <time>2026-08-26T12:44:31.000Z</time>
      </trkpt>
      <trkpt lat="46.03075" lon="5.40647">
        <ele>329.20001220703</ele>
        <time>2026-08-26T12:44:32.000Z</time>
      </trkpt>
      <trkpt lat="46.03077" lon="5.40639">
        <ele>328.20001220703</ele>
        <time>2026-08-26T12:44:37.000Z</time>
      </trkpt>
      <trkpt lat="46.03079" lon="5.40633">
        <ele>327.60000610352</ele>
        <time>2026-08-26T12:44:41.000Z</time>
      </trkpt>
      <trkpt lat="46.0308" lon="5.40629">
        <ele>327.20001220703</ele>
        <time>2026-08-26T12:44:43.000Z</time>
      </trkpt>
      <trkpt lat="46.03082" lon="5.40621">
        <ele>326.60000610352</ele>
        <time>2026-08-26T12:44:47.000Z</time>
      </trkpt>
      <trkpt lat="46.03083" lon="5.40618">
        <ele>326.20001220703</ele>
        <time>2026-08-26T12:44:49.000Z</time>
      </trkpt>
      <trkpt lat="46.03088" lon="5.40609">
        <ele>325.39999389648</ele>
        <time>2026-08-26T12:44:54.000Z</time>
      </trkpt>
      <trkpt lat="46.03089" lon="5.40608">
        <ele>325.20001220703</ele>
        <time>2026-08-26T12:44:55.000Z</time>
      </trkpt>
      <trkpt lat="46.0309" lon="5.40608">
        <ele>325</ele>
        <time>2026-08-26T12:44:56.000Z</time>
      </trkpt>
      <trkpt lat="46.03096" lon="5.40607">
        <ele>324.60000610352</ele>
        <time>2026-08-26T12:45:00.000Z</time>
      </trkpt>
      <trkpt lat="46.03106" lon="5.40609">
        <ele>324</ele>
        <time>2026-08-26T12:45:07.000Z</time>
      </trkpt>
      <trkpt lat="46.03107" lon="5.4061">
        <ele>323.79998779297</ele>
        <time>2026-08-26T12:45:08.000Z</time>
      </trkpt>
      <trkpt lat="46.03119" lon="5.40613">
        <ele>323</ele>
        <time>2026-08-26T12:45:18.000Z</time>
      </trkpt>
      <trkpt lat="46.03123" lon="5.40611">
        <ele>322.60000610352</ele>
        <time>2026-08-26T12:45:22.000Z</time>
      </trkpt>
      <trkpt lat="46.03129" lon="5.40607">
        <ele>322</ele>
        <time>2026-08-26T12:45:27.000Z</time>
      </trkpt>
      <trkpt lat="46.0313" lon="5.40605">
        <ele>321.60000610352</ele>
        <time>2026-08-26T12:45:30.000Z</time>
      </trkpt>
      <trkpt lat="46.03131" lon="5.40605">
        <ele>321.60000610352</ele>
        <time>2026-08-26T12:45:38.000Z</time>
      </trkpt>
      <trkpt lat="46.03132" lon="5.40605">
        <ele>321.60000610352</ele>
        <time>2026-08-26T12:45:42.000Z</time>
      </trkpt>
      <trkpt lat="46.03134" lon="5.40607">
        <ele>321.60000610352</ele>
        <time>2026-08-26T12:45:46.000Z</time>
      </trkpt>
      <trkpt lat="46.03136" lon="5.40611">
        <ele>321.60000610352</ele>
        <time>2026-08-26T12:45:52.000Z</time>
      </trkpt>
      <trkpt lat="46.03145" lon="5.40619">
        <ele>320.79998779297</ele>
        <time>2026-08-26T12:46:02.000Z</time>
      </trkpt>
      <trkpt lat="46.03148" lon="5.40621">
        <ele>320.60000610352</ele>
        <time>2026-08-26T12:46:05.000Z</time>
      </trkpt>
      <trkpt lat="46.03154" lon="5.40627">
        <ele>319.79998779297</ele>
        <time>2026-08-26T12:46:11.000Z</time>
      </trkpt>
      <trkpt lat="46.03158" lon="5.40629">
        <ele>319.79998779297</ele>
        <time>2026-08-26T12:46:14.000Z</time>
      </trkpt>
      <trkpt lat="46.03168" lon="5.40634">
        <ele>318.79998779297</ele>
        <time>2026-08-26T12:46:22.000Z</time>
      </trkpt>
      <trkpt lat="46.03177" lon="5.4064">
        <ele>317.60000610352</ele>
        <time>2026-08-26T12:46:30.000Z</time>
      </trkpt>
      <trkpt lat="46.03179" lon="5.40642">
        <ele>317.20001220703</ele>
        <time>2026-08-26T12:46:32.000Z</time>
      </trkpt>
      <trkpt lat="46.03186" lon="5.40647">
        <ele>316.39999389648</ele>
        <time>2026-08-26T12:46:38.000Z</time>
      </trkpt>
      <trkpt lat="46.03193" lon="5.40654">
        <ele>315.60000610352</ele>
        <time>2026-08-26T12:46:45.000Z</time>
      </trkpt>
      <trkpt lat="46.03194" lon="5.40655">
        <ele>315.39999389648</ele>
        <time>2026-08-26T12:46:46.000Z</time>
      </trkpt>
      <trkpt lat="46.032" lon="5.40661">
        <ele>314.39999389648</ele>
        <time>2026-08-26T12:46:52.000Z</time>
      </trkpt>
      <trkpt lat="46.03202" lon="5.40663">
        <ele>314</ele>
        <time>2026-08-26T12:46:54.000Z</time>
      </trkpt>
      <trkpt lat="46.03205" lon="5.40666">
        <ele>313.60000610352</ele>
        <time>2026-08-26T12:46:57.000Z</time>
      </trkpt>
      <trkpt lat="46.03208" lon="5.40669">
        <ele>313.20001220703</ele>
        <time>2026-08-26T12:47:00.000Z</time>
      </trkpt>
      <trkpt lat="46.03212" lon="5.40673">
        <ele>312.79998779297</ele>
        <time>2026-08-26T12:47:03.000Z</time>
      </trkpt>
      <trkpt lat="46.03218" lon="5.4068">
        <ele>312.20001220703</ele>
        <time>2026-08-26T12:47:09.000Z</time>
      </trkpt>
      <trkpt lat="46.03219" lon="5.40683">
        <ele>312</ele>
        <time>2026-08-26T12:47:11.000Z</time>
      </trkpt>
      <trkpt lat="46.03226" lon="5.40692">
        <ele>311.60000610352</ele>
        <time>2026-08-26T12:47:17.000Z</time>
      </trkpt>
      <trkpt lat="46.03233" lon="5.40707">
        <ele>311.20001220703</ele>
        <time>2026-08-26T12:47:26.000Z</time>
      </trkpt>
      <trkpt lat="46.03235" lon="5.40712">
        <ele>311.20001220703</ele>
        <time>2026-08-26T12:47:31.000Z</time>
      </trkpt>
      <trkpt lat="46.03238" lon="5.40718">
        <ele>311.20001220703</ele>
        <time>2026-08-26T12:47:34.000Z</time>
      </trkpt>
      <trkpt lat="46.0324" lon="5.40724">
        <ele>311.20001220703</ele>
        <time>2026-08-26T12:47:38.000Z</time>
      </trkpt>
      <trkpt lat="46.03245" lon="5.40741">
        <ele>311.20001220703</ele>
        <time>2026-08-26T12:47:49.000Z</time>
      </trkpt>
      <trkpt lat="46.03249" lon="5.4076">
        <ele>311.60000610352</ele>
        <time>2026-08-26T12:47:59.000Z</time>
      </trkpt>
      <trkpt lat="46.03254" lon="5.40782">
        <ele>311.20001220703</ele>
        <time>2026-08-26T12:48:10.000Z</time>
      </trkpt>
      <trkpt lat="46.03258" lon="5.40798">
        <ele>310.79998779297</ele>
        <time>2026-08-26T12:48:19.000Z</time>
      </trkpt>
      <trkpt lat="46.03262" lon="5.40813">
        <ele>310.20001220703</ele>
        <time>2026-08-26T12:48:28.000Z</time>
      </trkpt>
      <trkpt lat="46.03266" lon="5.4083">
        <ele>309.60000610352</ele>
        <time>2026-08-26T12:48:37.000Z</time>
      </trkpt>
      <trkpt lat="46.03268" lon="5.40838">
        <ele>309.20001220703</ele>
        <time>2026-08-26T12:48:42.000Z</time>
      </trkpt>
      <trkpt lat="46.03271" lon="5.40849">
        <ele>308.60000610352</ele>
        <time>2026-08-26T12:48:49.000Z</time>
      </trkpt>
      <trkpt lat="46.03273" lon="5.40856">
        <ele>308</ele>
        <time>2026-08-26T12:48:53.000Z</time>
      </trkpt>
      <trkpt lat="46.03277" lon="5.40869">
        <ele>307.20001220703</ele>
        <time>2026-08-26T12:49:00.000Z</time>
      </trkpt>
      <trkpt lat="46.03277" lon="5.4087">
        <ele>307</ele>
        <time>2026-08-26T12:49:01.000Z</time>
      </trkpt>
      <trkpt lat="46.03281" lon="5.4088">
        <ele>306.39999389648</ele>
        <time>2026-08-26T12:49:07.000Z</time>
      </trkpt>
      <trkpt lat="46.03284" lon="5.40887">
        <ele>306</ele>
        <time>2026-08-26T12:49:11.000Z</time>
      </trkpt>
      <trkpt lat="46.03287" lon="5.40894">
        <ele>305.39999389648</ele>
        <time>2026-08-26T12:49:16.000Z</time>
      </trkpt>
      <trkpt lat="46.0329" lon="5.40901">
        <ele>304.79998779297</ele>
        <time>2026-08-26T12:49:20.000Z</time>
      </trkpt>
      <trkpt lat="46.03294" lon="5.4091">
        <ele>304</ele>
        <time>2026-08-26T12:49:26.000Z</time>
      </trkpt>
      <trkpt lat="46.03295" lon="5.40911">
        <ele>303.79998779297</ele>
        <time>2026-08-26T12:49:27.000Z</time>
      </trkpt>
      <trkpt lat="46.03299" lon="5.40917">
        <ele>303</ele>
        <time>2026-08-26T12:49:32.000Z</time>
      </trkpt>
      <trkpt lat="46.03301" lon="5.40919">
        <ele>302.79998779297</ele>
        <time>2026-08-26T12:49:34.000Z</time>
      </trkpt>
      <trkpt lat="46.03308" lon="5.40928">
        <ele>301.60000610352</ele>
        <time>2026-08-26T12:49:41.000Z</time>
      </trkpt>
      <trkpt lat="46.03316" lon="5.40937">
        <ele>300.39999389648</ele>
        <time>2026-08-26T12:49:48.000Z</time>
      </trkpt>
      <trkpt lat="46.03317" lon="5.4094">
        <ele>300.20001220703</ele>
        <time>2026-08-26T12:49:50.000Z</time>
      </trkpt>
      <trkpt lat="46.03324" lon="5.40946">
        <ele>299.39999389648</ele>
        <time>2026-08-26T12:49:56.000Z</time>
      </trkpt>
      <trkpt lat="46.0333" lon="5.40953">
        <ele>298.39999389648</ele>
        <time>2026-08-26T12:50:03.000Z</time>
      </trkpt>
      <trkpt lat="46.03331" lon="5.40954">
        <ele>298.20001220703</ele>
        <time>2026-08-26T12:50:04.000Z</time>
      </trkpt>
      <trkpt lat="46.03339" lon="5.40962">
        <ele>297.20001220703</ele>
        <time>2026-08-26T12:50:11.000Z</time>
      </trkpt>
      <trkpt lat="46.0334" lon="5.40963">
        <ele>297</ele>
        <time>2026-08-26T12:50:12.000Z</time>
      </trkpt>
      <trkpt lat="46.03347" lon="5.4097">
        <ele>296</ele>
        <time>2026-08-26T12:50:19.000Z</time>
      </trkpt>
      <trkpt lat="46.03352" lon="5.40975">
        <ele>295.60000610352</ele>
        <time>2026-08-26T12:50:23.000Z</time>
      </trkpt>
      <trkpt lat="46.03356" lon="5.40979">
        <ele>295</ele>
        <time>2026-08-26T12:50:27.000Z</time>
      </trkpt>
      <trkpt lat="46.03358" lon="5.4098">
        <ele>294.79998779297</ele>
        <time>2026-08-26T12:50:28.000Z</time>
      </trkpt>
      <trkpt lat="46.03365" lon="5.40987">
        <ele>293.79998779297</ele>
        <time>2026-08-26T12:50:35.000Z</time>
      </trkpt>
      <trkpt lat="46.03369" lon="5.4099">
        <ele>293.39999389648</ele>
        <time>2026-08-26T12:50:39.000Z</time>
      </trkpt>
      <trkpt lat="46.03375" lon="5.40995">
        <ele>292.79998779297</ele>
        <time>2026-08-26T12:50:44.000Z</time>
      </trkpt>
      <trkpt lat="46.03379" lon="5.40997">
        <ele>292.39999389648</ele>
        <time>2026-08-26T12:50:47.000Z</time>
      </trkpt>
      <trkpt lat="46.03382" lon="5.40999">
        <ele>292</ele>
        <time>2026-08-26T12:50:50.000Z</time>
      </trkpt>
      <trkpt lat="46.03386" lon="5.41001">
        <ele>291.79998779297</ele>
        <time>2026-08-26T12:50:53.000Z</time>
      </trkpt>
      <trkpt lat="46.03396" lon="5.41007">
        <ele>291</ele>
        <time>2026-08-26T12:51:01.000Z</time>
      </trkpt>
      <trkpt lat="46.03399" lon="5.41008">
        <ele>290.60000610352</ele>
        <time>2026-08-26T12:51:03.000Z</time>
      </trkpt>
      <trkpt lat="46.03404" lon="5.41011">
        <ele>289.79998779297</ele>
        <time>2026-08-26T12:51:08.000Z</time>
      </trkpt>
      <trkpt lat="46.03408" lon="5.41014">
        <ele>289.60000610352</ele>
        <time>2026-08-26T12:51:11.000Z</time>
      </trkpt>
      <trkpt lat="46.03414" lon="5.4102">
        <ele>289.20001220703</ele>
        <time>2026-08-26T12:51:16.000Z</time>
      </trkpt>
      <trkpt lat="46.03421" lon="5.41027">
        <ele>288.60000610352</ele>
        <time>2026-08-26T12:51:23.000Z</time>
      </trkpt>
      <trkpt lat="46.03426" lon="5.41032">
        <ele>288.39999389648</ele>
        <time>2026-08-26T12:51:27.000Z</time>
      </trkpt>
      <trkpt lat="46.03435" lon="5.41043">
        <ele>287.60000610352</ele>
        <time>2026-08-26T12:51:36.000Z</time>
      </trkpt>
      <trkpt lat="46.03437" lon="5.41045">
        <ele>287.39999389648</ele>
        <time>2026-08-26T12:51:38.000Z</time>
      </trkpt>
      <trkpt lat="46.03446" lon="5.41054">
        <ele>287</ele>
        <time>2026-08-26T12:51:46.000Z</time>
      </trkpt>
      <trkpt lat="46.03458" lon="5.41059">
        <ele>286.79998779297</ele>
        <time>2026-08-26T12:51:55.000Z</time>
      </trkpt>
      <trkpt lat="46.03467" lon="5.41063">
        <ele>286.60000610352</ele>
        <time>2026-08-26T12:52:03.000Z</time>
      </trkpt>
      <trkpt lat="46.03469" lon="5.41063">
        <ele>286.60000610352</ele>
        <time>2026-08-26T12:52:04.000Z</time>
      </trkpt>
      <trkpt lat="46.03477" lon="5.41068">
        <ele>286.60000610352</ele>
        <time>2026-08-26T12:52:10.000Z</time>
      </trkpt>
      <trkpt lat="46.03483" lon="5.41074">
        <ele>286.79998779297</ele>
        <time>2026-08-26T12:52:15.000Z</time>
      </trkpt>
      <trkpt lat="46.03488" lon="5.41077">
        <ele>287</ele>
        <time>2026-08-26T12:52:19.000Z</time>
      </trkpt>
      <trkpt lat="46.03494" lon="5.41081">
        <ele>286.39999389648</ele>
        <time>2026-08-26T12:52:25.000Z</time>
      </trkpt>
      <trkpt lat="46.03502" lon="5.41084">
        <ele>286.20001220703</ele>
        <time>2026-08-26T12:52:30.000Z</time>
      </trkpt>
      <trkpt lat="46.03514" lon="5.41088">
        <ele>286.20001220703</ele>
        <time>2026-08-26T12:52:40.000Z</time>
      </trkpt>
      <trkpt lat="46.03524" lon="5.41092">
        <ele>286</ele>
        <time>2026-08-26T12:52:48.000Z</time>
      </trkpt>
      <trkpt lat="46.03536" lon="5.41093">
        <ele>285.79998779297</ele>
        <time>2026-08-26T12:52:57.000Z</time>
      </trkpt>
      <trkpt lat="46.03537" lon="5.41093">
        <ele>285.79998779297</ele>
        <time>2026-08-26T12:52:58.000Z</time>
      </trkpt>
      <trkpt lat="46.03549" lon="5.41095">
        <ele>285.79998779297</ele>
        <time>2026-08-26T12:53:07.000Z</time>
      </trkpt>
      <trkpt lat="46.03558" lon="5.41099">
        <ele>286.20001220703</ele>
        <time>2026-08-26T12:53:16.000Z</time>
      </trkpt>
      <trkpt lat="46.03558" lon="5.41099">
        <ele>286.20001220703</ele>
        <time>2026-08-26T12:53:27.000Z</time>
      </trkpt>
      <trkpt lat="46.03562" lon="5.411">
        <ele>286.39999389648</ele>
        <time>2026-08-26T12:53:32.000Z</time>
      </trkpt>
      <trkpt lat="46.03564" lon="5.411">
        <ele>286.39999389648</ele>
        <time>2026-08-26T12:53:33.000Z</time>
      </trkpt>
      <trkpt lat="46.03572" lon="5.411">
        <ele>286.39999389648</ele>
        <time>2026-08-26T12:53:39.000Z</time>
      </trkpt>
      <trkpt lat="46.03576" lon="5.411">
        <ele>286.39999389648</ele>
        <time>2026-08-26T12:53:42.000Z</time>
      </trkpt>
      <trkpt lat="46.03584" lon="5.411">
        <ele>286.39999389648</ele>
        <time>2026-08-26T12:53:48.000Z</time>
      </trkpt>
      <trkpt lat="46.03593" lon="5.41102">
        <ele>286.60000610352</ele>
        <time>2026-08-26T12:53:54.000Z</time>
      </trkpt>
      <trkpt lat="46.03607" lon="5.41106">
        <ele>286.79998779297</ele>
        <time>2026-08-26T12:54:05.000Z</time>
      </trkpt>
      <trkpt lat="46.03621" lon="5.41112">
        <ele>287.39999389648</ele>
        <time>2026-08-26T12:54:16.000Z</time>
      </trkpt>
      <trkpt lat="46.03629" lon="5.41115">
        <ele>287.39999389648</ele>
        <time>2026-08-26T12:54:22.000Z</time>
      </trkpt>
      <trkpt lat="46.03633" lon="5.41117">
        <ele>287.60000610352</ele>
        <time>2026-08-26T12:54:24.000Z</time>
      </trkpt>
      <trkpt lat="46.03645" lon="5.41122">
        <ele>288.20001220703</ele>
        <time>2026-08-26T12:54:34.000Z</time>
      </trkpt>
      <trkpt lat="46.0365" lon="5.41124">
        <ele>288.60000610352</ele>
        <time>2026-08-26T12:54:38.000Z</time>
      </trkpt>
      <trkpt lat="46.03662" lon="5.41128">
        <ele>289.20001220703</ele>
        <time>2026-08-26T12:54:47.000Z</time>
      </trkpt>
      <trkpt lat="46.03666" lon="5.41129">
        <ele>289.60000610352</ele>
        <time>2026-08-26T12:54:50.000Z</time>
      </trkpt>
      <trkpt lat="46.03676" lon="5.41128">
        <ele>290.39999389648</ele>
        <time>2026-08-26T12:54:58.000Z</time>
      </trkpt>
      <trkpt lat="46.0368" lon="5.41128">
        <ele>290.60000610352</ele>
        <time>2026-08-26T12:55:01.000Z</time>
      </trkpt>
      <trkpt lat="46.03689" lon="5.41128">
        <ele>291.39999389648</ele>
        <time>2026-08-26T12:55:08.000Z</time>
      </trkpt>
      <trkpt lat="46.03691" lon="5.41128">
        <ele>291.79998779297</ele>
        <time>2026-08-26T12:55:10.000Z</time>
      </trkpt>
      <trkpt lat="46.03695" lon="5.41128">
        <ele>292.20001220703</ele>
        <time>2026-08-26T12:55:14.000Z</time>
      </trkpt>
      <trkpt lat="46.03699" lon="5.41129">
        <ele>292.79998779297</ele>
        <time>2026-08-26T12:55:18.000Z</time>
      </trkpt>
      <trkpt lat="46.03702" lon="5.41129">
        <ele>293.20001220703</ele>
        <time>2026-08-26T12:55:20.000Z</time>
      </trkpt>
      <trkpt lat="46.03706" lon="5.4113">
        <ele>293.79998779297</ele>
        <time>2026-08-26T12:55:24.000Z</time>
      </trkpt>
      <trkpt lat="46.03708" lon="5.4113">
        <ele>294.20001220703</ele>
        <time>2026-08-26T12:55:26.000Z</time>
      </trkpt>
      <trkpt lat="46.03714" lon="5.41131">
        <ele>295</ele>
        <time>2026-08-26T12:55:31.000Z</time>
      </trkpt>
      <trkpt lat="46.03721" lon="5.41131">
        <ele>296.20001220703</ele>
        <time>2026-08-26T12:55:38.000Z</time>
      </trkpt>
      <trkpt lat="46.03725" lon="5.41131">
        <ele>296.79998779297</ele>
        <time>2026-08-26T12:55:42.000Z</time>
      </trkpt>
      <trkpt lat="46.03729" lon="5.41131">
        <ele>297.20001220703</ele>
        <time>2026-08-26T12:55:45.000Z</time>
      </trkpt>
      <trkpt lat="46.03732" lon="5.41131">
        <ele>297.60000610352</ele>
        <time>2026-08-26T12:55:48.000Z</time>
      </trkpt>
      <trkpt lat="46.03736" lon="5.41132">
        <ele>298.39999389648</ele>
        <time>2026-08-26T12:55:52.000Z</time>
      </trkpt>
      <trkpt lat="46.03743" lon="5.41136">
        <ele>299.39999389648</ele>
        <time>2026-08-26T12:55:59.000Z</time>
      </trkpt>
      <trkpt lat="46.03743" lon="5.41136">
        <ele>299.60000610352</ele>
        <time>2026-08-26T12:56:00.000Z</time>
      </trkpt>
      <trkpt lat="46.03749" lon="5.4114">
        <ele>300.39999389648</ele>
        <time>2026-08-26T12:56:06.000Z</time>
      </trkpt>
      <trkpt lat="46.03751" lon="5.41141">
        <ele>300.79998779297</ele>
        <time>2026-08-26T12:56:08.000Z</time>
      </trkpt>
      <trkpt lat="46.03757" lon="5.41143">
        <ele>301.60000610352</ele>
        <time>2026-08-26T12:56:13.000Z</time>
      </trkpt>
      <trkpt lat="46.03765" lon="5.41147">
        <ele>302.20001220703</ele>
        <time>2026-08-26T12:56:19.000Z</time>
      </trkpt>
      <trkpt lat="46.03768" lon="5.41148">
        <ele>302.60000610352</ele>
        <time>2026-08-26T12:56:22.000Z</time>
      </trkpt>
      <trkpt lat="46.03776" lon="5.41148">
        <ele>303.39999389648</ele>
        <time>2026-08-26T12:56:29.000Z</time>
      </trkpt>
      <trkpt lat="46.0378" lon="5.41147">
        <ele>303.79998779297</ele>
        <time>2026-08-26T12:56:32.000Z</time>
      </trkpt>
      <trkpt lat="46.03789" lon="5.41145">
        <ele>304.20001220703</ele>
        <time>2026-08-26T12:56:40.000Z</time>
      </trkpt>
      <trkpt lat="46.03797" lon="5.41139">
        <ele>304.79998779297</ele>
        <time>2026-08-26T12:56:48.000Z</time>
      </trkpt>
      <trkpt lat="46.03808" lon="5.41124">
        <ele>305.39999389648</ele>
        <time>2026-08-26T12:56:59.000Z</time>
      </trkpt>
      <trkpt lat="46.03812" lon="5.4112">
        <ele>305.79998779297</ele>
        <time>2026-08-26T12:57:03.000Z</time>
      </trkpt>
      <trkpt lat="46.03817" lon="5.41113">
        <ele>306.20001220703</ele>
        <time>2026-08-26T12:57:08.000Z</time>
      </trkpt>
      <trkpt lat="46.03825" lon="5.41101">
        <ele>306.39999389648</ele>
        <time>2026-08-26T12:57:17.000Z</time>
      </trkpt>
      <trkpt lat="46.03832" lon="5.41089">
        <ele>306.39999389648</ele>
        <time>2026-08-26T12:57:25.000Z</time>
      </trkpt>
      <trkpt lat="46.03833" lon="5.41087">
        <ele>306.39999389648</ele>
        <time>2026-08-26T12:57:26.000Z</time>
      </trkpt>
      <trkpt lat="46.0384" lon="5.41072">
        <ele>306.20001220703</ele>
        <time>2026-08-26T12:57:37.000Z</time>
      </trkpt>
      <trkpt lat="46.03842" lon="5.4107">
        <ele>306.20001220703</ele>
        <time>2026-08-26T12:57:38.000Z</time>
      </trkpt>
      <trkpt lat="46.03847" lon="5.41062">
        <ele>306</ele>
        <time>2026-08-26T12:57:44.000Z</time>
      </trkpt>
      <trkpt lat="46.03849" lon="5.41057">
        <ele>305.79998779297</ele>
        <time>2026-08-26T12:57:47.000Z</time>
      </trkpt>
      <trkpt lat="46.03858" lon="5.41043">
        <ele>305.60000610352</ele>
        <time>2026-08-26T12:57:57.000Z</time>
      </trkpt>
      <trkpt lat="46.03861" lon="5.41037">
        <ele>305.39999389648</ele>
        <time>2026-08-26T12:58:01.000Z</time>
      </trkpt>
      <trkpt lat="46.03864" lon="5.41031">
        <ele>305.39999389648</ele>
        <time>2026-08-26T12:58:05.000Z</time>
      </trkpt>
      <trkpt lat="46.03865" lon="5.41028">
        <ele>305.20001220703</ele>
        <time>2026-08-26T12:58:07.000Z</time>
      </trkpt>
      <trkpt lat="46.03869" lon="5.41017">
        <ele>305.20001220703</ele>
        <time>2026-08-26T12:58:14.000Z</time>
      </trkpt>
      <trkpt lat="46.03871" lon="5.41013">
        <ele>305.20001220703</ele>
        <time>2026-08-26T12:58:17.000Z</time>
      </trkpt>
      <trkpt lat="46.03875" lon="5.41003">
        <ele>305</ele>
        <time>2026-08-26T12:58:23.000Z</time>
      </trkpt>
      <trkpt lat="46.03877" lon="5.41">
        <ele>304.79998779297</ele>
        <time>2026-08-26T12:58:25.000Z</time>
      </trkpt>
      <trkpt lat="46.0388" lon="5.40991">
        <ele>304.79998779297</ele>
        <time>2026-08-26T12:58:30.000Z</time>
      </trkpt>
      <trkpt lat="46.03883" lon="5.40988">
        <ele>304.60000610352</ele>
        <time>2026-08-26T12:58:32.000Z</time>
      </trkpt>
      <trkpt lat="46.03894" lon="5.40975">
        <ele>304.20001220703</ele>
        <time>2026-08-26T12:58:43.000Z</time>
      </trkpt>
      <trkpt lat="46.03903" lon="5.40967">
        <ele>304</ele>
        <time>2026-08-26T12:58:51.000Z</time>
      </trkpt>
      <trkpt lat="46.0391" lon="5.4096">
        <ele>303.79998779297</ele>
        <time>2026-08-26T12:58:58.000Z</time>
      </trkpt>
      <trkpt lat="46.03912" lon="5.40959">
        <ele>303.60000610352</ele>
        <time>2026-08-26T12:58:59.000Z</time>
      </trkpt>
      <trkpt lat="46.03914" lon="5.40957">
        <ele>303.39999389648</ele>
        <time>2026-08-26T12:59:01.000Z</time>
      </trkpt>
      <trkpt lat="46.03917" lon="5.40952">
        <ele>303.39999389648</ele>
        <time>2026-08-26T12:59:05.000Z</time>
      </trkpt>
      <trkpt lat="46.03918" lon="5.40952">
        <ele>303.39999389648</ele>
        <time>2026-08-26T12:59:06.000Z</time>
      </trkpt>
      <trkpt lat="46.03927" lon="5.40946">
        <ele>303.20001220703</ele>
        <time>2026-08-26T12:59:14.000Z</time>
      </trkpt>
      <trkpt lat="46.03928" lon="5.40942">
        <ele>303.20001220703</ele>
        <time>2026-08-26T12:59:16.000Z</time>
      </trkpt>
      <trkpt lat="46.03928" lon="5.40936">
        <ele>302.79998779297</ele>
        <time>2026-08-26T12:59:19.000Z</time>
      </trkpt>
      <trkpt lat="46.03928" lon="5.40934">
        <ele>302.79998779297</ele>
        <time>2026-08-26T12:59:20.000Z</time>
      </trkpt>
      <trkpt lat="46.03928" lon="5.40931">
        <ele>302.60000610352</ele>
        <time>2026-08-26T12:59:21.000Z</time>
      </trkpt>
      <trkpt lat="46.03927" lon="5.4092">
        <ele>302</ele>
        <time>2026-08-26T12:59:26.000Z</time>
      </trkpt>
      <trkpt lat="46.03927" lon="5.40915">
        <ele>301.60000610352</ele>
        <time>2026-08-26T12:59:29.000Z</time>
      </trkpt>
      <trkpt lat="46.03928" lon="5.40903">
        <ele>301</ele>
        <time>2026-08-26T12:59:35.000Z</time>
      </trkpt>
      <trkpt lat="46.03928" lon="5.40896">
        <ele>300.60000610352</ele>
        <time>2026-08-26T12:59:39.000Z</time>
      </trkpt>
      <trkpt lat="46.03929" lon="5.4089">
        <ele>300</ele>
        <time>2026-08-26T12:59:42.000Z</time>
      </trkpt>
      <trkpt lat="46.03928" lon="5.40886">
        <ele>299.79998779297</ele>
        <time>2026-08-26T12:59:44.000Z</time>
      </trkpt>
      <trkpt lat="46.03928" lon="5.40882">
        <ele>299.60000610352</ele>
        <time>2026-08-26T12:59:46.000Z</time>
      </trkpt>
      <trkpt lat="46.03928" lon="5.40879">
        <ele>299.39999389648</ele>
        <time>2026-08-26T12:59:48.000Z</time>
      </trkpt>
      <trkpt lat="46.03929" lon="5.40876">
        <ele>299</ele>
        <time>2026-08-26T12:59:50.000Z</time>
      </trkpt>
      <trkpt lat="46.0393" lon="5.40866">
        <ele>298.39999389648</ele>
        <time>2026-08-26T12:59:56.000Z</time>
      </trkpt>
      <trkpt lat="46.03931" lon="5.40852">
        <ele>297.39999389648</ele>
        <time>2026-08-26T13:00:03.000Z</time>
      </trkpt>
      <trkpt lat="46.03931" lon="5.4085">
        <ele>297.20001220703</ele>
        <time>2026-08-26T13:00:04.000Z</time>
      </trkpt>
      <trkpt lat="46.03933" lon="5.40839">
        <ele>296.20001220703</ele>
        <time>2026-08-26T13:00:10.000Z</time>
      </trkpt>
      <trkpt lat="46.03933" lon="5.40838">
        <ele>296.20001220703</ele>
        <time>2026-08-26T13:00:11.000Z</time>
      </trkpt>
      <trkpt lat="46.03934" lon="5.40831">
        <ele>295.79998779297</ele>
        <time>2026-08-26T13:00:15.000Z</time>
      </trkpt>
      <trkpt lat="46.03934" lon="5.40826">
        <ele>295.60000610352</ele>
        <time>2026-08-26T13:00:17.000Z</time>
      </trkpt>
      <trkpt lat="46.03933" lon="5.40818">
        <ele>295</ele>
        <time>2026-08-26T13:00:21.000Z</time>
      </trkpt>
      <trkpt lat="46.03932" lon="5.40807">
        <ele>294.39999389648</ele>
        <time>2026-08-26T13:00:27.000Z</time>
      </trkpt>
      <trkpt lat="46.03931" lon="5.40803">
        <ele>294</ele>
        <time>2026-08-26T13:00:30.000Z</time>
      </trkpt>
      <trkpt lat="46.03929" lon="5.40795">
        <ele>293.39999389648</ele>
        <time>2026-08-26T13:00:35.000Z</time>
      </trkpt>
      <trkpt lat="46.03927" lon="5.40788">
        <ele>292.79998779297</ele>
        <time>2026-08-26T13:00:39.000Z</time>
      </trkpt>
      <trkpt lat="46.03925" lon="5.40779">
        <ele>292.20001220703</ele>
        <time>2026-08-26T13:00:44.000Z</time>
      </trkpt>
      <trkpt lat="46.03923" lon="5.40774">
        <ele>291.79998779297</ele>
        <time>2026-08-26T13:00:47.000Z</time>
      </trkpt>
      <trkpt lat="46.0392" lon="5.40762">
        <ele>291</ele>
        <time>2026-08-26T13:00:54.000Z</time>
      </trkpt>
      <trkpt lat="46.03919" lon="5.40758">
        <ele>290.60000610352</ele>
        <time>2026-08-26T13:00:56.000Z</time>
      </trkpt>
      <trkpt lat="46.03919" lon="5.40745">
        <ele>289.60000610352</ele>
        <time>2026-08-26T13:01:03.000Z</time>
      </trkpt>
      <trkpt lat="46.03918" lon="5.40744">
        <ele>289.60000610352</ele>
        <time>2026-08-26T13:01:04.000Z</time>
      </trkpt>
      <trkpt lat="46.03918" lon="5.40733">
        <ele>289</ele>
        <time>2026-08-26T13:01:11.000Z</time>
      </trkpt>
      <trkpt lat="46.03916" lon="5.40714">
        <ele>288.79998779297</ele>
        <time>2026-08-26T13:01:21.000Z</time>
      </trkpt>
      <trkpt lat="46.03915" lon="5.40707">
        <ele>288.39999389648</ele>
        <time>2026-08-26T13:01:25.000Z</time>
      </trkpt>
      <trkpt lat="46.03914" lon="5.40697">
        <ele>287.79998779297</ele>
        <time>2026-08-26T13:01:30.000Z</time>
      </trkpt>
      <trkpt lat="46.03914" lon="5.40695">
        <ele>287.39999389648</ele>
        <time>2026-08-26T13:01:33.000Z</time>
      </trkpt>
      <trkpt lat="46.03915" lon="5.40694">
        <ele>287.39999389648</ele>
        <time>2026-08-26T13:01:34.000Z</time>
      </trkpt>
      <trkpt lat="46.03921" lon="5.40684">
        <ele>287.20001220703</ele>
        <time>2026-08-26T13:01:41.000Z</time>
      </trkpt>
      <trkpt lat="46.03924" lon="5.40673">
        <ele>286.79998779297</ele>
        <time>2026-08-26T13:01:48.000Z</time>
      </trkpt>
      <trkpt lat="46.03927" lon="5.40669">
        <ele>286.39999389648</ele>
        <time>2026-08-26T13:01:52.000Z</time>
      </trkpt>
      <trkpt lat="46.03931" lon="5.40668">
        <ele>286.20001220703</ele>
        <time>2026-08-26T13:01:55.000Z</time>
      </trkpt>
      <trkpt lat="46.03949" lon="5.40669">
        <ele>286.60000610352</ele>
        <time>2026-08-26T13:02:08.000Z</time>
      </trkpt>
      <trkpt lat="46.03961" lon="5.40673">
        <ele>286</ele>
        <time>2026-08-26T13:02:18.000Z</time>
      </trkpt>
    </trkseg>
  </trk>
</gpx>